# Wetter Temperatur Luftdruck Luftfeuchtigkeit Sichtweite Windgeschwindigkeit Windrichtung Zeit
1 Clear 16 1014 63 10000 1.03 20 05:32 02.10.2022
2 Clear 17 1015 57 10000 1.03 90 02:49 02.10.2022
3 Clear 15 1020 65 10000 1.03 0 00:39 02.10.2022
4 Clear 15 1020 65 10000 0.51 0 23:36 01.10.2022
5 Clear 16 1020 58 10000 0.51 0 22:25 01.10.2022
6 Clear 23 1018 31 10000 1.18 264 19:58 01.10.2022
7 Clear 27 1019 27 10000 3.6 270 17:46 01.10.2022
8 Clear 28 1019 26 10000 4.63 280 16:28 01.10.2022
9 Clear 28 1019 28 10000 5.14 270 14:19 01.10.2022
10 Rain 27 1021 35 10000 2.57 0 12:35 01.10.2022
11 Clear 26 1017 38 10000 1.34 266 11:57 01.10.2022
12 Clear 26 1022 36 10000 1.54 0 11:18 01.10.2022
13 Clear 24 1022 42 10000 1.54 270 10:30 01.10.2022
14 Clear 24 1022 42 10000 1.54 270 10:30 01.10.2022
15 Clear 22 1022 50 10000 1.03 0 09:26 01.10.2022
16 Clear 20 1022 57 10000 1.54 120 08:40 01.10.2022
17 Clear 19 1017 59 10000 0.82 4 03:55 01.10.2022
18 Clear 15 1021 77 10000 1.03 0 03:28 01.10.2022
19 Clear 18 1020 67 10000 0.51 0 23:30 30.09.2022
20 Clear 19 1020 63 10000 0.89 193 22:19 30.09.2022
21 Clear 20 1019 60 10000 1.03 0 21:22 30.09.2022
22 Clear 20 1021 59 10000 2.57 120 20:42 30.09.2022
23 Clear 22 1019 53 10000 1.03 0 19:30 30.09.2022
24 Clear 26 1018 40 10000 3.09 300 17:27 30.09.2022
25 Clear 26 1014 43 10000 1.34 293 14:55 30.09.2022
26 Clouds 26 1018 41 10000 6.17 270 13:24 30.09.2022
27 Clouds 25 1019 44 10000 4.12 290 11:56 30.09.2022
28 Clear 23 1015 56 10000 1.34 281 09:50 30.09.2022
29 Clear 19 1018 61 10000 1.03 0 08:20 30.09.2022
30 Clear 14 1016 78 10000 0.51 360 04:31 30.09.2022
31 Clear 15 1016 75 10000 0.51 0 02:23 30.09.2022
32 Clear 18 1015 65 10000 1.54 260 22:24 29.09.2022
33 Clear 19 1014 61 10000 1.03 0 21:26 29.09.2022
34 Clouds 20 1014 56 10000 2.06 120 20:26 29.09.2022
35 Clouds 22 1013 46 10000 1.03 210 18:31 29.09.2022
36 Clouds 24 1013 40 10000 4.12 260 16:30 29.09.2022
37 Clouds 24 1013 40 10000 4.12 260 16:30 29.09.2022
38 Clouds 25 1010 42 10000 0.45 314 15:52 29.09.2022
39 Clouds 25 1013 39 10000 5.14 280 15:27 29.09.2022
40 Clouds 24 1013 41 10000 5.14 250 13:28 29.09.2022
41 Clouds 24 1013 41 10000 5.14 250 13:28 29.09.2022
42 Mist 19 1011 80 2500 0.51 0 08:52 29.09.2022
43 Fog 13 1013 93 10000 0 0 05:36 29.09.2022
44 Clouds 14 1012 91 10000 1.03 0 02:44 29.09.2022
45 Clouds 16 1012 85 10000 1.03 130 23:32 28.09.2022
46 Clouds 16 1012 86 10000 3.6 100 22:25 28.09.2022
47 Clouds 16 1011 90 10000 4.12 90 21:28 28.09.2022
48 Rain 16 1012 89 10000 3.6 250 20:18 28.09.2022
49 Clouds 23 1009 46 10000 4.63 290 17:42 28.09.2022
50 Clouds 25 1008 40 10000 4.63 260 14:45 28.09.2022
51 Clouds 25 1008 39 10000 7.72 250 12:40 28.09.2022
52 Clouds 24 1009 38 10000 5.66 240 10:24 28.09.2022
53 Clouds 21 1009 39 10000 4.63 240 08:25 28.09.2022
54 Clear 19 1009 41 10000 3.13 202 06:42 28.09.2022
55 Clear 19 1012 23 10000 2.06 240 01:51 28.09.2022
56 Clear 19 1012 23 10000 2.06 240 01:27 28.09.2022
57 Clouds 23 1010 20 10000 2.9 219 22:50 27.09.2022
58 Clear 19 1011 17 10000 2.06 250 21:24 27.09.2022
59 Clear 20 1011 17 10000 3.09 240 20:37 27.09.2022
60 Clear 21 1010 16 10000 0.51 0 19:47 27.09.2022
61 Clear 24 1010 10 10000 2.06 230 18:25 27.09.2022
62 Clear 28 1009 9 10000 4.63 250 17:42 27.09.2022
63 Clouds 29 1004 7 10000 1.34 200 15:27 27.09.2022
64 Clear 29 1008 10 10000 6.69 240 14:33 27.09.2022
65 Clear 27 1010 14 10000 2.68 215 12:40 27.09.2022
66 Clouds 23 1008 22 10000 0.45 294 10:53 27.09.2022
67 Clouds 20 1009 22 10000 0.89 123 08:46 27.09.2022
68 Clear 11 1013 43 10000 1.03 0 06:27 27.09.2022
69 Clear 12 1014 37 10000 1.03 0 01:45 27.09.2022
70 Clouds 16 1010 26 10000 1.01 139 00:50 27.09.2022
71 Clear 14 1014 32 10000 0.51 0 23:25 26.09.2022
72 Clear 12 1017 36 10000 1.03 0 22:19 26.09.2022
73 Clear 15 1017 30 10000 2.57 120 20:29 26.09.2022
74 Clear 17 1016 25 10000 0.51 0 19:30 26.09.2022
75 Clear 22 1016 16 10000 1.54 280 18:31 26.09.2022
76 Clouds 26 1012 17 10000 0.89 300 15:52 26.09.2022
77 Clear 25 1016 15 10000 2.57 290 13:28 26.09.2022
78 Clear 23 1018 18 10000 2.24 196 11:29 26.09.2022
79 Clear 21 1018 21 10000 1.54 0 10:37 26.09.2022
80 Clear 21 1018 23 10000 1.54 0 10:19 26.09.2022
81 Clear 21 1016 27 10000 1.85 209 09:53 26.09.2022
82 Clear 17 1019 28 10000 1.03 0 09:22 26.09.2022
83 Clear 9 1019 50 10000 0.51 0 06:21 26.09.2022
84 Clear 10 1019 45 10000 1.03 80 02:44 26.09.2022
85 Clear 13 1020 39 10000 1.03 340 23:28 25.09.2022
86 Clear 11 1021 38 10000 1.03 0 21:49 25.09.2022
87 Clear 11 1021 38 10000 1.03 0 21:25 25.09.2022
88 Clear 13 1021 38 10000 0 0 20:38 25.09.2022
89 Clear 15 1020 30 10000 0.51 0 19:30 25.09.2022
90 Clear 19 1020 21 10000 1.54 290 18:34 25.09.2022
91 Clear 23 1020 15 10000 3.09 280 17:41 25.09.2022
92 Clear 22 1019 18 10000 3.09 260 16:21 25.09.2022
93 Clear 23 1019 18 10000 4.12 260 15:35 25.09.2022
94 Clear 22 1020 21 10000 3.6 280 14:20 25.09.2022
95 Clear 19 1021 28 10000 2.06 0 11:53 25.09.2022
96 Clear 15 1022 42 10000 1.03 0 09:48 25.09.2022
97 Clear 10 1022 58 10000 0.51 0 07:45 25.09.2022
98 Clear 7 1021 64 10000 0.51 0 05:29 25.09.2022
99 Clear 11 1021 45 10000 1.54 90 23:37 24.09.2022
100 Clear 11 1021 36 10000 1.05 335 21:50 24.09.2022
101 Clear 12 1021 31 10000 2.57 360 20:34 24.09.2022
102 Clear 15 1019 29 10000 1.03 230 19:20 24.09.2022
103 Clear 18 1016 22 10000 0.45 281 16:57 24.09.2022
104 Clear 18 1016 20 10000 0.89 268 15:54 24.09.2022
105 Clouds 19 1018 19 10000 4.63 270 15:18 24.09.2022
106 Clouds 18 1018 22 10000 6.17 260 13:22 24.09.2022
107 Clouds 17 1018 33 10000 5.14 280 12:25 24.09.2022
108 Clear 14 1017 51 10000 3.18 292 09:59 24.09.2022
109 Clear 14 1019 49 10000 4.12 290 09:21 24.09.2022
110 Clear 12 1018 55 10000 4.12 250 08:40 24.09.2022
111 Clouds 11 1013 66 10000 1.52 336 04:58 24.09.2022
112 Clear 11 1015 60 10000 2.57 270 04:27 24.09.2022
113 Clouds 13 1014 52 10000 4.63 20 23:25 23.09.2022
114 Clouds 13 1014 51 10000 3.6 340 21:41 23.09.2022
115 Clouds 13 1014 50 10000 3.6 340 21:22 23.09.2022
116 Clouds 13 1014 46 10000 3.6 330 20:54 23.09.2022
117 Clouds 15 1014 34 10000 3.09 280 19:20 23.09.2022
118 Clouds 17 1013 31 10000 3.6 300 17:42 23.09.2022
119 Clouds 17 1014 34 10000 2.57 240 13:40 23.09.2022
120 Clouds 13 1016 49 10000 2.06 220 10:22 23.09.2022
121 Clouds 9 1016 68 10000 2.06 220 07:30 23.09.2022
122 Clouds 8 1014 71 10000 2.57 220 02:25 23.09.2022
123 Clouds 10 1014 64 10000 3.6 270 23:29 22.09.2022
124 Clouds 11 1013 61 10000 4.63 290 22:28 22.09.2022
125 Clouds 12 1013 59 10000 5.14 310 21:30 22.09.2022
126 Clouds 12 1012 58 10000 6.17 300 20:23 22.09.2022
127 Clouds 13 1007 69 10000 2.24 323 18:57 22.09.2022
128 Clouds 17 1008 49 10000 6.69 300 15:23 22.09.2022
129 Clouds 15 1008 69 10000 3.6 270 10:48 22.09.2022
130 Clouds 15 1009 66 10000 3.09 280 10:19 22.09.2022
131 Clouds 14 1008 73 10000 2.57 270 07:50 22.09.2022
132 Clouds 13 1008 75 10000 3.09 40 04:38 22.09.2022
133 Clouds 15 1009 70 10000 3.09 80 00:25 22.09.2022
134 Clouds 16 1010 64 10000 4.12 60 22:28 21.09.2022
135 Clouds 17 1010 61 10000 5.66 70 21:18 21.09.2022
136 Clouds 18 1008 55 10000 5.14 40 18:34 21.09.2022
137 Clouds 19 1008 53 10000 4.63 50 17:39 21.09.2022
138 Clouds 21 1008 46 10000 3.6 20 15:35 21.09.2022
139 Clouds 21 1009 49 10000 2.57 330 13:39 21.09.2022
140 Clouds 19 1010 53 10000 2.06 30 11:34 21.09.2022
141 Clouds 18 1006 60 10000 1.34 357 10:52 21.09.2022
142 Clouds 17 1011 56 10000 2.06 250 09:39 21.09.2022
143 Clouds 16 1011 60 10000 2.06 250 08:24 21.09.2022
144 Clear 15 1007 68 10000 1.34 318 02:54 21.09.2022
145 Clear 15 1007 68 10000 0.45 346 02:34 21.09.2022
146 Clear 15 1008 67 10000 0.89 322 01:52 21.09.2022
147 Clear 16 1008 65 10000 2.24 328 23:58 20.09.2022
148 Clear 17 1007 59 10000 2.96 345 21:52 20.09.2022
149 Clear 19 1009 50 10000 6.17 340 20:32 20.09.2022
150 Clouds 23 1004 36 10000 1.34 294 17:54 20.09.2022
151 Clouds 25 1008 35 10000 4.63 250 15:33 20.09.2022
152 Clouds 25 1004 38 10000 2.24 290 14:18 20.09.2022
153 Clouds 23 1010 41 10000 3.09 270 11:29 20.09.2022
154 Clouds 17 1011 61 10000 1.03 0 08:36 20.09.2022
155 Clear 15 1011 68 10000 0 0 07:37 20.09.2022
156 Clear 13 1010 73 10000 1.03 0 04:35 20.09.2022
157 Clear 16 1010 60 10000 1.03 30 01:33 20.09.2022
158 Clear 18 1010 51 10000 1.03 0 22:42 19.09.2022
159 Clear 19 1010 47 10000 1.03 330 21:28 19.09.2022
160 Clear 21 1010 44 10000 1.54 330 20:40 19.09.2022
161 Clouds 23 1009 40 10000 2.57 280 18:45 19.09.2022
162 Clouds 26 1009 38 10000 5.66 260 16:48 19.09.2022
163 Clouds 25 1010 38 10000 3.6 290 13:47 19.09.2022
164 Clouds 23 1006 47 10000 1.34 283 11:57 19.09.2022
165 Clouds 21 1012 55 10000 1.54 0 09:44 19.09.2022
166 Clouds 20 1012 59 10000 2.57 90 08:32 19.09.2022
167 Clear 18 1009 68 10000 1.34 332 03:37 19.09.2022
168 Clear 21 1008 59 10000 3.09 330 00:48 19.09.2022
169 Clear 24 1007 41 10000 3.6 260 22:33 18.09.2022
170 Clear 24 1007 37 10000 3.09 280 21:18 18.09.2022
171 Clear 28 1008 16 10000 3.6 230 19:33 18.09.2022
172 Clear 33 1007 14 10000 5.66 220 17:52 18.09.2022
173 Clear 33 1004 15 10000 5.66 220 16:47 18.09.2022
174 Clear 34 1005 16 10000 7.2 280 14:44 18.09.2022
175 Clear 33 1000 20 10000 2.24 236 13:34 18.09.2022
176 Clear 32 1006 19 10000 4.63 270 12:20 18.09.2022
177 Clear 26 1007 28 10000 1.54 310 09:25 18.09.2022
178 Clear 17 1010 45 10000 1.03 0 01:43 18.09.2022
179 Clear 21 1006 37 10000 1.03 0 01:20 18.09.2022
180 Clear 20 1007 25 10000 1.79 138 22:56 17.09.2022
181 Clear 25 1007 24 10000 1.59 115 20:55 17.09.2022
182 Clear 26 1009 24 10000 1.03 0 19:37 17.09.2022
183 Clear 30 1006 19 10000 2.57 250 18:21 17.09.2022
184 Clear 34 1007 17 10000 6.17 270 14:24 17.09.2022
185 Clear 33 1007 19 10000 3.09 310 13:26 17.09.2022
186 Clear 30 1009 23 10000 2.24 220 10:49 17.09.2022
187 Clear 20 1010 44 10000 0.51 0 07:28 17.09.2022
188 Clear 18 1010 48 10000 1.34 151 06:19 17.09.2022
189 Clear 21 1010 40 10000 1.03 0 23:41 16.09.2022
190 Clear 20 1013 39 10000 1.03 0 22:19 16.09.2022
191 Clear 24 1010 26 10000 0.48 136 20:53 16.09.2022
192 Clear 25 1013 29 10000 0.51 0 19:29 16.09.2022
193 Clear 32 1010 18 10000 2.57 290 16:24 16.09.2022
194 Clear 32 1006 22 10000 0.45 312 14:52 16.09.2022
195 Clear 31 1012 20 10000 4.12 260 13:21 16.09.2022
196 Clear 26 1014 25 10000 2.24 299 10:24 16.09.2022
197 Clear 18 1015 44 10000 1.03 0 07:23 16.09.2022
198 Clear 16 1015 50 10000 1.03 330 06:48 16.09.2022
199 Clear 20 1011 38 10000 0.45 272 05:55 16.09.2022
200 Clear 14 1018 51 10000 1.03 80 01:45 16.09.2022
201 Clear 19 1017 38 10000 1.03 0 21:44 15.09.2022
202 Clear 20 1017 30 10000 1.03 80 20:37 15.09.2022
203 Clear 23 1014 27 10000 1.03 0 19:24 15.09.2022
204 Clear 28 1016 17 10000 3.6 250 17:40 15.09.2022
205 Clear 27 1011 21 10000 0.89 277 17:22 15.09.2022
206 Clear 28 1015 20 10000 4.63 270 15:38 15.09.2022
207 Clouds 26 1012 24 10000 1.34 280 12:50 15.09.2022
208 Clear 24 1016 28 10000 3.6 260 11:48 15.09.2022
209 Clear 20 1017 37 10000 2.06 0 09:44 15.09.2022
210 Clear 12 1016 55 10000 0 0 06:45 15.09.2022
211 Clear 12 1016 55 10000 1.03 260 03:29 15.09.2022
212 Clear 18 1013 37 10000 0.69 285 22:57 14.09.2022
213 Clear 18 1016 33 10000 1.03 0 20:31 14.09.2022
214 Clear 20 1015 29 10000 1.54 220 19:32 14.09.2022
215 Clear 23 1014 22 10000 3.09 240 17:37 14.09.2022
216 Clear 23 1014 22 10000 2.57 260 16:36 14.09.2022
217 Clear 22 1011 27 10000 2.24 250 14:51 14.09.2022
218 Clear 21 1015 28 10000 2.06 0 12:38 14.09.2022
219 Clouds 17 1012 44 10000 0.45 303 09:52 14.09.2022
220 Clear 15 1015 52 10000 1.54 0 08:21 14.09.2022
221 Clear 11 1014 71 10000 2.06 230 06:49 14.09.2022
222 Clear 11 1014 71 10000 2.06 230 06:28 14.09.2022
223 Clear 13 1013 64 10000 3.09 290 02:25 14.09.2022
224 Clear 14 1013 60 10000 2.06 320 01:34 14.09.2022
225 Clear 15 1010 64 10000 2.01 343 00:52 14.09.2022
226 Clear 15 1009 61 10000 0.45 276 23:54 13.09.2022
227 Clear 15 1012 58 10000 2.57 40 23:36 13.09.2022
228 Clear 15 1012 57 10000 2.57 40 23:18 13.09.2022
229 Clear 16 1012 56 10000 5.14 320 22:26 13.09.2022
230 Clear 17 1011 52 10000 3.09 330 21:35 13.09.2022
231 Clear 20 1006 46 10000 2.68 305 18:54 13.09.2022
232 Clouds 24 1007 25 10000 5.66 270 16:34 13.09.2022
233 Clouds 23 1007 24 10000 4.12 270 15:18 13.09.2022
234 Clouds 23 1008 30 10000 3.6 240 13:37 13.09.2022
235 Clouds 19 1009 45 10000 1.54 210 10:20 13.09.2022
236 Clear 16 1004 64 10000 0.45 295 07:54 13.09.2022
237 Clear 14 1008 70 10000 2.06 230 02:20 13.09.2022
238 Clear 16 1008 63 10000 2.06 320 23:22 12.09.2022
239 Clouds 17 1007 61 10000 3.6 340 22:37 12.09.2022
240 Clouds 17 1008 61 10000 2.57 350 21:21 12.09.2022
241 Rain 18 1003 61 10000 2.24 353 19:58 12.09.2022
242 Clouds 21 1004 52 10000 8.75 330 18:22 12.09.2022
243 Clouds 27 1003 39 10000 7.2 280 15:48 12.09.2022
244 Clouds 27 1004 38 10000 4.63 280 12:30 12.09.2022
245 Clouds 26 1005 40 10000 2.57 290 10:30 12.09.2022
246 Clear 20 1006 59 10000 0.51 0 07:33 12.09.2022
247 Clear 17 1007 69 10000 0.51 0 04:35 12.09.2022
248 Clear 22 1003 54 10000 1.58 3 01:53 12.09.2022
249 Clear 23 1008 48 10000 2.57 290 22:46 11.09.2022
250 Clear 24 1008 45 10000 3.09 330 21:25 11.09.2022
251 Clear 23 1011 35 10000 3.6 330 20:44 11.09.2022
252 Clear 26 1010 30 10000 2.57 280 19:39 11.09.2022
253 Clear 27 1007 30 10000 2.57 280 19:18 11.09.2022
254 Clear 30 1008 25 10000 4.12 270 17:28 11.09.2022
255 Clear 31 1008 23 10000 5.14 270 15:51 11.09.2022
256 Clear 31 1010 22 10000 5.66 270 13:22 11.09.2022
257 Clear 28 1011 29 10000 3.09 260 11:25 11.09.2022
258 Clear 21 1012 39 10000 1.03 0 08:19 11.09.2022
259 Clear 18 1010 43 10000 0.51 0 05:19 11.09.2022
260 Clear 17 1015 45 10000 0 0 23:50 10.09.2022
261 Clear 18 1015 39 10000 1.03 0 22:21 10.09.2022
262 Clear 22 1015 30 10000 1.03 0 20:33 10.09.2022
263 Clear 24 1015 24 10000 1.03 0 19:43 10.09.2022
264 Clear 25 1012 25 10000 1.03 0 19:25 10.09.2022
265 Clear 29 1012 18 10000 3.09 230 17:27 10.09.2022
266 Clear 29 1013 19 10000 4.12 250 15:35 10.09.2022
267 Clear 28 1014 21 10000 4.12 270 13:36 10.09.2022
268 Clear 28 1015 22 10000 3.6 270 12:29 10.09.2022
269 Clear 25 1016 27 10000 1.54 0 10:28 10.09.2022
270 Clear 19 1019 39 10000 1.03 0 08:41 10.09.2022
271 Clear 19 1016 41 10000 1.03 0 08:20 10.09.2022
272 Clear 15 1016 52 10000 0.51 0 03:43 10.09.2022
273 Clear 18 1016 40 10000 0.51 0 23:36 09.09.2022
274 Clear 19 1016 39 10000 1.54 110 22:36 09.09.2022
275 Clear 22 1016 31 10000 0.51 0 20:50 09.09.2022
276 Clear 24 1013 28 10000 0.95 346 19:58 09.09.2022
277 Clear 23 1016 29 10000 1.03 0 19:22 09.09.2022
278 Clear 27 1015 22 10000 3.09 330 17:19 09.09.2022
279 Clear 27 1016 24 10000 2.57 0 14:47 09.09.2022
280 Clear 26 1017 26 10000 2.06 350 13:19 09.09.2022
281 Clear 23 1018 35 10000 1.54 90 10:42 09.09.2022
282 Clear 23 1018 35 10000 1.54 90 10:42 09.09.2022
283 Clear 16 1019 47 10000 1.54 40 07:45 09.09.2022
284 Clear 14 1018 50 10000 0.51 0 03:34 09.09.2022
285 Clear 17 1018 37 10000 2.06 110 22:34 08.09.2022
286 Clear 20 1015 29 10000 1.47 52 21:51 08.09.2022
287 Clear 20 1018 29 10000 2.06 100 20:49 08.09.2022
288 Clear 20 1018 30 10000 2.06 100 20:25 08.09.2022
289 Clear 24 1016 22 10000 1.03 0 18:43 08.09.2022
290 Clear 25 1016 21 10000 1.54 240 17:23 08.09.2022
291 Clear 25 1016 23 10000 2.06 280 15:18 08.09.2022
292 Clear 23 1017 29 10000 2.57 0 13:30 08.09.2022
293 Clear 22 1018 31 10000 2.06 70 12:40 08.09.2022
294 Clear 21 1018 36 10000 3.6 70 11:22 08.09.2022
295 Clear 18 1019 46 10000 3.09 110 09:26 08.09.2022
296 Clear 14 1019 60 10000 1.54 280 07:18 08.09.2022
297 Clear 14 1018 59 10000 3.09 70 03:37 08.09.2022
298 Clear 15 1018 58 10000 3.6 70 02:36 08.09.2022
299 Clear 15 1018 57 10000 3.6 70 02:18 08.09.2022
300 Clear 16 1015 52 10000 0.45 37 22:58 07.09.2022
301 Clear 18 1018 40 10000 3.6 50 21:44 07.09.2022
302 Clear 18 1018 39 10000 3.6 50 21:21 07.09.2022
303 Clear 19 1018 37 10000 3.09 80 20:25 07.09.2022
304 Clear 20 1014 39 10000 4.02 106 18:54 07.09.2022
305 Clear 21 1013 35 10000 0.89 301 15:51 07.09.2022
306 Clear 18 1015 44 10000 1.34 52 10:51 07.09.2022
307 Clear 18 1015 46 10000 3.58 77 10:32 07.09.2022
308 Clouds 16 1015 51 10000 1.34 31 08:23 07.09.2022
309 Clouds 14 1017 57 10000 4.12 80 05:33 07.09.2022
310 Clouds 16 1017 57 10000 5.14 50 00:27 07.09.2022
311 Clouds 19 1015 48 10000 5.81 91 21:48 06.09.2022
312 Clouds 19 1015 48 10000 5.66 80 21:30 06.09.2022
313 Clouds 21 1015 39 10000 5.66 60 19:27 06.09.2022
314 Clouds 22 1014 36 10000 4.12 60 18:29 06.09.2022
315 Clouds 23 1014 34 10000 4.12 50 17:23 06.09.2022
316 Clouds 23 1014 34 10000 4.63 90 16:41 06.09.2022
317 Clouds 23 1014 34 10000 4.63 70 15:26 06.09.2022
318 Clouds 22 1015 39 10000 5.14 40 13:47 06.09.2022
319 Clouds 22 1015 39 10000 5.14 40 13:26 06.09.2022
320 Clouds 22 1012 44 10000 2.68 35 12:40 06.09.2022
321 Clouds 21 1012 50 10000 0.89 304 10:52 06.09.2022
322 Clear 19 1012 59 10000 0.89 358 08:56 06.09.2022
323 Clouds 18 1012 61 10000 0.45 20 07:52 06.09.2022
324 Clouds 16 1012 64 10000 0.45 334 05:59 06.09.2022
325 Clear 17 1016 58 10000 3.6 20 00:20 06.09.2022
326 Clear 18 1016 55 10000 7.2 30 22:41 05.09.2022
327 Clear 19 1012 55 10000 1.34 6 20:59 05.09.2022
328 Clouds 20 1011 53 10000 2.24 336 19:56 05.09.2022
329 Clouds 22 1014 43 10000 7.2 340 18:49 05.09.2022
330 Clouds 23 1014 41 10000 7.2 340 18:24 05.09.2022
331 Clouds 25 1013 34 10000 8.75 320 17:35 05.09.2022
332 Clouds 25 1009 38 10000 1.34 325 15:53 05.09.2022
333 Clouds 26 1010 39 10000 2.68 345 13:54 05.09.2022
334 Clouds 24 1014 43 10000 3.09 360 12:29 05.09.2022
335 Clouds 23 1015 49 10000 2.24 303 10:34 05.09.2022
336 Clear 18 1016 65 10000 1.54 250 07:43 05.09.2022
337 Clear 18 1011 66 10000 0.89 320 02:58 05.09.2022
338 Clear 20 1016 59 10000 4.12 20 23:48 04.09.2022
339 Clear 20 1016 54 10000 5.14 340 22:28 04.09.2022
340 Clear 21 1016 53 10000 4.12 320 21:41 04.09.2022
341 Clouds 23 1015 48 10000 6.69 340 19:39 04.09.2022
342 Clouds 25 1014 44 10000 6.17 350 18:21 04.09.2022
343 Clouds 27 1014 38 10000 6.69 340 17:24 04.09.2022
344 Clear 28 1009 38 10000 0.89 303 14:59 04.09.2022
345 Clouds 29 1013 36 10000 4.12 300 14:21 04.09.2022
346 Clouds 27 1016 39 10000 4.12 290 12:24 04.09.2022
347 Clear 26 1011 45 10000 0.45 272 10:58 04.09.2022
348 Clouds 24 1016 52 10000 2.57 280 09:23 04.09.2022
349 Clear 19 1016 68 10000 2.57 310 06:24 04.09.2022
350 Clear 21 1009 68 10000 0.89 288 01:56 04.09.2022
351 Clear 24 1014 56 10000 1.54 30 22:26 03.09.2022
352 Clear 24 1014 56 10000 1.54 30 22:26 03.09.2022
353 Clear 24 1014 56 10000 1.54 30 22:26 03.09.2022
354 Clear 24 1013 55 10000 2.68 345 21:24 03.09.2022
355 Clouds 25 1012 53 10000 6.17 340 20:42 03.09.2022
356 Clouds 30 1010 28 10000 4.12 290 17:36 03.09.2022
357 Clouds 32 1009 26 10000 3.6 270 16:34 03.09.2022
358 Clouds 32 1009 26 10000 3.09 0 14:47 03.09.2022
359 Clouds 32 1010 26 10000 3.09 0 14:27 03.09.2022
360 Clouds 32 1010 24 10000 5.14 270 13:43 03.09.2022
361 Clear 30 1011 34 10000 3.09 250 11:24 03.09.2022
362 Clear 26 1006 47 10000 0.89 228 08:55 03.09.2022
363 Clear 22 1006 51 10000 0.38 75 06:59 03.09.2022
364 Clear 19 1010 59 10000 1.03 0 04:43 03.09.2022
365 Clear 23 1010 45 10000 1.03 0 00:46 03.09.2022
366 Clear 24 1010 42 10000 2.57 120 23:28 02.09.2022
367 Clear 25 1013 33 10000 3.09 220 21:36 02.09.2022
368 Clear 28 1009 29 10000 1.54 220 20:40 02.09.2022
369 Clear 28 1012 24 10000 2.06 270 19:47 02.09.2022
370 Clouds 31 1008 25 10000 2.06 290 18:43 02.09.2022
371 Clouds 31 1008 25 10000 2.06 290 18:24 02.09.2022
372 Clear 33 1004 29 10000 4.13 257 16:51 02.09.2022
373 Clouds 33 1009 24 10000 3.6 290 15:48 02.09.2022
374 Clear 30 1005 38 10000 0.89 288 12:56 02.09.2022
375 Clear 27 1010 48 10000 2.06 150 10:25 02.09.2022
376 Clear 26 1011 52 10000 1.03 0 09:41 02.09.2022
377 Clear 24 1011 59 10000 1.03 0 08:42 02.09.2022
378 Clear 19 1010 75 10000 1.03 0 06:43 02.09.2022
379 Clear 20 1005 71 10000 1.81 44 04:58 02.09.2022
380 Clear 24 1004 62 10000 2.65 13 22:54 01.09.2022
381 Clear 25 1004 60 10000 2.52 15 21:45 01.09.2022
382 Clear 25 1004 58 10000 2.57 18 21:26 01.09.2022
383 Clear 25 1008 51 10000 4.12 320 20:48 01.09.2022
384 Clear 28 1003 32 10000 1.34 244 19:24 01.09.2022
385 Clouds 32 1007 19 10000 4.12 240 17:49 01.09.2022
386 Clouds 32 1007 22 10000 2.68 300 16:41 01.09.2022
387 Clouds 31 1008 27 10000 3.09 280 14:34 01.09.2022
388 Clear 30 1003 38 10000 0.89 267 12:59 01.09.2022
389 Clear 28 1003 44 10000 0.89 302 11:57 01.09.2022
390 Clouds 28 1008 45 10000 2.06 330 11:38 01.09.2022
391 Clouds 28 1008 46 10000 2.68 292 11:18 01.09.2022
392 Clear 25 1003 62 10000 0.89 324 08:53 01.09.2022
393 Clear 19 1008 77 10000 2.06 270 06:26 01.09.2022
394 Clear 21 1007 63 10000 1.03 330 01:45 01.09.2022
395 Clear 22 1008 63 10000 1.03 0 00:19 01.09.2022
396 Clear 25 1008 51 10000 2.57 330 21:45 31.08.2022
397 Clear 28 1008 33 10000 3.6 310 20:22 31.08.2022
398 Clear 32 1007 16 10000 4.12 240 18:19 31.08.2022
399 Clouds 34 1007 15 10000 5.14 250 16:31 31.08.2022
400 Clouds 34 1007 20 10000 4.12 290 14:44 31.08.2022
401 Clouds 33 1008 20 10000 3.6 210 12:24 31.08.2022
402 Clouds 31 1009 32 10000 2.06 0 11:30 31.08.2022
403 Clear 26 1010 42 10000 1.54 220 09:20 31.08.2022
404 Clear 19 1010 57 10000 0.51 0 06:19 31.08.2022
405 Clear 25 1010 31 10000 1.03 0 23:25 30.08.2022
406 Clear 27 1010 22 10000 1.03 0 21:49 30.08.2022
407 Clear 28 1005 22 10000 0.45 127 20:58 30.08.2022
408 Clear 33 1011 15 10000 2.06 270 18:49 30.08.2022
409 Clouds 35 1009 14 10000 3.09 190 15:29 30.08.2022
410 Clouds 34 1010 22 10000 3.09 120 13:25 30.08.2022
411 Clear 32 1011 28 10000 3.09 40 11:22 30.08.2022
412 Clear 32 1006 30 10000 3.58 81 10:57 30.08.2022
413 Clear 24 1011 53 10000 1.54 270 07:46 30.08.2022
414 Clear 22 1012 53 10000 1.03 0 02:34 30.08.2022
415 Clear 25 1012 41 10000 2.57 90 23:22 29.08.2022
416 Clear 26 1012 38 10000 3.6 100 22:28 29.08.2022
417 Clear 27 1012 34 10000 4.12 60 21:26 29.08.2022
418 Clear 29 1007 34 10000 0.45 79 19:54 29.08.2022
419 Clear 31 1007 31 10000 2.24 99 17:54 29.08.2022
420 Clouds 32 1011 27 10000 3.13 84 17:25 29.08.2022
421 Clouds 33 1012 27 10000 2.57 0 16:40 29.08.2022
422 Clouds 32 1013 28 10000 3.09 100 14:47 29.08.2022
423 Clouds 31 1013 31 10000 3.09 0 13:21 29.08.2022
424 Clear 29 1014 38 10000 3.09 90 11:20 29.08.2022
425 Clear 25 1015 51 10000 1.03 0 09:48 29.08.2022
426 Clear 23 1015 57 10000 1.03 270 08:29 29.08.2022
427 Clear 20 1010 65 10000 1.67 46 04:57 29.08.2022
428 Clear 20 1014 67 10000 1.03 0 00:22 29.08.2022
429 Clear 22 1013 61 10000 2.06 90 22:41 28.08.2022
430 Clear 22 1013 59 10000 2.06 100 21:44 28.08.2022
431 Clouds 23 1008 53 10000 2.92 12 20:55 28.08.2022
432 Clouds 23 1012 55 10000 3.6 100 19:26 28.08.2022
433 Clouds 25 1012 50 10000 3.6 130 18:20 28.08.2022
434 Rain 27 1014 38 10000 4.63 90 16:58 28.08.2022
435 Clouds 28 1010 41 10000 6.69 70 16:22 28.08.2022
436 Rain 30 1010 32 10000 2.57 0 14:41 28.08.2022
437 Clouds 31 1011 34 10000 2.57 320 12:32 28.08.2022
438 Clouds 28 1012 46 10000 1.54 290 10:43 28.08.2022
439 Clouds 27 1012 53 10000 1.03 0 09:42 28.08.2022
440 Clouds 24 1012 62 10000 1.03 0 08:37 28.08.2022
441 Clear 22 1012 68 10000 1.03 270 07:42 28.08.2022
442 Clear 21 1012 70 10000 1.03 0 02:31 28.08.2022
443 Clear 23 1011 64 10000 1.03 0 00:26 28.08.2022
444 Clear 24 1011 57 10000 3.6 30 22:34 27.08.2022
445 Clear 26 1011 52 10000 3.09 330 21:28 27.08.2022
446 Clear 27 1010 35 10000 3.09 260 19:40 27.08.2022
447 Clouds 30 1009 32 10000 4.12 250 17:29 27.08.2022
448 Clouds 29 1005 38 10000 0.89 307 15:53 27.08.2022
449 Clouds 30 1009 34 10000 4.63 270 15:24 27.08.2022
450 Clouds 28 1010 47 10000 3.09 300 12:23 27.08.2022
451 Clouds 27 1010 50 10000 3.13 281 11:25 27.08.2022
452 Clear 24 1010 57 10000 2.06 0 09:42 27.08.2022
453 Clear 20 1010 69 10000 1.54 210 07:37 27.08.2022
454 Clear 20 1008 69 10000 3.09 230 02:34 27.08.2022
455 Clouds 21 1003 69 10000 1.6 335 23:55 26.08.2022
456 Clear 21 1008 62 10000 5.14 270 22:31 26.08.2022
457 Clouds 24 1007 57 10000 5.66 290 20:42 26.08.2022
458 Clouds 27 1005 41 10000 6.17 300 19:23 26.08.2022
459 Clouds 30 1004 30 10000 5.14 280 16:46 26.08.2022
460 Clouds 31 1000 26 10000 0.89 203 15:27 26.08.2022
461 Clouds 32 1005 25 10000 2.68 131 14:29 26.08.2022
462 Clouds 30 1006 33 10000 2.57 30 12:47 26.08.2022
463 Clouds 28 1007 41 10000 2.57 350 11:27 26.08.2022
464 Clouds 27 1007 46 10000 2.57 290 10:25 26.08.2022
465 Clear 21 1008 68 10000 2.06 290 07:28 26.08.2022
466 Clear 20 1007 66 10000 2.06 250 01:28 26.08.2022
467 Clear 22 1007 57 10000 2.57 260 23:30 25.08.2022
468 Clear 24 1007 55 10000 2.06 250 21:26 25.08.2022
469 Clouds 25 1006 49 9000 5.14 280 20:26 25.08.2022
470 Clouds 28 1005 35 10000 3.6 260 18:49 25.08.2022
471 Clouds 29 1005 33 10000 4.63 270 17:32 25.08.2022
472 Clouds 29 1001 37 10000 1.34 267 16:50 25.08.2022
473 Clouds 30 1005 37 10000 4.63 250 15:39 25.08.2022
474 Clouds 29 1005 40 10000 4.63 270 14:33 25.08.2022
475 Clear 29 1001 45 10000 4.17 250 11:53 25.08.2022
476 Clouds 26 1006 48 10000 1.54 0 10:46 25.08.2022
477 Clear 23 1002 61 10000 1.47 246 08:52 25.08.2022
478 Clouds 19 1006 77 10000 3.09 250 05:20 25.08.2022
479 Thunderstorm 21 1007 64 10000 3.09 340 00:59 25.08.2022
480 Thunderstorm 23 1007 62 10000 1.54 30 23:26 24.08.2022
481 Clouds 22 1007 65 10000 5.14 300 22:22 24.08.2022
482 Thunderstorm 24 1006 50 10000 8.23 250 21:34 24.08.2022
483 Thunderstorm 25 1008 48 10000 4.63 260 20:32 24.08.2022
484 Rain 30 1008 26 10000 5.14 270 18:57 24.08.2022
485 Clouds 34 1003 17 10000 4.63 80 16:36 24.08.2022
486 Clouds 35 998 20 10000 0.45 58 15:52 24.08.2022
487 Clouds 35 1005 14 10000 4.63 70 13:33 24.08.2022
488 Clouds 33 1006 16 10000 4.12 90 11:29 24.08.2022
489 Clear 30 1007 19 10000 3.6 70 09:33 24.08.2022
490 Clear 27 1002 27 10000 2.56 71 07:50 24.08.2022
491 Clear 23 1007 35 10000 1.34 23 02:29 24.08.2022
492 Clear 28 1008 25 10000 4.63 80 23:26 23.08.2022
493 Clear 28 1008 25 10000 4.63 70 22:30 23.08.2022
494 Clear 29 1008 24 10000 2.24 75 21:28 23.08.2022
495 Clouds 31 1003 21 10000 3.82 36 19:57 23.08.2022
496 Clouds 33 1007 17 10000 5.14 60 18:33 23.08.2022
497 Clouds 34 1006 16 10000 4.63 60 17:48 23.08.2022
498 Clouds 34 1001 19 10000 1.34 77 16:50 23.08.2022
499 Clouds 35 1007 15 10000 3.09 50 15:23 23.08.2022
500 Clouds 34 1007 15 10000 4.63 80 13:26 23.08.2022
501 Clouds 34 1007 15 10000 4.63 80 13:26 23.08.2022
502 Clear 33 1008 19 10000 6.17 90 11:24 23.08.2022
503 Rain 31 1008 21 10000 6.17 90 10:36 23.08.2022
504 Clear 31 1003 25 10000 4.02 108 09:52 23.08.2022
505 Clear 30 1003 29 10000 2.24 75 08:51 23.08.2022
506 Clear 27 1008 35 10000 0.51 0 08:20 23.08.2022
507 Clear 24 1008 43 10000 1.54 280 07:34 23.08.2022
508 Clear 22 1007 49 10000 0.51 0 06:27 23.08.2022
509 Clear 23 1007 44 10000 1.03 0 03:24 23.08.2022
510 Clouds 25 1007 38 10000 1.03 0 00:28 23.08.2022
511 Clouds 27 1007 34 10000 3.09 360 23:33 22.08.2022
512 Clouds 28 1007 30 10000 4.63 350 22:44 22.08.2022
513 Clouds 29 1006 27 10000 3.6 310 21:25 22.08.2022
514 Clouds 31 1005 21 10000 5.14 70 19:47 22.08.2022
515 Clouds 32 1005 20 10000 4.63 60 18:45 22.08.2022
516 Clouds 33 999 20 10000 3.04 245 17:18 22.08.2022
517 Clouds 34 1004 17 10000 2.06 0 15:39 22.08.2022
518 Clouds 34 1004 17 10000 2.06 0 15:39 22.08.2022
519 Clouds 34 1005 19 10000 3.09 40 13:47 22.08.2022
520 Clouds 31 1006 29 10000 1.54 220 10:38 22.08.2022
521 Clear 26 1001 45 10000 1.61 86 07:59 22.08.2022
522 Clear 20 1005 57 10000 0.51 0 04:22 22.08.2022
523 Clear 23 1004 47 10000 0.51 0 00:41 22.08.2022
524 Clear 23 1005 47 10000 0.51 0 00:22 22.08.2022
525 Clear 25 1004 41 10000 1.54 130 22:20 21.08.2022
526 Clear 26 1004 38 10000 2.06 130 21:23 21.08.2022
527 Clear 27 1004 36 10000 1.03 0 20:36 21.08.2022
528 Clear 30 1003 29 10000 2.06 300 19:25 21.08.2022
529 Clouds 32 1003 26 10000 2.57 260 17:24 21.08.2022
530 Clouds 31 999 31 10000 4.33 302 15:53 21.08.2022
531 Clouds 32 1004 27 10000 2.57 320 15:20 21.08.2022
532 Clouds 32 1004 30 10000 3.6 20 13:52 21.08.2022
533 Clouds 31 1005 30 10000 3.6 20 13:26 21.08.2022
534 Clouds 29 1006 38 10000 2.57 350 11:34 21.08.2022
535 Clouds 27 1007 47 10000 1.54 0 09:31 21.08.2022
536 Clear 25 1002 56 10000 1.91 113 08:56 21.08.2022
537 Clouds 25 1007 53 10000 2.06 90 08:38 21.08.2022
538 Clear 23 1007 59 10000 3.09 100 07:26 21.08.2022
539 Clear 20 1007 62 10000 1.03 0 03:40 21.08.2022
540 Clear 23 1007 51 10000 1.54 190 00:22 21.08.2022
541 Clear 25 1007 48 10000 1.03 0 22:37 20.08.2022
542 Clear 26 1007 43 10000 4.12 20 21:34 20.08.2022
543 Clear 27 1007 38 10000 3.09 310 20:28 20.08.2022
544 Clouds 27 1007 36 10000 2.57 300 19:40 20.08.2022
545 Clouds 29 1006 32 10000 2.57 300 18:29 20.08.2022
546 Clouds 30 1006 30 10000 3.6 310 17:40 20.08.2022
547 Clouds 31 1006 28 10000 3.6 300 16:49 20.08.2022
548 Clouds 31 1007 31 10000 5.14 240 15:26 20.08.2022
549 Clear 29 1003 40 10000 2.68 313 12:52 20.08.2022
550 Clouds 27 1008 42 10000 2.06 190 11:47 20.08.2022
551 Clouds 25 1010 51 10000 2.06 270 09:33 20.08.2022
552 Clear 23 1010 57 10000 1.03 0 08:29 20.08.2022
553 Clear 19 1005 73 10000 0.89 331 05:51 20.08.2022
554 Clear 21 1004 67 10000 0.89 322 00:58 20.08.2022
555 Clear 21 1004 67 10000 0.89 322 00:58 20.08.2022
556 Clear 21 1004 66 10000 1.34 310 00:30 20.08.2022
557 Clear 22 1004 63 10000 1.34 351 22:59 19.08.2022
558 Clear 23 1009 56 10000 5.14 340 21:40 19.08.2022
559 Clouds 25 1004 51 10000 0.45 338 19:54 19.08.2022
560 Clouds 30 1007 30 10000 4.63 310 16:47 19.08.2022
561 Clear 30 1002 33 10000 1.34 290 14:54 19.08.2022
562 Clouds 29 1008 32 10000 4.12 270 12:49 19.08.2022
563 Clouds 27 1009 42 10000 2.24 308 10:44 19.08.2022
564 Clear 26 1004 46 10000 0.89 333 09:59 19.08.2022
565 Clear 18 1009 62 10000 1.03 0 05:30 19.08.2022
566 Clear 22 1009 52 10000 2.06 250 00:48 19.08.2022
567 Clear 22 1009 51 10000 2.06 250 00:23 19.08.2022
568 Clear 23 1009 45 10000 2.57 330 23:28 18.08.2022
569 Clear 24 1009 44 10000 5.14 340 22:37 18.08.2022
570 Clear 25 1005 46 10000 2.24 349 21:53 18.08.2022
571 Clear 25 1009 42 10000 3.6 30 21:23 18.08.2022
572 Clear 27 1004 36 10000 2.24 344 19:55 18.08.2022
573 Clouds 28 1008 29 10000 5.14 340 19:25 18.08.2022
574 Clouds 32 1007 22 10000 3.09 300 17:49 18.08.2022
575 Clouds 32 1007 21 10000 3.6 300 16:55 18.08.2022
576 Clouds 31 1006 28 10000 2.06 0 14:42 18.08.2022
577 Clouds 31 1006 29 10000 2.06 0 14:19 18.08.2022
578 Clouds 30 1009 32 10000 2.06 0 12:46 18.08.2022
579 Clouds 29 1009 37 10000 1.54 0 11:31 18.08.2022
580 Clear 26 1010 46 10000 1.03 0 09:43 18.08.2022
581 Clear 24 1010 49 10000 1.34 300 08:37 18.08.2022
582 Clear 21 1010 56 10000 1.03 0 07:18 18.08.2022
583 Clear 19 1010 61 10000 0.51 0 03:23 18.08.2022
584 Clear 23 1010 52 10000 1.03 0 23:30 17.08.2022
585 Clear 25 1009 43 10000 3.6 360 21:39 17.08.2022
586 Clear 27 1004 41 10000 1.34 335 19:59 17.08.2022
587 Clear 28 1008 34 10000 5.14 340 19:28 17.08.2022
588 Clear 31 1008 26 10000 2.06 0 17:32 17.08.2022
589 Clouds 31 1008 24 10000 3.6 310 16:22 17.08.2022
590 Clouds 31 1008 22 10000 3.09 250 15:22 17.08.2022
591 Clear 29 1005 28 10000 0.89 279 12:54 17.08.2022
592 Clouds 28 1010 31 10000 4.12 260 11:36 17.08.2022
593 Clouds 28 1010 31 10000 4.12 260 11:36 17.08.2022
594 Clear 25 1011 50 10000 2.06 320 09:31 17.08.2022
595 Clear 23 1006 57 10000 0.99 36 07:55 17.08.2022
596 Clear 19 1011 67 10000 0 0 02:24 17.08.2022
597 Clear 22 1011 56 10000 2.06 140 23:49 16.08.2022
598 Clear 23 1011 53 10000 1.54 300 22:30 16.08.2022
599 Clear 25 1008 35 10000 0.45 280 20:52 16.08.2022
600 Clear 26 1011 30 10000 3.09 230 19:53 16.08.2022
601 Clear 28 1011 28 10000 4.63 260 18:34 16.08.2022
602 Clear 29 1011 26 10000 3.6 260 17:41 16.08.2022
603 Clear 29 1007 32 10000 1.34 288 15:47 16.08.2022
604 Clear 28 1007 31 10000 3.13 295 14:55 16.08.2022
605 Clear 29 1007 32 10000 0.45 316 14:37 16.08.2022
606 Clear 27 1008 36 10000 1.34 320 12:44 16.08.2022
607 Clouds 25 1012 46 10000 2.57 290 10:37 16.08.2022
608 Clear 23 1012 54 10000 2.06 0 09:44 16.08.2022
609 Clear 21 1012 64 10000 2.06 270 08:45 16.08.2022
610 Clear 19 1012 72 10000 2.06 220 07:33 16.08.2022
611 Clear 19 1010 72 10000 2.06 280 01:42 16.08.2022
612 Clear 21 1009 66 10000 3.09 230 22:30 15.08.2022
613 Clear 21 1009 66 10000 3.09 230 22:30 15.08.2022
614 Clear 22 1004 66 10000 1.34 245 21:54 15.08.2022
615 Clear 23 1004 62 10000 1.34 246 20:52 15.08.2022
616 Clear 23 1008 61 10000 3.09 280 20:19 15.08.2022
617 Clear 23 1008 61 10000 3.09 280 20:19 15.08.2022
618 Clouds 25 1006 50 10000 5.66 270 18:41 15.08.2022
619 Clouds 25 1009 60 10000 4.63 290 17:36 15.08.2022
620 Clouds 22 1009 85 10000 2.06 260 16:21 15.08.2022
621 Clouds 30 999 40 10000 2.24 226 13:57 15.08.2022
622 Clouds 29 1004 44 10000 4.12 280 12:37 15.08.2022
623 Clouds 29 1004 44 10000 4.12 280 12:37 15.08.2022
624 Clouds 27 1004 48 10000 3.09 270 10:18 15.08.2022
625 Clouds 24 1004 55 10000 3.09 250 08:42 15.08.2022
626 Clouds 21 1004 65 10000 0.51 0 06:27 15.08.2022
627 Clouds 21 1004 63 10000 3.6 280 02:40 15.08.2022
628 Clouds 26 1002 44 10000 2.57 120 22:40 14.08.2022
629 Clouds 26 1003 45 10000 1.03 100 21:39 14.08.2022
630 Clouds 27 1002 44 10000 1.54 120 20:24 14.08.2022
631 Clouds 28 1002 42 10000 3.09 100 19:32 14.08.2022
632 Clouds 29 1002 37 10000 2.06 160 18:20 14.08.2022
633 Clouds 30 1002 36 10000 3.09 290 17:22 14.08.2022
634 Thunderstorm 31 1001 31 10000 3.6 250 15:51 14.08.2022
635 Clouds 32 1003 28 10000 2.57 270 14:38 14.08.2022
636 Clouds 32 1004 29 10000 3.6 270 13:50 14.08.2022
637 Clouds 32 1004 29 10000 3.6 270 13:24 14.08.2022
638 Clouds 31 1004 32 10000 3.6 80 12:34 14.08.2022
639 Clouds 30 1005 33 10000 1.54 0 11:20 14.08.2022
640 Clear 25 1001 54 10000 0.89 277 08:56 14.08.2022
641 Clear 19 1006 73 10000 2.06 240 06:23 14.08.2022
642 Clear 19 1006 73 10000 2.06 240 06:23 14.08.2022
643 Clear 21 1006 64 10000 3.6 110 04:21 14.08.2022
644 Clouds 22 1008 56 10000 6.17 260 00:42 14.08.2022
645 Clouds 22 1003 61 10000 2.68 318 22:56 13.08.2022
646 Rain 22 1012 60 10000 7.72 300 21:55 13.08.2022
647 Clouds 25 1005 50 10000 7.72 320 20:49 13.08.2022
648 Clouds 26 1003 48 10000 6.69 280 19:46 13.08.2022
649 Clouds 31 1004 26 10000 1.54 240 18:19 13.08.2022
650 Clouds 31 1000 30 10000 1.31 314 15:57 13.08.2022
651 Clouds 31 1006 27 10000 2.06 0 14:41 13.08.2022
652 Clouds 31 1006 27 10000 3.09 290 13:48 13.08.2022
653 Clouds 31 1006 26 10000 3.09 290 13:23 13.08.2022
654 Clear 28 1008 36 10000 2.68 332 10:44 13.08.2022
655 Rain 26 1009 45 10000 3.09 70 09:22 13.08.2022
656 Clouds 20 1009 69 10000 1.03 0 06:26 13.08.2022
657 Clear 24 1009 53 10000 3.09 80 00:44 13.08.2022
658 Clear 25 1009 48 10000 1.54 220 22:37 12.08.2022
659 Clear 26 1009 43 10000 4.63 330 21:35 12.08.2022
660 Clouds 28 1009 34 10000 2.06 290 19:46 12.08.2022
661 Clouds 29 1009 32 10000 2.06 290 19:22 12.08.2022
662 Clouds 30 1004 33 10000 0.89 297 17:59 12.08.2022
663 Clouds 31 1009 28 10000 3.09 290 16:25 12.08.2022
664 Clouds 30 1005 34 10000 0.89 298 14:50 12.08.2022
665 Clouds 30 1010 32 10000 3.09 30 13:26 12.08.2022
666 Clouds 28 1011 39 10000 2.24 288 11:40 12.08.2022
667 Clear 22 1012 54 10000 2.06 250 08:50 12.08.2022
668 Clear 20 1012 60 10000 2.06 230 07:45 12.08.2022
669 Clear 19 1007 65 10000 1.8 350 04:55 12.08.2022
670 Clear 20 1011 56 10000 2.57 30 00:31 12.08.2022
671 Clear 21 1007 57 10000 0.45 33 23:52 11.08.2022
672 Clear 21 1011 52 10000 5.14 40 22:42 11.08.2022
673 Clear 22 1006 55 10000 0.45 344 21:53 11.08.2022
674 Clear 22 1006 53 10000 1.34 2 21:26 11.08.2022
675 Clear 24 1010 47 10000 5.14 330 20:30 11.08.2022
676 Clear 25 1009 43 10000 7.72 330 19:33 11.08.2022
677 Clear 27 1008 36 10000 6.69 340 18:41 11.08.2022
678 Clear 29 1008 30 10000 4.63 280 16:46 11.08.2022
679 Clear 29 1008 28 10000 3.6 330 15:42 11.08.2022
680 Clear 29 1009 27 10000 5.14 340 14:31 11.08.2022
681 Clouds 27 1005 33 10000 4.01 316 11:53 11.08.2022
682 Clear 23 1010 43 10000 2.57 340 08:48 11.08.2022
683 Clouds 21 1005 56 10000 2.28 332 05:57 11.08.2022
684 Clear 21 1009 47 10000 2.57 20 02:33 11.08.2022
685 Clouds 23 1004 55 10000 1.34 284 22:59 10.08.2022
686 Clouds 23 1008 52 10000 4.12 40 21:46 10.08.2022
687 Clouds 24 1003 57 10000 1.34 82 20:56 10.08.2022
688 Clouds 24 1008 49 10000 4.12 350 20:27 10.08.2022
689 Clouds 26 1007 46 10000 7.2 340 18:48 10.08.2022
690 Clouds 27 1006 48 10000 7.72 320 17:27 10.08.2022
691 Clouds 31 1006 33 10000 2.06 0 14:36 10.08.2022
692 Clouds 30 1007 35 10000 2.06 0 13:32 10.08.2022
693 Clouds 27 1007 46 10000 2.06 260 10:47 10.08.2022
694 Clouds 24 1008 54 10000 1.54 250 08:37 10.08.2022
695 Clouds 23 1008 57 10000 1.03 0 07:35 10.08.2022
696 Clear 20 1008 70 10000 0 0 04:50 10.08.2022
697 Clear 21 1007 62 10000 1.54 340 01:33 10.08.2022
698 Clear 23 1008 56 10000 2.06 330 23:31 09.08.2022
699 Clear 25 1003 47 10000 0.89 355 21:58 09.08.2022
700 Clear 25 1008 47 10000 4.12 310 21:23 09.08.2022
701 Clear 27 1007 45 10000 4.63 330 19:18 09.08.2022
702 Clouds 29 1002 39 10000 1.34 306 17:37 09.08.2022
703 Clouds 29 1002 40 10000 0.89 307 17:19 09.08.2022
704 Clouds 30 1007 36 10000 6.17 340 16:23 09.08.2022
705 Clouds 30 1007 33 10000 4.63 70 15:23 09.08.2022
706 Clouds 28 1009 33 10000 3.6 30 11:30 09.08.2022
707 Clear 25 1004 48 10000 0.89 269 08:53 09.08.2022
708 Clear 25 1005 48 10000 1.49 61 07:58 09.08.2022
709 Clear 21 1009 59 10000 2.06 110 05:25 09.08.2022
710 Clear 23 1004 59 10000 0.89 75 00:59 09.08.2022
711 Clear 23 1004 59 10000 0.89 75 00:59 09.08.2022
712 Clear 25 1009 47 10000 4.12 50 23:25 08.08.2022
713 Clear 24 1009 46 10000 2.68 106 22:45 08.08.2022
714 Clear 25 1008 38 10000 2.57 130 21:47 08.08.2022
715 Clear 27 1008 31 10000 2.57 80 20:43 08.08.2022
716 Clouds 28 1008 28 10000 3.09 70 19:39 08.08.2022
717 Clouds 30 1007 25 10000 4.63 80 18:19 08.08.2022
718 Clouds 31 1003 30 10000 2.24 341 15:55 08.08.2022
719 Clouds 31 1008 29 10000 3.6 90 15:37 08.08.2022
720 Clouds 28 1009 34 10000 3.6 40 12:31 08.08.2022
721 Rain 26 1009 48 10000 3.6 80 10:37 08.08.2022
722 Clouds 22 1005 66 10000 1.34 320 07:59 08.08.2022
723 Clouds 21 1008 69 10000 3.6 80 04:31 08.08.2022
724 Clouds 22 1008 62 10000 4.12 80 01:29 08.08.2022
725 Clouds 24 1007 55 10000 4.12 350 21:42 07.08.2022
726 Clouds 24 1007 54 10000 4.12 350 21:24 07.08.2022
727 Clouds 25 1006 56 10000 1.03 0 20:24 07.08.2022
728 Clouds 25 1002 55 10000 0.45 316 19:52 07.08.2022
729 Clouds 25 1005 56 10000 2.06 140 19:22 07.08.2022
730 Thunderstorm 29 1008 36 10000 6.17 30 17:45 07.08.2022
731 Clouds 27 1000 43 10000 3.58 343 16:52 07.08.2022
732 Clouds 31 1005 36 10000 2.57 30 15:40 07.08.2022
733 Clouds 29 1005 40 10000 2.57 20 14:27 07.08.2022
734 Clouds 28 1006 46 10000 3.09 0 12:41 07.08.2022
735 Clear 25 1002 61 10000 0.45 358 10:53 07.08.2022
736 Clouds 25 1007 57 10000 4.63 60 10:21 07.08.2022
737 Clouds 20 1005 90 10000 1.03 0 04:38 07.08.2022
738 Clouds 21 1006 87 10000 1.03 0 02:25 07.08.2022
739 Thunderstorm 21 1007 93 10000 2.57 310 22:39 06.08.2022
740 Rain 20 1005 91 10000 2.06 360 22:18 06.08.2022
741 Rain 25 1005 57 10000 4.63 40 19:46 06.08.2022
742 Clouds 24 1000 71 10000 0.45 237 18:50 06.08.2022
743 Clouds 30 1007 40 10000 8.75 10 17:48 06.08.2022
744 Clouds 33 1004 32 10000 3.09 40 16:29 06.08.2022
745 Clear 32 1000 36 10000 0.45 345 13:51 06.08.2022
746 Clouds 31 1006 38 10000 3.6 60 12:38 06.08.2022
747 Clouds 30 1006 42 10000 3.09 0 11:21 06.08.2022
748 Clear 27 1007 50 10000 4.12 50 09:41 06.08.2022
749 Clear 23 1007 63 10000 4.63 60 07:35 06.08.2022
750 Clear 23 1003 67 10000 2.24 51 01:59 06.08.2022
751 Clear 26 1008 55 10000 3.6 50 22:37 05.08.2022
752 Clouds 26 1003 56 10000 2.68 31 21:34 05.08.2022
753 Clear 29 1008 43 10000 7.72 50 19:22 05.08.2022
754 Clouds 31 1007 39 10000 7.2 40 18:44 05.08.2022
755 Clouds 34 1007 29 10000 3.09 100 16:55 05.08.2022
756 Clouds 34 1007 29 10000 3.09 100 16:37 05.08.2022
757 Clouds 33 1006 29 10000 3.09 360 15:19 05.08.2022
758 Clouds 32 1008 31 10000 3.6 0 13:39 05.08.2022
759 Clouds 32 1008 31 10000 3.6 0 13:20 05.08.2022
760 Clear 31 1009 33 10000 3.6 70 12:23 05.08.2022
761 Clouds 29 1010 43 10000 5.14 50 10:25 05.08.2022
762 Clouds 25 1005 65 10000 1.34 11 07:58 05.08.2022
763 Clouds 25 1005 65 10000 1.34 11 07:58 05.08.2022
764 Clouds 23 1010 70 10000 3.6 60 05:25 05.08.2022
765 Clouds 24 1008 68 10000 1.54 360 23:50 04.08.2022
766 Clouds 23 1006 74 10000 1.34 1 21:58 04.08.2022
767 Rain 25 1011 69 10000 4.12 340 21:25 04.08.2022
768 Rain 27 1009 49 10000 4.12 80 20:41 04.08.2022
769 Clouds 27 1009 50 10000 4.12 50 19:21 04.08.2022
770 Rain 29 1012 38 10000 3.6 170 18:34 04.08.2022
771 Clouds 33 1008 28 10000 2.57 300 17:28 04.08.2022
772 Clouds 32 1010 32 10000 2.68 66 13:35 04.08.2022
773 Clouds 29 1010 43 10000 3.09 60 11:47 04.08.2022
774 Clouds 28 1011 46 10000 4.12 50 10:48 04.08.2022
775 Clouds 24 1006 62 10000 1.34 315 07:51 04.08.2022
776 Rain 22 1011 65 10000 3.09 90 04:30 04.08.2022
777 Clear 23 1011 59 10000 5.14 60 02:20 04.08.2022
778 Clear 25 1011 46 10000 3.09 40 23:43 03.08.2022
779 Clear 27 1010 42 10000 3.6 70 21:50 03.08.2022
780 Clear 28 1009 40 10000 5.14 60 20:37 03.08.2022
781 Clear 30 1009 36 10000 5.14 340 19:29 03.08.2022
782 Clear 31 1004 34 10000 1.34 358 17:58 03.08.2022
783 Clouds 32 1008 31 10000 2.57 60 16:24 03.08.2022
784 Clouds 31 1010 34 10000 3.09 290 14:44 03.08.2022
785 Clouds 28 1006 44 10000 0.89 317 11:53 03.08.2022
786 Clear 23 1011 59 10000 3.09 70 08:20 03.08.2022
787 Clear 19 1010 69 10000 1.54 240 04:47 03.08.2022
788 Clear 19 1010 65 10000 1.03 0 03:28 03.08.2022
789 Clear 21 1010 60 10000 3.09 30 01:18 03.08.2022
790 Clear 21 1010 60 10000 3.09 30 01:18 03.08.2022
791 Clear 21 1010 60 10000 3.09 30 01:18 03.08.2022
792 Clear 23 1005 57 10000 0.45 340 22:59 02.08.2022
793 Clear 24 1004 55 10000 2.24 333 21:53 02.08.2022
794 Clear 24 1009 50 10000 4.12 350 21:21 02.08.2022
795 Clouds 30 1002 33 10000 3.78 330 18:52 02.08.2022
796 Clouds 31 1007 31 10000 3.09 0 16:24 02.08.2022
797 Clouds 29 1008 38 10000 3.09 0 12:34 02.08.2022
798 Clouds 25 1009 50 10000 2.57 280 09:34 02.08.2022
799 Clouds 23 1003 60 10000 2.06 341 07:56 02.08.2022
800 Clear 20 1008 62 10000 1.54 260 06:43 02.08.2022
801 Clear 21 1003 67 10000 1.34 314 04:55 02.08.2022
802 Clear 23 1003 63 10000 2.33 344 23:52 01.08.2022
803 Clear 25 1007 56 10000 7.72 320 22:36 01.08.2022
804 Clear 26 1006 49 10000 4.63 340 20:53 01.08.2022
805 Clouds 29 1005 42 10000 5.14 330 19:34 01.08.2022
806 Clouds 32 1008 26 10000 6.17 270 18:42 01.08.2022
807 Clouds 32 1008 26 10000 6.17 270 18:42 01.08.2022
808 Clear 32 999 30 10000 2.68 315 16:54 01.08.2022
809 Clouds 33 1004 27 10000 4.12 290 16:28 01.08.2022
810 Clouds 32 1005 29 10000 2.57 180 15:30 01.08.2022
811 Clouds 32 1005 29 10000 2.57 260 14:43 01.08.2022
812 Clear 31 1000 36 10000 1.34 301 12:51 01.08.2022
813 Clear 29 1006 39 10000 2.06 30 10:29 01.08.2022
814 Clear 26 1006 51 10000 0.51 0 08:39 01.08.2022
815 Clear 21 1006 68 10000 2.06 230 06:21 01.08.2022
816 Clear 21 1006 69 10000 0.51 0 04:24 01.08.2022
817 Clear 24 1000 61 10000 1.34 332 00:55 01.08.2022
818 Clear 25 1005 52 10000 2.57 230 22:42 31.07.2022
819 Clear 27 1005 42 10000 2.57 310 21:35 31.07.2022
820 Clear 29 1006 32 10000 3.78 6 19:58 31.07.2022
821 Clear 33 1004 19 10000 4.63 310 18:36 31.07.2022
822 Clear 33 999 22 10000 3.13 302 16:18 31.07.2022
823 Clear 32 1000 26 10000 0.89 269 13:53 31.07.2022
824 Clear 31 1006 28 10000 2.06 60 12:29 31.07.2022
825 Clear 30 1006 32 10000 2.57 140 10:22 31.07.2022
826 Clear 26 1008 43 10000 2.06 70 08:19 31.07.2022
827 Clear 19 1008 58 10000 0 0 04:30 31.07.2022
828 Clear 24 1008 37 10000 1.03 0 00:23 31.07.2022
829 Clear 26 1009 28 10000 1.54 0 22:19 30.07.2022
830 Clear 27 1004 27 10000 3.26 52 21:50 30.07.2022
831 Clear 27 1008 27 10000 1.03 190 21:20 30.07.2022
832 Clear 29 1009 24 10000 3.43 20 19:59 30.07.2022
833 Clear 31 1007 21 10000 5.66 70 19:20 30.07.2022
834 Clear 34 1007 17 10000 4.12 250 17:45 30.07.2022
835 Clear 34 1007 17 10000 3.6 250 16:21 30.07.2022
836 Clear 34 1008 19 10000 3.6 300 15:27 30.07.2022
837 Clear 33 1008 23 10000 2.57 30 13:21 30.07.2022
838 Clear 31 1009 25 10000 3.09 70 12:20 30.07.2022
839 Clear 28 1010 29 10000 2.06 0 10:36 30.07.2022
840 Clear 27 1005 35 10000 0.45 338 09:59 30.07.2022
841 Clear 26 1010 37 10000 1.03 0 08:44 30.07.2022
842 Clear 22 1005 53 10000 1.93 47 06:50 30.07.2022
843 Clear 23 1009 47 10000 5.14 80 02:33 30.07.2022
844 Clear 26 1005 27 10000 0.45 329 22:57 29.07.2022
845 Clear 28 1010 20 10000 3.6 70 21:30 29.07.2022
846 Clear 28 1005 19 10000 3.03 33 20:50 29.07.2022
847 Clear 31 1009 18 10000 4.12 70 19:29 29.07.2022
848 Clear 34 1009 15 10000 3.13 0 16:44 29.07.2022
849 Clear 34 1010 17 10000 3.13 330 14:23 29.07.2022
850 Clear 32 1011 21 10000 3.09 0 12:32 29.07.2022
851 Clear 26 1007 41 10000 1.34 281 08:51 29.07.2022
852 Clear 25 1012 37 10000 5.14 70 08:21 29.07.2022
853 Clear 21 1007 56 10000 2.35 60 03:55 29.07.2022
854 Clear 25 1011 32 10000 2.57 110 23:30 28.07.2022
855 Clear 27 1011 23 10000 2.57 10 21:31 28.07.2022
856 Clear 28 1006 24 10000 0.89 127 20:50 28.07.2022
857 Clear 29 1010 20 10000 4.12 80 20:18 28.07.2022
858 Clear 30 1009 18 10000 4.12 110 19:26 28.07.2022
859 Clear 33 1009 15 10000 3.09 40 17:46 28.07.2022
860 Clear 33 1009 16 10000 3.58 91 17:20 28.07.2022
861 Clear 33 1009 17 10000 4.12 80 16:40 28.07.2022
862 Clear 32 1005 24 10000 0.45 320 13:56 28.07.2022
863 Clear 30 1011 28 10000 2.57 20 12:39 28.07.2022
864 Clear 22 1012 52 10000 1.03 0 07:46 28.07.2022
865 Clear 18 1011 63 10000 0.51 280 05:39 28.07.2022
866 Clear 18 1011 63 10000 0.51 280 05:20 28.07.2022
867 Clear 23 1010 37 10000 1.03 270 23:19 27.07.2022
868 Clear 27 1009 27 10000 2.57 70 21:30 27.07.2022
869 Clear 30 1011 24 10000 2.06 160 19:48 27.07.2022
870 Clear 30 1008 27 10000 2.06 160 19:19 27.07.2022
871 Clear 32 1008 22 10000 2.57 230 16:31 27.07.2022
872 Clear 31 1004 22 10000 1.6 8 15:51 27.07.2022
873 Clear 31 1008 26 10000 3.09 240 14:41 27.07.2022
874 Clear 30 1009 28 10000 2.57 0 13:34 27.07.2022
875 Clear 25 1010 45 10000 1.03 40 09:28 27.07.2022
876 Clear 22 1010 55 10000 1.03 0 07:40 27.07.2022
877 Clear 19 1005 65 10000 1.82 59 03:57 27.07.2022
878 Clear 23 1009 46 10000 3.09 90 22:49 26.07.2022
879 Clear 24 1009 41 10000 3.09 310 21:36 26.07.2022
880 Clear 25 1009 37 10000 3.6 10 20:49 26.07.2022
881 Clear 28 1008 28 10000 2.06 340 19:20 26.07.2022
882 Clear 30 1010 23 10000 4.12 30 18:39 26.07.2022
883 Clear 29 1007 27 10000 4.63 290 17:46 26.07.2022
884 Clear 30 1008 27 10000 4.12 340 15:43 26.07.2022
885 Clear 28 1004 33 10000 1.34 326 14:38 26.07.2022
886 Clear 26 1010 37 10000 2.57 0 11:47 26.07.2022
887 Clear 24 1011 42 10000 1.54 0 09:44 26.07.2022
888 Clear 22 1011 46 10000 1.54 0 08:18 26.07.2022
889 Clear 20 1006 56 10000 0.89 55 01:52 26.07.2022
890 Clear 22 1010 47 10000 4.12 60 23:44 25.07.2022
891 Clear 23 1010 47 10000 3.6 60 22:33 25.07.2022
892 Clear 24 1010 43 10000 2.57 340 21:43 25.07.2022
893 Clear 25 1010 34 10000 3.6 20 20:42 25.07.2022
894 Clear 26 1005 34 10000 4.47 350 19:55 25.07.2022
895 Clear 27 1009 27 10000 5.14 30 19:20 25.07.2022
896 Clear 29 1009 24 10000 4.63 100 17:34 25.07.2022
897 Clear 29 1009 24 10000 4.12 30 16:40 25.07.2022
898 Clear 27 1011 28 10000 4.02 30 12:47 25.07.2022
899 Clouds 24 1012 38 10000 3.09 50 10:47 25.07.2022
900 Clear 20 1013 56 10000 3.6 80 07:29 25.07.2022
901 Clear 20 1009 51 10000 0.89 102 23:57 24.07.2022
902 Clear 21 1013 43 10000 4.63 70 23:22 24.07.2022
903 Clear 22 1013 41 10000 4.12 50 22:41 24.07.2022
904 Clear 22 1012 41 10000 2.57 330 21:33 24.07.2022
905 Clear 23 1008 42 10000 3.47 20 20:58 24.07.2022
906 Clear 24 1012 35 10000 3.6 30 20:35 24.07.2022
907 Clear 26 1007 33 10000 3.13 4 18:59 24.07.2022
908 Clear 28 1007 26 10000 0.89 30 16:54 24.07.2022
909 Clear 28 1007 25 10000 1.34 307 15:54 24.07.2022
910 Clear 28 1012 25 10000 2.57 280 14:41 24.07.2022
911 Clear 28 1012 25 10000 2.68 91 14:41 24.07.2022
912 Clear 27 1012 26 10000 2.57 0 13:47 24.07.2022
913 Clear 26 1009 28 10000 2.68 66 12:19 24.07.2022
914 Clear 25 1014 28 10000 4.12 20 11:29 24.07.2022
915 Clear 22 1014 36 10000 4.12 40 09:33 24.07.2022
916 Clear 20 1011 55 10000 0.89 28 07:53 24.07.2022
917 Clear 17 1011 62 10000 1.66 28 06:55 24.07.2022
918 Clear 17 1015 61 10000 2.57 360 02:41 24.07.2022
919 Clear 21 1015 46 10000 5.66 340 22:37 23.07.2022
920 Clear 23 1014 40 10000 4.12 10 20:47 23.07.2022
921 Clear 25 1010 35 10000 2.24 338 18:59 23.07.2022
922 Clear 26 1009 33 10000 2.68 4 17:58 23.07.2022
923 Clear 27 1013 26 10000 5.14 330 17:24 23.07.2022
924 Clear 27 1009 28 10000 2.24 8 15:55 23.07.2022
925 Clouds 28 1013 24 10000 4.12 310 15:21 23.07.2022
926 Clear 27 1010 26 10000 3.58 348 14:50 23.07.2022
927 Clear 27 1010 25 10000 2.24 346 13:58 23.07.2022
928 Clear 25 1015 27 10000 4.12 10 11:48 23.07.2022
929 Clear 24 1015 30 10000 2.68 346 10:36 23.07.2022
930 Clear 22 1015 33 10000 3.09 30 09:28 23.07.2022
931 Clear 16 1016 59 10000 1.03 0 06:46 23.07.2022
932 Clear 16 1015 58 10000 2.06 320 03:37 23.07.2022
933 Clear 20 1014 46 10000 5.14 340 00:27 23.07.2022
934 Clear 22 1014 47 10000 3.6 330 21:33 22.07.2022
935 Clear 24 1013 45 10000 4.63 10 20:31 22.07.2022
936 Clear 23 1013 37 10000 5.91 8 18:42 22.07.2022
937 Clear 29 1012 23 10000 3.6 330 17:39 22.07.2022
938 Clouds 28 1012 23 10000 3.09 0 15:46 22.07.2022
939 Clouds 26 1013 32 10000 3.09 0 12:47 22.07.2022
940 Clouds 24 1014 42 10000 2.24 297 10:22 22.07.2022
941 Clouds 22 1014 48 10000 2.06 0 09:21 22.07.2022
942 Clear 20 1010 56 10000 0.89 288 07:57 22.07.2022
943 Clear 16 1013 71 10000 1.03 0 04:23 22.07.2022
944 Clear 20 1013 52 10000 2.57 170 23:36 21.07.2022
945 Clear 21 1013 46 10000 3.6 330 21:41 21.07.2022
946 Clear 23 1009 44 10000 0.89 336 19:45 21.07.2022
947 Clear 25 1008 39 10000 2.68 354 18:36 21.07.2022
948 Clear 25 1008 36 10000 2.68 39 17:21 21.07.2022
949 Clear 26 1008 34 10000 3.58 0 16:23 21.07.2022
950 Clear 27 1008 30 10000 3.58 40 14:46 21.07.2022
951 Clear 26 1008 28 10000 4.47 31 13:53 21.07.2022
952 Clear 25 1009 30 10000 0.45 43 11:54 21.07.2022
953 Clear 22 1009 36 10000 1.34 20 10:20 21.07.2022
954 Clear 19 1010 50 10000 0.45 46 08:53 21.07.2022
955 Clear 17 1010 64 10000 2.33 1 07:50 21.07.2022
956 Clear 16 1010 71 10000 0.45 28 06:27 21.07.2022
957 Clear 16 1010 64 10000 2.11 6 02:49 21.07.2022
958 Clear 19 1010 59 10000 4.02 91 22:49 20.07.2022
959 Clear 20 1010 53 10000 0.45 109 22:19 20.07.2022
960 Clear 22 1010 48 10000 2.24 70 20:46 20.07.2022
961 Clear 23 1009 46 10000 5.61 28 19:47 20.07.2022
962 Clear 24 1009 44 10000 3.13 45 18:54 20.07.2022
963 Clear 24 1009 42 10000 0.45 66 18:31 20.07.2022
964 Clear 24 1009 42 10000 0.45 66 18:31 20.07.2022
965 Clear 25 1009 40 10000 1.34 45 17:28 20.07.2022
966 Clear 26 1009 39 10000 3.13 348 15:38 20.07.2022
967 Clear 25 1010 40 10000 0.89 51 14:49 20.07.2022
968 Clear 24 1010 43 10000 2.68 355 13:21 20.07.2022
969 Clear 22 1011 43 10000 3.13 333 11:29 20.07.2022
970 Clear 15 1016 67 10000 3.09 50 06:49 20.07.2022
971 Clear 17 1016 60 10000 4.12 40 01:56 20.07.2022
972 Clear 18 1016 57 10000 3.6 60 00:42 20.07.2022
973 Clear 19 1016 55 10000 6.17 70 22:38 19.07.2022
974 Clear 19 1016 55 10000 6.17 70 22:20 19.07.2022
975 Clear 21 1012 57 10000 0.89 50 20:50 19.07.2022
976 Clouds 23 1014 48 10000 6.69 40 19:37 19.07.2022
977 Clouds 24 1014 45 10000 6.69 60 18:42 19.07.2022
978 Clouds 24 1011 49 10000 5.36 55 17:55 19.07.2022
979 Clouds 24 1014 44 10000 5.66 50 15:49 19.07.2022
980 Clouds 25 1018 42 10000 5.66 20 13:46 19.07.2022
981 Clouds 23 1016 49 10000 6.69 50 11:34 19.07.2022
982 Clouds 21 1012 59 10000 2.24 93 09:53 19.07.2022
983 Clouds 20 1016 59 10000 7.2 60 08:48 19.07.2022
984 Clouds 20 1016 60 10000 7.2 60 08:21 19.07.2022
985 Clouds 19 1016 63 10000 5.66 70 07:18 19.07.2022
986 Clear 17 1016 68 10000 4.12 30 05:20 19.07.2022
987 Clear 17 1016 69 10000 4.63 50 04:40 19.07.2022
988 Clear 18 1016 61 10000 2.68 22 00:18 19.07.2022
989 Clear 18 1017 58 10000 4.12 340 23:20 18.07.2022
990 Clear 19 1017 56 10000 5.14 340 22:42 18.07.2022
991 Clouds 19 1016 53 10000 5.66 330 21:27 18.07.2022
992 Clouds 20 1016 50 10000 4.63 10 20:49 18.07.2022
993 Clouds 23 1015 42 10000 5.66 30 19:21 18.07.2022
994 Clouds 25 1014 38 10000 5.66 360 16:45 18.07.2022
995 Clouds 25 1014 39 10000 6.69 340 15:40 18.07.2022
996 Clouds 25 1015 39 10000 5.66 350 13:41 18.07.2022
997 Clouds 24 1015 42 10000 5.66 350 12:29 18.07.2022
998 Clouds 23 1015 47 10000 6.17 40 10:24 18.07.2022
999 Clear 21 1016 55 10000 2.68 327 08:21 18.07.2022
1000 Clear 18 1016 67 10000 2.68 28 06:48 18.07.2022
1001 Clear 20 1016 59 10000 4.63 350 23:30 17.07.2022
1002 Clear 21 1016 54 10000 4.63 340 22:32 17.07.2022
1003 Clear 22 1015 51 10000 3.58 357 21:43 17.07.2022
1004 Clear 23 1011 50 10000 2.24 352 20:53 17.07.2022
1005 Clouds 24 1015 46 10000 4.12 350 20:35 17.07.2022
1006 Clouds 25 1014 44 10000 6.17 50 19:26 17.07.2022
1007 Clouds 26 1013 40 10000 6.69 20 18:26 17.07.2022
1008 Clouds 27 1013 38 10000 6.17 10 17:37 17.07.2022
1009 Clouds 28 1009 40 10000 3.58 339 16:50 17.07.2022
1010 Clouds 28 1013 36 10000 5.66 50 16:25 17.07.2022
1011 Clouds 27 1013 35 10000 6.17 60 14:20 17.07.2022
1012 Clouds 27 1014 38 10000 5.14 30 13:28 17.07.2022
1013 Clear 24 1010 50 10000 2.68 352 10:59 17.07.2022
1014 Clouds 22 1015 57 10000 1.03 0 08:43 17.07.2022
1015 Clear 18 1015 69 10000 1.54 220 03:40 17.07.2022
1016 Clear 19 1015 61 10000 2.06 290 01:47 17.07.2022
1017 Clear 21 1015 54 10000 3.6 70 23:19 16.07.2022
1018 Clear 22 1014 48 10000 3.09 340 21:21 16.07.2022
1019 Clear 25 1013 40 10000 6.17 50 19:25 16.07.2022
1020 Clouds 26 1008 39 10000 3.13 29 17:56 16.07.2022
1021 Clouds 29 1012 31 10000 5.66 330 16:27 16.07.2022
1022 Clouds 27 1012 36 10000 2.68 22 13:47 16.07.2022
1023 Clouds 23 1013 48 10000 2.06 0 10:40 16.07.2022
1024 Clouds 22 1013 55 10000 2.24 351 09:30 16.07.2022
1025 Clouds 21 1013 62 10000 1.54 120 08:42 16.07.2022
1026 Clear 20 1009 68 10000 0.89 333 07:59 16.07.2022
1027 Clear 17 1012 77 10000 1.54 120 03:41 16.07.2022
1028 Clear 17 1012 75 10000 1.54 140 02:35 16.07.2022
1029 Clouds 20 1012 63 10000 3.6 40 23:28 15.07.2022
1030 Clouds 21 1012 59 10000 3.6 50 22:38 15.07.2022
1031 Clouds 22 1011 55 10000 4.12 60 21:24 15.07.2022
1032 Clouds 22 1007 57 10000 2.8 67 19:59 15.07.2022
1033 Clouds 24 1010 46 10000 5.14 60 18:35 15.07.2022
1034 Clouds 25 1009 43 10000 6.17 70 17:36 15.07.2022
1035 Clouds 24 1010 46 10000 6.69 80 14:48 15.07.2022
1036 Clouds 24 1013 43 10000 5.14 20 12:49 15.07.2022
1037 Clear 21 1007 56 10000 1.34 32 10:54 15.07.2022
1038 Clouds 19 1012 58 10000 3.6 100 08:49 15.07.2022
1039 Clear 16 1008 74 10000 1.72 43 05:55 15.07.2022
1040 Clear 19 1013 58 10000 5.14 80 00:52 15.07.2022
1041 Clear 20 1014 58 10000 6.69 60 23:36 14.07.2022
1042 Clear 20 1014 58 10000 5.14 60 22:42 14.07.2022
1043 Clear 22 1013 49 10000 6.17 40 21:43 14.07.2022
1044 Clear 22 1013 49 10000 6.17 40 21:25 14.07.2022
1045 Clear 22 1013 44 10000 4.63 20 20:43 14.07.2022
1046 Clear 23 1013 43 10000 4.63 20 20:19 14.07.2022
1047 Clear 26 1012 33 10000 5.14 10 18:42 14.07.2022
1048 Clouds 27 1013 32 10000 4.12 70 16:22 14.07.2022
1049 Clear 26 1009 38 10000 0.89 300 15:29 14.07.2022
1050 Clouds 26 1010 38 10000 2.24 26 13:53 14.07.2022
1051 Clouds 24 1010 46 10000 2.68 25 12:48 14.07.2022
1052 Clouds 23 1011 53 10000 2.24 89 11:42 14.07.2022
1053 Clouds 22 1011 56 10000 2.24 99 11:22 14.07.2022
1054 Clouds 21 1011 63 10000 0.89 61 09:49 14.07.2022
1055 Clouds 18 1010 77 10000 2.24 29 05:25 14.07.2022
1056 Clouds 18 1009 75 10000 2.24 338 01:22 14.07.2022
1057 Clouds 19 1009 73 10000 0.89 337 00:52 14.07.2022
1058 Clouds 21 1009 65 10000 2.24 31 22:32 13.07.2022
1059 Clouds 22 1009 63 10000 3.58 343 21:54 13.07.2022
1060 Clear 23 1008 58 10000 2.24 319 20:45 13.07.2022
1061 Clouds 25 1007 49 10000 2.24 321 19:19 13.07.2022
1062 Clouds 27 1011 44 10000 4.75 356 17:35 13.07.2022
1063 Clouds 28 1011 33 10000 2.57 280 16:23 13.07.2022
1064 Clouds 28 1011 34 10000 2.57 0 15:24 13.07.2022
1065 Clouds 26 1012 39 10000 2.06 360 12:39 13.07.2022
1066 Clouds 24 1013 46 10000 2.06 0 10:45 13.07.2022
1067 Clouds 23 1009 51 10000 2.24 49 09:57 13.07.2022
1068 Clouds 22 1013 53 10000 4.12 30 09:21 13.07.2022
1069 Clouds 17 1010 75 10000 0.89 325 05:52 13.07.2022
1070 Clear 20 1013 63 10000 4.12 60 01:27 13.07.2022
1071 Clear 21 1013 57 10000 5.66 50 23:42 12.07.2022
1072 Clear 22 1009 50 10000 0.89 355 21:55 12.07.2022
1073 Clear 23 1013 46 10000 4.12 50 21:19 12.07.2022
1074 Clear 24 1013 40 10000 3.09 60 20:41 12.07.2022
1075 Clouds 26 1009 36 10000 0.89 52 19:25 12.07.2022
1076 Clouds 28 1013 30 10000 3.6 70 17:49 12.07.2022
1077 Clouds 28 1013 29 10000 2.06 270 15:43 12.07.2022
1078 Clouds 28 1014 30 10000 2.24 350 14:30 12.07.2022
1079 Clouds 26 1015 39 10000 2.57 30 12:29 12.07.2022
1080 Clouds 25 1015 42 10000 2.57 80 11:22 12.07.2022
1081 Clear 22 1015 50 10000 4.12 60 09:28 12.07.2022
1082 Clouds 21 1012 54 10000 0.89 45 08:18 12.07.2022
1083 Clear 17 1016 67 10000 3.6 70 06:24 12.07.2022
1084 Clear 17 1015 70 10000 4.12 70 05:39 12.07.2022
1085 Clouds 18 1011 71 10000 0.89 335 01:57 12.07.2022
1086 Clouds 18 1011 71 10000 0.89 335 01:57 12.07.2022
1087 Clouds 18 1011 71 10000 0.89 335 01:57 12.07.2022
1088 Clear 18 1015 65 10000 3.09 350 23:18 11.07.2022
1089 Clear 20 1014 60 10000 3.6 340 22:29 11.07.2022
1090 Clouds 22 1013 50 10000 4.63 340 20:33 11.07.2022
1091 Clouds 24 1012 40 10000 3.13 342 19:36 11.07.2022
1092 Clouds 25 1012 38 10000 3.09 60 18:32 11.07.2022
1093 Clouds 25 1012 38 10000 3.6 10 17:39 11.07.2022
1094 Clouds 25 1012 39 10000 3.6 30 16:18 11.07.2022
1095 Clouds 26 1012 37 10000 3.6 320 14:32 11.07.2022
1096 Clouds 23 1012 44 10000 3.13 40 11:49 11.07.2022
1097 Clouds 22 1012 48 10000 2.68 341 10:29 11.07.2022
1098 Clouds 21 1012 51 10000 2.57 60 09:42 11.07.2022
1099 Clear 19 1012 55 10000 3.09 320 08:33 11.07.2022
1100 Clear 16 1007 78 10000 0.89 285 05:51 11.07.2022
1101 Clear 17 1009 66 10000 2.06 350 00:22 11.07.2022
1102 Clear 18 1005 68 10000 0.45 288 22:56 10.07.2022
1103 Clear 19 1004 65 10000 1.34 310 21:51 10.07.2022
1104 Clear 20 1004 64 10000 0.45 328 20:54 10.07.2022
1105 Clouds 21 1003 61 10000 2.24 286 19:50 10.07.2022
1106 Clouds 22 1005 55 10000 7.72 330 18:48 10.07.2022
1107 Clouds 24 1004 51 10000 7.72 330 17:37 10.07.2022
1108 Clouds 25 1004 50 10000 7.2 340 16:45 10.07.2022
1109 Clouds 25 1003 43 10000 6.17 280 15:28 10.07.2022
1110 Clouds 25 1003 49 10000 5.14 290 14:21 10.07.2022
1111 Clouds 23 1006 58 10000 5.14 280 12:28 10.07.2022
1112 Clouds 22 1006 66 10000 5.66 250 11:20 10.07.2022
1113 Clouds 19 1003 81 10000 3.6 300 08:45 10.07.2022
1114 Clouds 19 1003 78 10000 2.06 100 07:39 10.07.2022
1115 Clouds 17 1003 86 10000 2.06 90 02:47 10.07.2022
1116 Thunderstorm 18 1006 84 10000 8.23 240 22:51 09.07.2022
1117 Thunderstorm 18 1005 77 10000 4.12 350 22:24 09.07.2022
1118 Clouds 21 1002 64 10000 2.06 90 20:50 09.07.2022
1119 Clouds 24 1003 56 10000 10.8 290 18:43 09.07.2022
1120 Clouds 30 1004 34 10000 1.54 320 17:45 09.07.2022
1121 Clouds 30 1002 35 10000 3.58 296 16:44 09.07.2022
1122 Clouds 29 1006 40 10000 3.6 260 15:41 09.07.2022
1123 Thunderstorm 29 1007 37 10000 2.57 60 14:44 09.07.2022
1124 Clouds 30 1000 37 10000 2.24 204 13:51 09.07.2022
1125 Clouds 28 1005 44 10000 3.6 60 12:48 09.07.2022
1126 Clouds 26 1006 52 10000 1.54 340 11:32 09.07.2022
1127 Clouds 24 1007 61 10000 2.06 90 10:23 09.07.2022
1128 Clouds 18 1011 91 10000 2.57 80 07:54 09.07.2022
1129 Clouds 18 1008 90 10000 1.03 0 05:37 09.07.2022
1130 Rain 18 1008 90 10000 1.03 0 04:34 09.07.2022
1131 Rain 20 1010 80 10000 5.14 240 23:18 08.07.2022
1132 Rain 21 1010 75 10000 5.14 240 23:18 08.07.2022
1133 Clear 21 1004 74 10000 2.98 30 21:59 08.07.2022
1134 Clouds 23 1009 61 10000 7.2 240 20:59 08.07.2022
1135 Thunderstorm 25 1008 43 10000 4.12 40 20:25 08.07.2022
1136 Clouds 28 1007 38 10000 5.14 360 18:32 08.07.2022
1137 Clouds 30 1007 31 10000 5.66 330 17:25 08.07.2022
1138 Clouds 29 1004 35 10000 2.73 290 14:55 08.07.2022
1139 Clouds 30 1004 36 10000 2.63 275 13:56 08.07.2022
1140 Clouds 28 1009 36 10000 2.57 280 12:28 08.07.2022
1141 Clouds 27 1010 39 10000 1.54 250 10:45 08.07.2022
1142 Clouds 24 1006 52 10000 0.67 20 08:51 08.07.2022
1143 Clouds 20 1006 70 10000 1.42 3 06:54 08.07.2022
1144 Clouds 20 1006 67 10000 1.64 7 02:53 08.07.2022
1145 Clouds 21 1006 54 10000 2.14 8 23:45 07.07.2022
1146 Clouds 22 1005 52 10000 2.24 12 22:40 07.07.2022
1147 Clouds 23 1005 46 10000 2.14 1 20:56 07.07.2022
1148 Clouds 25 1004 43 10000 2.24 348 18:37 07.07.2022
1149 Clouds 27 1008 42 10000 7.72 360 17:41 07.07.2022
1150 Clouds 30 1007 27 10000 3.09 350 15:22 07.07.2022
1151 Clouds 30 1008 28 10000 3.09 200 13:26 07.07.2022
1152 Clouds 29 1008 29 10000 3.09 290 12:39 07.07.2022
1153 Clouds 29 1008 29 10000 3.09 290 12:19 07.07.2022
1154 Clouds 28 1008 33 10000 3.09 90 11:30 07.07.2022
1155 Clouds 27 1008 36 10000 2.06 0 10:43 07.07.2022
1156 Clouds 27 1008 36 10000 2.06 0 10:25 07.07.2022
1157 Clear 22 1009 55 10000 1.03 0 07:40 07.07.2022
1158 Clear 17 1008 71 10000 1.03 0 04:18 07.07.2022
1159 Clear 20 1009 48 10000 2.01 37 23:37 06.07.2022
1160 Clear 23 1004 50 10000 1.93 43 23:18 06.07.2022
1161 Clear 21 1009 45 10000 1.93 43 22:56 06.07.2022
1162 Clear 22 1011 47 10000 1.54 340 22:38 06.07.2022
1163 Clear 22 1011 44 10000 2.57 320 21:27 06.07.2022
1164 Clear 27 1009 29 10000 3.6 100 19:38 06.07.2022
1165 Clear 29 1007 27 10000 4.12 100 18:21 06.07.2022
1166 Clear 29 1007 28 10000 5.14 10 16:19 06.07.2022
1167 Clear 28 1007 33 10000 4.63 50 14:46 06.07.2022
1168 Clear 26 1009 35 10000 5.66 60 12:35 06.07.2022
1169 Clear 25 1009 36 10000 5.66 40 11:48 06.07.2022
1170 Clear 23 1010 39 10000 5.14 60 10:18 06.07.2022
1171 Clear 19 1011 52 10000 2.57 90 07:44 06.07.2022
1172 Clear 19 1011 54 10000 2.57 90 07:23 06.07.2022
1173 Clear 17 1007 60 10000 2.13 51 02:55 06.07.2022
1174 Clear 21 1011 45 10000 5.66 50 22:45 05.07.2022
1175 Clear 23 1011 40 10000 4.12 70 21:36 05.07.2022
1176 Clear 25 1012 32 10000 3.09 80 20:38 05.07.2022
1177 Clear 26 1010 32 10000 5.14 100 19:41 05.07.2022
1178 Clear 26 1010 31 10000 5.14 100 19:21 05.07.2022
1179 Clear 27 1010 24 10000 5.66 90 17:46 05.07.2022
1180 Clear 27 1010 21 10000 6.17 70 16:39 05.07.2022
1181 Clear 27 1010 22 10000 4.12 50 15:24 05.07.2022
1182 Clear 27 1008 28 10000 0.89 57 13:53 05.07.2022
1183 Clear 25 1012 28 10000 5.14 80 12:42 05.07.2022
1184 Clear 24 1012 31 10000 3.6 60 11:24 05.07.2022
1185 Clear 23 1013 34 10000 4.12 50 10:31 05.07.2022
1186 Clear 19 1013 49 10000 4.12 90 08:25 05.07.2022
1187 Clear 17 1013 53 10000 4.12 90 07:31 05.07.2022
1188 Clear 15 1013 67 10000 3.09 90 04:46 05.07.2022
1189 Clear 15 1013 67 10000 3.09 90 04:20 05.07.2022
1190 Clear 19 1013 50 10000 6.17 50 23:42 04.07.2022
1191 Clear 20 1009 55 10000 0.89 65 22:59 04.07.2022
1192 Clear 21 1012 44 10000 6.17 60 22:20 04.07.2022
1193 Clear 23 1014 31 10000 5.66 50 21:18 04.07.2022
1194 Clear 21 1013 40 10000 2.96 54 20:50 04.07.2022
1195 Clear 23 1012 32 10000 5.14 70 20:32 04.07.2022
1196 Clear 26 1013 24 10000 4.63 80 19:44 04.07.2022
1197 Clear 25 1011 27 10000 4.63 80 19:25 04.07.2022
1198 Clear 26 1011 20 10000 6.17 60 17:40 04.07.2022
1199 Clear 27 1012 18 10000 5.66 70 15:42 04.07.2022
1200 Clear 27 1013 18 10000 5.14 60 14:39 04.07.2022
1201 Clear 26 1013 21 10000 4.63 30 13:20 04.07.2022
1202 Clear 24 1014 26 10000 5.66 60 11:43 04.07.2022
1203 Clear 22 1014 33 10000 4.12 50 10:33 04.07.2022
1204 Clear 19 1014 41 10000 4.63 70 09:33 04.07.2022
1205 Clear 15 1011 55 10000 0.89 14 06:50 04.07.2022
1206 Clear 15 1015 58 10000 4.12 60 03:23 04.07.2022
1207 Clear 18 1011 54 10000 0.45 42 23:53 03.07.2022
1208 Clear 18 1011 48 10000 0.89 4 22:55 03.07.2022
1209 Clear 24 1016 25 10000 4.63 60 20:46 03.07.2022
1210 Clear 24 1016 25 10000 4.63 60 20:20 03.07.2022
1211 Clear 26 1015 22 10000 5.14 60 19:25 03.07.2022
1212 Clear 26 1013 24 10000 5.66 80 18:31 03.07.2022
1213 Clear 26 1013 23 10000 6.17 70 17:42 03.07.2022
1214 Clear 26 1013 22 10000 5.14 60 15:28 03.07.2022
1215 Clear 26 1010 23 10000 2.68 44 14:57 03.07.2022
1216 Clear 26 1010 31 10000 5.62 54 13:50 03.07.2022
1217 Clear 25 1011 22 10000 2.24 359 12:51 03.07.2022
1218 Clear 24 1015 26 10000 6.17 40 12:21 03.07.2022
1219 Clear 22 1011 33 10000 0.89 66 10:55 03.07.2022
1220 Clear 22 1015 35 10000 4.63 50 10:36 03.07.2022
1221 Clouds 19 1016 60 10000 4.12 70 08:21 03.07.2022
1222 Clouds 18 1016 66 10000 4.12 60 07:34 03.07.2022
1223 Clear 19 1016 58 10000 4.47 80 00:41 03.07.2022
1224 Clear 20 1015 53 10000 5.14 50 23:38 02.07.2022
1225 Clear 21 1015 48 10000 5.14 30 22:31 02.07.2022
1226 Clear 24 1016 38 10000 5.14 50 20:36 02.07.2022
1227 Clear 26 1016 35 10000 5.66 40 19:50 02.07.2022
1228 Clear 27 1016 32 10000 5.14 20 18:48 02.07.2022
1229 Clouds 27 1013 35 10000 5.66 50 17:40 02.07.2022
1230 Clouds 27 1013 34 10000 5.66 70 16:32 02.07.2022
1231 Clear 26 1010 38 10000 0.89 40 13:51 02.07.2022
1232 Clear 24 1011 49 10000 0.89 358 11:51 02.07.2022
1233 Clouds 23 1015 46 10000 5.14 70 10:52 02.07.2022
1234 Clouds 23 1015 47 10000 5.14 70 10:28 02.07.2022
1235 Clear 20 1015 59 10000 2.24 332 08:39 02.07.2022
1236 Clear 20 1015 59 10000 1.03 0 08:19 02.07.2022
1237 Clear 16 1011 77 10000 1.92 33 05:51 02.07.2022
1238 Clear 17 1014 88 10000 1.03 0 00:34 02.07.2022
1239 Clear 18 1014 86 10000 1.03 0 23:30 01.07.2022
1240 Clear 18 1013 85 10000 1.54 150 22:35 01.07.2022
1241 Clear 19 1013 81 10000 0.51 0 21:39 01.07.2022
1242 Clear 20 1010 78 10000 2.62 19 20:59 01.07.2022
1243 Clear 20 1013 73 10000 2.06 320 20:37 01.07.2022
1244 Clouds 21 1012 70 10000 3.09 70 19:40 01.07.2022
1245 Clouds 22 1012 66 10000 5.14 40 17:39 01.07.2022
1246 Thunderstorm 20 1015 77 10000 6.17 10 14:59 01.07.2022
1247 Clouds 25 1011 49 10000 6.69 60 13:54 01.07.2022
1248 Clouds 23 1012 57 10000 5.14 70 11:48 01.07.2022
1249 Clouds 22 1012 65 10000 3.09 300 10:19 01.07.2022
1250 Rain 17 1012 89 10000 1.54 160 07:40 01.07.2022
1251 Clouds 16 1011 88 10000 0 0 02:43 01.07.2022
1252 Clouds 16 1011 90 10000 1.03 100 00:22 01.07.2022
1253 Clear 18 1008 80 10000 0.89 282 22:52 30.06.2022
1254 Clouds 17 1011 88 10000 1.54 320 22:32 30.06.2022
1255 Clear 18 1008 75 10000 2.34 10 21:55 30.06.2022
1256 Clear 18 1008 78 10000 2.3 11 20:58 30.06.2022
1257 Clouds 17 1011 88 10000 1.54 190 20:22 30.06.2022
1258 Clouds 17 1007 80 10000 2.25 356 19:51 30.06.2022
1259 Clouds 17 1013 91 10000 1.54 320 19:18 30.06.2022
1260 Clouds 17 1013 87 10000 4.12 340 18:34 30.06.2022
1261 Clouds 17 1014 88 10000 5.66 330 17:37 30.06.2022
1262 Thunderstorm 17 1013 90 10000 8.75 300 16:28 30.06.2022
1263 Clouds 26 1009 40 10000 2.06 320 14:31 30.06.2022
1264 Clouds 26 1010 44 10000 3.09 40 13:29 30.06.2022
1265 Clouds 24 1010 46 10000 3.09 0 12:34 30.06.2022
1266 Clouds 24 1011 51 10000 3.09 50 11:23 30.06.2022
1267 Clear 22 1008 61 10000 1.34 299 09:53 30.06.2022
1268 Clouds 22 1011 59 10000 3.6 90 09:31 30.06.2022
1269 Clouds 19 1012 69 10000 1.03 0 07:41 30.06.2022
1270 Clouds 16 1011 81 10000 1.54 310 05:47 30.06.2022
1271 Clouds 18 1012 77 10000 1.54 310 00:31 30.06.2022
1272 Clouds 18 1012 72 10000 0.51 130 23:19 29.06.2022
1273 Clouds 18 1012 70 10000 2.57 150 22:38 29.06.2022
1274 Clouds 18 1012 69 10000 3.09 150 21:34 29.06.2022
1275 Rain 18 1011 68 10000 4.12 110 20:33 29.06.2022
1276 Clouds 20 1011 56 10000 3.09 320 19:36 29.06.2022
1277 Clouds 22 1010 51 10000 5.66 70 17:42 29.06.2022
1278 Clouds 22 1010 51 10000 6.17 60 16:36 29.06.2022
1279 Clouds 24 1010 40 10000 3.6 330 14:56 29.06.2022
1280 Clouds 23 1011 46 10000 1.54 330 12:39 29.06.2022
1281 Clouds 20 1011 56 10000 2.06 310 10:37 29.06.2022
1282 Clouds 20 1012 61 10000 3.09 310 09:32 29.06.2022
1283 Clouds 17 1012 75 10000 2.06 300 07:36 29.06.2022
1284 Clouds 15 1008 86 10000 1.32 19 04:51 29.06.2022
1285 Clouds 16 1008 81 10000 1.35 4 00:57 29.06.2022
1286 Clouds 16 1011 83 10000 2.06 220 00:35 29.06.2022
1287 Clouds 17 1011 76 10000 1.54 320 22:53 28.06.2022
1288 Clouds 17 1012 73 10000 1.54 320 22:24 28.06.2022
1289 Clouds 18 1009 71 10000 1.21 0 21:54 28.06.2022
1290 Clouds 18 1014 63 10000 3.6 10 21:32 28.06.2022
1291 Clouds 19 1013 61 10000 4.12 40 20:34 28.06.2022
1292 Clouds 19 1011 63 10000 4.12 10 19:34 28.06.2022
1293 Clouds 20 1011 60 10000 5.14 320 18:45 28.06.2022
1294 Clouds 20 1010 58 10000 6.17 320 17:40 28.06.2022
1295 Clouds 21 1007 61 10000 2.68 294 15:57 28.06.2022
1296 Clouds 21 1010 56 10000 6.69 340 15:36 28.06.2022
1297 Clouds 22 1010 53 10000 6.69 330 14:20 28.06.2022
1298 Clouds 21 1007 71 10000 5.43 351 13:51 28.06.2022
1299 Clouds 22 1009 49 10000 5.01 3 12:55 28.06.2022
1300 Clouds 22 1010 56 10000 2.57 0 11:18 28.06.2022
1301 Clouds 19 1010 76 10000 2.57 250 09:28 28.06.2022
1302 Clouds 17 1012 85 10000 2.57 270 08:43 28.06.2022
1303 Clouds 16 1009 94 10000 3.09 270 07:42 28.06.2022
1304 Clouds 15 1009 95 10000 2.06 280 05:58 28.06.2022
1305 Clouds 15 1009 93 10000 3.6 260 00:00 28.06.2022
1306 Clouds 15 1010 91 10000 3.6 280 23:37 27.06.2022
1307 Clouds 15 1010 93 10000 3.09 260 22:52 27.06.2022
1308 Rain 15 1011 95 10000 4.63 250 21:34 27.06.2022
1309 Rain 15 1011 94 10000 5.14 240 20:48 27.06.2022
1310 Rain 16 1008 89 10000 0.45 159 18:58 27.06.2022
1311 Rain 16 1011 83 10000 3.09 270 18:19 27.06.2022
1312 Rain 18 1011 75 10000 3.09 290 16:19 27.06.2022
1313 Rain 18 1011 75 10000 3.09 290 16:19 27.06.2022
1314 Rain 18 1012 75 10000 5.66 290 14:45 27.06.2022
1315 Clouds 20 1012 60 10000 3.6 270 13:35 27.06.2022
1316 Clouds 18 1009 71 10000 0.45 209 12:52 27.06.2022
1317 Clouds 18 1012 64 10000 4.63 270 10:23 27.06.2022
1318 Clouds 17 1012 69 10000 5.14 270 08:48 27.06.2022
1319 Clouds 17 1012 70 10000 3.6 280 08:19 27.06.2022
1320 Clouds 15 1012 73 10000 3.09 270 06:38 27.06.2022
1321 Clouds 16 1015 67 10000 3.09 280 02:23 27.06.2022
1322 Clouds 14 1014 85 10000 1.9 340 23:55 26.06.2022
1323 Clouds 16 1014 82 10000 2.13 344 21:58 26.06.2022
1324 Clouds 19 1015 55 10000 5.66 310 20:44 26.06.2022
1325 Clouds 19 1012 58 10000 6.69 320 19:27 26.06.2022
1326 Clouds 20 1012 52 10000 6.69 300 18:28 26.06.2022
1327 Clouds 20 1011 53 10000 7.72 320 16:21 26.06.2022
1328 Clouds 21 1011 52 10000 7.2 320 14:40 26.06.2022
1329 Clouds 20 1011 54 10000 6.69 320 13:38 26.06.2022
1330 Clouds 20 1011 54 10000 6.69 320 13:18 26.06.2022
1331 Clouds 19 1011 54 10000 6.17 310 11:26 26.06.2022
1332 Clouds 19 1011 56 10000 6.69 320 10:23 26.06.2022
1333 Clouds 18 1011 57 10000 4.12 290 08:46 26.06.2022
1334 Clouds 16 1011 63 10000 4.12 260 07:30 26.06.2022
1335 Clouds 14 1010 65 10000 3.6 260 00:49 26.06.2022
1336 Clouds 15 1011 65 10000 3.6 260 00:20 26.06.2022
1337 Clouds 15 1011 59 10000 3.6 300 23:33 25.06.2022
1338 Clear 15 1013 78 10000 2.59 316 22:55 25.06.2022
1339 Clouds 16 1011 56 10000 4.12 320 22:27 25.06.2022
1340 Clouds 17 1013 51 10000 4.12 330 21:37 25.06.2022
1341 Clear 16 1012 73 10000 3 318 21:18 25.06.2022
1342 Clouds 19 1013 48 10000 6.17 310 20:25 25.06.2022
1343 Clouds 20 1010 48 10000 7.2 290 19:19 25.06.2022
1344 Clouds 21 1007 47 10000 2.24 298 17:53 25.06.2022
1345 Clouds 21 1010 48 10000 6.17 310 17:19 25.06.2022
1346 Clouds 21 1007 55 10000 3.13 281 14:59 25.06.2022
1347 Clouds 20 1007 56 10000 4.02 299 12:57 25.06.2022
1348 Clouds 20 1010 49 10000 9.26 290 12:37 25.06.2022
1349 Clouds 20 1010 53 10000 5.14 260 10:32 25.06.2022
1350 Clouds 18 1008 61 10000 2.68 274 08:57 25.06.2022
1351 Clouds 18 1011 57 10000 3.6 250 08:29 25.06.2022
1352 Clouds 16 1007 73 10000 1.34 274 06:53 25.06.2022
1353 Clouds 15 1012 67 10000 3.6 260 03:30 25.06.2022
1354 Clouds 17 1013 59 10000 3.6 300 00:33 25.06.2022
1355 Clear 15 1012 76 10000 2.61 326 22:51 24.06.2022
1356 Clouds 18 1011 57 10000 5.14 320 21:31 24.06.2022
1357 Clouds 18 1010 53 10000 5.66 340 20:44 24.06.2022
1358 Clouds 19 1010 52 10000 5.66 340 20:18 24.06.2022
1359 Clouds 19 1009 49 10000 5.66 330 19:20 24.06.2022
1360 Clouds 20 1009 45 10000 6.17 320 18:48 24.06.2022
1361 Clouds 20 1009 44 10000 6.17 320 18:30 24.06.2022
1362 Clouds 21 1005 50 10000 3.13 295 16:57 24.06.2022
1363 Clouds 20 1010 45 10000 5.66 340 15:28 24.06.2022
1364 Clouds 20 1009 43 10000 7.2 340 14:25 24.06.2022
1365 Clouds 21 1005 44 10000 3.13 283 13:53 24.06.2022
1366 Clouds 21 1009 39 10000 5.14 340 11:42 24.06.2022
1367 Clear 21 1006 48 10000 1.34 316 10:43 24.06.2022
1368 Clouds 19 1010 45 10000 5.66 330 09:42 24.06.2022
1369 Clear 19 1006 50 10000 0.45 288 09:19 24.06.2022
1370 Clouds 18 1010 48 10000 3.13 3 08:42 24.06.2022
1371 Clouds 16 1010 54 10000 5.14 320 06:47 24.06.2022
1372 Clouds 16 1010 55 10000 5.14 320 06:27 24.06.2022
1373 Clouds 15 1010 62 10000 2.24 347 05:21 24.06.2022
1374 Clouds 18 1009 61 10000 5.14 330 00:47 24.06.2022
1375 Rain 21 1010 46 10000 4.12 330 22:44 23.06.2022
1376 Clouds 22 1012 39 10000 2.57 330 21:43 23.06.2022
1377 Rain 24 1011 32 10000 2.57 320 20:43 23.06.2022
1378 Clouds 22 1011 51 10000 2.8 347 19:57 23.06.2022
1379 Clouds 26 1011 26 10000 6.17 280 18:43 23.06.2022
1380 Clouds 25 1009 28 10000 6.17 280 17:35 23.06.2022
1381 Clouds 26 1009 28 10000 6.17 310 16:32 23.06.2022
1382 Clouds 25 1009 27 10000 5.14 260 15:26 23.06.2022
1383 Clouds 25 1010 31 10000 3.09 0 14:45 23.06.2022
1384 Clouds 23 1011 32 10000 4.12 270 11:49 23.06.2022
1385 Clouds 22 1011 33 10000 3.09 260 10:42 23.06.2022
1386 Clear 21 1011 35 10000 4.12 300 09:19 23.06.2022
1387 Clear 15 1010 61 10000 0 0 05:37 23.06.2022
1388 Clear 16 1012 47 10000 2.06 160 00:28 23.06.2022
1389 Clear 14 1012 62 10000 1.5 313 23:59 22.06.2022
1390 Clear 15 1012 51 10000 1.03 0 23:18 22.06.2022
1391 Clear 20 1013 33 10000 3.09 350 21:44 22.06.2022
1392 Clear 20 1011 60 10000 3.64 344 20:52 22.06.2022
1393 Clear 22 1012 31 10000 5.66 320 20:19 22.06.2022
1394 Clear 23 1008 32 10000 6.17 320 19:30 22.06.2022
1395 Clouds 27 1009 32 10000 7.72 290 17:40 22.06.2022
1396 Clouds 27 1006 35 10000 6.17 310 16:41 22.06.2022
1397 Clouds 27 1006 36 10000 7.2 290 15:29 22.06.2022
1398 Clouds 26 1003 41 10000 2.68 278 14:51 22.06.2022
1399 Clouds 26 1007 42 10000 4.63 290 13:48 22.06.2022
1400 Clouds 26 1007 44 10000 4.63 290 13:24 22.06.2022
1401 Clouds 25 1006 51 10000 3.6 290 12:18 22.06.2022
1402 Clouds 24 1007 53 10000 3.09 330 11:29 22.06.2022
1403 Clouds 22 1008 60 10000 3.6 280 10:43 22.06.2022
1404 Clouds 18 1011 74 10000 3.09 280 09:40 22.06.2022
1405 Clear 17 1005 75 10000 1.57 274 06:55 22.06.2022
1406 Clear 15 1008 79 10000 2.06 250 02:26 22.06.2022
1407 Clear 16 1004 75 10000 0.45 262 00:57 22.06.2022
1408 Clouds 18 1007 61 10000 3.09 330 22:49 21.06.2022
1409 Clouds 19 1003 66 10000 3.13 287 20:58 21.06.2022
1410 Clouds 20 1006 54 10000 6.17 320 19:23 21.06.2022
1411 Clouds 24 1008 40 10000 6.69 300 17:54 21.06.2022
1412 Clouds 24 1008 43 10000 5.14 290 16:38 21.06.2022
1413 Clouds 24 1000 49 10000 0.45 285 11:58 21.06.2022
1414 Clouds 23 1005 51 10000 4.12 280 10:46 21.06.2022
1415 Clouds 21 1005 63 10000 4.12 80 09:24 21.06.2022
1416 Clouds 18 1006 73 10000 3.09 90 07:44 21.06.2022
1417 Rain 18 1001 79 10000 0.45 237 04:57 21.06.2022
1418 Clouds 21 1007 63 10000 4.12 290 00:23 21.06.2022
1419 Clouds 23 1009 53 10000 3.6 310 22:21 20.06.2022
1420 Clouds 23 1009 53 10000 3.6 310 22:21 20.06.2022
1421 Clouds 25 1009 41 10000 5.66 270 21:37 20.06.2022
1422 Clouds 27 1009 31 10000 4.12 100 20:29 20.06.2022
1423 Clouds 28 1009 31 10000 4.63 110 19:36 20.06.2022
1424 Clouds 29 1007 32 10000 4.12 90 18:26 20.06.2022
1425 Clouds 29 1007 31 10000 2.57 110 17:49 20.06.2022
1426 Clouds 29 1008 32 10000 2.57 220 16:26 20.06.2022
1427 Clouds 29 1009 33 10000 1.54 280 15:20 20.06.2022
1428 Clouds 27 1011 37 10000 2.06 0 12:32 20.06.2022
1429 Clear 25 1013 42 10000 2.57 80 10:21 20.06.2022
1430 Clear 25 1013 42 10000 2.57 80 10:21 20.06.2022
1431 Clear 23 1009 50 10000 0.45 5 08:54 20.06.2022
1432 Clear 20 1013 56 10000 4.12 70 07:51 20.06.2022
1433 Clear 16 1014 74 10000 2.57 270 05:21 20.06.2022
1434 Clear 19 1014 58 10000 4.12 50 01:33 20.06.2022
1435 Clear 20 1010 61 10000 0.45 309 23:57 19.06.2022
1436 Clear 22 1016 47 10000 5.14 60 22:40 19.06.2022
1437 Clear 23 1016 44 10000 3.6 80 21:45 19.06.2022
1438 Clear 22 1014 47 10000 3.6 80 21:26 19.06.2022
1439 Clear 23 1013 44 10000 5.14 80 20:25 19.06.2022
1440 Clouds 25 1015 38 10000 6.17 70 19:46 19.06.2022
1441 Clouds 25 1012 39 10000 4.63 50 18:41 19.06.2022
1442 Clouds 26 1012 38 10000 3.09 20 17:48 19.06.2022
1443 Clouds 26 1012 38 10000 3.09 20 17:21 19.06.2022
1444 Clouds 26 1012 37 10000 3.09 360 16:34 19.06.2022
1445 Clouds 26 1013 38 10000 2.57 120 15:37 19.06.2022
1446 Clouds 27 1009 41 10000 1.34 121 14:55 19.06.2022
1447 Clouds 26 1009 43 10000 0.45 118 13:54 19.06.2022
1448 Clouds 25 1013 41 10000 3.6 20 12:39 19.06.2022
1449 Clouds 23 1009 49 10000 2.68 350 10:54 19.06.2022
1450 Clouds 21 1013 57 10000 4.12 40 09:40 19.06.2022
1451 Clouds 20 1013 63 10000 4.63 80 08:43 19.06.2022
1452 Clouds 19 1013 69 10000 3.6 90 07:48 19.06.2022
1453 Clouds 17 1013 88 10000 4.12 280 04:41 19.06.2022
1454 Clouds 20 1012 58 10000 5.66 320 01:28 19.06.2022
1455 Clouds 20 1011 61 10000 5.66 300 00:24 19.06.2022
1456 Clouds 21 1011 55 10000 5.66 70 23:35 18.06.2022
1457 Clouds 22 1011 55 10000 8.23 70 22:36 18.06.2022
1458 Clouds 23 1007 54 10000 1.34 15 20:56 18.06.2022
1459 Clouds 24 1010 48 10000 7.2 60 20:27 18.06.2022
1460 Clouds 26 1010 37 10000 5.14 50 19:31 18.06.2022
1461 Clouds 27 1012 31 10000 3.09 90 18:44 18.06.2022
1462 Clouds 27 1010 33 10000 4.12 90 17:30 18.06.2022
1463 Clouds 28 1010 33 10000 2.57 350 16:37 18.06.2022
1464 Clouds 26 1007 41 10000 0.89 89 15:22 18.06.2022
1465 Clouds 27 1011 37 10000 2.24 89 14:42 18.06.2022
1466 Clear 27 1008 41 10000 2.24 34 13:21 18.06.2022
1467 Clouds 25 1012 47 10000 2.57 0 11:34 18.06.2022
1468 Clouds 24 1013 52 10000 2.57 90 10:26 18.06.2022
1469 Clouds 22 1013 56 10000 2.57 110 09:20 18.06.2022
1470 Clear 20 1013 65 10000 2.57 80 08:19 18.06.2022
1471 Clear 17 1013 82 10000 1.03 0 06:43 18.06.2022
1472 Clear 16 1013 84 10000 0.51 0 03:24 18.06.2022
1473 Clear 17 1013 76 10000 1.54 130 01:24 18.06.2022
1474 Clear 17 1013 73 10000 1.03 0 00:42 18.06.2022
1475 Clear 18 1010 73 10000 2.14 38 23:52 17.06.2022
1476 Clear 19 1010 70 10000 2.58 36 22:56 17.06.2022
1477 Clouds 21 1013 56 10000 2.57 110 20:42 17.06.2022
1478 Clouds 22 1013 53 10000 3.09 70 19:29 17.06.2022
1479 Clouds 23 1013 49 10000 4.63 50 18:34 17.06.2022
1480 Rain 23 1012 48 10000 5.66 350 17:34 17.06.2022
1481 Clouds 24 1012 48 10000 3.6 270 16:42 17.06.2022
1482 Clouds 24 1013 49 10000 4.12 20 15:42 17.06.2022
1483 Clouds 25 1009 50 10000 2.24 65 14:50 17.06.2022
1484 Clouds 26 1013 44 10000 5.14 60 14:19 17.06.2022
1485 Clouds 25 1013 46 10000 3.09 80 13:44 17.06.2022
1486 Clouds 24 1014 52 10000 3.09 30 12:45 17.06.2022
1487 Clouds 23 1010 56 10000 0.89 341 11:56 17.06.2022
1488 Clouds 22 1014 56 10000 3.6 70 11:35 17.06.2022
1489 Clouds 21 1015 64 10000 4.12 40 10:48 17.06.2022
1490 Clouds 21 1015 64 10000 4.12 40 10:48 17.06.2022
1491 Clouds 21 1015 64 10000 4.12 40 10:48 17.06.2022
1492 Clouds 17 1015 80 10000 2.57 90 08:29 17.06.2022
1493 Rain 17 1015 78 10000 2.57 90 07:30 17.06.2022
1494 Clouds 17 1015 78 10000 1.03 0 05:50 17.06.2022
1495 Clouds 17 1015 77 10000 1.03 260 02:47 17.06.2022
1496 Clouds 19 1015 66 10000 1.03 0 00:36 17.06.2022
1497 Clouds 20 1015 59 10000 1.54 310 22:44 16.06.2022
1498 Clouds 20 1011 58 10000 0.45 355 21:58 16.06.2022
1499 Clouds 21 1012 55 10000 0.89 22 21:18 16.06.2022
1500 Clouds 22 1014 51 10000 3.13 38 20:49 16.06.2022
1501 Clouds 22 1011 53 10000 2.68 21 19:56 16.06.2022
1502 Clouds 24 1014 44 10000 5.14 30 18:30 16.06.2022
1503 Clouds 25 1013 41 10000 6.17 350 17:44 16.06.2022
1504 Clouds 26 1014 37 10000 3.09 80 16:46 16.06.2022
1505 Clouds 26 1014 37 10000 2.06 0 15:24 16.06.2022
1506 Clouds 25 1011 42 10000 0.45 0 14:56 16.06.2022
1507 Clouds 25 1015 39 10000 2.57 80 13:45 16.06.2022
1508 Clouds 24 1016 43 10000 2.06 0 12:37 16.06.2022
1509 Clouds 24 1012 47 10000 1.34 107 11:53 16.06.2022
1510 Clouds 24 1016 46 10000 3.13 19 11:18 16.06.2022
1511 Clouds 23 1016 50 10000 3.09 0 10:33 16.06.2022
1512 Clouds 22 1016 56 10000 3.6 80 09:25 16.06.2022
1513 Clear 20 1016 60 10000 4.12 60 08:46 16.06.2022
1514 Clear 19 1017 67 10000 2.57 60 07:29 16.06.2022
1515 Clear 14 1017 86 10000 0.45 34 05:31 16.06.2022
1516 Clear 16 1013 75 10000 2.32 37 02:52 16.06.2022
1517 Clear 16 1013 76 10000 2.32 34 01:51 16.06.2022
1518 Clear 16 1013 76 10000 2.32 34 01:51 16.06.2022
1519 Clear 17 1016 69 10000 3.09 50 01:21 16.06.2022
1520 Clear 17 1016 69 10000 3.09 50 01:21 16.06.2022
1521 Clear 18 1016 65 10000 4.12 50 23:49 15.06.2022
1522 Clear 18 1016 64 10000 2.57 100 22:44 15.06.2022
1523 Clouds 20 1016 58 10000 2.06 80 21:23 15.06.2022
1524 Clear 20 1013 62 10000 0.45 18 20:56 15.06.2022
1525 Clouds 20 1016 54 10000 2.06 60 20:35 15.06.2022
1526 Clear 21 1015 52 10000 3.6 30 19:30 15.06.2022
1527 Clouds 25 1011 44 10000 1.34 291 17:58 15.06.2022
1528 Clouds 25 1011 42 10000 3.45 22 17:33 15.06.2022
1529 Clouds 25 1015 31 10000 3.09 10 15:46 15.06.2022
1530 Clouds 24 1015 38 10000 6.17 10 14:26 15.06.2022
1531 Clouds 25 1012 42 10000 2.24 90 12:56 15.06.2022
1532 Clouds 24 1015 42 10000 2.57 0 12:32 15.06.2022
1533 Clouds 23 1016 49 10000 4.12 70 10:28 15.06.2022
1534 Clouds 23 1013 55 10000 0.89 121 09:53 15.06.2022
1535 Clear 20 1015 62 10000 1.03 220 08:50 15.06.2022
1536 Clear 16 1015 88 10000 0.51 0 06:42 15.06.2022
1537 Rain 15 1015 91 10000 0.51 0 04:47 15.06.2022
1538 Clear 16 1014 91 10000 1.03 140 02:28 15.06.2022
1539 Clouds 16 1013 86 10000 2.06 40 00:54 15.06.2022
1540 Clouds 16 1011 85 10000 2.08 22 23:55 14.06.2022
1541 Rain 17 1014 84 10000 1.03 0 23:37 14.06.2022
1542 Clouds 18 1014 79 10000 1.03 0 22:28 14.06.2022
1543 Clouds 18 1013 74 10000 3.09 80 21:41 14.06.2022
1544 Clouds 18 1010 72 10000 2.24 100 20:57 14.06.2022
1545 Clouds 18 1013 79 10000 1.03 0 20:32 14.06.2022
1546 Clouds 19 1012 74 10000 2.06 260 19:22 14.06.2022
1547 Clouds 19 1011 73 10000 2.06 300 18:25 14.06.2022
1548 Clouds 18 1010 82 10000 3.09 90 16:48 14.06.2022
1549 Rain 17 1010 84 10000 2.57 240 15:50 14.06.2022
1550 Rain 16 1013 88 10000 2.57 240 15:28 14.06.2022
1551 Rain 20 1012 68 10000 6.69 340 14:40 14.06.2022
1552 Thunderstorm 24 1011 48 10000 3.6 270 13:46 14.06.2022
1553 Clouds 24 1009 47 10000 3.09 340 12:48 14.06.2022
1554 Clouds 23 1010 52 10000 2.57 0 11:41 14.06.2022
1555 Clouds 22 1010 56 10000 2.06 240 10:49 14.06.2022
1556 Clouds 22 1010 55 10000 2.06 240 10:24 14.06.2022
1557 Clouds 20 1010 65 10000 1.54 250 08:49 14.06.2022
1558 Clouds 17 1010 78 10000 2.06 240 07:49 14.06.2022
1559 Clear 14 1009 92 10000 1.54 90 05:46 14.06.2022
1560 Clear 14 1008 94 10000 1.03 0 03:20 14.06.2022
1561 Clouds 17 1005 85 10000 1.81 357 00:54 14.06.2022
1562 Clear 16 1008 92 10000 1.03 0 23:41 13.06.2022
1563 Clear 17 1008 93 10000 1.03 0 22:26 13.06.2022
1564 Clear 17 1008 93 10000 1.54 260 21:52 13.06.2022
1565 Clouds 17 1008 90 10000 1.03 270 20:42 13.06.2022
1566 Clouds 18 1007 85 10000 2.06 240 19:35 13.06.2022
1567 Clouds 19 1006 80 10000 2.06 290 18:31 13.06.2022
1568 Clouds 19 1006 79 10000 3.09 260 17:47 13.06.2022
1569 Rain 17 1009 94 10000 3.09 280 16:53 13.06.2022
1570 Rain 18 1008 82 10000 2.06 240 15:40 13.06.2022
1571 Clouds 18 1008 75 10000 1.54 350 14:47 13.06.2022
1572 Rain 19 1009 63 10000 4.12 10 13:55 13.06.2022
1573 Clouds 22 1003 53 10000 3.13 323 12:59 13.06.2022
1574 Clouds 21 1006 56 10000 1.54 260 11:37 13.06.2022
1575 Clouds 19 1007 64 10000 2.57 40 10:27 13.06.2022
1576 Clouds 19 1009 59 10000 3.09 40 09:42 13.06.2022
1577 Clouds 19 1006 64 10000 2.57 40 08:25 13.06.2022
1578 Clouds 17 1005 78 10000 1.54 240 06:34 13.06.2022
1579 Clouds 16 1004 83 10000 1.03 0 03:45 13.06.2022
1580 Clouds 16 1005 76 10000 2.06 310 01:38 13.06.2022
1581 Clouds 16 1005 79 10000 2.06 310 00:48 13.06.2022
1582 Clouds 16 1004 81 10000 1.54 0 23:31 12.06.2022
1583 Clear 16 1004 77 10000 1.54 250 22:23 12.06.2022
1584 Clouds 16 1004 76 10000 2.06 80 21:40 12.06.2022
1585 Clouds 16 1003 75 10000 3.6 100 20:40 12.06.2022
1586 Clouds 17 1003 71 10000 5.14 100 19:41 12.06.2022
1587 Rain 19 1003 60 10000 5.66 350 18:43 12.06.2022
1588 Thunderstorm 21 1002 57 10000 5.66 240 16:42 12.06.2022
1589 Rain 23 1001 50 10000 7.2 240 15:32 12.06.2022
1590 Clouds 23 1002 46 10000 3.6 260 14:33 12.06.2022
1591 Clouds 23 999 50 10000 2.68 285 13:57 12.06.2022
1592 Clouds 23 1002 47 10000 3.09 260 13:38 12.06.2022
1593 Clouds 21 1003 56 10000 4.12 260 11:48 12.06.2022
1594 Clouds 20 1003 63 10000 3.09 270 10:45 12.06.2022
1595 Clouds 20 1002 68 10000 3.6 270 09:28 12.06.2022
1596 Clouds 19 1004 72 10000 2.06 250 08:49 12.06.2022
1597 Clouds 17 1004 82 10000 1.03 270 07:40 12.06.2022
1598 Clouds 15 1004 89 10000 1.54 180 05:39 12.06.2022
1599 Clouds 15 1004 86 10000 4.12 260 03:38 12.06.2022
1600 Clouds 16 1004 83 10000 2.06 330 01:43 12.06.2022
1601 Clear 17 1000 81 10000 1.95 70 00:59 12.06.2022
1602 Clouds 17 1005 79 10000 2.06 270 00:28 12.06.2022
1603 Clear 19 1006 92 10000 2.37 68 23:56 11.06.2022
1604 Clouds 18 1008 72 10000 1.03 260 22:49 11.06.2022
1605 Clouds 19 1005 72 10000 1.03 260 22:28 11.06.2022
1606 Clear 19 1002 79 10000 2.52 79 20:55 11.06.2022
1607 Clouds 18 1005 82 10000 1.54 150 20:24 11.06.2022
1608 Clouds 19 1005 76 10000 1.03 290 19:32 11.06.2022
1609 Clouds 20 1005 73 10000 5.66 90 18:36 11.06.2022
1610 Clouds 20 1004 76 10000 4.63 70 17:52 11.06.2022
1611 Clouds 19 1005 77 10000 4.63 70 17:29 11.06.2022
1612 Clouds 19 1004 81 10000 6.17 110 16:59 11.06.2022
1613 Thunderstorm 18 1006 85 10000 7.2 90 16:38 11.06.2022
1614 Rain 18 1006 88 10000 3.6 170 15:45 11.06.2022
1615 Thunderstorm 25 1007 55 10000 5.14 320 13:54 11.06.2022
1616 Thunderstorm 26 1007 48 10000 5.14 320 13:25 11.06.2022
1617 Clouds 25 1008 58 10000 2.57 70 11:18 11.06.2022
1618 Clouds 22 1010 70 10000 5.14 80 10:22 11.06.2022
1619 Clouds 18 1014 85 10000 2.06 50 09:38 11.06.2022
1620 Rain 19 1015 67 10000 3.09 270 07:52 11.06.2022
1621 Clouds 19 1011 73 10000 2.06 50 06:31 11.06.2022
1622 Clear 17 1011 79 10000 0.51 0 05:22 11.06.2022
1623 Clouds 18 1007 73 10000 2.06 68 01:53 11.06.2022
1624 Clear 19 1012 72 10000 2.06 130 01:34 11.06.2022
1625 Clear 20 1012 65 10000 3.09 100 00:34 11.06.2022
1626 Clear 20 1011 64 10000 0.51 0 22:35 10.06.2022
1627 Clouds 20 1012 55 10000 1.48 24 21:54 10.06.2022
1628 Clear 21 1013 62 10000 2.06 250 20:43 10.06.2022
1629 Clear 23 1010 57 10000 2.06 250 20:23 10.06.2022
1630 Clear 24 1010 45 10000 2.57 260 19:48 10.06.2022
1631 Clear 25 1010 44 10000 2.57 260 19:18 10.06.2022
1632 Clouds 26 1010 40 10000 3.6 260 18:19 10.06.2022
1633 Clouds 27 1010 42 10000 4.12 260 17:36 10.06.2022
1634 Clouds 26 1006 49 10000 0.45 283 16:58 10.06.2022
1635 Clouds 26 1010 46 10000 4.12 250 15:50 10.06.2022
1636 Clouds 26 1010 46 10000 4.12 250 15:30 10.06.2022
1637 Clouds 26 1010 44 10000 4.12 250 13:49 10.06.2022
1638 Clouds 25 1011 48 10000 2.06 260 12:35 10.06.2022
1639 Clouds 24 1011 53 10000 1.54 240 11:40 10.06.2022
1640 Clouds 23 1011 56 10000 1.03 240 10:43 10.06.2022
1641 Clouds 21 1011 64 10000 3.09 270 09:44 10.06.2022
1642 Clouds 20 1011 67 10000 2.57 200 08:28 10.06.2022
1643 Clouds 16 1011 49 10000 0.27 325 06:53 10.06.2022
1644 Clouds 17 1011 85 10000 1.03 0 06:32 10.06.2022
1645 Clouds 14 1014 97 10000 1.03 0 05:48 10.06.2022
1646 Clouds 15 1011 87 10000 2.57 350 03:41 10.06.2022
1647 Clouds 18 1010 71 10000 4.12 80 01:38 10.06.2022
1648 Clouds 18 1010 72 10000 3.09 10 00:25 10.06.2022
1649 Clouds 19 1010 70 10000 2.57 10 23:28 09.06.2022
1650 Clouds 22 1011 51 10000 1.03 240 21:47 09.06.2022
1651 Clouds 22 1009 49 10000 1.03 240 21:29 09.06.2022
1652 Clouds 23 1005 46 10000 0.61 208 20:54 09.06.2022
1653 Clouds 24 1008 57 10000 0.09 79 19:55 09.06.2022
1654 Clouds 25 1010 35 10000 3.6 220 18:47 09.06.2022
1655 Clouds 25 1008 38 10000 3.6 220 18:21 09.06.2022
1656 Clouds 26 1008 34 10000 3.6 250 16:46 09.06.2022
1657 Clouds 26 1008 35 10000 5.14 260 15:44 09.06.2022
1658 Clouds 25 1009 38 10000 2.57 240 14:34 09.06.2022
1659 Clouds 24 1009 40 10000 4.63 250 13:46 09.06.2022
1660 Clouds 24 1009 40 10000 4.63 250 13:26 09.06.2022
1661 Clear 22 1006 49 10000 1.34 303 11:53 09.06.2022
1662 Clouds 21 1010 55 10000 4.12 270 10:51 09.06.2022
1663 Clouds 20 1010 63 10000 4.63 260 09:42 09.06.2022
1664 Clouds 20 1010 64 10000 4.63 260 09:23 09.06.2022
1665 Clouds 17 1010 82 10000 1.03 0 07:34 09.06.2022
1666 Clear 15 1009 92 10000 1.54 300 05:27 09.06.2022
1667 Clouds 16 1005 82 10000 0.45 268 01:59 09.06.2022
1668 Clouds 16 1008 88 10000 1.03 0 23:34 08.06.2022
1669 Rain 17 1005 84 10000 1.04 200 22:51 08.06.2022
1670 Clouds 16 1009 87 10000 0 0 22:26 08.06.2022
1671 Clouds 17 1008 87 10000 1.54 180 21:49 08.06.2022
1672 Clouds 17 1007 85 10000 2.06 130 20:43 08.06.2022
1673 Clouds 17 1007 83 10000 1.54 0 19:49 08.06.2022
1674 Clouds 18 1007 76 10000 8.75 170 18:58 08.06.2022
1675 Thunderstorm 18 1007 72 10000 8.75 170 18:40 08.06.2022
1676 Thunderstorm 26 1008 43 10000 1.54 0 16:34 08.06.2022
1677 Clouds 26 1003 50 10000 2.24 293 14:54 08.06.2022
1678 Clouds 24 1007 50 10000 2.57 190 13:36 08.06.2022
1679 Clouds 25 1005 51 10000 0.89 198 11:50 08.06.2022
1680 Clouds 24 1008 51 10000 2.24 215 11:24 08.06.2022
1681 Clouds 22 1008 61 10000 1.03 0 09:47 08.06.2022
1682 Clouds 21 1008 62 10000 1.03 0 09:20 08.06.2022
1683 Clear 18 1008 84 10000 1.03 0 07:32 08.06.2022
1684 Fog 14 1008 94 10000 0 0 05:22 08.06.2022
1685 Rain 15 1008 94 10000 1.03 10 02:38 08.06.2022
1686 Clouds 17 1009 91 10000 1.54 290 23:42 07.06.2022
1687 Clouds 17 1009 91 10000 1.54 290 23:24 07.06.2022
1688 Clouds 17 1009 88 10000 1.54 360 22:39 07.06.2022
1689 Clouds 17 1009 88 10000 3.09 40 21:52 07.06.2022
1690 Thunderstorm 16 1009 91 10000 2.57 60 21:27 07.06.2022
1691 Thunderstorm 17 1009 84 10000 4.63 230 20:46 07.06.2022
1692 Thunderstorm 17 1009 85 10000 6.69 160 20:23 07.06.2022
1693 Rain 19 1004 76 10000 2.24 183 18:51 07.06.2022
1694 Clouds 23 1003 54 10000 0.89 305 17:55 07.06.2022
1695 Clouds 22 1007 57 10000 3.6 70 16:56 07.06.2022
1696 Clouds 22 1007 56 10000 3.6 70 16:33 07.06.2022
1697 Clouds 20 1010 73 10000 3.09 30 15:40 07.06.2022
1698 Clouds 20 1010 73 10000 3.09 30 15:22 07.06.2022
1699 Thunderstorm 16 1011 97 10000 6.69 120 14:46 07.06.2022
1700 Thunderstorm 17 1011 82 10000 6.17 100 13:46 07.06.2022
1701 Thunderstorm 17 1011 82 10000 6.17 100 13:46 07.06.2022
1702 Thunderstorm 17 1011 82 10000 6.17 100 13:27 07.06.2022
1703 Thunderstorm 22 1008 56 10000 4.47 291 12:22 07.06.2022
1704 Clouds 23 1005 55 10000 1.1 155 10:57 07.06.2022
1705 Clouds 23 1005 56 10000 2.24 29 09:58 07.06.2022
1706 Clouds 20 1009 62 10000 1.34 52 08:32 07.06.2022
1707 Clouds 17 1010 75 10000 2.06 230 07:21 07.06.2022
1708 Clouds 16 1009 79 10000 0 0 05:47 07.06.2022
1709 Clouds 17 1005 73 10000 0.45 269 02:28 07.06.2022
1710 Clouds 18 1009 69 10000 2.57 220 00:33 07.06.2022
1711 Clouds 18 1012 68 10000 1.03 0 23:32 06.06.2022
1712 Clouds 20 1012 63 10000 3.09 20 22:37 06.06.2022
1713 Clouds 20 1012 68 10000 3.09 330 21:36 06.06.2022
1714 Clouds 20 1012 65 10000 2.57 360 19:53 06.06.2022
1715 Rain 22 1012 46 10000 3.6 300 19:19 06.06.2022
1716 Clouds 22 1009 50 10000 3.6 290 18:38 06.06.2022
1717 Clouds 23 1011 47 10000 2.57 100 17:42 06.06.2022
1718 Clouds 21 1009 60 10000 7.2 130 16:39 06.06.2022
1719 Thunderstorm 21 1012 58 10000 4.63 50 15:39 06.06.2022
1720 Thunderstorm 22 1008 56 10000 11.83 340 14:40 06.06.2022
1721 Clouds 28 1008 34 10000 3.09 0 13:27 06.06.2022
1722 Clouds 27 1009 36 10000 2.68 54 12:38 06.06.2022
1723 Clouds 27 1009 36 10000 2.24 83 12:19 06.06.2022
1724 Clouds 26 1009 38 10000 2.24 100 11:42 06.06.2022
1725 Clouds 24 1010 46 10000 2.06 90 09:41 06.06.2022
1726 Clouds 23 1010 51 10000 1.03 90 08:35 06.06.2022
1727 Clear 20 1011 61 10000 1.54 280 07:37 06.06.2022
1728 Clear 17 1010 73 10000 1.03 0 05:29 06.06.2022
1729 Clear 17 1010 73 10000 1.03 0 05:29 06.06.2022
1730 Clear 17 1013 67 10000 1.03 0 03:46 06.06.2022
1731 Clear 20 1013 56 10000 0 0 01:29 06.06.2022
1732 Clear 20 1013 56 10000 4.12 270 00:42 06.06.2022
1733 Clouds 21 1013 46 10000 2.57 270 23:49 05.06.2022
1734 Clouds 21 1012 79 10000 1.83 17 22:52 05.06.2022
1735 Clouds 23 1013 38 10000 4.63 20 21:26 05.06.2022
1736 Clouds 25 1012 38 10000 7.72 100 19:52 05.06.2022
1737 Clouds 27 1011 33 10000 6.69 40 18:31 05.06.2022
1738 Clouds 27 1011 33 10000 6.69 40 18:31 05.06.2022
1739 Clouds 21 1005 63 10000 0.89 242 17:55 05.06.2022
1740 Clouds 27 1011 30 10000 5.14 20 17:27 05.06.2022
1741 Clouds 27 1011 30 10000 5.14 20 17:27 05.06.2022
1742 Clouds 27 1011 39 10000 5.66 340 16:57 05.06.2022
1743 Thunderstorm 26 1011 40 10000 6.69 330 16:37 05.06.2022
1744 Thunderstorm 26 1011 40 10000 6.69 330 16:37 05.06.2022
1745 Thunderstorm 26 1011 40 10000 6.69 330 16:37 05.06.2022
1746 Clouds 29 1009 32 10000 5.14 50 14:34 05.06.2022
1747 Clouds 28 1006 37 10000 0.45 346 12:59 05.06.2022
1748 Clouds 27 1011 36 10000 3.6 90 11:49 05.06.2022
1749 Clear 26 1011 39 10000 2.06 30 10:43 05.06.2022
1750 Clouds 25 1007 45 10000 1.34 322 10:22 05.06.2022
1751 Clear 22 1011 50 10000 1.54 0 08:40 05.06.2022
1752 Clouds 22 1007 54 10000 0.45 284 08:20 05.06.2022
1753 Clear 17 1011 68 10000 0 0 05:23 05.06.2022
1754 Clear 16 1011 67 10000 0 0 04:30 05.06.2022
1755 Clear 19 1010 55 10000 3.09 340 01:33 05.06.2022
1756 Clouds 18 1006 62 10000 2.68 52 00:52 05.06.2022
1757 Thunderstorm 19 1012 58 10000 7.72 70 22:44 04.06.2022
1758 Rain 24 1012 79 10000 1.9 74 20:55 04.06.2022
1759 Rain 27 1013 82 10000 3.48 10 18:53 04.06.2022
1760 Thunderstorm 30 1010 30 10000 9.26 330 16:47 04.06.2022
1761 Clouds 31 1003 19 10000 2.68 79 16:19 04.06.2022
1762 Clouds 32 1007 19 10000 3.09 70 15:22 04.06.2022
1763 Clouds 31 1008 25 10000 5.14 30 13:46 04.06.2022
1764 Clear 29 1009 29 10000 3.6 360 11:23 04.06.2022
1765 Clear 29 1004 32 10000 1.34 40 10:50 04.06.2022
1766 Clear 27 1009 37 10000 2.06 0 09:45 04.06.2022
1767 Clear 24 1010 46 10000 2.68 323 08:44 04.06.2022
1768 Clouds 23 1005 49 10000 0.89 312 07:51 04.06.2022
1769 Clear 16 1013 85 10000 0 0 05:38 04.06.2022
1770 Clear 19 1011 80 10000 3.09 360 02:36 04.06.2022
1771 Rain 20 1011 73 10000 4.12 290 00:20 04.06.2022
1772 Clouds 22 1013 58 10000 4.63 340 22:41 03.06.2022
1773 Clear 23 1014 56 10000 5.66 340 21:39 03.06.2022
1774 Clouds 24 1012 51 10000 8.23 290 20:38 03.06.2022
1775 Clouds 28 1011 66 10000 6.87 316 18:54 03.06.2022
1776 Clouds 30 1002 31 10000 0.45 78 16:54 03.06.2022
1777 Clouds 32 1007 26 10000 3.09 340 15:40 03.06.2022
1778 Clouds 31 1008 29 10000 3.6 30 13:49 03.06.2022
1779 Clouds 29 1004 31 10000 1.34 103 11:51 03.06.2022
1780 Clouds 27 1004 38 10000 0.89 349 09:53 03.06.2022
1781 Clear 26 1009 41 10000 4.63 0 09:28 03.06.2022
1782 Clear 23 1009 52 10000 2.57 270 07:42 03.06.2022
1783 Clear 22 1009 51 10000 1.54 210 06:45 03.06.2022
1784 Clear 20 1012 55 10000 1.54 210 06:27 03.06.2022
1785 Clouds 19 1010 61 10000 3.09 350 02:24 03.06.2022
1786 Thunderstorm 22 1012 62 10000 3.6 170 23:36 02.06.2022
1787 Thunderstorm 26 1011 36 10000 3.6 50 21:57 02.06.2022
1788 Clear 28 1011 32 10000 6.69 70 20:26 02.06.2022
1789 Clouds 27 1010 52 10000 3.55 51 19:53 02.06.2022
1790 Clouds 29 1011 28 10000 6.17 50 19:35 02.06.2022
1791 Clouds 29 1007 26 10000 6.69 40 18:34 02.06.2022
1792 Clouds 31 1008 24 10000 5.66 40 16:28 02.06.2022
1793 Clouds 31 1008 25 10000 5.66 50 15:30 02.06.2022
1794 Clouds 30 1009 27 10000 4.63 50 13:30 02.06.2022
1795 Clouds 29 1010 28 10000 5.14 40 12:46 02.06.2022
1796 Clouds 27 1010 31 10000 6.17 50 10:32 02.06.2022
1797 Clear 26 1011 32 10000 4.63 70 09:29 02.06.2022
1798 Clear 24 1011 35 10000 5.66 70 08:30 02.06.2022
1799 Clouds 23 1006 44 10000 0.89 340 07:58 02.06.2022
1800 Clouds 19 1006 60 10000 0.45 4 06:20 02.06.2022
1801 Clear 17 1015 61 10000 1.54 210 03:49 02.06.2022
1802 Clear 20 1015 43 10000 2.57 240 00:31 02.06.2022
1803 Clouds 21 1014 75 10000 1.83 296 22:57 01.06.2022
1804 Clouds 24 1014 36 10000 5.14 290 21:45 01.06.2022
1805 Clouds 24 1014 36 10000 5.14 290 21:22 01.06.2022
1806 Clouds 24 1014 36 10000 5.14 290 21:22 01.06.2022
1807 Clouds 24 1013 33 10000 3.6 70 20:38 01.06.2022
1808 Clouds 25 1013 63 10000 3.73 9 19:50 01.06.2022
1809 Clouds 28 1012 27 10000 7.72 40 18:24 01.06.2022
1810 Clouds 30 1012 20 10000 3.09 80 16:48 01.06.2022
1811 Clouds 30 1009 22 10000 4.12 40 15:42 01.06.2022
1812 Clouds 30 1010 22 10000 2.57 0 14:35 01.06.2022
1813 Clouds 29 1011 26 10000 3.6 70 12:46 01.06.2022
1814 Clouds 26 1011 30 10000 4.12 90 10:42 01.06.2022
1815 Clear 25 1012 33 10000 4.12 70 09:27 01.06.2022
1816 Clear 23 1007 40 10000 1.34 68 07:57 01.06.2022
1817 Clear 22 1012 45 10000 1.34 16 07:20 01.06.2022
1818 Rain 15 1015 55 10000 1.03 0 03:22 01.06.2022
1819 Clear 23 1014 35 10000 3.09 80 23:47 31.05.2022
1820 Clear 23 1015 33 10000 5.14 60 22:38 31.05.2022
1821 Clear 23 1015 33 10000 5.14 60 22:19 31.05.2022
1822 Clouds 22 1014 55 10000 5.02 50 21:22 31.05.2022
1823 Clouds 25 1013 34 10000 3.6 50 20:41 31.05.2022
1824 Clouds 27 1012 23 10000 4.12 340 19:22 31.05.2022
1825 Clouds 29 1012 20 10000 5.66 40 18:19 31.05.2022
1826 Clouds 30 1012 22 10000 4.12 10 17:37 31.05.2022
1827 Clouds 31 1009 21 10000 6.69 240 15:42 31.05.2022
1828 Clouds 31 1009 21 10000 6.69 240 15:22 31.05.2022
1829 Clouds 29 1011 23 10000 3.09 240 12:39 31.05.2022
1830 Clouds 29 1011 27 10000 3.09 240 12:18 31.05.2022
1831 Clear 26 1007 39 10000 1.34 304 09:53 31.05.2022
1832 Clear 22 1012 49 10000 2.06 280 07:42 31.05.2022
1833 Clear 17 1012 64 10000 0.51 0 05:38 31.05.2022
1834 Rain 18 1011 58 10000 2.06 340 03:41 31.05.2022
1835 Rain 20 1014 42 10000 1.54 190 23:39 30.05.2022
1836 Rain 20 1014 42 10000 1.54 190 23:18 30.05.2022
1837 Rain 22 1013 34 10000 3.09 300 22:32 30.05.2022
1838 Clear 22 1013 33 10000 1.03 0 21:37 30.05.2022
1839 Clear 27 1013 23 10000 1.54 330 20:41 30.05.2022
1840 Clouds 29 1012 17 10000 3.09 250 19:40 30.05.2022
1841 Clouds 32 1012 14 10000 5.66 240 17:48 30.05.2022
1842 Clouds 31 1009 15 10000 5.66 240 17:20 30.05.2022
1843 Clouds 32 1005 17 10000 1.34 204 15:51 30.05.2022
1844 Clouds 31 1011 18 10000 6.69 260 13:21 30.05.2022
1845 Clouds 30 1011 23 10000 3.6 230 11:30 30.05.2022
1846 Clouds 27 1012 34 10000 3.09 100 09:41 30.05.2022
1847 Clear 22 1012 54 10000 1.03 0 07:34 30.05.2022
1848 Clouds 21 1008 55 10000 1.12 82 05:54 30.05.2022
1849 Clear 19 1015 61 10000 3.6 100 03:22 30.05.2022
1850 Rain 21 1013 55 10000 9.26 270 23:58 29.05.2022
1851 Clouds 25 1014 30 10000 2.57 110 22:40 29.05.2022
1852 Clouds 26 1014 30 10000 1.54 130 21:44 29.05.2022
1853 Clouds 26 1014 34 10000 2.57 120 20:18 29.05.2022
1854 Clouds 27 1013 28 10000 3.09 160 19:28 29.05.2022
1855 Clear 30 1007 30 10000 0.89 110 17:56 29.05.2022
1856 Clouds 30 1011 26 10000 2.57 100 16:20 29.05.2022
1857 Clouds 30 1011 26 10000 3.09 180 15:41 29.05.2022
1858 Clouds 30 1012 27 10000 2.57 290 14:49 29.05.2022
1859 Clear 28 1009 32 10000 1.34 303 12:21 29.05.2022
1860 Clear 27 1009 33 10000 0.89 298 10:56 29.05.2022
1861 Clear 25 1010 38 10000 0.45 338 09:54 29.05.2022
1862 Clear 22 1010 44 10000 0.91 246 07:55 29.05.2022
1863 Clear 17 1009 57 10000 0.23 20 04:58 29.05.2022
1864 Clear 12 1015 66 10000 0 0 04:32 29.05.2022
1865 Rain 14 1015 56 10000 0 0 01:23 29.05.2022
1866 Rain 18 1015 45 10000 1.03 0 23:47 28.05.2022
1867 Rain 18 1015 45 10000 1.03 0 23:19 28.05.2022
1868 Rain 21 1012 53 10000 1.34 335 21:52 28.05.2022
1869 Rain 24 1013 30 10000 4.12 320 20:46 28.05.2022
1870 Clouds 26 1013 28 10000 4.12 250 19:19 28.05.2022
1871 Clouds 27 1010 26 10000 3.09 280 18:23 28.05.2022
1872 Clouds 27 1010 22 10000 4.63 260 17:32 28.05.2022
1873 Clouds 28 1010 21 10000 4.12 290 15:49 28.05.2022
1874 Clouds 28 1010 21 10000 4.12 290 15:20 28.05.2022
1875 Clouds 26 1011 27 10000 5.66 220 13:36 28.05.2022
1876 Clouds 26 1012 29 10000 5.14 270 12:42 28.05.2022
1877 Clouds 25 1012 31 10000 4.63 250 11:37 28.05.2022
1878 Clouds 23 1012 36 10000 4.12 280 10:39 28.05.2022
1879 Clear 23 1008 47 10000 3.13 275 09:54 28.05.2022
1880 Clear 20 1013 55 10000 2.57 280 08:24 28.05.2022
1881 Clear 16 1013 68 10000 1.03 260 06:34 28.05.2022
1882 Clear 15 1013 72 10000 1.03 0 04:46 28.05.2022
1883 Rain 15 1016 65 10000 0.51 0 02:18 28.05.2022
1884 Rain 17 1015 68 10000 1.73 14 23:57 27.05.2022
1885 Rain 20 1016 49 10000 1.54 200 22:38 27.05.2022
1886 Clear 21 1016 44 10000 3.09 340 21:28 27.05.2022
1887 Clouds 22 1016 40 10000 3.09 330 20:44 27.05.2022
1888 Clouds 21 1015 57 10000 1.86 0 20:19 27.05.2022
1889 Clouds 24 1016 34 10000 2.06 340 19:37 27.05.2022
1890 Clouds 24 1016 34 10000 2.06 340 19:19 27.05.2022
1891 Clouds 24 1016 34 10000 2.06 340 19:19 27.05.2022
1892 Clouds 25 1010 38 10000 0.89 306 17:19 27.05.2022
1893 Clouds 26 1010 33 10000 0.45 316 15:56 27.05.2022
1894 Clouds 25 1011 35 10000 4.19 354 14:53 27.05.2022
1895 Clouds 25 1016 32 10000 2.57 260 13:40 27.05.2022
1896 Clouds 25 1013 35 10000 0.89 340 11:55 27.05.2022
1897 Clouds 24 1017 34 10000 2.57 0 11:30 27.05.2022
1898 Clouds 24 1018 36 10000 3.09 0 10:41 27.05.2022
1899 Clear 23 1014 42 10000 2.24 305 09:59 27.05.2022
1900 Clouds 22 1018 41 10000 3.09 30 09:29 27.05.2022
1901 Clear 20 1017 61 10000 1.03 0 07:30 27.05.2022
1902 Clear 15 1020 74 10000 1.03 0 03:38 27.05.2022
1903 Clear 17 1021 61 10000 2.06 320 01:27 27.05.2022
1904 Clear 20 1020 54 10000 3.09 330 23:23 26.05.2022
1905 Rain 22 1018 58 10000 2.34 339 21:57 26.05.2022
1906 Clear 23 1020 36 10000 4.63 320 21:27 26.05.2022
1907 Clouds 26 1018 31 10000 4.12 350 19:34 26.05.2022
1908 Clouds 27 1018 26 10000 5.14 330 18:45 26.05.2022
1909 Clouds 28 1017 23 10000 6.69 340 17:36 26.05.2022
1910 Clouds 29 1015 23 10000 5.66 320 16:18 26.05.2022
1911 Clouds 29 1016 25 10000 6.17 310 15:24 26.05.2022
1912 Clear 27 1013 34 10000 0.89 72 13:58 26.05.2022
1913 Clear 25 1014 38 10000 0.45 340 11:59 26.05.2022
1914 Clear 24 1018 36 10000 3.6 280 11:18 26.05.2022
1915 Clear 21 1018 38 10000 1.54 0 09:38 26.05.2022
1916 Clear 19 1019 49 10000 1.54 260 08:40 26.05.2022
1917 Clear 19 1019 49 10000 1.54 260 08:39 26.05.2022
1918 Clear 12 1018 70 10000 1.54 100 05:30 26.05.2022
1919 Clear 12 1020 64 10000 2.57 130 02:20 26.05.2022
1920 Rain 13 1018 63 10000 1.24 354 23:52 25.05.2022
1921 Clear 15 1018 61 10000 1.29 14 22:52 25.05.2022
1922 Clear 18 1019 42 10000 2.06 350 21:42 25.05.2022
1923 Clear 20 1018 42 10000 1.03 0 20:49 25.05.2022
1924 Clear 23 1018 31 10000 1.54 320 19:42 25.05.2022
1925 Clear 24 1018 30 10000 2.06 290 18:47 25.05.2022
1926 Clouds 24 1013 33 10000 1.34 294 16:58 25.05.2022
1927 Clouds 24 1016 29 10000 3.09 290 16:27 25.05.2022
1928 Clouds 24 1016 31 10000 4.12 240 15:36 25.05.2022
1929 Clear 23 1013 33 10000 1.34 254 14:50 25.05.2022
1930 Clouds 23 1016 31 10000 4.12 270 14:31 25.05.2022
1931 Clouds 22 1017 33 10000 3.6 280 13:23 25.05.2022
1932 Clouds 20 1014 41 10000 1.34 302 11:49 25.05.2022
1933 Clouds 20 1018 35 10000 1.54 0 10:24 25.05.2022
1934 Clouds 17 1017 40 10000 1.03 260 09:29 25.05.2022
1935 Clouds 15 1014 56 10000 0.58 307 07:36 25.05.2022
1936 Clear 13 1016 56 10000 1.03 0 05:41 25.05.2022
1937 Clouds 14 1012 51 10000 0.66 352 02:41 25.05.2022
1938 Clear 12 1016 48 10000 1.03 340 23:48 24.05.2022
1939 Clear 12 1015 60 10000 1.25 4 22:59 24.05.2022
1940 Clear 13 1015 57 10000 1.51 21 21:57 24.05.2022
1941 Clear 16 1015 38 10000 1.54 60 21:37 24.05.2022
1942 Clear 16 1015 38 10000 1.54 60 21:18 24.05.2022
1943 Clouds 18 1013 47 10000 3.41 344 19:23 24.05.2022
1944 Clouds 20 1010 34 10000 2.24 337 18:29 24.05.2022
1945 Clouds 21 1012 26 10000 3.6 280 16:39 24.05.2022
1946 Clouds 21 1012 31 10000 3.6 290 15:45 24.05.2022
1947 Clouds 21 1012 28 10000 5.14 330 14:38 24.05.2022
1948 Clouds 20 1012 30 10000 3.6 230 13:46 24.05.2022
1949 Clouds 19 1013 32 10000 3.6 0 12:24 24.05.2022
1950 Clear 16 1010 39 10000 2.24 317 09:52 24.05.2022
1951 Clear 15 1010 54 10000 2.68 302 08:52 24.05.2022
1952 Clear 13 1010 63 10000 0.45 307 07:56 24.05.2022
1953 Clear 10 1012 76 10000 2.06 230 06:39 24.05.2022
1954 Clear 9 1012 81 10000 1.54 270 03:38 24.05.2022
1955 Clear 11 1013 76 10000 2.57 240 01:46 24.05.2022
1956 Clear 10 1013 75 10000 1.54 360 00:34 24.05.2022
1957 Clear 12 1011 70 10000 3.6 270 22:24 23.05.2022
1958 Clear 13 1007 68 10000 1.99 300 21:53 23.05.2022
1959 Clear 13 1010 64 10000 4.12 20 20:49 23.05.2022
1960 Clouds 14 1006 65 10000 2.68 316 19:55 23.05.2022
1961 Clouds 15 1009 58 10000 4.12 330 19:24 23.05.2022
1962 Clouds 15 1008 57 10000 4.12 330 18:41 23.05.2022
1963 Clouds 15 1008 57 10000 4.12 330 18:41 23.05.2022
1964 Clouds 16 1004 63 10000 2.68 320 17:56 23.05.2022
1965 Clouds 17 1008 48 10000 2.06 0 16:29 23.05.2022
1966 Thunderstorm 20 1003 43 10000 3.09 290 14:18 23.05.2022
1967 Clouds 21 1002 39 10000 2.68 300 11:53 23.05.2022
1968 Clouds 20 1002 41 10000 1.34 286 10:58 23.05.2022
1969 Clouds 17 1006 47 10000 3.6 0 09:48 23.05.2022
1970 Clouds 17 1006 53 10000 6.17 310 08:47 23.05.2022
1971 Clear 16 1006 57 10000 5.14 300 07:37 23.05.2022
1972 Clear 15 1006 66 10000 3.09 300 06:41 23.05.2022
1973 Clouds 13 1007 73 10000 2.03 299 03:52 23.05.2022
1974 Rain 15 1008 58 10000 1.03 0 02:18 23.05.2022
1975 Rain 15 1007 56 10000 1.54 230 01:33 23.05.2022
1976 Clear 16 1008 48 10000 1.03 0 23:22 22.05.2022
1977 Clear 16 1008 48 10000 2.57 280 22:33 22.05.2022
1978 Clear 18 1008 40 10000 2.57 40 21:53 22.05.2022
1979 Clouds 19 1006 63 10000 2.45 326 20:50 22.05.2022
1980 Clear 19 1005 39 10000 5.66 320 20:23 22.05.2022
1981 Clouds 19 1004 37 10000 5.66 20 19:42 22.05.2022
1982 Clear 20 1001 40 10000 1.34 8 18:52 22.05.2022
1983 Clouds 21 1004 34 10000 8.75 340 18:22 22.05.2022
1984 Clouds 25 1003 20 10000 4.63 290 17:26 22.05.2022
1985 Clear 26 1000 16 10000 0.45 227 15:59 22.05.2022
1986 Clear 26 1005 15 10000 3.09 90 14:48 22.05.2022
1987 Clear 26 1006 18 10000 2.57 70 13:22 22.05.2022
1988 Clear 24 1006 20 10000 3.09 150 12:48 22.05.2022
1989 Clear 24 1007 22 10000 2.57 300 11:29 22.05.2022
1990 Clear 21 1009 30 10000 2.24 313 09:41 22.05.2022
1991 Clear 19 1010 37 10000 1.03 0 08:21 22.05.2022
1992 Clear 16 1010 47 10000 1.03 0 07:21 22.05.2022
1993 Clear 15 1008 46 10000 0.12 349 04:59 22.05.2022
1994 Rain 13 1012 50 10000 1.03 0 01:26 22.05.2022
1995 Rain 11 1015 50 10000 0.51 0 00:39 22.05.2022
1996 Clear 12 1014 48 10000 0.47 65 23:50 21.05.2022
1997 Clear 14 1015 44 10000 1.03 0 22:26 21.05.2022
1998 Clear 16 1015 32 10000 1.03 0 21:41 21.05.2022
1999 Clear 18 1015 28 10000 1.03 0 20:48 21.05.2022
2000 Clear 18 1015 28 10000 1.03 0 20:21 21.05.2022
2001 Clear 22 1016 21 10000 2.57 250 19:25 21.05.2022
2002 Clear 24 1016 20 10000 1.54 0 17:47 21.05.2022
2003 Clear 24 1016 23 10000 2.06 0 15:44 21.05.2022
2004 Clear 23 1017 26 10000 2.57 0 14:37 21.05.2022
2005 Clear 23 1018 29 10000 2.06 0 13:41 21.05.2022
2006 Clear 22 1019 32 10000 2.06 0 12:41 21.05.2022
2007 Clear 21 1016 35 10000 0.89 319 11:56 21.05.2022
2008 Clear 18 1018 44 10000 1.34 89 10:22 21.05.2022
2009 Clear 18 1018 44 10000 1.34 89 10:22 21.05.2022
2010 Clear 17 1021 43 10000 1.54 0 09:38 21.05.2022
2011 Clear 16 1019 48 10000 0.89 283 08:52 21.05.2022
2012 Clear 11 1020 64 10000 1.19 82 06:28 21.05.2022
2013 Clear 9 1022 65 10000 0.51 0 02:26 21.05.2022
2014 Clear 12 1021 55 10000 1.36 93 23:50 20.05.2022
2015 Clear 12 1022 49 10000 1.03 0 22:42 20.05.2022
2016 Clear 12 1022 49 10000 1.03 0 22:42 20.05.2022
2017 Clear 13 1022 48 10000 1.03 0 22:23 20.05.2022
2018 Clear 13 1023 42 10000 2.06 130 21:40 20.05.2022
2019 Clear 15 1023 35 10000 1.54 140 20:54 20.05.2022
2020 Clear 15 1020 43 10000 2.32 110 19:57 20.05.2022
2021 Clear 16 1020 39 10000 1.34 107 19:24 20.05.2022
2022 Clear 17 1020 34 10000 3.13 100 18:28 20.05.2022
2023 Clear 19 1022 27 10000 3.13 89 16:53 20.05.2022
2024 Clear 19 1021 31 10000 2.24 44 15:58 20.05.2022
2025 Clouds 19 1022 26 10000 3.6 110 15:40 20.05.2022
2026 Clouds 18 1023 28 10000 3.6 60 14:29 20.05.2022
2027 Clear 17 1022 37 10000 0.89 77 13:54 20.05.2022
2028 Clouds 15 1025 36 10000 3.09 10 11:22 20.05.2022
2029 Clear 13 1024 45 10000 0.89 155 09:51 20.05.2022
2030 Clear 12 1025 47 10000 2.57 110 08:43 20.05.2022
2031 Clear 6 1024 71 10000 0 0 06:47 20.05.2022
2032 Clear 6 1024 71 10000 0 0 06:24 20.05.2022
2033 Clear 5 1024 74 10000 0 0 04:22 20.05.2022
2034 Clear 7 1023 60 10000 2.06 100 00:24 20.05.2022
2035 Clear 9 1023 55 10000 3.6 330 22:46 19.05.2022
2036 Clouds 9 1021 61 10000 1.34 358 21:59 19.05.2022
2037 Clear 9 1023 53 10000 4.12 10 21:40 19.05.2022
2038 Clear 9 1023 52 10000 4.12 10 21:22 19.05.2022
2039 Clouds 10 1022 50 10000 5.66 20 20:25 19.05.2022
2040 Clouds 12 1021 46 10000 5.66 360 19:34 19.05.2022
2041 Clouds 13 1020 41 10000 5.14 350 18:19 19.05.2022
2042 Clouds 14 1019 36 10000 4.12 350 16:31 19.05.2022
2043 Clouds 15 1016 41 10000 2.68 348 14:52 19.05.2022
2044 Clouds 14 1016 44 10000 2.68 311 14:23 19.05.2022
2045 Clouds 13 1016 48 10000 0.45 332 12:35 19.05.2022
2046 Clouds 11 1016 55 10000 1.34 308 11:25 19.05.2022
2047 Clouds 11 1015 61 10000 0.45 294 08:59 19.05.2022
2048 Clouds 9 1018 63 10000 7.2 350 07:48 19.05.2022
2049 Clouds 9 1012 74 10000 3.13 292 04:50 19.05.2022
2050 Thunderstorm 12 1014 76 10000 5.14 310 01:58 19.05.2022
2051 Clouds 15 1010 70 10000 3.58 294 23:53 18.05.2022
2052 Clear 17 1014 59 10000 3.09 310 22:46 18.05.2022
2053 Clear 17 1014 59 10000 3.09 310 22:46 18.05.2022
2054 Clouds 19 1011 52 10000 3.09 360 21:47 18.05.2022
2055 Clouds 19 1013 50 10000 3.09 360 21:26 18.05.2022
2056 Clouds 20 1012 41 10000 3.6 360 20:24 18.05.2022
2057 Clouds 23 1011 29 10000 4.12 300 19:39 18.05.2022
2058 Clouds 24 1011 25 10000 4.63 260 18:21 18.05.2022
2059 Clouds 26 1012 22 10000 5.66 260 17:41 18.05.2022
2060 Clouds 25 1010 23 10000 5.66 260 17:23 18.05.2022
2061 Clouds 25 1010 22 10000 5.14 240 16:31 18.05.2022
2062 Clouds 25 1010 25 10000 8.23 240 15:40 18.05.2022
2063 Clouds 25 1011 27 10000 6.17 260 14:35 18.05.2022
2064 Clouds 25 1012 28 10000 7.72 270 13:22 18.05.2022
2065 Clouds 24 1012 35 10000 7.2 250 12:40 18.05.2022
2066 Clouds 23 1012 36 10000 5.66 240 11:34 18.05.2022
2067 Clear 23 1010 36 10000 0.89 248 10:56 18.05.2022
2068 Clear 20 1013 47 10000 2.06 290 09:24 18.05.2022
2069 Clear 16 1014 62 10000 1.54 90 07:32 18.05.2022
2070 Clear 10 1014 83 10000 1.03 0 05:34 18.05.2022
2071 Clear 12 1015 75 10000 2.06 80 00:52 18.05.2022
2072 Clear 13 1015 75 10000 2.06 80 00:20 18.05.2022
2073 Clear 16 1016 61 10000 2.06 330 21:36 17.05.2022
2074 Clear 16 1016 62 10000 2.06 330 21:18 17.05.2022
2075 Clear 18 1015 56 10000 2.57 70 19:49 17.05.2022
2076 Clear 18 1015 55 10000 2.57 70 19:26 17.05.2022
2077 Clouds 18 1015 52 10000 4.63 120 17:50 17.05.2022
2078 Rain 20 1012 46 10000 1.34 212 16:58 17.05.2022
2079 Clouds 21 1015 36 10000 4.12 200 16:29 17.05.2022
2080 Clouds 22 1015 33 10000 3.09 90 15:24 17.05.2022
2081 Clouds 20 1015 34 10000 4.12 80 14:30 17.05.2022
2082 Clouds 20 1015 34 10000 4.12 80 14:30 17.05.2022
2083 Clouds 20 1015 33 10000 4.12 80 14:30 17.05.2022
2084 Clouds 20 1015 33 10000 4.12 80 14:30 17.05.2022
2085 Clouds 20 1015 33 10000 4.12 80 14:30 17.05.2022
2086 Rain 22 1017 34 10000 6.69 30 13:32 17.05.2022
2087 Rain 20 1013 54 10000 3.58 311 11:21 17.05.2022
2088 Clouds 18 1017 57 10000 1.54 200 09:23 17.05.2022
2089 Clouds 16 1017 68 10000 0.51 0 08:23 17.05.2022
2090 Clouds 12 1017 87 10000 0 0 06:45 17.05.2022
2091 Clouds 13 1014 83 10000 1.01 39 02:55 17.05.2022
2092 Clouds 13 1017 83 10000 1.54 360 00:32 17.05.2022
2093 Clouds 15 1018 76 10000 1.03 0 22:42 16.05.2022
2094 Clouds 15 1018 72 10000 2.06 230 21:36 16.05.2022
2095 Clouds 16 1018 65 10000 2.06 100 20:46 16.05.2022
2096 Clouds 16 1018 62 10000 3.6 140 19:22 16.05.2022
2097 Clouds 16 1017 64 10000 4.63 110 18:18 16.05.2022
2098 Clouds 20 1017 46 10000 4.02 343 15:49 16.05.2022
2099 Clouds 23 1018 36 10000 2.57 310 13:49 16.05.2022
2100 Clouds 22 1018 38 10000 2.57 310 13:20 16.05.2022
2101 Clouds 20 1019 45 10000 1.54 60 10:53 16.05.2022
2102 Clouds 17 1020 57 10000 1.03 0 09:23 16.05.2022
2103 Clear 11 1019 91 10000 0 0 06:34 16.05.2022
2104 Clear 12 1015 85 10000 0.8 290 03:31 16.05.2022
2105 Clouds 12 1018 83 10000 1.03 0 23:26 15.05.2022
2106 Clouds 12 1017 81 10000 2.57 100 22:29 15.05.2022
2107 Clouds 13 1017 80 10000 1.54 220 21:44 15.05.2022
2108 Clouds 14 1014 74 10000 1.63 13 20:54 15.05.2022
2109 Clouds 14 1015 73 10000 3.6 230 19:28 15.05.2022
2110 Clouds 16 1012 67 10000 2.24 22 17:51 15.05.2022
2111 Clouds 17 1010 65 10000 0.89 326 15:56 15.05.2022
2112 Clouds 18 1012 67 10000 2.68 284 13:54 15.05.2022
2113 Rain 19 1013 59 10000 4.02 348 12:26 15.05.2022
2114 Clouds 18 1014 63 10000 2.57 210 11:38 15.05.2022
2115 Clouds 16 1016 70 10000 2.57 250 10:25 15.05.2022
2116 Clouds 13 1017 82 10000 1.54 350 08:32 15.05.2022
2117 Rain 14 1011 76 10000 1.42 43 06:58 15.05.2022
2118 Clouds 13 1016 60 10000 1.54 310 05:33 15.05.2022
2119 Clear 18 1016 44 10000 3.09 10 00:49 15.05.2022
2120 Clear 17 1016 46 10000 3.09 80 23:38 14.05.2022
2121 Clear 17 1016 46 10000 2.06 220 22:45 14.05.2022
2122 Clear 18 1013 44 10000 2.06 310 21:28 14.05.2022
2123 Clear 19 1015 35 10000 3.6 340 20:44 14.05.2022
2124 Clear 22 1014 24 10000 1.54 270 19:37 14.05.2022
2125 Clear 22 1014 24 10000 1.54 270 19:19 14.05.2022
2126 Clear 25 1012 39 10000 1.31 244 17:56 14.05.2022
2127 Clear 24 1012 22 10000 4.63 240 16:37 14.05.2022
2128 Clouds 25 1013 21 10000 5.14 260 15:23 14.05.2022
2129 Clouds 25 1013 21 10000 6.69 260 14:33 14.05.2022
2130 Clear 24 1014 26 10000 5.66 240 12:23 14.05.2022
2131 Clear 23 1011 32 10000 0.45 210 10:54 14.05.2022
2132 Clear 22 1014 31 10000 2.06 0 10:20 14.05.2022
2133 Clear 22 1011 35 10000 0.45 271 09:53 14.05.2022
2134 Clouds 18 1015 39 10000 1.03 0 08:49 14.05.2022
2135 Clear 12 1015 55 10000 0.51 340 05:47 14.05.2022
2136 Clear 13 1015 50 10000 2.06 90 02:32 14.05.2022
2137 Clear 14 1018 45 10000 1.54 100 23:36 13.05.2022
2138 Clear 14 1017 39 10000 1.25 101 22:58 13.05.2022
2139 Clear 15 1018 41 10000 0.51 110 22:25 13.05.2022
2140 Clear 17 1018 36 10000 2.57 130 21:39 13.05.2022
2141 Clear 18 1018 33 10000 1.54 260 20:44 13.05.2022
2142 Clear 18 1018 33 10000 1.54 260 20:24 13.05.2022
2143 Clear 22 1017 24 10000 3.6 230 19:25 13.05.2022
2144 Clear 24 1016 35 10000 2.97 165 17:50 13.05.2022
2145 Clear 24 1016 22 10000 2.68 215 17:27 13.05.2022
2146 Clear 25 1017 21 10000 4.12 240 16:18 13.05.2022
2147 Clear 23 1014 26 10000 0.45 80 15:20 13.05.2022
2148 Clear 23 1019 25 10000 3.09 0 13:29 13.05.2022
2149 Clear 22 1020 26 10000 3.09 20 12:25 13.05.2022
2150 Clear 21 1018 30 10000 1.62 197 10:53 13.05.2022
2151 Clear 19 1022 33 10000 1.54 80 09:33 13.05.2022
2152 Clear 16 1022 40 10000 2.57 90 08:24 13.05.2022
2153 Clear 14 1022 46 10000 0.51 0 07:42 13.05.2022
2154 Clear 11 1019 56 10000 1.28 97 05:59 13.05.2022
2155 Clear 8 1022 58 10000 1.54 140 02:44 13.05.2022
2156 Clear 11 1021 48 10000 1.51 77 23:56 12.05.2022
2157 Clear 12 1022 47 10000 1.54 340 22:44 12.05.2022
2158 Clear 13 1022 45 10000 1.26 83 21:54 12.05.2022
2159 Clear 17 1021 30 10000 2.06 60 20:27 12.05.2022
2160 Clouds 21 1020 23 10000 4.12 260 18:50 12.05.2022
2161 Clouds 21 1017 26 10000 2.42 350 16:58 12.05.2022
2162 Clouds 21 1017 28 10000 2.24 22 15:50 12.05.2022
2163 Clouds 21 1020 25 10000 2.24 266 14:39 12.05.2022
2164 Clouds 19 1020 28 10000 3.09 330 13:34 12.05.2022
2165 Clouds 17 1021 37 10000 3.09 90 10:43 12.05.2022
2166 Clear 15 1021 43 10000 1.54 0 09:24 12.05.2022
2167 Clear 15 1019 51 10000 1.94 13 08:50 12.05.2022
2168 Clear 11 1021 66 10000 1.54 230 07:38 12.05.2022
2169 Clear 8 1020 88 10000 0 0 05:35 12.05.2022
2170 Clear 9 1019 83 10000 0.51 0 02:49 12.05.2022
2171 Clear 10 1019 86 10000 1.03 0 00:33 12.05.2022
2172 Clear 12 1018 86 10000 0.51 0 22:34 11.05.2022
2173 Clouds 12 1018 77 10000 1.03 0 21:38 11.05.2022
2174 Rain 13 1017 67 10000 2.57 330 20:55 11.05.2022
2175 Clouds 16 1015 53 10000 6.69 240 18:27 11.05.2022
2176 Clouds 18 1012 42 10000 1.34 180 16:51 11.05.2022
2177 Clouds 18 1014 39 10000 5.14 240 16:51 11.05.2022
2178 Clouds 19 1012 37 10000 0.45 190 14:58 11.05.2022
2179 Clouds 19 1015 34 10000 4.63 10 14:38 11.05.2022
2180 Clouds 18 1015 36 10000 4.63 10 14:18 11.05.2022
2181 Clouds 20 1012 28 10000 2.24 273 11:52 11.05.2022
2182 Clouds 19 1016 29 10000 2.57 0 10:32 11.05.2022
2183 Clouds 16 1016 39 10000 1.54 260 08:37 11.05.2022
2184 Clear 9 1015 52 10000 1.03 0 05:27 11.05.2022
2185 Clear 9 1018 53 10000 0 0 00:42 11.05.2022
2186 Clear 13 1016 40 10000 1.03 0 22:30 10.05.2022
2187 Clear 14 1016 48 10000 1.41 106 21:55 10.05.2022
2188 Clear 15 1016 51 10000 1.9 100 20:54 10.05.2022
2189 Clouds 18 1015 31 10000 3.09 70 19:27 10.05.2022
2190 Clouds 19 1012 35 10000 3.13 333 17:54 10.05.2022
2191 Clouds 20 1012 24 10000 0.45 85 16:56 10.05.2022
2192 Clouds 20 1016 27 10000 2.57 0 14:48 10.05.2022
2193 Clouds 19 1017 34 10000 2.24 29 12:39 10.05.2022
2194 Clouds 17 1018 39 10000 2.06 0 11:50 10.05.2022
2195 Clouds 17 1018 40 10000 2.06 0 11:20 10.05.2022
2196 Clouds 16 1018 44 10000 3.09 40 10:22 10.05.2022
2197 Clouds 15 1018 49 10000 3.09 70 09:25 10.05.2022
2198 Clear 10 1018 68 10000 2.57 100 06:54 10.05.2022
2199 Clear 10 1017 66 10000 4.63 60 03:30 10.05.2022
2200 Clear 12 1017 58 10000 4.12 60 00:38 10.05.2022
2201 Clouds 13 1015 56 10000 0.45 27 22:52 09.05.2022
2202 Clouds 15 1014 51 10000 0.89 69 21:50 09.05.2022
2203 Clear 16 1017 33 10000 3.09 10 20:30 09.05.2022
2204 Clouds 20 1015 25 10000 2.57 0 18:43 09.05.2022
2205 Clouds 19 1012 28 10000 3.13 89 17:44 09.05.2022
2206 Clouds 21 1014 26 10000 3.09 290 16:30 09.05.2022
2207 Clouds 20 1012 28 10000 2.68 304 15:52 09.05.2022
2208 Clouds 21 1015 25 10000 2.57 40 15:21 09.05.2022
2209 Clouds 20 1015 27 10000 2.57 0 14:29 09.05.2022
2210 Clouds 19 1016 30 10000 2.57 0 13:40 09.05.2022
2211 Clouds 19 1016 32 10000 3.09 230 12:21 09.05.2022
2212 Clouds 17 1017 39 10000 2.57 260 11:18 09.05.2022
2213 Clouds 16 1017 45 10000 2.06 0 10:42 09.05.2022
2214 Clear 13 1018 60 10000 1.03 0 08:36 09.05.2022
2215 Clouds 13 1016 63 10000 1.01 74 07:53 09.05.2022
2216 Clear 7 1018 77 10000 1.03 0 03:19 09.05.2022
2217 Clear 10 1018 64 10000 1.03 0 23:34 08.05.2022
2218 Clouds 12 1017 65 10000 2.06 69 22:52 08.05.2022
2219 Clear 13 1018 54 10000 2.57 110 21:48 08.05.2022
2220 Clear 14 1018 50 10000 3.6 110 20:35 08.05.2022
2221 Clouds 15 1017 44 10000 4.63 80 19:44 08.05.2022
2222 Clouds 16 1016 49 10000 1.34 96 18:54 08.05.2022
2223 Clouds 17 1016 42 10000 3.23 24 17:57 08.05.2022
2224 Clouds 18 1017 33 10000 2.06 0 16:43 08.05.2022
2225 Clouds 18 1017 35 10000 3.6 80 15:31 08.05.2022
2226 Clouds 18 1018 36 10000 5.14 50 14:44 08.05.2022
2227 Clouds 16 1019 44 10000 4.12 120 12:25 08.05.2022
2228 Clouds 13 1020 51 10000 1.54 240 10:31 08.05.2022
2229 Clouds 12 1019 58 10000 0.89 304 09:56 08.05.2022
2230 Clouds 12 1019 57 10000 0.52 2 09:56 08.05.2022
2231 Clouds 12 1019 61 10000 0.66 26 08:55 08.05.2022
2232 Clear 8 1019 75 10000 2.26 41 06:57 08.05.2022
2233 Clear 7 1017 79 10000 0.45 322 03:26 08.05.2022
2234 Clear 3 1021 85 10000 1.62 30 02:41 08.05.2022
2235 Clear 8 1018 74 10000 0.45 344 00:21 08.05.2022
2236 Clear 8 1018 75 10000 0.89 8 23:47 07.05.2022
2237 Clear 8 1018 73 10000 0.45 26 22:46 07.05.2022
2238 Clear 8 1020 82 10000 2.08 15 21:57 07.05.2022
2239 Clear 9 1017 71 10000 0.45 38 21:33 07.05.2022
2240 Clouds 10 1017 68 10000 1.34 353 20:28 07.05.2022
2241 Clouds 11 1017 63 10000 1.34 351 19:22 07.05.2022
2242 Clouds 14 1016 50 10000 6.69 340 17:33 07.05.2022
2243 Clouds 14 1016 47 10000 1.54 40 15:34 07.05.2022
2244 Clouds 12 1017 51 10000 4.12 320 12:34 07.05.2022
2245 Clouds 11 1017 54 10000 3.09 350 10:33 07.05.2022
2246 Clouds 10 1016 61 10000 1.34 53 08:52 07.05.2022
2247 Clouds 9 1017 63 10000 5.14 340 07:43 07.05.2022
2248 Clouds 8 1017 66 10000 5.66 330 06:43 07.05.2022
2249 Clouds 7 1017 70 10000 2.06 10 04:24 07.05.2022
2250 Clouds 8 1016 72 10000 0.89 336 00:50 07.05.2022
2251 Clouds 9 1017 72 10000 0.89 328 22:55 06.05.2022
2252 Clouds 9 1018 66 10000 4.63 340 22:21 06.05.2022
2253 Clouds 9 1017 66 10000 4.63 340 21:36 06.05.2022
2254 Clouds 10 1017 63 10000 3.09 340 20:18 06.05.2022
2255 Clouds 10 1017 60 10000 5.14 340 19:28 06.05.2022
2256 Clouds 11 1016 57 10000 6.17 350 18:49 06.05.2022
2257 Clouds 12 1016 55 10000 7.72 350 17:38 06.05.2022
2258 Clouds 12 1015 58 10000 5.36 326 15:55 06.05.2022
2259 Clouds 13 1016 50 10000 8.23 340 15:33 06.05.2022
2260 Rain 13 1016 50 10000 7.72 330 14:22 06.05.2022
2261 Clouds 12 1015 57 10000 4.02 293 12:52 06.05.2022
2262 Clouds 13 1017 50 10000 7.2 310 12:20 06.05.2022
2263 Clouds 12 1017 54 10000 8.23 310 11:31 06.05.2022
2264 Clouds 10 1017 60 10000 5.14 300 09:48 06.05.2022
2265 Clouds 10 1017 60 10000 5.14 300 09:48 06.05.2022
2266 Clouds 10 1017 65 10000 4.12 290 09:18 06.05.2022
2267 Rain 8 1016 78 10000 2.24 279 07:56 06.05.2022
2268 Rain 7 1017 71 10000 2.57 260 06:28 06.05.2022
2269 Clouds 8 1018 59 10000 4.12 300 04:29 06.05.2022
2270 Clouds 7 1017 65 10000 4.12 310 02:38 06.05.2022
2271 Clouds 9 1018 61 10000 3.09 310 23:25 05.05.2022
2272 Clouds 9 1017 66 10000 0.45 351 21:51 05.05.2022
2273 Clouds 10 1018 59 10000 4.63 330 20:37 05.05.2022
2274 Clouds 10 1017 62 10000 6.69 350 19:20 05.05.2022
2275 Rain 12 1015 51 10000 7.2 320 16:49 05.05.2022
2276 Clouds 14 1015 41 10000 6.69 320 15:48 05.05.2022
2277 Clouds 13 1015 40 10000 6.69 350 14:34 05.05.2022
2278 Clouds 13 1016 41 10000 6.17 360 13:18 05.05.2022
2279 Clouds 12 1016 46 10000 4.63 50 11:46 05.05.2022
2280 Clouds 10 1016 58 10000 5.66 340 09:47 05.05.2022
2281 Clouds 9 1016 59 10000 5.66 340 09:26 05.05.2022
2282 Clouds 8 1013 72 10000 1.34 287 06:33 05.05.2022
2283 Clouds 9 1012 64 10000 3.6 300 02:28 05.05.2022
2284 Clouds 9 1012 66 10000 3.6 290 01:45 05.05.2022
2285 Clouds 9 1012 66 10000 3.6 290 01:19 05.05.2022
2286 Clouds 9 1013 66 10000 3.09 290 23:27 04.05.2022
2287 Clouds 10 1013 65 10000 3.09 0 22:23 04.05.2022
2288 Clouds 10 1012 64 10000 2.06 300 21:46 04.05.2022
2289 Clouds 10 1012 65 10000 2.06 300 21:18 04.05.2022
2290 Clouds 11 1011 64 10000 3.09 360 20:20 04.05.2022
2291 Clouds 11 1011 63 10000 4.12 350 19:35 04.05.2022
2292 Clouds 12 1011 64 10000 4.63 10 18:43 04.05.2022
2293 Clouds 12 1010 64 10000 4.63 10 18:20 04.05.2022
2294 Clouds 13 1010 61 10000 6.17 330 17:22 04.05.2022
2295 Rain 14 1009 63 10000 5.14 280 15:34 04.05.2022
2296 Clouds 13 1010 69 10000 5.14 280 14:45 04.05.2022
2297 Rain 13 1010 68 10000 5.14 280 14:19 04.05.2022
2298 Rain 14 1008 72 10000 2.68 270 12:50 04.05.2022
2299 Clouds 15 1007 70 10000 1.34 275 11:59 04.05.2022
2300 Clouds 13 1011 82 10000 4.12 290 10:28 04.05.2022
2301 Clouds 12 1011 88 8000 3.6 300 09:22 04.05.2022
2302 Clouds 12 1008 90 10000 1.34 281 07:59 04.05.2022
2303 Clouds 12 1010 91 10000 1.54 230 05:42 04.05.2022
2304 Clouds 12 1010 90 10000 3.09 250 02:42 04.05.2022
2305 Clouds 13 1010 89 10000 1.54 260 23:23 03.05.2022
2306 Rain 13 1007 84 10000 1.66 50 21:55 03.05.2022
2307 Clouds 13 1010 92 10000 1.03 310 21:32 03.05.2022
2308 Clouds 13 1007 86 10000 1.74 324 20:52 03.05.2022
2309 Clouds 13 1008 90 10000 1.03 0 19:36 03.05.2022
2310 Thunderstorm 13 1008 87 10000 9.77 240 18:47 03.05.2022
2311 Rain 19 1007 53 10000 2.06 190 17:22 03.05.2022
2312 Clouds 19 1006 53 10000 2.06 0 16:20 03.05.2022
2313 Clouds 17 1008 61 10000 3.09 360 14:34 03.05.2022
2314 Clouds 18 1009 55 10000 2.57 80 12:46 03.05.2022
2315 Clouds 17 1010 59 10000 2.06 130 11:49 03.05.2022
2316 Clouds 16 1010 60 10000 3.09 120 10:50 03.05.2022
2317 Clouds 13 1009 67 10000 3.09 90 08:33 03.05.2022
2318 Clouds 13 1009 72 10000 0 0 06:46 03.05.2022
2319 Clouds 13 1009 72 10000 0 0 06:46 03.05.2022
2320 Clouds 13 1009 78 10000 1.03 0 03:26 03.05.2022
2321 Rain 14 1011 63 10000 3.6 280 23:32 02.05.2022
2322 Clouds 15 1011 55 10000 4.12 230 22:34 02.05.2022
2323 Clouds 16 1010 51 10000 3.09 110 21:48 02.05.2022
2324 Clouds 16 1010 50 10000 2.06 140 20:48 02.05.2022
2325 Clouds 17 1010 43 10000 3.09 130 18:28 02.05.2022
2326 Clouds 18 1010 42 10000 4.12 110 17:42 02.05.2022
2327 Clouds 18 1011 41 10000 2.57 100 16:47 02.05.2022
2328 Clouds 18 1009 46 10000 0.45 208 15:52 02.05.2022
2329 Clouds 18 1009 47 10000 0.45 216 14:54 02.05.2022
2330 Clouds 18 1013 42 10000 3.09 0 13:45 02.05.2022
2331 Clouds 16 1014 48 10000 4.63 60 11:41 02.05.2022
2332 Clouds 14 1014 54 10000 3.09 70 10:18 02.05.2022
2333 Clouds 12 1015 66 10000 1.54 0 08:44 02.05.2022
2334 Clouds 9 1015 82 10000 1.03 0 07:23 02.05.2022
2335 Clear 8 1015 82 10000 1.03 0 00:48 02.05.2022
2336 Clear 9 1015 81 10000 1.03 0 00:22 02.05.2022
2337 Clear 10 1016 76 10000 1.54 240 23:43 01.05.2022
2338 Clouds 12 1016 67 10000 2.57 50 21:46 01.05.2022
2339 Clouds 12 1014 71 10000 0.89 352 20:50 01.05.2022
2340 Clouds 13 1014 62 10000 4.12 350 19:40 01.05.2022
2341 Clouds 13 1012 68 10000 1.34 336 18:53 01.05.2022
2342 Clouds 13 1012 66 10000 2.24 34 17:51 01.05.2022
2343 Clouds 14 1014 59 10000 4.12 330 16:42 01.05.2022
2344 Clouds 14 1014 59 10000 4.12 330 16:23 01.05.2022
2345 Clouds 14 1015 75 10000 3.26 7 14:58 01.05.2022
2346 Clouds 14 1014 61 10000 3.6 50 13:23 01.05.2022
2347 Clouds 12 1015 67 10000 3.09 50 10:45 01.05.2022
2348 Clouds 11 1011 77 10000 1.34 10 08:50 01.05.2022
2349 Clouds 11 1010 78 10000 0.45 307 06:51 01.05.2022
2350 Clouds 12 1012 74 10000 4.63 320 02:46 01.05.2022
2351 Clouds 14 1008 74 10000 2.73 10 22:51 30.04.2022
2352 Clouds 14 1008 74 10000 2.73 10 22:51 30.04.2022
2353 Clouds 13 1011 72 10000 5.14 320 21:34 30.04.2022
2354 Clouds 14 1010 69 10000 4.63 270 20:22 30.04.2022
2355 Clouds 15 1010 65 10000 4.12 290 19:31 30.04.2022
2356 Clouds 17 1009 64 10000 6.69 310 17:37 30.04.2022
2357 Clouds 18 1009 53 10000 5.66 330 16:28 30.04.2022
2358 Clouds 19 1009 53 10000 2.06 360 15:19 30.04.2022
2359 Clouds 19 1010 58 10000 4.12 290 14:30 30.04.2022
2360 Clouds 17 1014 72 10000 2.57 320 11:59 30.04.2022
2361 Rain 15 1014 77 10000 2.57 330 11:32 30.04.2022
2362 Rain 16 1012 72 10000 4.63 260 10:25 30.04.2022
2363 Clouds 17 1012 57 10000 4.12 270 08:26 30.04.2022
2364 Clouds 14 1012 76 10000 1.44 36 04:58 30.04.2022
2365 Clouds 17 1015 57 10000 4.63 10 00:34 30.04.2022
2366 Clouds 19 1015 42 10000 2.06 260 22:58 29.04.2022
2367 Clouds 19 1015 41 10000 3.6 320 22:29 29.04.2022
2368 Clouds 19 1015 37 10000 2.06 140 21:26 29.04.2022
2369 Clouds 20 1014 34 10000 5.14 90 20:24 29.04.2022
2370 Clouds 21 1014 32 10000 7.2 80 19:28 29.04.2022
2371 Clouds 26 1013 20 10000 2.57 270 17:38 29.04.2022
2372 Clouds 27 1013 18 10000 3.6 240 16:43 29.04.2022
2373 Clouds 26 1011 26 10000 3.6 170 14:38 29.04.2022
2374 Clouds 25 1011 26 10000 3.6 170 14:38 29.04.2022
2375 Clouds 25 1009 29 10000 0.45 254 13:52 29.04.2022
2376 Clouds 24 1013 30 10000 1.54 0 12:41 29.04.2022
2377 Clear 23 1011 33 10000 1.34 325 10:56 29.04.2022
2378 Clear 18 1011 47 10000 1.1 67 07:58 29.04.2022
2379 Clouds 16 1014 56 10000 1.54 230 07:26 29.04.2022
2380 Clear 12 1014 68 10000 1.03 0 06:33 29.04.2022
2381 Clouds 15 1010 54 10000 0.94 35 02:50 29.04.2022
2382 Clear 16 1013 53 10000 1.03 0 00:18 29.04.2022
2383 Clear 16 1016 48 10000 1.03 0 23:26 28.04.2022
2384 Clear 16 1015 46 10000 1.54 140 22:33 28.04.2022
2385 Clouds 18 1015 42 10000 2.06 0 21:43 28.04.2022
2386 Clouds 20 1014 37 10000 1.54 10 20:49 28.04.2022
2387 Clouds 19 1013 57 10000 2.63 4 19:57 28.04.2022
2388 Clouds 21 1012 36 10000 6.17 250 19:38 28.04.2022
2389 Rain 21 1012 36 10000 6.17 250 19:19 28.04.2022
2390 Clouds 21 1008 38 10000 1.34 127 17:55 28.04.2022
2391 Clouds 22 1008 35 10000 2.68 352 16:58 28.04.2022
2392 Clouds 23 1009 30 10000 8.75 360 16:21 28.04.2022
2393 Clouds 25 1007 31 10000 4.02 341 15:52 28.04.2022
2394 Clouds 26 1010 25 10000 3.09 0 15:18 28.04.2022
2395 Clouds 25 1011 31 10000 3.58 277 13:42 28.04.2022
2396 Clear 23 1012 34 10000 2.06 0 12:30 28.04.2022
2397 Clear 22 1012 35 10000 2.06 0 11:38 28.04.2022
2398 Clear 20 1012 40 10000 3.6 70 10:27 28.04.2022
2399 Clear 20 1009 43 10000 1.34 53 09:50 28.04.2022
2400 Clear 16 1013 54 10000 3.09 0 07:42 28.04.2022
2401 Clouds 14 1009 61 10000 0.89 343 06:51 28.04.2022
2402 Clouds 13 1009 62 10000 0.89 305 05:53 28.04.2022
2403 Clear 14 1012 56 10000 3.09 60 04:43 28.04.2022
2404 Clear 16 1014 47 10000 5.14 60 02:45 28.04.2022
2405 Clear 19 1014 41 10000 3.6 80 23:36 27.04.2022
2406 Clouds 17 1013 72 10000 2.76 50 22:22 27.04.2022
2407 Clouds 18 1013 72 10000 2.76 50 21:46 27.04.2022
2408 Clouds 21 1013 32 10000 4.12 90 20:46 27.04.2022
2409 Clouds 21 1013 75 10000 2 51 19:57 27.04.2022
2410 Clouds 23 1012 28 10000 4.63 60 19:36 27.04.2022
2411 Clouds 24 1011 26 10000 4.63 20 18:42 27.04.2022
2412 Clouds 24 1011 26 10000 4.63 20 18:21 27.04.2022
2413 Clouds 26 1009 22 10000 3.09 280 16:20 27.04.2022
2414 Clouds 26 1010 25 10000 2.06 310 13:21 27.04.2022
2415 Clear 24 1011 29 10000 1.54 0 11:26 27.04.2022
2416 Clouds 23 1007 32 10000 1.34 339 10:50 27.04.2022
2417 Clear 18 1012 45 10000 1.54 300 08:28 27.04.2022
2418 Clear 12 1011 60 10000 0.51 0 06:42 27.04.2022
2419 Clear 14 1010 56 10000 1.03 0 02:35 27.04.2022
2420 Clear 14 1010 53 10000 1.03 0 01:23 27.04.2022
2421 Clear 15 1010 52 10000 0.89 294 00:27 27.04.2022
2422 Clear 16 1010 51 10000 1.03 0 23:24 26.04.2022
2423 Clear 17 1010 47 10000 2.57 230 22:45 26.04.2022
2424 Clear 17 1010 47 10000 2.57 230 22:19 26.04.2022
2425 Clear 19 1010 39 10000 2.57 200 21:24 26.04.2022
2426 Clear 20 1012 36 10000 4.12 340 20:38 26.04.2022
2427 Clear 20 1011 29 10000 2.06 250 19:45 26.04.2022
2428 Clear 20 1011 29 10000 2.06 250 19:26 26.04.2022
2429 Clouds 24 1011 21 10000 5.66 260 18:39 26.04.2022
2430 Clouds 25 1011 24 10000 5.14 260 17:39 26.04.2022
2431 Clouds 26 1008 25 10000 4.63 250 15:41 26.04.2022
2432 Clouds 25 1005 28 10000 2.68 278 13:51 26.04.2022
2433 Clouds 26 1005 28 10000 2.24 308 12:57 26.04.2022
2434 Clear 23 1010 32 10000 2.57 290 11:23 26.04.2022
2435 Clear 22 1010 36 10000 2.06 290 10:30 26.04.2022
2436 Clear 18 1010 46 10000 2.06 260 08:33 26.04.2022
2437 Clouds 15 1005 55 10000 1.09 257 04:53 26.04.2022
2438 Clear 14 1009 56 10000 1.54 240 04:22 26.04.2022
2439 Clear 14 1011 41 10000 2.06 280 00:46 26.04.2022
2440 Clear 17 1008 37 10000 2.57 260 23:49 25.04.2022
2441 Clear 16 1010 38 10000 2.06 100 21:51 25.04.2022
2442 Clear 16 1010 38 10000 2.06 100 21:25 25.04.2022
2443 Clear 24 1009 19 10000 1.54 220 19:47 25.04.2022
2444 Clear 25 1006 18 10000 3.6 270 18:31 25.04.2022
2445 Clear 27 1009 14 10000 5.14 270 17:39 25.04.2022
2446 Clear 28 1006 13 10000 7.2 250 16:35 25.04.2022
2447 Clear 29 1007 15 10000 5.66 250 15:21 25.04.2022
2448 Clear 28 1007 18 10000 5.66 250 14:23 25.04.2022
2449 Clear 27 1006 22 10000 4.63 180 12:40 25.04.2022
2450 Clear 25 1009 30 10000 1.54 0 10:29 25.04.2022
2451 Clear 22 1009 35 10000 3.09 90 09:39 25.04.2022
2452 Clear 16 1009 51 10000 1.54 230 07:34 25.04.2022
2453 Clear 16 1005 46 10000 2.17 74 05:53 25.04.2022
2454 Clear 14 1009 51 10000 0.51 0 01:28 25.04.2022
2455 Clear 12 1010 42 10000 1.42 63 23:54 24.04.2022
2456 Clear 12 1011 58 10000 0 0 23:22 24.04.2022
2457 Clear 14 1011 49 10000 0 0 22:38 24.04.2022
2458 Clear 15 1010 40 10000 1.97 61 21:54 24.04.2022
2459 Clear 15 1011 49 10000 1.54 270 21:21 24.04.2022
2460 Clear 19 1011 36 10000 1.03 0 20:41 24.04.2022
2461 Clear 20 1009 40 10000 1.64 6 19:57 24.04.2022
2462 Clear 25 1008 25 10000 3.6 280 18:33 24.04.2022
2463 Clouds 27 1010 18 10000 5.14 250 17:40 24.04.2022
2464 Clouds 26 1008 20 10000 5.14 250 17:20 24.04.2022
2465 Clear 27 1005 20 10000 0.89 231 16:51 24.04.2022
2466 Clouds 27 1008 20 10000 3.6 240 16:22 24.04.2022
2467 Clouds 27 1008 22 10000 3.6 270 15:36 24.04.2022
2468 Clouds 27 1009 22 10000 2.06 200 14:30 24.04.2022
2469 Clouds 26 1009 23 10000 2.06 0 13:26 24.04.2022
2470 Clear 25 1010 23 10000 2.24 271 12:44 24.04.2022
2471 Clear 24 1010 27 10000 2.06 0 11:44 24.04.2022
2472 Clear 21 1011 33 10000 1.03 0 10:32 24.04.2022
2473 Clear 20 1011 36 10000 1.03 0 09:41 24.04.2022
2474 Clear 14 1011 52 10000 0.51 0 07:39 24.04.2022
2475 Clear 15 1006 44 10000 0.45 267 04:56 24.04.2022
2476 Clouds 16 1005 41 10000 0.45 178 01:50 24.04.2022
2477 Clear 14 1008 52 10000 1.03 0 00:38 24.04.2022
2478 Clear 14 1009 51 10000 1.54 70 23:45 23.04.2022
2479 Clear 15 1009 51 10000 1.54 70 23:22 23.04.2022
2480 Clouds 15 1009 49 10000 0.55 212 21:55 23.04.2022
2481 Clear 15 1010 47 10000 1.03 0 21:35 23.04.2022
2482 Clouds 17 1009 42 10000 1.49 264 20:57 23.04.2022
2483 Clear 20 1010 33 10000 1.03 0 19:49 23.04.2022
2484 Clear 20 1010 33 10000 1.03 0 19:19 23.04.2022
2485 Clouds 22 1008 35 10000 2.09 160 18:53 23.04.2022
2486 Clear 23 1008 26 10000 1.54 150 18:24 23.04.2022
2487 Clear 24 1008 25 10000 2.06 150 17:43 23.04.2022
2488 Clear 25 1009 22 10000 2.06 0 16:43 23.04.2022
2489 Clear 25 1009 22 10000 4.12 220 15:32 23.04.2022
2490 Clear 24 1011 26 10000 2.57 60 12:49 23.04.2022
2491 Clear 21 1012 35 10000 2.24 103 10:49 23.04.2022
2492 Clear 18 1014 44 10000 1.54 0 09:38 23.04.2022
2493 Clear 12 1014 65 10000 1.03 250 07:21 23.04.2022
2494 Clouds 12 1011 57 10000 0.45 157 03:54 23.04.2022
2495 Clear 10 1015 66 10000 0 0 01:25 23.04.2022
2496 Clear 12 1016 56 10000 1.54 120 23:31 22.04.2022
2497 Clear 13 1016 54 10000 1.03 0 22:20 22.04.2022
2498 Clear 12 1017 54 10000 0.51 0 21:44 22.04.2022
2499 Clear 15 1016 46 10000 1.54 120 20:48 22.04.2022
2500 Clear 15 1016 45 10000 1.54 120 20:27 22.04.2022
2501 Clear 17 1016 38 10000 1.03 0 19:20 22.04.2022
2502 Clear 19 1017 36 10000 2.06 290 18:45 22.04.2022
2503 Clear 19 1016 33 10000 3.09 270 17:48 22.04.2022
2504 Clear 20 1016 33 10000 3.6 270 16:46 22.04.2022
2505 Clear 20 1016 32 10000 2.06 330 15:44 22.04.2022
2506 Clear 20 1016 33 10000 2.06 330 15:18 22.04.2022
2507 Clear 19 1017 36 10000 3.09 280 13:54 22.04.2022
2508 Clouds 18 1016 37 10000 0.89 309 12:58 22.04.2022
2509 Clouds 18 1016 39 10000 1.34 298 11:52 22.04.2022
2510 Clear 17 1018 38 10000 2.57 320 11:22 22.04.2022
2511 Clouds 17 1016 41 10000 0.45 318 10:50 22.04.2022
2512 Clear 15 1018 40 10000 1.03 0 10:30 22.04.2022
2513 Clear 16 1017 43 10000 0.45 328 09:50 22.04.2022
2514 Clear 12 1017 52 10000 0.45 86 08:50 22.04.2022
2515 Clear 7 1019 70 10000 0 0 07:20 22.04.2022
2516 Clear 6 1018 69 10000 1.03 0 03:30 22.04.2022
2517 Clouds 11 1016 50 10000 0.16 204 00:51 22.04.2022
2518 Clear 8 1018 58 10000 0.51 0 23:24 21.04.2022
2519 Clear 9 1018 52 10000 0.51 0 22:29 21.04.2022
2520 Clear 11 1017 44 10000 1.54 10 20:37 21.04.2022
2521 Clouds 13 1016 44 10000 0.45 283 20:18 21.04.2022
2522 Clear 14 1016 37 10000 5.66 260 18:42 21.04.2022
2523 Clear 14 1014 43 10000 2.24 279 17:57 21.04.2022
2524 Clouds 15 1015 41 10000 6.17 290 16:35 21.04.2022
2525 Clouds 15 1015 42 10000 5.14 270 15:21 21.04.2022
2526 Clouds 15 1015 41 10000 6.17 260 14:49 21.04.2022
2527 Clouds 15 1015 40 10000 6.17 270 13:23 21.04.2022
2528 Clouds 14 1014 48 10000 0.89 307 12:57 21.04.2022
2529 Clouds 13 1015 46 10000 5.14 270 10:49 21.04.2022
2530 Clouds 11 1014 50 10000 2.68 258 08:56 21.04.2022
2531 Clear 9 1015 62 10000 1.03 0 07:24 21.04.2022
2532 Clear 6 1015 70 10000 0.89 253 05:42 21.04.2022
2533 Clear 7 1014 68 10000 1.03 140 03:30 21.04.2022
2534 Clouds 9 1013 57 10000 0.89 208 02:47 21.04.2022
2535 Clear 7 1014 62 10000 1.03 0 00:47 21.04.2022
2536 Clouds 10 1013 52 10000 0.45 181 23:50 20.04.2022
2537 Clear 7 1014 59 10000 0 0 23:22 20.04.2022
2538 Clouds 10 1013 49 10000 1.77 158 22:50 20.04.2022
2539 Clear 8 1014 56 10000 1.03 0 22:31 20.04.2022
2540 Clear 9 1014 53 10000 1.54 60 21:29 20.04.2022
2541 Clear 10 1015 47 10000 1.54 140 20:37 20.04.2022
2542 Clouds 11 1014 45 10000 1.34 118 19:52 20.04.2022
2543 Clear 12 1014 40 10000 1.54 220 19:21 20.04.2022
2544 Clouds 12 1014 37 10000 4.12 270 18:22 20.04.2022
2545 Clear 13 1013 38 10000 2.68 262 16:54 20.04.2022
2546 Clouds 13 1014 37 10000 5.14 240 16:36 20.04.2022
2547 Clear 13 1014 33 10000 2.24 206 13:59 20.04.2022
2548 Clouds 10 1016 40 10000 5.66 260 11:50 20.04.2022
2549 Clouds 10 1016 41 10000 5.66 260 11:24 20.04.2022
2550 Clouds 9 1016 49 10000 4.12 260 10:22 20.04.2022
2551 Clouds 8 1017 62 10000 3.6 260 09:25 20.04.2022
2552 Clouds 7 1016 69 10000 3.6 250 08:22 20.04.2022
2553 Clear 5 1015 76 10000 2.06 280 07:37 20.04.2022
2554 Clear 5 1014 81 10000 4.12 240 03:49 20.04.2022
2555 Clouds 7 1012 80 10000 5.14 260 00:23 20.04.2022
2556 Clouds 7 1010 79 10000 0.45 257 23:56 19.04.2022
2557 Clouds 7 1012 79 10000 4.63 250 22:27 19.04.2022
2558 Clouds 8 1011 78 10000 5.66 250 21:57 19.04.2022
2559 Clouds 8 1011 81 10000 5.14 250 21:24 19.04.2022
2560 Clouds 8 1010 83 10000 4.12 250 20:46 19.04.2022
2561 Clouds 8 1008 82 10000 0.45 240 19:57 19.04.2022
2562 Clouds 9 1009 84 10000 4.63 260 19:19 19.04.2022
2563 Clouds 9 1009 84 10000 4.63 260 19:19 19.04.2022
2564 Clouds 10 1005 79 10000 2.24 267 17:50 19.04.2022
2565 Clouds 9 1008 82 10000 2.06 250 16:43 19.04.2022
2566 Rain 8 1008 85 10000 5.66 250 16:23 19.04.2022
2567 Clouds 12 1003 61 10000 4.64 248 14:50 19.04.2022
2568 Rain 13 1006 54 10000 3.6 0 14:27 19.04.2022
2569 Clouds 13 1006 55 10000 4.63 280 12:51 19.04.2022
2570 Clouds 12 1006 57 10000 4.63 280 12:26 19.04.2022
2571 Clouds 12 1006 59 10000 6.17 270 10:46 19.04.2022
2572 Clouds 12 1005 65 10000 5.66 260 09:22 19.04.2022
2573 Clouds 10 1000 80 10000 0.45 292 05:59 19.04.2022
2574 Clouds 9 1004 78 10000 1.03 260 03:37 19.04.2022
2575 Clouds 11 1000 74 10000 1.78 241 00:56 19.04.2022
2576 Clouds 12 1004 67 10000 4.63 280 23:36 18.04.2022
2577 Clouds 14 1003 60 10000 4.12 270 21:37 18.04.2022
2578 Clouds 14 1003 59 10000 4.12 270 21:18 18.04.2022
2579 Clouds 16 1002 53 10000 4.63 250 20:35 18.04.2022
2580 Clouds 17 1001 45 10000 5.66 270 19:54 18.04.2022
2581 Clouds 21 1001 47 10000 1.9 238 18:57 18.04.2022
2582 Clouds 21 996 36 10000 2.24 256 17:58 18.04.2022
2583 Clouds 23 999 25 10000 7.2 250 17:36 18.04.2022
2584 Clouds 23 999 25 10000 7.2 250 17:18 18.04.2022
2585 Clouds 25 999 20 10000 7.2 240 16:32 18.04.2022
2586 Clear 25 997 19 10000 3.13 217 14:59 18.04.2022
2587 Clouds 25 1000 20 10000 8.75 240 13:42 18.04.2022
2588 Clouds 24 1000 22 10000 9.26 250 12:34 18.04.2022
2589 Clouds 23 1001 24 10000 8.23 220 11:35 18.04.2022
2590 Clouds 22 1001 27 10000 4.02 224 10:32 18.04.2022
2591 Clouds 21 1001 28 10000 3.6 220 09:31 18.04.2022
2592 Clouds 18 1002 34 10000 2.24 188 08:18 18.04.2022
2593 Clouds 10 1002 49 10000 3.42 127 05:51 18.04.2022
2594 Rain 11 1006 61 10000 1.03 0 01:34 18.04.2022
2595 Rain 13 1007 54 10000 1.03 290 22:43 17.04.2022
2596 Clouds 14 1004 51 10000 0.45 260 21:50 17.04.2022
2597 Clouds 14 1006 47 10000 4.12 120 21:27 17.04.2022
2598 Clouds 15 1004 47 10000 2.03 126 20:50 17.04.2022
2599 Clouds 14 1008 56 10000 2.06 230 19:52 17.04.2022
2600 Clouds 15 1009 50 10000 2.57 340 18:24 17.04.2022
2601 Rain 17 1009 42 10000 1.54 110 16:32 17.04.2022
2602 Clouds 16 1009 48 10000 1.54 280 15:28 17.04.2022
2603 Clouds 17 1010 36 10000 1.03 0 14:25 17.04.2022
2604 Clouds 17 1010 41 10000 1.54 260 13:20 17.04.2022
2605 Clouds 16 1011 42 10000 3.09 280 12:28 17.04.2022
2606 Rain 15 1012 46 10000 0.51 230 10:46 17.04.2022
2607 Clear 14 1012 47 10000 0.51 230 10:28 17.04.2022
2608 Clear 11 1014 54 10000 0.51 0 09:37 17.04.2022
2609 Clouds 9 1011 37 10000 3.7 112 08:54 17.04.2022
2610 Clouds 12 1010 52 10000 2.33 103 07:53 17.04.2022
2611 Clouds 11 1010 52 10000 1.74 104 04:51 17.04.2022
2612 Clear 9 1014 63 10000 1.03 0 01:38 17.04.2022
2613 Clouds 14 1012 44 10000 1.08 141 23:57 16.04.2022
2614 Clear 11 1014 54 10000 1.54 90 22:41 16.04.2022
2615 Clear 12 1014 52 10000 1.03 110 21:41 16.04.2022
2616 Clear 14 1014 46 10000 1.03 0 20:35 16.04.2022
2617 Clear 16 1013 40 10000 1.54 330 19:18 16.04.2022
2618 Clear 18 1013 36 10000 2.06 290 18:28 16.04.2022
2619 Clear 19 1014 33 10000 2.57 260 16:41 16.04.2022
2620 Clear 19 1014 36 10000 2.57 260 15:46 16.04.2022
2621 Clouds 19 1012 36 10000 0.89 297 14:57 16.04.2022
2622 Clouds 18 1013 37 10000 1.34 309 13:58 16.04.2022
2623 Clear 18 1014 35 10000 3.6 250 13:37 16.04.2022
2624 Clear 18 1014 35 10000 3.6 250 13:37 16.04.2022
2625 Clear 18 1015 35 10000 3.09 220 12:27 16.04.2022
2626 Clear 17 1016 37 10000 3.6 0 11:18 16.04.2022
2627 Clouds 16 1015 44 10000 0.89 169 09:56 16.04.2022
2628 Clouds 14 1015 48 10000 0.45 267 08:59 16.04.2022
2629 Clear 12 1017 50 10000 1.03 50 08:18 16.04.2022
2630 Clear 10 1015 59 10000 0.45 244 06:59 16.04.2022
2631 Clear 7 1018 63 10000 1.03 0 03:36 16.04.2022
2632 Clear 8 1018 59 10000 1.03 0 00:31 16.04.2022
2633 Clear 9 1018 55 10000 1.03 0 23:23 15.04.2022
2634 Clear 11 1018 48 10000 2.06 90 22:36 15.04.2022
2635 Clear 12 1016 47 10000 1.5 116 21:55 15.04.2022
2636 Clear 13 1018 43 10000 2.57 110 21:18 15.04.2022
2637 Clear 14 1017 41 10000 4.12 80 20:24 15.04.2022
2638 Clear 14 1017 40 10000 1.54 40 19:40 15.04.2022
2639 Clouds 15 1015 42 10000 0.89 116 18:54 15.04.2022
2640 Clear 16 1016 36 10000 1.54 150 18:25 15.04.2022
2641 Clouds 17 1017 32 10000 2.06 130 17:35 15.04.2022
2642 Clouds 18 1015 34 10000 0.3 16 16:53 15.04.2022
2643 Clouds 17 1017 31 10000 2.57 280 16:19 15.04.2022
2644 Clouds 17 1017 32 10000 2.68 359 15:24 15.04.2022
2645 Clouds 16 1018 36 10000 3.6 340 13:42 15.04.2022
2646 Clouds 15 1019 38 10000 4.63 40 12:43 15.04.2022
2647 Clear 15 1018 43 10000 0.89 121 11:57 15.04.2022
2648 Clouds 14 1019 42 10000 2.06 300 11:35 15.04.2022
2649 Clouds 13 1020 44 10000 2.06 350 10:45 15.04.2022
2650 Clear 12 1020 49 10000 2.06 250 09:47 15.04.2022
2651 Clear 11 1020 51 10000 2.06 250 09:21 15.04.2022
2652 Clear 8 1020 60 10000 0.51 0 07:44 15.04.2022
2653 Clear 4 1020 78 10000 1.03 0 06:37 15.04.2022
2654 Clear 5 1020 70 10000 1.03 110 03:21 15.04.2022
2655 Clear 6 1021 55 10000 2.06 260 23:32 14.04.2022
2656 Clear 9 1021 50 10000 2.06 310 22:49 14.04.2022
2657 Clear 9 1021 50 10000 2.06 310 22:30 14.04.2022
2658 Clear 10 1022 67 10000 1.8 3 21:59 14.04.2022
2659 Clear 12 1021 64 10000 2.25 355 20:57 14.04.2022
2660 Clouds 12 1019 37 10000 2.57 270 19:23 14.04.2022
2661 Clouds 13 1019 37 10000 4.12 240 18:29 14.04.2022
2662 Clouds 15 1019 33 10000 3.09 230 17:40 14.04.2022
2663 Clouds 14 1019 35 10000 3.09 250 16:46 14.04.2022
2664 Clouds 14 1019 36 10000 2.06 250 15:26 14.04.2022
2665 Clouds 12 1020 37 10000 3.09 260 13:47 14.04.2022
2666 Clouds 11 1020 42 10000 0.45 221 12:57 14.04.2022
2667 Clouds 10 1021 39 10000 3.09 270 12:31 14.04.2022
2668 Clouds 9 1021 40 10000 3.6 270 11:29 14.04.2022
2669 Clouds 8 1021 47 10000 0.45 349 10:53 14.04.2022
2670 Clouds 7 1021 43 10000 3.6 290 10:26 14.04.2022
2671 Clouds 6 1021 46 10000 3.09 300 09:24 14.04.2022
2672 Clear 3 1021 55 10000 1.03 0 07:27 14.04.2022
2673 Clear 0 1020 64 10000 1.03 340 04:28 14.04.2022
2674 Clear 2 1020 54 10000 2.06 340 23:29 13.04.2022
2675 Clear 3 1021 49 10000 1.03 0 22:23 13.04.2022
2676 Clear 4 1020 46 10000 3.09 230 21:37 13.04.2022
2677 Clear 5 1020 41 10000 3.09 250 20:23 13.04.2022
2678 Clouds 6 1019 39 10000 2.57 320 19:37 13.04.2022
2679 Clouds 6 1019 36 10000 3.6 300 18:36 13.04.2022
2680 Clouds 7 1019 33 10000 4.12 260 17:24 13.04.2022
2681 Clouds 7 1019 32 10000 5.66 300 16:37 13.04.2022
2682 Clouds 7 1018 32 10000 3.6 0 15:41 13.04.2022
2683 Clouds 7 1018 32 10000 1.34 298 14:53 13.04.2022
2684 Clouds 7 1018 30 10000 4.63 0 14:30 13.04.2022
2685 Clouds 7 1019 37 10000 2.57 0 13:29 13.04.2022
2686 Clouds 6 1019 34 10000 3.6 300 12:30 13.04.2022
2687 Clouds 5 1019 36 10000 0.89 322 10:58 13.04.2022
2688 Clouds 4 1019 39 10000 4.63 320 09:45 13.04.2022
2689 Clear 3 1019 51 10000 3.6 300 08:43 13.04.2022
2690 Clear 1 1019 65 10000 2.57 310 07:18 13.04.2022
2691 Clear -1 1018 72 10000 1.03 0 06:46 13.04.2022
2692 Clear -2 1018 73 10000 1.03 0 06:18 13.04.2022
2693 Clear 2 1018 53 10000 2.57 320 00:24 13.04.2022
2694 Clear 2 1018 51 10000 3.09 340 23:46 12.04.2022
2695 Clear 3 1018 49 10000 2.68 313 22:19 12.04.2022
2696 Clear 3 1018 48 10000 3.6 330 21:32 12.04.2022
2697 Clear 4 1018 44 10000 3.09 330 20:42 12.04.2022
2698 Clouds 4 1017 46 10000 2.68 341 19:54 12.04.2022
2699 Clouds 4 1017 41 10000 6.69 330 19:33 12.04.2022
2700 Clouds 5 1017 48 10000 2.24 336 18:50 12.04.2022
2701 Clouds 6 1017 44 10000 6.69 330 17:34 12.04.2022
2702 Clouds 6 1016 41 10000 7.2 290 16:25 12.04.2022
2703 Clouds 7 1016 35 10000 6.69 340 15:33 12.04.2022
2704 Clouds 7 1016 49 10000 5.14 220 14:32 12.04.2022
2705 Clouds 6 1016 43 10000 8.23 320 13:38 12.04.2022
2706 Clouds 7 1016 39 10000 6.17 330 12:53 12.04.2022
2707 Clouds 6 1016 43 10000 6.17 340 11:47 12.04.2022
2708 Clouds 7 1015 44 9132 4.47 323 11:20 12.04.2022
2709 Clouds 5 1015 51 10000 5.66 270 09:24 12.04.2022
2710 Clouds 4 1013 57 10000 4.02 298 07:59 12.04.2022
2711 Clouds 4 1013 58 10000 6.69 330 06:32 12.04.2022
2712 Clouds 4 1013 58 10000 6.69 330 06:32 12.04.2022
2713 Clouds 4 1012 60 10000 7.2 300 05:34 12.04.2022
2714 Clouds 5 1008 64 10000 2.68 303 00:59 12.04.2022
2715 Clouds 5 1008 57 10000 9.77 320 22:53 11.04.2022
2716 Clouds 6 1007 55 10000 8.75 320 21:49 11.04.2022
2717 Clouds 6 1004 63 10000 3.58 296 20:59 11.04.2022
2718 Rain 6 1006 62 10000 7.72 310 20:29 11.04.2022
2719 Clouds 7 1005 67 10000 6.17 310 19:55 11.04.2022
2720 Rain 8 1004 66 10000 6.69 300 19:18 11.04.2022
2721 Rain 8 1004 69 10000 7.2 280 18:48 11.04.2022
2722 Rain 9 1002 69 10000 6.69 300 17:57 11.04.2022
2723 Rain 9 1002 69 10000 6.69 300 17:57 11.04.2022
2724 Clouds 10 1001 65 10000 5.14 250 16:54 11.04.2022
2725 Clouds 10 998 69 10000 2.68 167 15:58 11.04.2022
2726 Clouds 16 1004 33 10000 4.63 280 14:33 11.04.2022
2727 Rain 13 1004 47 10000 15.95 260 12:53 11.04.2022
2728 Rain 12 1002 55 10000 15.95 260 12:33 11.04.2022
2729 Clouds 16 1004 31 10000 5.14 250 11:33 11.04.2022
2730 Clouds 15 1004 33 10000 5.14 270 10:31 11.04.2022
2731 Clouds 15 1003 39 10000 4.12 250 09:20 11.04.2022
2732 Clouds 11 1003 57 10000 3.13 200 06:44 11.04.2022
2733 Clouds 13 1001 53 10000 1.34 193 01:55 11.04.2022
2734 Clear 16 1007 41 10000 4.63 160 22:38 10.04.2022
2735 Clouds 15 1007 55 10000 3.21 139 21:55 10.04.2022
2736 Clear 17 1007 39 10000 4.63 160 21:32 10.04.2022
2737 Clear 18 1008 39 10000 5.66 150 20:31 10.04.2022
2738 Clear 18 1007 33 10000 3.09 180 19:44 10.04.2022
2739 Clear 18 1006 38 10000 3.09 180 19:22 10.04.2022
2740 Clear 21 1007 25 10000 3.6 200 18:42 10.04.2022
2741 Clouds 22 1007 43 10000 2.82 206 17:54 10.04.2022
2742 Clouds 21 1006 25 10000 4.63 240 17:34 10.04.2022
2743 Clouds 22 1006 25 10000 7.2 250 16:22 10.04.2022
2744 Clouds 21 1006 29 10000 5.66 240 15:19 10.04.2022
2745 Clouds 21 1007 31 10000 6.17 230 14:22 10.04.2022
2746 Clouds 20 1008 34 10000 5.66 240 12:34 10.04.2022
2747 Clouds 19 1009 38 10000 5.14 250 11:46 10.04.2022
2748 Clouds 19 1009 41 10000 5.14 250 11:28 10.04.2022
2749 Clouds 17 1009 45 10000 4.12 230 10:48 10.04.2022
2750 Clouds 17 1010 49 10000 2.57 190 09:55 10.04.2022
2751 Clouds 16 1010 50 10000 2.57 190 09:21 10.04.2022
2752 Clouds 13 1010 60 10000 3.09 220 08:21 10.04.2022
2753 Clouds 13 1010 64 10000 3.13 173 07:21 10.04.2022
2754 Clouds 12 1009 59 10000 3.13 245 05:27 10.04.2022
2755 Clear 13 1009 55 10000 0.89 193 02:20 10.04.2022
2756 Clear 14 1009 48 10000 1.54 80 00:25 10.04.2022
2757 Clear 15 1009 44 10000 1.03 0 23:43 09.04.2022
2758 Clear 14 1010 44 10000 2.06 330 22:45 09.04.2022
2759 Clear 17 1010 36 10000 2.57 90 21:34 09.04.2022
2760 Clear 16 1010 39 10000 3.09 90 20:48 09.04.2022
2761 Clear 16 1010 39 10000 3.09 90 20:23 09.04.2022
2762 Clear 17 1010 38 10000 3.09 120 19:41 09.04.2022
2763 Clear 20 1009 43 10000 2.18 132 18:54 09.04.2022
2764 Clear 21 1010 26 10000 2.57 200 18:18 09.04.2022
2765 Clear 21 1009 30 10000 3.6 170 17:32 09.04.2022
2766 Clear 22 1010 29 10000 3.6 150 16:43 09.04.2022
2767 Clear 21 1010 27 10000 3.09 150 15:53 09.04.2022
2768 Clear 21 1010 27 10000 3.09 150 15:27 09.04.2022
2769 Clear 20 1011 29 10000 4.12 200 14:27 09.04.2022
2770 Clear 19 1012 33 10000 4.12 140 13:47 09.04.2022
2771 Clear 20 1011 35 10000 2.24 195 12:59 09.04.2022
2772 Clear 17 1011 47 10000 0.89 95 11:56 09.04.2022
2773 Clear 16 1012 51 10000 1.34 189 10:55 09.04.2022
2774 Clear 15 1014 46 10000 4.12 150 10:19 09.04.2022
2775 Clear 13 1015 60 10000 1.03 100 09:36 09.04.2022
2776 Clear 11 1015 69 10000 1.03 0 08:45 09.04.2022
2777 Clouds 7 1013 81 10000 0.45 138 05:58 09.04.2022
2778 Clear 7 1014 79 10000 0.51 0 00:38 09.04.2022
2779 Clear 8 1014 74 10000 1.03 0 23:25 08.04.2022
2780 Clear 10 1011 66 10000 1.56 319 21:57 08.04.2022
2781 Clouds 10 1012 60 10000 2.57 360 20:47 08.04.2022
2782 Clouds 11 1010 59 10000 1.34 308 19:57 08.04.2022
2783 Clouds 12 1010 55 10000 4.12 330 19:18 08.04.2022
2784 Clouds 12 1009 54 10000 4.63 320 18:25 08.04.2022
2785 Clouds 13 1008 54 10000 7.72 280 17:38 08.04.2022
2786 Clouds 14 1008 53 10000 7.72 280 17:19 08.04.2022
2787 Clouds 13 1007 59 10000 6.69 280 16:35 08.04.2022
2788 Clouds 13 1006 64 10000 6.17 250 15:39 08.04.2022
2789 Clouds 12 1004 67 10000 2.68 276 14:52 08.04.2022
2790 Clouds 12 1006 61 10000 9.26 270 14:26 08.04.2022
2791 Clouds 15 1005 56 10000 9.26 250 13:41 08.04.2022
2792 Clouds 15 1005 55 10000 9.26 250 13:22 08.04.2022
2793 Clouds 14 1005 59 10000 6.17 250 11:51 08.04.2022
2794 Rain 11 1008 61 10000 5.66 260 10:31 08.04.2022
2795 Clouds 13 1005 62 10000 5.14 230 09:25 08.04.2022
2796 Clouds 12 1004 69 10000 5.14 240 08:30 08.04.2022
2797 Clouds 10 1003 78 10000 7.2 270 06:47 08.04.2022
2798 Clouds 11 1002 71 10000 6.69 250 04:32 08.04.2022
2799 Clouds 13 1000 63 10000 5.66 230 00:42 08.04.2022
2800 Clouds 13 1000 63 10000 5.66 230 00:18 08.04.2022
2801 Clouds 14 998 65 10000 3.13 180 22:58 07.04.2022
2802 Clouds 15 999 63 10000 3.13 155 22:37 07.04.2022
2803 Clouds 15 999 61 10000 4.02 181 22:19 07.04.2022
2804 Clouds 15 999 64 10000 4.47 170 21:49 07.04.2022
2805 Rain 14 1000 71 10000 3.58 232 20:58 07.04.2022
2806 Rain 13 1000 78 10000 0.45 106 20:30 07.04.2022
2807 Rain 13 1002 79 10000 1.34 157 17:57 07.04.2022
2808 Rain 18 1006 39 10000 6.17 220 17:24 07.04.2022
2809 Clouds 18 1007 32 10000 4.63 220 16:43 07.04.2022
2810 Rain 18 1005 35 10000 4.63 220 16:18 07.04.2022
2811 Clouds 19 1007 28 10000 4.12 240 14:31 07.04.2022
2812 Clear 18 1008 33 10000 5.66 220 13:42 07.04.2022
2813 Clear 18 1009 36 10000 4.12 250 12:40 07.04.2022
2814 Clouds 18 1008 40 10000 0.89 171 10:58 07.04.2022
2815 Clear 14 1011 46 10000 1.03 340 09:36 07.04.2022
2816 Clear 11 1012 52 10000 3.6 80 08:37 07.04.2022
2817 Clear 5 1012 67 10000 0.51 0 06:42 07.04.2022
2818 Clear 7 1011 62 10000 0 0 02:43 07.04.2022
2819 Clear 7 1011 62 10000 0 0 02:18 07.04.2022
2820 Clear 11 1010 44 10000 0.45 304 23:57 06.04.2022
2821 Clear 11 1012 44 10000 1.03 0 22:48 06.04.2022
2822 Clear 12 1011 43 10000 1.03 0 22:25 06.04.2022
2823 Clear 11 1013 45 10000 2.06 20 21:32 06.04.2022
2824 Clear 12 1012 45 10000 2.06 230 20:28 06.04.2022
2825 Clear 10 1011 59 10000 1.71 283 19:53 06.04.2022
2826 Clear 11 1010 59 10000 1.82 266 18:51 06.04.2022
2827 Clear 20 1010 40 10000 1.91 293 17:57 06.04.2022
2828 Clear 18 1007 29 10000 1.91 293 17:35 06.04.2022
2829 Clear 19 1009 25 10000 2.06 240 16:36 06.04.2022
2830 Clear 19 1009 27 10000 2.57 0 15:48 06.04.2022
2831 Clouds 18 1010 28 10000 3.09 300 14:35 06.04.2022
2832 Clouds 17 1010 29 10000 3.6 290 13:23 06.04.2022
2833 Clouds 16 1011 34 10000 3.6 220 12:22 06.04.2022
2834 Clouds 15 1011 41 10000 1.54 190 10:47 06.04.2022
2835 Clouds 15 1011 42 10000 1.54 190 10:24 06.04.2022
2836 Clear 13 1011 48 10000 1.54 270 09:40 06.04.2022
2837 Clear 11 1011 54 10000 1.03 0 08:32 06.04.2022
2838 Clear 10 1011 66 10000 1.03 0 07:47 06.04.2022
2839 Clear 10 1006 59 10000 1.57 309 03:53 06.04.2022
2840 Clouds 11 1008 52 10000 1.54 270 23:52 05.04.2022
2841 Clouds 12 1008 49 10000 1.54 240 22:31 05.04.2022
2842 Clouds 14 1008 40 10000 3.6 260 21:20 05.04.2022
2843 Clouds 14 1008 42 10000 2.06 240 20:25 05.04.2022
2844 Clouds 15 1008 32 10000 0.51 0 19:41 05.04.2022
2845 Clouds 17 1006 30 10000 2.06 90 18:18 05.04.2022
2846 Rain 18 1004 32 10000 1.34 86 16:54 05.04.2022
2847 Clouds 19 1005 29 10000 0.89 41 15:56 05.04.2022
2848 Clouds 19 1008 27 10000 4.63 350 15:34 05.04.2022
2849 Clouds 19 1008 27 10000 4.12 310 14:35 05.04.2022
2850 Clouds 19 1009 28 10000 2.06 0 13:21 05.04.2022
2851 Clouds 18 1009 35 10000 0.45 290 11:51 05.04.2022
2852 Clouds 17 1012 35 10000 2.57 300 11:51 05.04.2022
2853 Clouds 17 1012 35 10000 2.68 295 11:32 05.04.2022
2854 Clouds 16 1010 38 10000 0.45 215 09:55 05.04.2022
2855 Clouds 14 1011 43 10000 0.45 274 08:52 05.04.2022
2856 Clouds 12 1011 48 10000 0.82 105 06:58 05.04.2022
2857 Clouds 11 1015 50 10000 1.3 255 01:55 05.04.2022
2858 Clouds 10 1016 50 10000 1.54 230 22:42 04.04.2022
2859 Clouds 12 1015 44 10000 1.54 230 22:24 04.04.2022
2860 Clouds 12 1015 43 10000 0.51 0 21:21 04.04.2022
2861 Clouds 12 1015 43 10000 1.54 90 20:49 04.04.2022
2862 Clouds 12 1016 45 10000 1.65 223 19:57 04.04.2022
2863 Clouds 13 1015 38 10000 1.54 250 19:26 04.04.2022
2864 Clouds 15 1015 34 10000 2.06 280 18:33 04.04.2022
2865 Clouds 16 1016 30 10000 5.66 250 16:36 04.04.2022
2866 Clouds 16 1016 29 10000 6.69 250 15:44 04.04.2022
2867 Clouds 16 1016 29 10000 6.69 250 15:25 04.04.2022
2868 Clouds 15 1017 30 10000 5.66 230 14:46 04.04.2022
2869 Clouds 15 1018 30 10000 6.69 250 13:31 04.04.2022
2870 Clouds 13 1017 37 10000 2.24 285 11:56 04.04.2022
2871 Clouds 13 1019 36 10000 5.14 260 11:29 04.04.2022
2872 Clouds 11 1019 40 10000 1.54 0 09:18 04.04.2022
2873 Clear 5 1016 57 10000 0.51 0 04:45 04.04.2022
2874 Clear 8 1015 44 10000 3.09 260 01:28 04.04.2022
2875 Clear 10 1015 38 10000 2.06 0 22:45 03.04.2022
2876 Clear 12 1014 36 10000 3.09 270 21:47 03.04.2022
2877 Clouds 12 1015 51 10000 3.63 277 20:57 03.04.2022
2878 Clouds 13 1014 46 10000 4.77 271 19:51 03.04.2022
2879 Clouds 15 1009 29 10000 11.32 260 18:33 03.04.2022
2880 Clouds 18 1009 19 10000 15.43 260 17:48 03.04.2022
2881 Clouds 17 1008 21 10000 15.43 260 17:21 03.04.2022
2882 Clouds 18 1009 18 10000 14.4 260 16:42 03.04.2022
2883 Clouds 18 1007 21 10000 14.92 250 15:18 03.04.2022
2884 Clouds 18 1005 21 10000 5.36 236 13:57 03.04.2022
2885 Clouds 17 1008 25 10000 11.32 240 12:48 03.04.2022
2886 Clouds 16 1009 29 10000 8.23 240 11:33 03.04.2022
2887 Clouds 15 1010 36 10000 8.75 250 09:39 03.04.2022
2888 Clouds 14 1007 40 10000 0.89 231 08:50 03.04.2022
2889 Clear 9 1012 40 10000 2.57 320 05:42 03.04.2022
2890 Clear 8 1013 53 10000 3.17 212 02:54 03.04.2022
2891 Clear 11 1011 29 10000 2.06 60 23:22 02.04.2022
2892 Clear 11 1011 30 10000 1.03 0 22:40 02.04.2022
2893 Clouds 13 1011 44 10000 3.34 229 21:54 02.04.2022
2894 Clear 13 1010 24 10000 2.06 280 21:19 02.04.2022
2895 Clear 17 1010 16 10000 4.63 230 20:35 02.04.2022
2896 Clear 19 1009 15 10000 6.17 260 18:45 02.04.2022
2897 Clear 19 1009 15 10000 6.17 260 18:18 02.04.2022
2898 Clouds 22 1008 29 10000 7.75 272 16:39 02.04.2022
2899 Clear 23 1006 14 10000 11.83 260 15:23 02.04.2022
2900 Clouds 22 1003 16 10000 5.36 250 14:51 02.04.2022
2901 Clouds 22 1003 15 10000 3.58 217 14:20 02.04.2022
2902 Clear 22 1007 16 10000 10.8 240 13:29 02.04.2022
2903 Clear 22 1004 21 10000 3.58 217 11:56 02.04.2022
2904 Clear 21 1005 17 10000 4.47 214 09:57 02.04.2022
2905 Clear 15 1011 23 10000 3.09 190 07:33 02.04.2022
2906 Clear 16 1011 18 10000 4.63 160 04:25 02.04.2022
2907 Clear 16 1011 20 10000 2.06 340 00:27 02.04.2022
2908 Clouds 18 1011 33 10000 2.84 135 23:53 01.04.2022
2909 Clear 19 1012 14 10000 3.6 260 22:34 01.04.2022
2910 Clouds 20 1011 31 10000 2.89 135 20:54 01.04.2022
2911 Clear 20 1012 12 10000 4.12 200 20:35 01.04.2022
2912 Clear 21 1012 12 10000 4.63 190 19:41 01.04.2022
2913 Clear 21 1012 12 10000 4.63 190 19:23 01.04.2022
2914 Clear 22 1012 13 10000 3.6 210 18:36 01.04.2022
2915 Clear 23 1010 13 10000 5.66 220 17:36 01.04.2022
2916 Clear 24 1011 22 10000 4.12 180 15:46 01.04.2022
2917 Clouds 23 1009 27 10000 3.13 158 14:51 01.04.2022
2918 Clear 22 1012 24 10000 5.66 140 13:39 01.04.2022
2919 Clear 21 1013 25 10000 5.66 150 12:33 01.04.2022
2920 Clear 21 1014 25 10000 2.68 150 11:47 01.04.2022
2921 Clear 17 1016 31 10000 4.12 100 10:49 01.04.2022
2922 Clear 16 1016 34 10000 4.12 70 09:39 01.04.2022
2923 Clear 11 1017 48 10000 2.06 130 07:31 01.04.2022
2924 Clouds 12 1014 45 10000 1.16 112 04:59 01.04.2022
2925 Clear 10 1015 51 10000 2.06 110 04:39 01.04.2022
2926 Clear 11 1016 43 10000 1.03 0 02:37 01.04.2022
2927 Clear 11 1017 41 10000 2.06 260 01:33 01.04.2022
2928 Clear 13 1017 36 10000 1.34 162 22:27 31.03.2022
2929 Clear 14 1017 33 10000 1.54 30 21:38 31.03.2022
2930 Clouds 16 1015 29 10000 1.34 167 20:51 31.03.2022
2931 Clear 14 1016 32 10000 3.09 180 20:28 31.03.2022
2932 Clear 16 1016 27 10000 2.06 110 19:21 31.03.2022
2933 Clear 17 1015 25 10000 2.57 230 18:31 31.03.2022
2934 Clear 18 1015 21 10000 5.14 240 16:47 31.03.2022
2935 Clouds 18 1013 23 10000 2.68 213 15:54 31.03.2022
2936 Clouds 18 1013 24 10000 0.89 207 15:24 31.03.2022
2937 Clear 19 1015 23 10000 5.14 240 14:44 31.03.2022
2938 Clear 17 1015 29 10000 4.12 230 13:28 31.03.2022
2939 Clear 16 1016 36 10000 5.14 160 11:30 31.03.2022
2940 Clear 14 1016 40 10000 3.09 190 10:26 31.03.2022
2941 Clear 13 1016 44 10000 1.54 0 09:39 31.03.2022
2942 Clear 8 1017 61 10000 1.54 250 07:48 31.03.2022
2943 Clouds 2 1017 56 10000 1.99 127 02:33 31.03.2022
2944 Clear 8 1015 55 10000 2.68 176 23:24 30.03.2022
2945 Clear 12 1014 41 10000 0.89 175 21:55 30.03.2022
2946 Clear 10 1015 44 10000 2.24 165 21:30 30.03.2022
2947 Clear 10 1015 41 10000 2.06 100 20:37 30.03.2022
2948 Clear 12 1015 37 10000 1.54 130 19:47 30.03.2022
2949 Clear 15 1015 25 10000 2.57 230 18:41 30.03.2022
2950 Clouds 15 1015 48 10000 2.36 237 17:51 30.03.2022
2951 Clouds 15 1014 28 10000 3.09 270 17:20 30.03.2022
2952 Clouds 16 1013 29 10000 4.63 260 16:40 30.03.2022
2953 Clouds 16 1012 33 10000 4.61 249 15:55 30.03.2022
2954 Clouds 16 1014 31 10000 4.63 250 14:35 30.03.2022
2955 Clouds 15 1014 34 10000 3.09 200 13:21 30.03.2022
2956 Clouds 14 1015 38 10000 3.6 220 12:19 30.03.2022
2957 Clouds 12 1016 52 10000 2.57 250 10:48 30.03.2022
2958 Clouds 10 1016 66 10000 2.06 10 09:43 30.03.2022
2959 Clouds 9 1016 72 10000 2.06 260 08:20 30.03.2022
2960 Clouds 6 1015 80 10000 1.03 0 06:32 30.03.2022
2961 Clouds 6 1015 80 10000 1.03 0 05:38 30.03.2022
2962 Clouds 7 1015 66 10000 0.51 0 01:45 30.03.2022
2963 Clouds 8 1015 58 10000 0.51 30 22:39 29.03.2022
2964 Clouds 9 1015 53 10000 1.54 240 21:48 29.03.2022
2965 Clouds 10 1015 52 10000 1.54 240 21:20 29.03.2022
2966 Clouds 11 1015 48 10000 1.03 0 20:25 29.03.2022
2967 Clouds 11 1015 47 10000 0.51 60 19:27 29.03.2022
2968 Clouds 12 1014 46 10000 1.9 228 18:53 29.03.2022
2969 Clouds 12 1016 41 10000 2.57 240 17:48 29.03.2022
2970 Clouds 12 1014 43 10000 0.89 218 16:59 29.03.2022
2971 Clouds 13 1016 38 10000 3.6 250 16:25 29.03.2022
2972 Clouds 14 1017 36 10000 3.09 250 15:20 29.03.2022
2973 Clouds 13 1018 38 10000 3.6 250 14:43 29.03.2022
2974 Clouds 13 1019 39 10000 3.6 290 13:33 29.03.2022
2975 Clouds 13 1018 42 10000 1.34 162 11:58 29.03.2022
2976 Clouds 12 1018 43 10000 3.71 179 10:59 29.03.2022
2977 Clouds 11 1020 45 10000 0.45 159 09:50 29.03.2022
2978 Clouds 8 1021 52 10000 2.06 90 08:32 29.03.2022
2979 Clear 3 1022 68 10000 1.03 0 05:44 29.03.2022
2980 Clear 1 1024 66 10000 0.51 0 01:32 29.03.2022
2981 Clear 5 1025 54 10000 1.54 80 23:26 28.03.2022
2982 Clouds 5 1025 58 10000 1.4 153 22:55 28.03.2022
2983 Clear 6 1025 49 10000 2.06 120 22:30 28.03.2022
2984 Clear 7 1025 47 10000 1.03 0 21:38 28.03.2022
2985 Clear 8 1025 43 10000 1.03 340 20:32 28.03.2022
2986 Clear 11 1025 35 10000 2.57 200 19:47 28.03.2022
2987 Clear 11 1025 35 10000 2.57 200 19:29 28.03.2022
2988 Clear 14 1025 28 10000 3.6 230 18:40 28.03.2022
2989 Clear 16 1025 27 10000 4.12 250 17:40 28.03.2022
2990 Clouds 16 1025 28 10000 4.12 260 16:38 28.03.2022
2991 Clouds 15 1025 33 10000 2.24 303 14:50 28.03.2022
2992 Clouds 15 1026 30 10000 5.14 260 14:22 28.03.2022
2993 Clouds 14 1028 34 10000 6.17 290 12:41 28.03.2022
2994 Clouds 13 1029 37 10000 3.09 270 11:38 28.03.2022
2995 Clear 10 1030 45 10000 1.03 0 09:47 28.03.2022
2996 Clear 9 1030 46 10000 1.03 0 09:20 28.03.2022
2997 Clear 6 1030 56 10000 1.03 0 08:23 28.03.2022
2998 Clear 7 1029 57 10000 0.91 274 07:56 28.03.2022
2999 Clear -2 1029 80 10000 1.03 340 04:27 28.03.2022
3000 Clear 4 1031 66 10000 1.92 237 23:53 27.03.2022
3001 Clear 4 1028 50 10000 2.06 240 22:25 27.03.2022
3002 Clear 4 1028 50 10000 2.06 240 22:25 27.03.2022
3003 Clear 5 1028 48 10000 2.06 240 22:25 27.03.2022
3004 Clear 5 1027 48 10000 2.06 240 21:42 27.03.2022
3005 Clear 8 1029 58 10000 1.47 270 20:58 27.03.2022
3006 Clear 8 1029 62 10000 1.31 300 19:53 27.03.2022
3007 Clear 9 1025 36 10000 2.57 260 19:34 27.03.2022
3008 Clear 11 1024 31 10000 4.63 270 18:29 27.03.2022
3009 Clear 13 1024 26 10000 4.63 280 17:42 27.03.2022
3010 Clear 12 1025 30 10000 4.63 280 17:23 27.03.2022
3011 Clouds 12 1024 28 10000 5.14 290 15:39 27.03.2022
3012 Clear 10 1026 35 10000 2.24 268 13:56 27.03.2022
3013 Clouds 9 1027 36 10000 4.63 270 12:41 27.03.2022
3014 Clear 6 1028 46 10000 3.09 280 11:30 27.03.2022
3015 Clear 3 1028 60 10000 1.54 340 09:32 27.03.2022
3016 Clear -3 1027 83 10000 1.03 260 06:44 27.03.2022
3017 Clear -2 1026 77 10000 1.03 0 01:41 27.03.2022
3018 Clear -1 1026 79 10000 2.06 240 00:24 27.03.2022
3019 Clear -1 1026 73 10000 2.06 240 22:45 26.03.2022
3020 Clear 1 1026 70 10000 1.3 308 21:50 26.03.2022
3021 Clear 1 1026 65 10000 2.06 230 21:26 26.03.2022
3022 Clear 2 1026 64 10000 1.77 328 19:31 26.03.2022
3023 Clouds 3 1025 58 10000 0.89 310 17:54 26.03.2022
3024 Clouds 4 1025 50 10000 5.14 320 17:33 26.03.2022
3025 Clouds 5 1024 52 10000 5.66 270 16:27 26.03.2022
3026 Clouds 6 1029 44 10000 6.17 310 15:23 26.03.2022
3027 Clouds 6 1032 53 10000 1.34 296 13:54 26.03.2022
3028 Clouds 6 1028 58 10000 4.63 310 13:18 26.03.2022
3029 Clouds 4 1024 67 10000 3.09 260 11:41 26.03.2022
3030 Clouds 2 1024 78 10000 2.57 270 10:29 26.03.2022
3031 Snow 0 1023 90 6000 1.54 230 08:44 26.03.2022
3032 Snow -1 1022 89 6000 2.06 160 06:30 26.03.2022
3033 Snow 0 1021 65 10000 2.57 230 05:28 26.03.2022
3034 Clouds 1 1024 62 10000 2.06 240 00:30 26.03.2022
3035 Clouds 5 1019 45 10000 5.66 320 21:51 25.03.2022
3036 Clouds 5 1019 46 10000 3.6 330 20:46 25.03.2022
3037 Clouds 5 1019 46 10000 3.6 330 20:20 25.03.2022
3038 Clouds 6 1038 57 10000 3.2 343 18:51 25.03.2022
3039 Clouds 9 1016 34 10000 5.66 340 17:49 25.03.2022
3040 Clouds 9 1016 34 10000 5.66 340 17:27 25.03.2022
3041 Clouds 9 1016 39 10000 5.14 350 16:19 25.03.2022
3042 Clouds 10 1020 35 10000 5.14 250 14:49 25.03.2022
3043 Clouds 9 1016 36 10000 3.09 270 13:24 25.03.2022
3044 Clouds 6 1018 32 10000 2.57 0 10:26 25.03.2022
3045 Clouds 4 1018 38 10000 2.06 280 09:28 25.03.2022
3046 Clear 2 1018 45 10000 2.06 260 08:24 25.03.2022
3047 Clouds 1 1018 54 10000 1.54 250 07:28 25.03.2022
3048 Clouds -2 1017 72 10000 1.54 250 06:24 25.03.2022
3049 Clouds 0 1022 64 10000 2.57 270 01:32 25.03.2022
3050 Clouds 1 1025 71 10000 0.89 324 22:53 24.03.2022
3051 Clouds 1 1026 68 10000 0.45 300 21:52 24.03.2022
3052 Clouds 1 1017 65 10000 3.09 320 20:37 24.03.2022
3053 Snow 1 1017 63 10000 3.6 310 19:47 24.03.2022
3054 Rain 2 1015 62 10000 6.69 320 17:48 24.03.2022
3055 Clouds 2 1015 67 10000 6.69 320 17:23 24.03.2022
3056 Clouds 3 1020 71 10000 2.57 30 15:45 24.03.2022
3057 Rain 3 1024 76 10000 4.3 316 14:50 24.03.2022
3058 Clouds 3 1020 75 8000 4.12 120 14:19 24.03.2022
3059 Snow 3 1020 72 8000 4.63 260 13:23 24.03.2022
3060 Rain 3 1025 74 10000 2.18 320 11:52 24.03.2022
3061 Snow 3 1023 74 3500 4.12 300 10:18 24.03.2022
3062 Clouds 2 1021 70 10000 1.54 0 08:49 24.03.2022
3063 Clouds 1 1021 86 10000 2.57 240 06:55 24.03.2022
3064 Snow 0 1021 88 3800 3.09 280 03:59 24.03.2022
3065 Clouds 2 1021 76 10000 3.6 300 23:20 23.03.2022
3066 Clouds 2 1021 72 10000 2.57 320 21:45 23.03.2022
3067 Clouds 2 1021 71 10000 2.57 320 21:20 23.03.2022
3068 Clouds 3 1025 69 10000 0.45 336 19:46 23.03.2022
3069 Clouds 3 1025 70 10000 0.45 331 18:59 23.03.2022
3070 Clouds 5 1024 57 10000 0.45 320 17:38 23.03.2022
3071 Clouds 5 1024 55 10000 2.24 1 16:50 23.03.2022
3072 Clouds 6 1024 49 10000 0.45 8 14:51 23.03.2022
3073 Clouds 6 1021 43 10000 3.09 120 14:26 23.03.2022
3074 Clouds 6 1021 43 10000 4.12 100 13:21 23.03.2022
3075 Clouds 3 1018 53 10000 4.63 20 10:20 23.03.2022
3076 Clouds 0 1018 84 10000 1.54 240 06:55 23.03.2022
3077 Snow -2 1018 83 10000 2.06 270 05:27 23.03.2022
3078 Clear -1 1024 74 10000 2.57 60 00:35 23.03.2022
3079 Clouds 0 1028 73 10000 0.45 5 23:41 22.03.2022
3080 Clear 0 1025 67 10000 2.57 30 21:30 22.03.2022
3081 Clear 1 1025 63 10000 3.58 77 20:49 22.03.2022
3082 Clear 1 1020 56 10000 2.57 80 19:51 22.03.2022
3083 Clear 1 1025 56 10000 2.57 80 19:23 22.03.2022
3084 Clouds 2 1020 52 10000 3.09 100 18:38 22.03.2022
3085 Clouds 2 1019 49 10000 5.66 70 17:38 22.03.2022
3086 Clouds 3 1023 48 10000 7.72 50 16:28 22.03.2022
3087 Clouds 4 1023 46 10000 7.72 50 15:23 22.03.2022
3088 Clouds 4 1026 51 10000 2.24 73 14:57 22.03.2022
3089 Clouds 4 1023 48 10000 6.69 80 14:38 22.03.2022
3090 Clouds 3 1023 52 10000 6.69 70 13:36 22.03.2022
3091 Clouds 3 1027 53 10000 2.68 77 11:52 22.03.2022
3092 Clouds 1 1020 57 10000 6.17 80 10:46 22.03.2022
3093 Clouds 0 1020 63 10000 4.12 100 08:38 22.03.2022
3094 Clouds 0 1029 73 10000 0.45 66 06:53 22.03.2022
3095 Clouds -1 1030 71 10000 0.45 42 03:52 22.03.2022
3096 Clouds -1 1027 70 10000 4.63 30 00:29 22.03.2022
3097 Clouds -1 1028 68 10000 4.12 20 22:42 21.03.2022
3098 Clouds 0 1028 67 10000 5.66 40 21:18 21.03.2022
3099 Clouds 0 1028 64 10000 5.66 40 20:41 21.03.2022
3100 Clouds 0 1032 69 10000 0.45 31 19:59 21.03.2022
3101 Clouds 0 1028 63 10000 5.14 40 19:34 21.03.2022
3102 Clouds 1 1028 56 10000 5.66 40 18:36 21.03.2022
3103 Rain 3 1027 49 10000 5.14 50 17:19 21.03.2022
3104 Clouds 2 1031 54 10000 0.89 59 16:51 21.03.2022
3105 Clouds 3 1031 46 10000 1.34 62 16:00 21.03.2022
3106 Clouds 4 1027 40 10000 3.09 30 15:20 21.03.2022
3107 Clouds 4 1027 38 10000 5.14 70 14:28 21.03.2022
3108 Clouds 4 1028 35 10000 2.57 40 12:43 21.03.2022
3109 Clear 4 1033 39 10000 3.15 30 11:54 21.03.2022
3110 Clear 3 1034 41 10000 4.02 25 10:45 21.03.2022
3111 Clear 1 1035 49 10000 0.45 303 08:56 21.03.2022
3112 Clear -3 1027 62 10000 1.34 308 06:59 21.03.2022
3113 Clear -4 1036 64 10000 0.89 315 03:29 21.03.2022
3114 Clear -4 1036 64 10000 1.34 342 00:35 21.03.2022
3115 Clear -3 1036 62 10000 0.89 54 22:55 20.03.2022
3116 Clear -3 1037 62 10000 0.89 337 21:57 20.03.2022
3117 Clear -2 1037 61 10000 0.89 299 21:30 20.03.2022
3118 Clear -2 1037 62 10000 2.68 353 20:47 20.03.2022
3119 Clouds -2 1037 63 10000 1.34 11 20:24 20.03.2022
3120 Clouds -2 1037 63 10000 1.34 4 19:43 20.03.2022
3121 Clouds -1 1037 61 10000 0.89 14 18:44 20.03.2022
3122 Clouds 0 1036 63 10000 4.02 347 17:37 20.03.2022
3123 Clouds 0 1036 61 10000 2.24 350 16:58 20.03.2022
3124 Clouds 2 1035 58 10000 3.58 2 15:52 20.03.2022
3125 Clouds 3 1035 52 10000 3.58 345 14:36 20.03.2022
3126 Rain 3 1035 52 10000 2.68 329 13:20 20.03.2022
3127 Clouds 2 1035 63 10000 0.45 303 11:37 20.03.2022
3128 Clouds 0 1036 67 10000 8.35 11 09:57 20.03.2022
3129 Snow -2 1036 67 10000 2.24 271 07:51 20.03.2022
3130 Snow -4 1037 69 10000 1.34 281 05:49 20.03.2022
3131 Snow -4 1037 69 10000 1.34 281 05:49 20.03.2022
3132 Clouds -5 1028 66 10000 1.34 244 03:18 20.03.2022
3133 Clouds -5 1029 68 10000 3.58 283 00:48 20.03.2022
3134 Clear -4 1038 68 10000 0.89 302 23:21 19.03.2022
3135 Clear -4 1039 64 10000 2.24 287 21:54 19.03.2022
3136 Clear -4 1039 62 10000 2.24 284 21:20 19.03.2022
3137 Clouds -3 1038 61 10000 3.13 299 19:21 19.03.2022
3138 Clouds -3 1038 56 10000 1.34 305 18:25 19.03.2022
3139 Clouds -2 1037 56 10000 4.02 338 17:41 19.03.2022
3140 Clouds -2 1037 50 10000 4.02 324 16:40 19.03.2022
3141 Clouds -1 1036 47 10000 6.26 315 15:21 19.03.2022
3142 Clouds 0 1036 41 10000 4.47 344 13:39 19.03.2022
3143 Clouds 0 1036 48 10000 0.89 275 12:42 19.03.2022
3144 Clouds -1 1036 54 10000 7.72 9 12:19 19.03.2022
3145 Clouds -1 1037 57 10000 1.34 289 11:42 19.03.2022
3146 Clouds -4 1029 50 10000 1.34 286 08:34 19.03.2022
3147 Clouds -8 1029 57 10000 0.89 282 04:24 19.03.2022
3148 Clear -7 1038 57 10000 2.24 269 02:31 19.03.2022
3149 Clouds -6 1038 59 10000 1.34 287 23:46 18.03.2022
3150 Clouds -6 1039 59 10000 2.68 342 22:36 18.03.2022
3151 Clouds -5 1038 59 10000 3.58 352 21:56 18.03.2022
3152 Clouds -4 1038 65 10000 0.45 12 20:25 18.03.2022
3153 Clouds -4 1038 64 10000 3.13 313 19:23 18.03.2022
3154 Clouds -3 1037 55 10000 2.24 305 18:34 18.03.2022
3155 Clouds -2 1037 52 10000 3.58 321 16:52 18.03.2022
3156 Clouds -2 1036 54 10000 3.58 318 15:52 18.03.2022
3157 Clouds 0 1036 48 10000 2.68 308 14:25 18.03.2022
3158 Clouds 1 1035 42 10000 3.58 286 13:18 18.03.2022
3159 Snow 0 1026 33 10000 4.02 319 11:28 18.03.2022
3160 Clouds -1 1027 45 10000 0.45 347 09:41 18.03.2022
3161 Clouds -2 1027 49 10000 0.45 277 08:45 18.03.2022
3162 Clouds -4 1026 54 10000 3.58 283 06:45 18.03.2022
3163 Clouds -3 1024 65 10000 2.24 322 04:38 18.03.2022
3164 Snow 0 1023 64 10000 2.24 292 00:55 18.03.2022
3165 Clouds 0 1023 66 10000 2.68 287 23:52 17.03.2022
3166 Clouds 0 1023 66 10000 2.68 287 23:52 17.03.2022
3167 Clouds 0 1023 66 10000 2.68 287 23:52 17.03.2022
3168 Clouds 0 1023 66 10000 2.68 287 23:52 17.03.2022
3169 Clouds 1 1023 66 10000 3.13 283 22:43 17.03.2022
3170 Clouds 1 1023 67 10000 3.58 308 22:18 17.03.2022
3171 Snow 2 1023 72 10000 1.34 316 21:27 17.03.2022
3172 Clouds 1 1022 85 10000 3.04 337 20:52 17.03.2022
3173 Clouds 1 1022 87 10000 3.3 336 20:18 17.03.2022
3174 Clouds 2 1022 80 10000 1.03 0 19:37 17.03.2022
3175 Clouds 2 1022 85 10000 3.34 4 18:51 17.03.2022
3176 Snow 3 1021 67 10000 3.6 280 17:27 17.03.2022
3177 Clouds 3 1020 66 10000 5.66 290 15:57 17.03.2022
3178 Snow 3 1021 61 10000 4.12 10 15:36 17.03.2022
3179 Snow 4 1021 62 10000 4.63 330 14:55 17.03.2022
3180 Clouds 5 1020 52 10000 4.63 10 13:28 17.03.2022
3181 Clouds 4 1021 57 10000 4.63 320 12:38 17.03.2022
3182 Rain 4 1021 60 10000 5.14 270 11:31 17.03.2022
3183 Rain 4 1021 56 10000 3.6 290 10:38 17.03.2022
3184 Rain 3 1021 59 10000 2.57 270 08:46 17.03.2022
3185 Clouds 3 1022 59 10000 2.57 270 08:18 17.03.2022
3186 Clouds 0 1021 73 10000 1.03 0 05:49 17.03.2022
3187 Clouds 1 1021 68 10000 1.03 0 04:24 17.03.2022
3188 Clouds 1 1021 67 10000 2.06 250 00:24 17.03.2022
3189 Clouds 2 1023 66 10000 0.45 235 22:52 16.03.2022
3190 Clouds 2 1022 59 10000 1.54 180 22:33 16.03.2022
3191 Clouds 2 1023 65 10000 0.89 173 21:55 16.03.2022
3192 Clouds 2 1022 58 10000 0.51 0 20:40 16.03.2022
3193 Clouds 3 1023 56 10000 1.54 230 19:23 16.03.2022
3194 Clouds 4 1022 45 10000 3.6 250 18:42 16.03.2022
3195 Clear 4 1022 44 10000 3.6 250 17:45 16.03.2022
3196 Clear 4 1023 48 10000 3.6 250 17:27 16.03.2022
3197 Clear 5 1031 46 10000 1.34 215 15:56 16.03.2022
3198 Clear 7 1028 42 10000 5.14 240 14:35 16.03.2022
3199 Clear 6 1028 43 10000 4.63 270 13:34 16.03.2022
3200 Clear 6 1025 42 10000 4.12 260 12:18 16.03.2022
3201 Clear 5 1031 47 10000 4.12 260 11:23 16.03.2022
3202 Clear 3 1026 48 10000 2.57 270 10:28 16.03.2022
3203 Clouds 2 1028 56 10000 2.15 245 09:55 16.03.2022
3204 Clear -3 1033 71 10000 1.03 0 06:47 16.03.2022
3205 Clear -4 1034 74 10000 1.03 0 02:29 16.03.2022
3206 Clear -2 1030 67 10000 1.08 15 22:54 15.03.2022
3207 Clear -2 1029 64 10000 1.03 0 22:33 15.03.2022
3208 Clear -1 1030 57 10000 2.06 320 20:51 15.03.2022
3209 Snow -1 1030 55 10000 1.03 360 19:34 15.03.2022
3210 Clouds 1 1029 45 10000 3.6 360 17:41 15.03.2022
3211 Clouds 3 1035 43 10000 3.6 340 16:35 15.03.2022
3212 Clouds 4 1033 41 10000 4.12 330 15:28 15.03.2022
3213 Clouds 4 1029 36 10000 6.17 320 14:52 15.03.2022
3214 Rain 3 1030 47 10000 1.34 284 13:55 15.03.2022
3215 Rain 3 1030 47 10000 1.34 284 13:55 15.03.2022
3216 Clouds 3 1029 44 10000 5.14 310 13:20 15.03.2022
3217 Clouds 2 1030 41 10000 3.09 270 11:32 15.03.2022
3218 Clouds 1 1031 44 10000 3.6 10 10:22 15.03.2022
3219 Clear -2 1032 55 10000 1.34 316 08:53 15.03.2022
3220 Clear -3 1033 55 10000 2.24 8 07:53 15.03.2022
3221 Clear -3 1031 55 10000 4.63 350 07:35 15.03.2022
3222 Snow -5 1031 67 10000 2.06 300 05:45 15.03.2022
3223 Clear -3 1031 62 10000 4.12 340 00:25 15.03.2022
3224 Clear -3 1031 61 10000 3.6 350 23:26 14.03.2022
3225 Clear -3 1030 62 10000 3.09 360 22:37 14.03.2022
3226 Clouds -3 1032 64 10000 0.45 348 21:51 14.03.2022
3227 Clouds -3 1032 64 10000 3.33 359 20:55 14.03.2022
3228 Clear -2 1030 59 10000 2.57 30 20:24 14.03.2022
3229 Clear -1 1029 54 10000 4.12 340 19:22 14.03.2022
3230 Clouds 0 1030 51 10000 3.13 358 17:55 14.03.2022
3231 Clouds 0 1028 39 10000 4.63 30 17:25 14.03.2022
3232 Clouds 2 1028 31 10000 4.63 350 16:26 14.03.2022
3233 Clouds 2 1028 34 10000 3.13 6 14:41 14.03.2022
3234 Clouds 1 1029 40 10000 3.13 352 12:54 14.03.2022
3235 Clear 0 1030 45 10000 2.24 329 10:57 14.03.2022
3236 Snow 0 1030 50 10000 0.89 324 09:56 14.03.2022
3237 Clouds -1 1029 50 10000 1.54 280 09:22 14.03.2022
3238 Clear -2 1031 57 10000 0.89 304 08:57 14.03.2022
3239 Clear -2 1031 57 10000 0.89 304 08:57 14.03.2022
3240 Clouds -2 1029 56 10000 1.54 0 08:20 14.03.2022
3241 Clear -7 1028 78 10000 0.51 0 05:46 14.03.2022
3242 Clear -5 1029 68 10000 0.45 331 02:51 14.03.2022
3243 Clear -6 1027 70 10000 1.54 310 01:29 14.03.2022
3244 Clear -4 1028 63 10000 2.03 353 22:56 13.03.2022
3245 Clear -3 1026 58 10000 3.09 330 21:31 13.03.2022
3246 Clear -3 1028 62 10000 0.45 332 20:59 13.03.2022
3247 Clouds -3 1026 57 10000 2.57 320 20:37 13.03.2022
3248 Clouds -3 1026 57 10000 2.57 320 20:19 13.03.2022
3249 Clouds -3 1025 53 10000 2.06 30 19:39 13.03.2022
3250 Clouds -2 1025 52 10000 2.06 30 19:19 13.03.2022
3251 Clouds -1 1025 47 10000 4.63 10 18:39 13.03.2022
3252 Clouds 0 1023 31 10000 3.09 360 17:47 13.03.2022
3253 Clouds 0 1023 29 10000 3.09 360 17:21 13.03.2022
3254 Clouds 1 1023 28 10000 3.09 340 16:33 13.03.2022
3255 Clouds 1 1022 28 10000 6.17 330 15:49 13.03.2022
3256 Clouds 1 1022 27 10000 4.12 280 14:58 13.03.2022
3257 Clouds 0 1024 39 10000 0.89 16 13:53 13.03.2022
3258 Clouds 1 1022 33 10000 4.12 30 13:19 13.03.2022
3259 Clouds 0 1022 40 10000 4.12 320 12:19 13.03.2022
3260 Snow 0 1022 40 10000 4.63 50 11:36 13.03.2022
3261 Clouds -1 1023 46 10000 3.6 30 10:48 13.03.2022
3262 Clouds -1 1023 48 10000 3.6 30 10:25 13.03.2022
3263 Clouds -2 1022 57 10000 4.12 0 09:41 13.03.2022
3264 Clouds -2 1022 57 10000 4.12 0 09:41 13.03.2022
3265 Clouds -3 1022 65 10000 4.63 50 08:47 13.03.2022
3266 Clouds -4 1022 68 10000 1.54 220 07:47 13.03.2022
3267 Clouds -6 1021 75 10000 1.54 20 05:48 13.03.2022
3268 Clouds -5 1020 74 10000 4.12 50 03:26 13.03.2022
3269 Clouds -5 1020 76 10000 4.12 320 00:30 13.03.2022
3270 Clouds -5 1020 80 6000 3.6 330 22:44 12.03.2022
3271 Clouds -4 1022 82 10000 1.18 330 20:58 12.03.2022
3272 Clouds -4 1022 68 10000 0.89 3 19:56 12.03.2022
3273 Clouds -3 1020 54 10000 2.57 10 19:38 12.03.2022
3274 Clouds -3 1020 49 10000 3.09 360 18:29 12.03.2022
3275 Clouds -3 1020 48 10000 3.09 240 17:39 12.03.2022
3276 Clouds -3 1020 48 10000 3.09 240 16:24 12.03.2022
3277 Clouds -2 1020 45 10000 3.6 250 15:24 12.03.2022
3278 Clouds -2 1020 46 10000 3.6 250 15:24 12.03.2022
3279 Clouds -3 1022 54 10000 0.45 338 14:51 12.03.2022
3280 Clouds -2 1020 42 10000 4.12 260 13:47 12.03.2022
3281 Clouds -2 1020 39 10000 4.12 250 12:18 12.03.2022
3282 Snow -3 1021 40 10000 2.06 0 11:45 12.03.2022
3283 Clouds -3 1021 41 10000 2.06 0 11:19 12.03.2022
3284 Clouds -4 1021 54 10000 3.09 300 09:47 12.03.2022
3285 Clouds -5 1021 57 10000 3.09 300 09:20 12.03.2022
3286 Clear -6 1023 67 10000 0.89 321 07:50 12.03.2022
3287 Clouds -8 1020 77 10000 3.09 290 04:50 12.03.2022
3288 Clouds -6 1019 66 10000 1.54 0 00:21 12.03.2022
3289 Clouds -6 1019 65 10000 2.57 300 23:28 11.03.2022
3290 Clouds -5 1019 58 10000 3.09 320 21:43 11.03.2022
3291 Clouds -4 1020 58 10000 3.13 307 20:57 11.03.2022
3292 Clouds -5 1018 57 10000 3.6 290 20:37 11.03.2022
3293 Clouds -4 1019 54 10000 3.58 303 19:52 11.03.2022
3294 Snow -4 1017 50 10000 4.63 320 19:22 11.03.2022
3295 Clouds -3 1016 48 10000 5.66 330 17:34 11.03.2022
3296 Clouds -1 1020 45 10000 8.23 340 16:38 11.03.2022
3297 Clouds -1 1025 46 10000 4.02 330 15:57 11.03.2022
3298 Clouds 0 1019 42 10000 6.69 330 14:21 11.03.2022
3299 Clouds 0 1022 53 10000 2.68 323 12:52 11.03.2022
3300 Clouds 1 1017 42 10000 6.69 310 12:21 11.03.2022
3301 Clouds 0 1013 48 10000 1.34 305 11:53 11.03.2022
3302 Clouds -2 1013 54 10000 1.34 311 09:59 11.03.2022
3303 Clouds -1 1021 56 10000 3.13 306 08:56 11.03.2022
3304 Snow -3 1011 51 10000 6.69 320 08:24 11.03.2022
3305 Clouds -3 1017 57 10000 4.63 310 07:45 11.03.2022
3306 Clouds -4 1016 60 10000 7.2 330 05:44 11.03.2022
3307 Clouds -3 1015 59 10000 9.26 340 03:48 11.03.2022
3308 Clouds -3 1009 60 10000 6.17 340 23:38 10.03.2022
3309 Clouds -2 1015 63 10000 5.14 350 22:30 10.03.2022
3310 Snow -1 1015 64 10000 6.17 340 21:40 10.03.2022
3311 Snow -2 1015 64 10000 6.17 340 21:18 10.03.2022
3312 Snow -1 1014 72 10000 4.63 350 19:43 10.03.2022
3313 Clouds -1 1014 63 10000 4.12 20 18:40 10.03.2022
3314 Snow 0 1008 59 10000 4.63 350 17:19 10.03.2022
3315 Snow 0 1013 66 10000 4.63 360 15:55 10.03.2022
3316 Snow 0 1008 69 10000 5.14 340 14:44 10.03.2022
3317 Clouds 0 1008 67 10000 4.63 340 13:19 10.03.2022
3318 Snow -1 1009 74 7000 3.6 350 11:57 10.03.2022
3319 Snow 0 1018 69 10000 1.34 307 10:50 10.03.2022
3320 Snow -2 1010 82 10000 2.24 315 08:56 10.03.2022
3321 Clouds -2 1008 74 6000 2.57 20 07:33 10.03.2022
3322 Clouds -1 1016 60 10000 5.14 330 04:18 10.03.2022
3323 Clouds 0 1016 62 10000 5.14 340 01:40 10.03.2022
3324 Clouds 0 1017 61 10000 5.14 340 22:46 09.03.2022
3325 Clouds 0 1017 59 10000 4.63 330 21:49 09.03.2022
3326 Clouds 0 1017 59 10000 4.63 330 21:24 09.03.2022
3327 Clouds 1 1017 62 10000 4.12 20 19:43 09.03.2022
3328 Clouds 1 1008 60 10000 4.12 20 18:29 09.03.2022
3329 Clouds 2 1008 65 10000 4.12 330 17:26 09.03.2022
3330 Clouds 2 1008 65 10000 4.12 330 17:26 09.03.2022
3331 Clouds 2 1008 65 10000 4.12 330 17:26 09.03.2022
3332 Rain 3 1008 58 10000 4.63 340 16:30 09.03.2022
3333 Snow 4 1008 52 10000 3.6 350 14:59 09.03.2022
3334 Clouds 3 1009 57 10000 3.81 2 13:52 09.03.2022
3335 Clouds 4 1007 48 10000 4.12 310 12:45 09.03.2022
3336 Clouds 3 1010 56 10000 3.9 348 11:53 09.03.2022
3337 Clouds 4 1007 50 10000 4.63 340 11:35 09.03.2022
3338 Clouds 3 1010 60 10000 3.81 351 09:50 09.03.2022
3339 Clouds 2 1008 62 10000 5.14 320 08:49 09.03.2022
3340 Clouds 1 1008 64 10000 4.12 350 07:27 09.03.2022
3341 Clouds 0 1006 95 10000 3.09 300 02:42 09.03.2022
3342 Rain 2 1006 93 10000 5.66 340 00:28 09.03.2022
3343 Rain 4 1006 93 10000 3.09 280 22:47 08.03.2022
3344 Rain 4 1006 91 42 2.68 273 21:55 08.03.2022
3345 Rain 5 1006 88 10000 3.6 320 21:22 08.03.2022
3346 Clouds 5 1006 86 10000 3.09 70 20:24 08.03.2022
3347 Clouds 5 1007 80 10000 1.03 0 19:30 08.03.2022
3348 Clouds 5 1007 76 10000 1.03 0 18:41 08.03.2022
3349 Clouds 6 1007 70 10000 1.86 38 16:59 08.03.2022
3350 Clouds 7 1008 64 10000 1.09 280 14:58 08.03.2022
3351 Clouds 7 1008 64 10000 0.45 190 13:54 08.03.2022
3352 Clouds 7 1009 57 10000 2.57 250 12:28 08.03.2022
3353 Clouds 7 1010 56 10000 2.06 30 11:43 08.03.2022
3354 Clouds 5 1011 62 10000 2.06 80 10:29 08.03.2022
3355 Clouds 4 1011 76 10000 0.45 76 08:57 08.03.2022
3356 Clouds 4 1011 76 10000 0.45 76 08:57 08.03.2022
3357 Clouds 1 1011 86 10000 3.09 230 06:31 08.03.2022
3358 Clouds 1 1010 87 10000 5.14 260 03:48 08.03.2022
3359 Rain 3 1008 92 10000 2.24 279 22:53 07.03.2022
3360 Rain 4 1008 94 10000 3.6 280 21:45 07.03.2022
3361 Rain 4 1008 94 10000 3.6 280 21:23 07.03.2022
3362 Rain 4 1008 94 10000 5.14 260 20:34 07.03.2022
3363 Rain 5 1007 92 10000 2.06 250 19:50 07.03.2022
3364 Rain 5 1007 92 10000 2.06 230 19:24 07.03.2022
3365 Clouds 5 1007 92 10000 4.12 240 18:33 07.03.2022
3366 Rain 6 1006 86 10000 5.14 310 17:31 07.03.2022
3367 Clouds 6 1007 87 10000 4.12 310 16:54 07.03.2022
3368 Rain 9 1006 74 10000 2.57 310 14:51 07.03.2022
3369 Clouds 10 1008 64 10000 0.89 186 12:35 07.03.2022
3370 Clouds 9 1009 68 10000 3.13 211 11:36 07.03.2022
3371 Clouds 7 1010 78 10000 1.54 360 10:34 07.03.2022
3372 Clouds 7 1016 72 10000 0.89 189 08:35 07.03.2022
3373 Clouds 3 1011 87 10000 1.34 169 02:50 07.03.2022
3374 Clouds 3 1012 86 10000 2.06 110 00:21 07.03.2022
3375 Clouds 4 1012 83 10000 1.54 130 23:26 06.03.2022
3376 Clouds 6 1012 70 10000 1.03 0 22:29 06.03.2022
3377 Clouds 7 1012 65 10000 1.54 90 21:44 06.03.2022
3378 Clouds 7 1012 65 10000 1.54 120 20:29 06.03.2022
3379 Clouds 8 1012 61 10000 2.06 70 19:43 06.03.2022
3380 Clouds 8 1012 59 10000 3.6 80 18:50 06.03.2022
3381 Clouds 9 1012 55 10000 3.09 40 17:49 06.03.2022
3382 Clouds 9 1012 55 10000 3.09 40 17:20 06.03.2022
3383 Clouds 9 1011 55 10000 3.6 80 16:40 06.03.2022
3384 Clouds 8 1012 59 10000 3.09 80 15:31 06.03.2022
3385 Clouds 8 1012 59 10000 4.12 70 14:42 06.03.2022
3386 Clouds 9 1012 58 10000 3.6 90 13:49 06.03.2022
3387 Clouds 8 1013 62 10000 2.57 0 12:40 06.03.2022
3388 Clouds 7 1014 65 10000 3.09 70 11:46 06.03.2022
3389 Clouds 6 1014 70 10000 4.12 70 10:43 06.03.2022
3390 Clouds 5 1015 74 10000 2.57 60 09:21 06.03.2022
3391 Clouds 5 1015 77 10000 2.57 90 08:28 06.03.2022
3392 Clouds 4 1015 83 10000 3.09 80 07:26 06.03.2022
3393 Clouds 3 1019 88 10000 2.06 100 02:45 06.03.2022
3394 Clouds 3 1020 89 10000 1.54 260 00:36 06.03.2022
3395 Clouds 3 1016 90 10000 1.54 260 00:18 06.03.2022
3396 Clouds 3 1020 89 10000 2.06 270 23:19 05.03.2022
3397 Clouds 3 1020 88 10000 2.06 90 22:34 05.03.2022
3398 Clouds 3 1021 87 10000 3.09 90 21:29 05.03.2022
3399 Clouds 2 1016 89 10000 3.09 90 20:32 05.03.2022
3400 Clouds 2 1016 88 10000 0.89 82 19:22 05.03.2022
3401 Rain 3 1016 79 10000 1.03 0 18:39 05.03.2022
3402 Rain 4 1016 74 10000 3.09 350 17:34 05.03.2022
3403 Rain 5 1016 60 10000 1.54 70 16:19 05.03.2022
3404 Rain 6 1020 60 10000 1.03 0 15:20 05.03.2022
3405 Clouds 5 1020 60 10000 2.06 260 14:36 05.03.2022
3406 Clouds 6 1020 59 10000 3.6 250 13:42 05.03.2022
3407 Clouds 5 1016 54 10000 2.57 190 12:40 05.03.2022
3408 Clouds 5 1017 56 10000 2.57 0 11:20 05.03.2022
3409 Clouds 5 1018 61 10000 0.89 174 10:52 05.03.2022
3410 Clouds 3 1018 58 10000 1.03 0 09:31 05.03.2022
3411 Clouds 0 1017 67 10000 1.03 0 08:28 05.03.2022
3412 Clouds -1 1016 80 10000 1.03 240 07:21 05.03.2022
3413 Clear -4 1016 90 10000 1.03 100 05:25 05.03.2022
3414 Clear -3 1015 83 10000 0 0 00:32 05.03.2022
3415 Clouds -1 1015 74 10000 1.03 120 22:45 04.03.2022
3416 Clouds -1 1015 74 10000 1.03 120 22:25 04.03.2022
3417 Clouds -1 1015 71 10000 2.06 160 21:43 04.03.2022
3418 Clouds 0 1015 64 10000 2.06 250 20:39 04.03.2022
3419 Clouds 1 1015 60 10000 2.06 200 19:37 04.03.2022
3420 Clouds 1 1019 89 10000 0.75 82 18:54 04.03.2022
3421 Clouds 1 1015 57 10000 2.57 180 18:33 04.03.2022
3422 Clouds 1 1015 55 10000 2.06 140 17:29 04.03.2022
3423 Clouds 2 1016 55 10000 3.6 220 15:48 04.03.2022
3424 Clouds 2 1016 56 10000 3.6 220 15:24 04.03.2022
3425 Clouds 2 1016 55 10000 3.09 220 13:35 04.03.2022
3426 Clouds 2 1016 60 10000 3.09 210 12:38 04.03.2022
3427 Clouds 2 1015 60 10000 2.57 240 11:37 04.03.2022
3428 Clouds 0 1016 62 10000 3.09 220 10:24 04.03.2022
3429 Clouds 0 1016 62 10000 3.09 210 09:27 04.03.2022
3430 Clouds -2 1017 76 10000 2.57 160 07:48 04.03.2022
3431 Clouds -5 1014 86 10000 0.51 0 05:49 04.03.2022
3432 Clouds -2 1013 77 10000 4.12 250 01:23 04.03.2022
3433 Clouds -1 1012 74 10000 3.6 240 23:31 03.03.2022
3434 Clouds -1 1012 80 10000 5.14 270 22:18 03.03.2022
3435 Clouds 0 1012 74 10000 3.6 270 21:36 03.03.2022
3436 Clouds 0 1011 69 10000 4.63 270 20:32 03.03.2022
3437 Clouds 0 1010 70 10000 5.14 250 19:22 03.03.2022
3438 Clouds 1 1009 64 10000 5.14 290 18:25 03.03.2022
3439 Clouds 2 1007 59 10000 6.17 270 17:31 03.03.2022
3440 Clouds 2 1006 54 10000 6.17 330 16:41 03.03.2022
3441 Rain 2 1006 60 10000 7.2 320 15:44 03.03.2022
3442 Rain 3 1014 59 10000 7.72 330 14:44 03.03.2022
3443 Clouds 3 1014 59 10000 7.72 330 14:25 03.03.2022
3444 Clouds 2 1010 65 10000 7.2 310 12:33 03.03.2022
3445 Clouds 2 1009 67 10000 5.66 300 11:23 03.03.2022
3446 Clouds 1 1004 75 10000 5.66 300 10:21 03.03.2022
3447 Clouds -1 1003 81 10000 4.47 306 08:42 03.03.2022
3448 Snow -2 1003 94 532 3.58 303 06:57 03.03.2022
3449 Snow -1 1001 87 10000 4.12 310 05:37 03.03.2022
3450 Snow 1 1009 90 4800 3.6 320 23:57 02.03.2022
3451 Snow 1 1009 90 8000 3.09 330 23:00 02.03.2022
3452 Rain 1 1009 89 10000 3.09 10 22:40 02.03.2022
3453 Rain 2 1010 87 10000 2.06 350 21:22 02.03.2022
3454 Rain 2 1011 87 10000 3.6 70 20:30 02.03.2022
3455 Rain 2 1011 87 10000 4.12 90 19:43 02.03.2022
3456 Rain 2 1011 85 10000 4.12 90 19:24 02.03.2022
3457 Rain 3 1013 80 10000 4.63 100 18:37 02.03.2022
3458 Rain 4 1013 74 10000 3.6 110 17:45 02.03.2022
3459 Rain 4 1016 73 10000 1.34 95 16:54 02.03.2022
3460 Rain 5 1013 69 10000 2.06 310 16:25 02.03.2022
3461 Clouds 5 1010 68 7000 1.54 250 14:39 02.03.2022
3462 Clouds 5 1011 73 7000 1.54 0 13:18 02.03.2022
3463 Clouds 4 1012 77 10000 1.03 0 12:39 02.03.2022
3464 Clouds 4 1013 83 6000 2.57 250 11:38 02.03.2022
3465 Clouds 4 1013 84 6000 2.57 250 11:18 02.03.2022
3466 Clouds 2 1014 90 6000 2.57 270 09:40 02.03.2022
3467 Clouds 3 1023 75 10000 0.89 294 08:50 02.03.2022
3468 Mist 2 1020 85 4000 2.57 270 07:25 02.03.2022
3469 Snow 1 1015 95 6000 2.57 230 05:43 02.03.2022
3470 Clouds 2 1024 83 60 1.19 44 00:51 02.03.2022
3471 Clouds 1 1021 91 6000 1.03 240 23:45 01.03.2022
3472 Snow 2 1022 88 6000 1.54 260 22:42 01.03.2022
3473 Snow 2 1022 84 10000 1.03 0 21:56 01.03.2022
3474 Clouds 2 1025 83 10000 1.27 69 20:56 01.03.2022
3475 Rain 2 1017 90 10000 1.54 360 20:24 01.03.2022
3476 Rain 4 1024 70 10000 2.57 330 19:23 01.03.2022
3477 Rain 4 1021 67 10000 1.54 260 18:32 01.03.2022
3478 Clouds 4 1025 67 10000 1.2 36 17:55 01.03.2022
3479 Clouds 5 1025 64 10000 0.45 312 16:54 01.03.2022
3480 Clouds 5 1025 65 10000 0.92 308 15:59 01.03.2022
3481 Clouds 5 1021 61 10000 2.57 290 15:23 01.03.2022
3482 Clouds 5 1017 65 10000 2.57 280 14:34 01.03.2022
3483 Clouds 5 1018 64 10000 3.09 260 13:27 01.03.2022
3484 Clouds 6 1025 65 10000 1.34 264 12:58 01.03.2022
3485 Rain 5 1018 68 10000 4.12 260 12:22 01.03.2022
3486 Clouds 4 1019 68 10000 3.09 280 10:27 01.03.2022
3487 Clouds 3 1019 71 10000 3.09 250 08:41 01.03.2022
3488 Clouds 2 1019 77 10000 2.57 250 07:36 01.03.2022
3489 Clouds 2 1017 84 10000 0.45 269 04:28 01.03.2022
3490 Clouds 2 1017 89 10000 1.89 214 00:59 01.03.2022
3491 Clouds 3 1022 85 10000 4.63 260 23:48 28.02.2022
3492 Clouds 4 1025 81 10000 0.45 285 22:58 28.02.2022
3493 Clouds 4 1025 81 10000 3.18 259 21:50 28.02.2022
3494 Clouds 4 1022 84 10000 1.03 0 21:24 28.02.2022
3495 Rain 4 1023 85 10000 3.09 270 19:52 28.02.2022
3496 Rain 4 1021 86 10000 3.09 270 19:22 28.02.2022
3497 Clouds 4 1015 91 10000 9.77 280 18:36 28.02.2022
3498 Clouds 4 1015 91 10000 9.77 280 18:36 28.02.2022
3499 Clouds 4 1018 89 10000 2.24 189 17:23 28.02.2022
3500 Rain 4 1013 90 10000 3.6 100 16:33 28.02.2022
3501 Rain 4 1013 88 10000 4.12 120 15:23 28.02.2022
3502 Rain 5 1013 89 10000 2.57 0 14:31 28.02.2022
3503 Rain 5 1013 89 10000 2.06 130 13:34 28.02.2022
3504 Rain 6 1014 86 10000 2.06 220 12:37 28.02.2022
3505 Rain 6 1014 85 10000 3.09 240 11:40 28.02.2022
3506 Rain 6 1014 81 10000 4.12 220 10:44 28.02.2022
3507 Rain 7 1014 80 10000 4.12 220 10:19 28.02.2022
3508 Rain 7 1014 83 10000 5.14 250 09:31 28.02.2022
3509 Rain 8 1019 74 10000 4.12 210 08:29 28.02.2022
3510 Clouds 8 1018 74 10000 1.54 240 07:20 28.02.2022
3511 Clouds 7 1018 80 10000 2.68 170 04:32 28.02.2022
3512 Clouds 7 1018 79 10000 3.09 140 03:58 28.02.2022
3513 Rain 8 1019 67 10000 1.54 0 23:27 27.02.2022
3514 Rain 9 1019 63 10000 2.57 70 22:33 27.02.2022
3515 Clouds 9 1022 64 10000 1.34 162 21:51 27.02.2022
3516 Clouds 10 1016 67 10000 1.34 168 20:59 27.02.2022
3517 Rain 9 1017 65 10000 2.06 100 20:27 27.02.2022
3518 Clouds 9 1016 67 10000 0.45 201 19:57 27.02.2022
3519 Clouds 9 1017 62 10000 2.06 130 19:26 27.02.2022
3520 Clouds 9 1018 61 10000 2.06 120 18:47 27.02.2022
3521 Clouds 10 1017 64 10000 0.45 134 17:55 27.02.2022
3522 Clouds 10 1018 58 10000 3.09 90 16:45 27.02.2022
3523 Clouds 10 1018 59 10000 3.09 90 16:21 27.02.2022
3524 Clouds 11 1019 57 10000 3.09 130 13:25 27.02.2022
3525 Clouds 11 1019 56 10000 2.57 170 12:32 27.02.2022
3526 Clouds 10 1019 61 10000 0.45 79 10:56 27.02.2022
3527 Clouds 10 1020 54 10000 2.57 140 10:19 27.02.2022
3528 Rain 8 1021 61 10000 2.06 150 09:49 27.02.2022
3529 Clouds 8 1021 63 10000 2.06 150 09:20 27.02.2022
3530 Clouds 8 1021 69 10000 0.45 218 07:54 27.02.2022
3531 Clouds 6 1028 79 10000 0.58 97 05:38 27.02.2022
3532 Clouds 6 1024 81 10000 1.54 100 02:21 27.02.2022
3533 Clouds 6 1025 75 10000 0 0 23:23 26.02.2022
3534 Clouds 6 1028 75 10000 0.45 294 21:58 26.02.2022
3535 Clouds 6 1027 73 10000 0.45 287 20:59 26.02.2022
3536 Clouds 6 1024 74 10000 2.06 270 20:20 26.02.2022
3537 Clouds 6 1020 75 10000 2.57 270 19:50 26.02.2022
3538 Clouds 6 1020 75 10000 2.57 270 19:29 26.02.2022
3539 Clouds 6 1020 77 10000 1.34 279 17:52 26.02.2022
3540 Clouds 7 1019 70 10000 3.09 260 17:29 26.02.2022
3541 Clouds 7 1019 70 10000 3.6 250 16:19 26.02.2022
3542 Clouds 7 1018 67 10000 3.6 250 15:25 26.02.2022
3543 Clouds 7 1019 71 10000 0.89 255 14:56 26.02.2022
3544 Rain 7 1018 65 10000 2.06 280 14:38 26.02.2022
3545 Clouds 7 1018 65 10000 1.54 70 13:27 26.02.2022
3546 Clouds 6 1018 76 10000 0.45 267 12:51 26.02.2022
3547 Clouds 6 1018 69 10000 1.03 0 11:29 26.02.2022
3548 Clouds 5 1018 77 10000 1.31 241 10:55 26.02.2022
3549 Clouds 4 1019 79 10000 3.6 260 09:21 26.02.2022
3550 Clouds 3 1018 85 10000 1.02 294 07:57 26.02.2022
3551 Clouds 3 1018 85 10000 1.02 294 07:57 26.02.2022
3552 Clouds 3 1020 88 10000 2.06 250 03:21 26.02.2022
3553 Rain 3 1020 87 10000 2.57 260 23:32 25.02.2022
3554 Rain 3 1019 87 10000 3.09 250 21:49 25.02.2022
3555 Clouds 3 1019 87 10000 3.09 250 21:29 25.02.2022
3556 Clouds 3 1013 91 10000 3.6 250 20:33 25.02.2022
3557 Clouds 4 1018 88 10000 4.12 260 19:41 25.02.2022
3558 Clouds 4 1016 87 10000 4.12 260 17:35 25.02.2022
3559 Rain 4 1016 88 10000 4.63 290 16:46 25.02.2022
3560 Clouds 4 1010 91 10000 5.14 290 15:49 25.02.2022
3561 Rain 4 1010 89 10000 5.14 290 15:23 25.02.2022
3562 Rain 4 1015 89 10000 4.12 260 14:49 25.02.2022
3563 Rain 4 1015 89 10000 4.12 260 14:18 25.02.2022
3564 Rain 4 1009 94 10000 5.66 260 13:20 25.02.2022
3565 Rain 4 1009 94 10000 5.66 260 13:20 25.02.2022
3566 Rain 5 1013 86 10000 5.14 260 11:39 25.02.2022
3567 Rain 5 1013 87 10000 5.14 260 11:18 25.02.2022
3568 Rain 5 1013 87 10000 5.14 270 10:23 25.02.2022
3569 Clouds 5 1013 87 10000 5.14 260 09:36 25.02.2022
3570 Clouds 5 1012 87 10000 4.63 270 07:47 25.02.2022
3571 Clouds 5 1012 89 10000 4.63 260 06:45 25.02.2022
3572 Clouds 6 1006 92 10000 4.12 300 05:38 25.02.2022
3573 Clouds 7 1006 91 10000 1.54 30 00:46 25.02.2022
3574 Rain 8 1006 89 10000 2.57 190 22:30 24.02.2022
3575 Rain 8 1007 92 10000 1.03 0 21:43 24.02.2022
3576 Rain 8 1007 92 10000 1.03 0 21:43 24.02.2022
3577 Clouds 8 1007 91 10000 1.34 183 21:21 24.02.2022
3578 Clouds 8 1007 89 10000 2.57 120 20:42 24.02.2022
3579 Clouds 8 1007 90 10000 2.06 10 19:31 24.02.2022
3580 Clouds 8 1007 92 10000 3.09 230 18:20 24.02.2022
3581 Rain 9 1007 89 10000 3.6 260 17:52 24.02.2022
3582 Rain 9 1006 83 10000 3.6 60 17:18 24.02.2022
3583 Thunderstorm 10 1006 73 10000 6.17 50 16:25 24.02.2022
3584 Clouds 11 1006 75 10000 4.12 70 15:42 24.02.2022
3585 Clouds 11 1007 73 10000 4.63 40 14:45 24.02.2022
3586 Clouds 11 1007 74 10000 3.6 50 13:56 24.02.2022
3587 Clouds 10 1008 74 10000 5.66 70 13:35 24.02.2022
3588 Clouds 10 1008 77 10000 3.13 30 11:32 24.02.2022
3589 Clouds 7 1019 83 10000 4.02 89 10:31 24.02.2022
3590 Clouds 5 1033 84 10000 3.41 75 08:43 24.02.2022
3591 Rain 6 1021 96 7000 1.03 120 06:45 24.02.2022
3592 Rain 6 1020 96 10000 1.03 0 05:40 24.02.2022
3593 Clouds 6 1022 93 10000 0 0 00:30 24.02.2022
3594 Clouds 7 1022 87 10000 0 0 22:19 23.02.2022
3595 Clouds 9 1022 78 10000 2.57 270 20:44 23.02.2022
3596 Clouds 9 1022 78 10000 2.57 270 20:23 23.02.2022
3597 Clouds 10 1022 62 10000 2.06 110 19:34 23.02.2022
3598 Clouds 9 1015 64 10000 2.06 130 18:22 23.02.2022
3599 Clouds 13 1014 44 10000 2.06 190 16:28 23.02.2022
3600 Clouds 14 1013 52 10000 3.77 151 13:58 23.02.2022
3601 Clouds 14 1014 50 10000 2.57 40 12:31 23.02.2022
3602 Clouds 11 1015 70 10000 3 128 10:58 23.02.2022
3603 Clouds 9 1016 72 10000 2.57 70 09:49 23.02.2022
3604 Clouds 6 1017 82 10000 2.31 102 08:54 23.02.2022
3605 Clouds 4 1017 87 10000 2.12 85 07:53 23.02.2022
3606 Clouds 3 1016 93 10000 2.08 90 02:58 23.02.2022
3607 Clouds 5 1013 93 10000 1.03 0 00:18 23.02.2022
3608 Clouds 6 1013 86 10000 3.09 90 23:33 22.02.2022
3609 Clouds 5 1013 93 10000 2.06 100 22:28 22.02.2022
3610 Clouds 5 1013 93 10000 2.06 100 22:28 22.02.2022
3611 Clouds 6 1013 93 10000 2.06 120 21:44 22.02.2022
3612 Clouds 6 1013 93 10000 2.06 120 21:21 22.02.2022
3613 Clouds 7 1012 86 10000 2.57 100 20:43 22.02.2022
3614 Clouds 7 1012 86 10000 2.57 100 20:25 22.02.2022
3615 Clouds 7 1012 90 10000 2.57 100 19:34 22.02.2022
3616 Clouds 8 1011 84 10000 3.09 90 18:42 22.02.2022
3617 Clouds 8 1011 84 10000 2.57 80 17:35 22.02.2022
3618 Clouds 8 1010 81 10000 1.84 131 16:57 22.02.2022
3619 Clouds 9 1010 87 10000 4.12 70 16:22 22.02.2022
3620 Clouds 9 1010 79 10000 3.09 100 15:31 22.02.2022
3621 Rain 9 1011 80 6000 5.14 190 14:33 22.02.2022
3622 Rain 9 1011 78 10000 2.57 280 11:39 22.02.2022
3623 Clouds 9 1012 69 10000 0.51 0 09:48 22.02.2022
3624 Clouds 5 1012 84 10000 0.51 0 07:38 22.02.2022
3625 Clouds 5 1012 84 10000 0.51 0 07:19 22.02.2022
3626 Clouds 5 1012 84 10000 0.51 0 07:19 22.02.2022
3627 Clouds 4 1011 84 10000 1.03 0 02:51 22.02.2022
3628 Clouds 4 1012 84 10000 1.54 90 23:42 21.02.2022
3629 Clouds 5 1012 80 10000 1.54 90 22:37 21.02.2022
3630 Clouds 6 1012 72 10000 1.03 0 21:21 21.02.2022
3631 Clouds 9 1013 66 10000 1.32 129 18:58 21.02.2022
3632 Clouds 10 1012 57 10000 2.06 140 18:39 21.02.2022
3633 Clear 14 1012 39 10000 2.06 310 16:30 21.02.2022
3634 Clouds 15 1013 38 10000 3.6 260 14:23 21.02.2022
3635 Clear 14 1014 41 10000 3.6 280 13:31 21.02.2022
3636 Clear 13 1015 44 10000 2.06 300 12:46 21.02.2022
3637 Clear 13 1015 44 10000 2.06 300 12:21 21.02.2022
3638 Clear 13 1015 44 10000 2.06 300 12:21 21.02.2022
3639 Clouds 11 1016 52 10000 1.03 0 10:29 21.02.2022
3640 Clouds 3 1017 86 10000 1.03 0 07:48 21.02.2022
3641 Clouds 4 1018 84 10000 1.03 230 00:36 21.02.2022
3642 Clouds 6 1018 72 10000 0.51 0 22:32 20.02.2022
3643 Clouds 5 1019 75 10000 2.06 0 21:44 20.02.2022
3644 Clouds 5 1019 75 10000 2.06 0 21:25 20.02.2022
3645 Rain 6 1019 72 10000 1.54 190 20:43 20.02.2022
3646 Rain 6 1020 74 10000 0.09 339 19:51 20.02.2022
3647 Rain 7 1020 72 10000 0.28 126 18:56 20.02.2022
3648 Rain 6 1019 67 10000 2.06 310 18:36 20.02.2022
3649 Clouds 8 1020 70 10000 2.04 141 17:55 20.02.2022
3650 Clouds 8 1018 61 10000 1.54 20 17:23 20.02.2022
3651 Rain 9 1020 55 10000 2.06 280 15:27 20.02.2022
3652 Clouds 10 1020 55 10000 2.17 196 13:59 20.02.2022
3653 Clouds 7 1021 56 10000 2.06 0 12:45 20.02.2022
3654 Clouds 8 1022 57 10000 2.03 200 11:50 20.02.2022
3655 Clouds 5 1023 63 10000 1.03 0 10:21 20.02.2022
3656 Clear 4 1023 70 10000 1.03 0 09:24 20.02.2022
3657 Clear -4 1024 96 10000 1.03 0 06:29 20.02.2022
3658 Clear -3 1023 92 10000 0 0 00:32 20.02.2022
3659 Clear -2 1023 96 10000 0.51 0 23:33 19.02.2022
3660 Clear -1 1023 89 10000 0.51 120 22:24 19.02.2022
3661 Clear 0 1023 86 10000 1.03 0 21:45 19.02.2022
3662 Clear 1 1023 83 10000 0.51 0 20:26 19.02.2022
3663 Clear 1 1023 77 10000 0 0 19:34 19.02.2022
3664 Clear 2 1022 72 10000 0 0 18:40 19.02.2022
3665 Clear 2 1022 72 10000 0 0 18:40 19.02.2022
3666 Clouds 4 1025 82 10000 1.58 105 17:57 19.02.2022
3667 Clouds 7 1021 55 10000 3.6 240 16:47 19.02.2022
3668 Clouds 7 1023 73 10000 1.08 73 15:59 19.02.2022
3669 Clouds 6 1023 65 10000 0.71 26 14:53 19.02.2022
3670 Clouds 7 1022 64 10000 0.6 46 13:57 19.02.2022
3671 Clear 6 1020 50 10000 3.09 90 11:47 19.02.2022
3672 Clear 5 1020 54 10000 2.06 140 10:48 19.02.2022
3673 Clear 2 1020 68 10000 1.54 210 08:56 19.02.2022
3674 Clear -1 1018 83 10000 2.06 310 06:45 19.02.2022
3675 Clouds -1 1015 96 10000 2.57 250 00:23 19.02.2022
3676 Clouds 1 1014 89 10000 2.06 270 22:24 18.02.2022
3677 Clouds 1 1013 93 10000 1.54 250 21:21 18.02.2022
3678 Snow 2 1012 87 10000 2.06 270 19:56 18.02.2022
3679 Rain 1 1012 100 6000 3.09 280 18:51 18.02.2022
3680 Rain 1 1012 100 6000 3.09 280 18:28 18.02.2022
3681 Snow 2 1013 90 9008 6.64 331 17:56 18.02.2022
3682 Rain 3 1010 96 4517 4.15 232 15:57 18.02.2022
3683 Rain 6 1009 68 10000 6.23 224 13:56 18.02.2022
3684 Rain 6 1009 59 10000 1.03 0 13:32 18.02.2022
3685 Rain 6 1009 57 10000 2.57 270 12:48 18.02.2022
3686 Clouds 7 1010 55 10000 5.52 229 11:56 18.02.2022
3687 Clouds 5 1011 54 10000 3.09 290 10:42 18.02.2022
3688 Clear 0 1012 83 10000 0.51 0 07:20 18.02.2022
3689 Clear -2 1011 83 10000 0 0 05:43 18.02.2022
3690 Clear -1 1011 83 10000 1.03 0 03:47 18.02.2022
3691 Clear 1 1013 72 10000 2.06 120 21:56 17.02.2022
3692 Clear 1 1013 72 10000 2.06 120 21:27 17.02.2022
3693 Clear 3 1013 67 10000 1.54 80 20:40 17.02.2022
3694 Snow 2 1016 79 10000 1.17 170 19:54 17.02.2022
3695 Clouds 3 1016 77 10000 1.09 156 18:57 17.02.2022
3696 Clear 3 1013 67 10000 2.57 250 18:18 17.02.2022
3697 Clear 7 1013 49 10000 2.06 270 16:43 17.02.2022
3698 Clear 8 1013 42 10000 3.09 280 15:44 17.02.2022
3699 Clouds 8 1014 41 10000 2.57 300 14:29 17.02.2022
3700 Clouds 7 1014 43 10000 1.54 0 13:30 17.02.2022
3701 Clear 5 1017 48 10000 3.09 150 11:36 17.02.2022
3702 Clear 2 1018 62 7000 1.03 0 09:38 17.02.2022
3703 Clouds -6 1019 93 7000 0 0 06:37 17.02.2022
3704 Clear -2 1020 89 10000 1.03 0 23:21 16.02.2022
3705 Clear -1 1021 86 10000 1.54 160 22:27 16.02.2022
3706 Clear 2 1021 64 10000 0.51 0 20:21 16.02.2022
3707 Clouds 3 1023 73 10000 0.95 126 18:50 16.02.2022
3708 Clouds 4 1023 72 10000 0.96 86 17:54 16.02.2022
3709 Clouds 7 1021 61 10000 0.57 11 15:58 16.02.2022
3710 Clear 8 1021 39 10000 3.6 270 15:20 16.02.2022
3711 Clouds 7 1021 43 10000 2.06 0 13:38 16.02.2022
3712 Clouds 6 1022 45 10000 2.57 0 12:21 16.02.2022
3713 Clouds 5 1023 53 10000 2.57 270 11:35 16.02.2022
3714 Clouds 4 1024 56 10000 1.54 250 10:34 16.02.2022
3715 Clear 2 1026 64 10000 1.05 222 08:58 16.02.2022
3716 Clouds -5 1024 93 10000 1.03 0 06:43 16.02.2022
3717 Clouds 1 1024 72 10000 0.51 0 23:45 15.02.2022
3718 Clouds 1 1023 72 10000 0.51 0 22:34 15.02.2022
3719 Clouds 1 1023 69 10000 0 0 21:49 15.02.2022
3720 Clouds 1 1023 69 10000 0 0 21:29 15.02.2022
3721 Clouds 2 1026 77 10000 0.85 38 20:56 15.02.2022
3722 Clouds 2 1025 76 10000 0.93 44 19:59 15.02.2022
3723 Clouds 2 1023 60 10000 1.54 270 19:26 15.02.2022
3724 Clouds 2 1023 60 10000 2.06 240 18:24 15.02.2022
3725 Clouds 2 1023 62 10000 2.06 190 17:52 15.02.2022
3726 Clouds 2 1023 62 10000 2.06 190 17:21 15.02.2022
3727 Clouds 3 1022 56 10000 3.09 270 15:34 15.02.2022
3728 Clouds 3 1022 56 10000 2.57 270 13:29 15.02.2022
3729 Clouds 3 1022 53 10000 1.7 265 12:59 15.02.2022
3730 Clouds 2 1022 58 10000 2.06 270 11:40 15.02.2022
3731 Clouds 2 1024 56 10000 1.46 221 09:52 15.02.2022
3732 Clouds 2 1025 62 10000 1.15 199 07:00 15.02.2022
3733 Clouds 2 1022 64 10000 2.57 190 06:19 15.02.2022
3734 Clouds 2 1022 75 10000 1.54 260 23:34 14.02.2022
3735 Clouds 2 1024 67 10000 1.27 223 21:55 14.02.2022
3736 Clouds 3 1024 69 10000 1.04 225 20:51 14.02.2022
3737 Clouds 3 1022 70 10000 1.54 240 19:45 14.02.2022
3738 Clouds 3 1022 70 10000 1.54 240 19:26 14.02.2022
3739 Clouds 3 1021 72 10000 2.06 290 18:23 14.02.2022
3740 Clouds 3 1020 75 10000 2.06 270 17:27 14.02.2022
3741 Clouds 3 1020 72 10000 3.09 250 16:26 14.02.2022
3742 Clouds 3 1020 63 10000 3.09 240 14:43 14.02.2022
3743 Clouds 3 1020 70 10000 2.06 250 13:34 14.02.2022
3744 Clouds 3 1021 66 10000 1.31 300 12:56 14.02.2022
3745 Clouds 3 1021 68 10000 1.61 287 11:55 14.02.2022
3746 Clouds 2 1020 77 10000 2.57 250 11:18 14.02.2022
3747 Clouds 1 1020 83 8000 2.06 250 09:25 14.02.2022
3748 Clouds -3 1020 96 8000 0 0 07:33 14.02.2022
3749 Clouds -2 1023 80 10000 0.76 304 06:54 14.02.2022
3750 Clear 1 1020 77 10000 4.12 70 22:44 13.02.2022
3751 Clear 1 1020 77 10000 4.12 70 22:26 13.02.2022
3752 Clear 2 1021 70 10000 4.63 70 21:48 13.02.2022
3753 Clear 3 1020 70 10000 5.14 60 20:42 13.02.2022
3754 Clear 3 1021 70 10000 5.14 70 19:51 13.02.2022
3755 Clouds 3 1024 89 10000 2.12 71 18:56 13.02.2022
3756 Clear 3 1021 68 10000 6.69 60 18:38 13.02.2022
3757 Clear 5 1022 60 10000 6.69 60 16:40 13.02.2022
3758 Clear 6 1022 56 10000 6.17 50 15:42 13.02.2022
3759 Clear 7 1022 53 10000 7.2 40 14:37 13.02.2022
3760 Rain 6 1024 63 10000 3.57 57 12:52 13.02.2022
3761 Clear 8 1023 45 10000 7.72 90 12:33 13.02.2022
3762 Clear 7 1025 51 10000 5.66 80 10:38 13.02.2022
3763 Clear 5 1025 62 10000 5.66 70 09:49 13.02.2022
3764 Clear 0 1026 89 10000 1.03 0 08:33 13.02.2022
3765 Clear -4 1027 96 10000 0.51 80 01:24 13.02.2022
3766 Clear -3 1027 92 10000 0 0 00:21 13.02.2022
3767 Clear -1 1028 83 10000 0.51 0 22:34 12.02.2022
3768 Clear -1 1028 80 10000 1.03 0 21:40 12.02.2022
3769 Clouds 1 1029 71 10000 1.12 61 20:55 12.02.2022
3770 Clouds 2 1029 70 10000 1.27 61 19:56 12.02.2022
3771 Clouds 4 1029 69 10000 1.26 49 18:54 12.02.2022
3772 Clear 2 1027 62 10000 0.51 0 18:35 12.02.2022
3773 Clear 5 1026 48 10000 2.06 230 17:39 12.02.2022
3774 Clear 8 1026 41 10000 2.06 270 16:45 12.02.2022
3775 Clouds 10 1027 63 10000 0.94 351 15:53 12.02.2022
3776 Clear 10 1026 39 10000 2.06 270 15:20 12.02.2022
3777 Clear 10 1026 41 10000 2.06 300 14:25 12.02.2022
3778 Clear 7 1027 46 10000 1.54 0 11:31 12.02.2022
3779 Clear 4 1028 50 10000 1.54 290 10:30 12.02.2022
3780 Clear 3 1028 60 10000 1.54 0 09:37 12.02.2022
3781 Clear 0 1028 83 10000 0.51 0 08:46 12.02.2022
3782 Clear -4 1028 93 10000 0 0 07:44 12.02.2022
3783 Clear -6 1027 96 10000 0 0 04:47 12.02.2022
3784 Clear -5 1027 93 10000 0.51 80 02:19 12.02.2022
3785 Clear -2 1027 89 10000 1.03 0 23:21 11.02.2022
3786 Clear -2 1027 89 10000 1.03 0 22:21 11.02.2022
3787 Clear 0 1027 76 10000 2.06 200 21:32 11.02.2022
3788 Clear 0 1027 83 10000 0.51 0 20:26 11.02.2022
3789 Clear 1 1027 74 10000 1.03 0 19:28 11.02.2022
3790 Clear 2 1026 69 10000 0.51 0 18:29 11.02.2022
3791 Clear 4 1026 58 10000 2.06 240 17:27 11.02.2022
3792 Clear 6 1026 53 10000 3.09 260 16:39 11.02.2022
3793 Clear 7 1025 49 10000 3.09 260 15:19 11.02.2022
3794 Clear 7 1025 49 10000 3.09 260 14:37 11.02.2022
3795 Clear 7 1025 49 10000 3.09 260 14:19 11.02.2022
3796 Clear 6 1026 51 10000 3.09 300 13:40 11.02.2022
3797 Clear 6 1026 51 10000 3.09 300 13:21 11.02.2022
3798 Clear 5 1028 54 10000 1.48 236 10:55 11.02.2022
3799 Clear 1 1027 64 10000 1.03 0 09:32 11.02.2022
3800 Clear -1 1028 80 10000 1.03 0 08:31 11.02.2022
3801 Clear -4 1027 93 10000 0 0 07:40 11.02.2022
3802 Clear -7 1026 93 10000 0.51 70 05:34 11.02.2022
3803 Clear -5 1026 89 10000 1.03 0 02:20 11.02.2022
3804 Clear -4 1026 83 10000 0.51 0 23:41 10.02.2022
3805 Clear -3 1027 83 10000 0.51 0 22:25 10.02.2022
3806 Clear -1 1026 74 10000 1.54 320 21:40 10.02.2022
3807 Clear -1 1026 66 10000 2.06 130 20:48 10.02.2022
3808 Clear 0 1025 64 10000 2.06 110 19:49 10.02.2022
3809 Clear 0 1025 64 10000 2.06 110 19:21 10.02.2022
3810 Clear 1 1028 74 10000 1.73 39 17:53 10.02.2022
3811 Clear 3 1024 52 10000 3.09 10 17:21 10.02.2022
3812 Clouds 5 1023 44 10000 3.6 10 16:31 10.02.2022
3813 Clouds 5 1023 44 10000 4.63 340 15:37 10.02.2022
3814 Clouds 5 1023 44 10000 4.63 340 15:18 10.02.2022
3815 Clouds 5 1022 42 10000 3.6 10 14:33 10.02.2022
3816 Clouds 5 1022 44 10000 6.17 330 13:34 10.02.2022
3817 Clear 5 1024 52 10000 4.61 358 12:53 10.02.2022
3818 Clouds 4 1022 45 10000 5.66 340 11:48 10.02.2022
3819 Clouds 4 1022 45 10000 5.66 340 11:28 10.02.2022
3820 Clouds 3 1022 47 10000 7.2 340 10:21 10.02.2022
3821 Clouds 3 1022 48 10000 7.2 350 09:27 10.02.2022
3822 Clear 1 1026 65 10000 5.09 349 07:57 10.02.2022
3823 Clouds -2 1020 70 10000 1.03 0 06:19 10.02.2022
3824 Clouds 0 1017 67 10000 5.14 350 02:28 10.02.2022
3825 Clouds -1 1022 74 10000 4.34 350 00:51 10.02.2022
3826 Clouds 0 1017 52 10000 5.66 340 00:30 10.02.2022
3827 Clouds 0 1017 59 10000 7.2 350 23:49 09.02.2022
3828 Clouds 0 1016 54 10000 5.66 360 22:45 09.02.2022
3829 Clouds 0 1016 54 10000 5.66 360 22:25 09.02.2022
3830 Clouds 1 1016 53 10000 6.17 350 21:38 09.02.2022
3831 Clouds 1 1016 53 10000 6.17 350 21:18 09.02.2022
3832 Clouds 1 1016 58 10000 7.2 340 20:41 09.02.2022
3833 Clouds 1 1016 58 10000 7.2 340 20:20 09.02.2022
3834 Clouds 1 1016 58 10000 6.69 350 19:38 09.02.2022
3835 Clouds 2 1014 62 10000 7.2 360 17:43 09.02.2022
3836 Snow 2 1017 79 10000 7.39 10 16:53 09.02.2022
3837 Rain 3 1014 65 10000 6.17 360 15:54 09.02.2022
3838 Snow 3 1012 68 10000 4.63 350 14:43 09.02.2022
3839 Clouds 4 1011 60 10000 7.2 350 12:41 09.02.2022
3840 Clouds 4 1011 62 10000 6.69 350 11:20 09.02.2022
3841 Clouds 4 1011 65 10000 5.14 360 10:31 09.02.2022
3842 Clouds 4 1011 65 10000 4.63 360 09:42 09.02.2022
3843 Clouds 4 1011 65 10000 4.63 360 09:19 09.02.2022
3844 Clouds 3 1013 90 9261 4.28 10 07:56 09.02.2022
3845 Clouds 2 1009 96 10000 2.06 270 05:30 09.02.2022
3846 Clouds 2 1009 96 10000 2.06 270 05:30 09.02.2022
3847 Clouds 2 1010 96 5219 1.35 13 03:50 09.02.2022
3848 Clouds 3 1007 84 10000 4.12 220 01:28 09.02.2022
3849 Clouds 6 1006 78 10000 3.09 190 23:39 08.02.2022
3850 Clouds 6 1006 81 10000 3.09 130 22:51 08.02.2022
3851 Rain 6 1005 78 10000 1.54 0 22:22 08.02.2022
3852 Rain 7 1008 82 10000 7.15 168 21:52 08.02.2022
3853 Rain 6 1005 75 10000 2.57 170 21:21 08.02.2022
3854 Rain 7 1006 73 10000 3.6 160 20:45 08.02.2022
3855 Rain 8 1005 61 10000 5.66 170 19:52 08.02.2022
3856 Clouds 9 1005 63 10000 4.63 160 18:52 08.02.2022
3857 Clouds 9 1007 82 10000 8.84 162 17:50 08.02.2022
3858 Clouds 9 1005 68 10000 5.66 150 16:35 08.02.2022
3859 Clouds 10 1005 64 10000 4.12 170 15:39 08.02.2022
3860 Clouds 10 1005 66 10000 6.17 180 14:44 08.02.2022
3861 Clouds 9 1006 66 10000 5.14 190 13:29 08.02.2022
3862 Clouds 9 1006 66 10000 4.63 180 12:18 08.02.2022
3863 Clouds 8 1007 66 10000 7.2 170 10:39 08.02.2022
3864 Clouds 7 1007 70 10000 6.17 180 09:45 08.02.2022
3865 Rain 6 1007 75 10000 6.17 190 08:25 08.02.2022
3866 Clouds 3 1009 87 10000 2.06 110 05:41 08.02.2022
3867 Clouds 3 1009 87 10000 1.03 0 04:39 08.02.2022
3868 Rain 3 1009 87 10000 1.03 0 04:21 08.02.2022
3869 Clouds 4 1009 83 10000 2.06 240 03:36 08.02.2022
3870 Clouds 4 1009 83 10000 2.06 240 03:18 08.02.2022
3871 Snow 1 1014 89 10000 2.3 113 02:59 08.02.2022
3872 Rain 4 1010 80 10000 2.57 260 02:36 08.02.2022
3873 Rain 4 1010 80 10000 2.57 260 02:18 08.02.2022
3874 Clouds 4 1011 75 10000 1.54 310 01:44 08.02.2022
3875 Clouds 4 1011 75 10000 1.54 310 01:24 08.02.2022
3876 Snow 1 1016 87 10000 2.01 105 00:55 08.02.2022
3877 Clouds 4 1012 67 10000 1.54 0 23:57 07.02.2022
3878 Clouds 4 1012 67 10000 1.54 0 23:39 07.02.2022
3879 Clouds 4 1012 68 10000 2.06 60 23:18 07.02.2022
3880 Rain 4 1013 62 10000 2.57 110 22:42 07.02.2022
3881 Clouds 4 1013 62 10000 2.57 110 22:18 07.02.2022
3882 Clouds 4 1013 60 10000 2.06 230 21:43 07.02.2022
3883 Clouds 4 1013 60 10000 2.06 230 21:25 07.02.2022
3884 Clear 4 1013 60 10000 2.06 130 20:41 07.02.2022
3885 Clouds 1 1020 92 10000 1.78 98 19:54 07.02.2022
3886 Clear 3 1014 63 10000 3.09 80 19:36 07.02.2022
3887 Clear 2 1020 94 10000 1.99 103 18:21 07.02.2022
3888 Clear 4 1020 94 10000 2.17 105 16:53 07.02.2022
3889 Clear 5 1015 54 10000 2.06 150 16:20 07.02.2022
3890 Clear 6 1015 52 10000 4.63 150 15:48 07.02.2022
3891 Clear 6 1016 50 10000 4.12 180 13:36 07.02.2022
3892 Clear 6 1016 50 10000 4.12 180 13:18 07.02.2022
3893 Clouds 6 1020 85 10000 2.23 145 11:58 07.02.2022
3894 Clear 5 1018 54 10000 2.06 0 11:36 07.02.2022
3895 Clouds 5 1021 86 10000 2.08 144 10:51 07.02.2022
3896 Clear 3 1019 60 10000 3.09 240 10:31 07.02.2022
3897 Clouds 4 1023 85 10000 1.94 136 09:53 07.02.2022
3898 Clouds 2 1019 69 6000 1.03 0 09:18 07.02.2022
3899 Mist 0 1020 83 6000 0 0 08:38 07.02.2022
3900 Mist -5 1020 93 6000 1.03 0 07:19 07.02.2022
3901 Mist -6 1020 93 4800 0.51 0 06:34 07.02.2022
3902 Clear -6 1020 96 10000 1.54 90 03:27 07.02.2022
3903 Clear -4 1022 93 10000 0 0 00:45 07.02.2022
3904 Clear -4 1023 93 10000 0.51 0 23:48 06.02.2022
3905 Clear -3 1023 93 10000 0.51 0 22:48 06.02.2022
3906 Clear -1 1029 91 10000 0.69 132 21:55 06.02.2022
3907 Clear -3 1023 96 10000 0 0 21:35 06.02.2022
3908 Clear 0 1029 90 10000 0.7 133 20:54 06.02.2022
3909 Clear -2 1023 89 10000 0 0 20:31 06.02.2022
3910 Clear -2 1023 89 10000 0.51 70 19:38 06.02.2022
3911 Clear -1 1023 83 10000 0.51 60 18:40 06.02.2022
3912 Clouds 2 1028 89 10000 0.73 134 17:56 06.02.2022
3913 Clear 1 1022 77 10000 1.03 0 17:19 06.02.2022
3914 Clear 3 1022 68 10000 3.09 280 16:38 06.02.2022
3915 Clear 4 1022 63 10000 3.09 260 15:49 06.02.2022
3916 Clear 4 1022 63 10000 3.09 260 15:26 06.02.2022
3917 Clear 4 1022 60 10000 3.09 260 14:36 06.02.2022
3918 Clear 3 1022 62 10000 2.57 240 13:26 06.02.2022
3919 Clouds 4 1025 76 10000 0.99 266 12:52 06.02.2022
3920 Clouds 1 1022 64 10000 2.06 240 11:35 06.02.2022
3921 Clouds -1 1023 72 10000 2.06 240 10:31 06.02.2022
3922 Clouds -3 1027 76 10000 1.21 248 08:59 06.02.2022
3923 Clear -4 1022 83 10000 0.51 0 08:30 06.02.2022
3924 Clear -7 1021 93 10000 0 0 05:31 06.02.2022
3925 Clear -7 1021 93 10000 0 0 05:31 06.02.2022
3926 Clouds -6 1026 87 10000 0.32 98 02:50 06.02.2022
3927 Clear -6 1020 86 10000 0 0 02:24 06.02.2022
3928 Clear -6 1020 90 10000 0.51 0 00:29 06.02.2022
3929 Clear -5 1021 81 10000 1.03 0 22:31 05.02.2022
3930 Clear -4 1021 83 10000 1.03 0 21:32 05.02.2022
3931 Clear -4 1020 83 10000 0.51 0 20:24 05.02.2022
3932 Clear -3 1020 77 10000 1.03 0 19:46 05.02.2022
3933 Clouds -2 1025 86 10000 0.82 145 18:58 05.02.2022
3934 Clear -1 1020 69 10000 2.06 200 17:39 05.02.2022
3935 Clear -1 1020 69 10000 2.06 200 17:39 05.02.2022
3936 Clear -1 1020 69 10000 2.06 200 17:39 05.02.2022
3937 Clear -1 1020 69 10000 2.06 200 17:39 05.02.2022
3938 Clouds 0 1024 81 10000 0.74 142 16:58 05.02.2022
3939 Clear 2 1019 46 10000 2.06 220 15:34 05.02.2022
3940 Clouds 2 1022 70 10000 1.2 216 14:55 05.02.2022
3941 Clouds 0 1020 53 10000 2.06 250 12:47 05.02.2022
3942 Clouds 0 1020 53 10000 2.06 250 12:27 05.02.2022
3943 Clear -1 1020 55 10000 1.54 230 10:48 05.02.2022
3944 Clear -1 1020 55 10000 1.54 230 10:20 05.02.2022
3945 Clear -3 1021 63 10000 0 0 09:43 05.02.2022
3946 Clear -7 1026 77 10000 0.69 225 07:51 05.02.2022
3947 Clear -7 1026 77 10000 0.69 225 07:51 05.02.2022
3948 Clear -8 1027 82 10000 0.83 260 06:57 05.02.2022
3949 Clear -8 1019 86 10000 0 0 04:29 05.02.2022
3950 Clear -8 1019 86 10000 0.51 0 01:19 05.02.2022
3951 Clear -6 1025 85 10000 0.8 354 00:53 05.02.2022
3952 Clear -6 1018 73 10000 1.54 360 23:41 04.02.2022
3953 Clear -6 1018 73 10000 1.54 360 23:23 04.02.2022
3954 Clear -4 1025 87 10000 1.06 337 21:54 04.02.2022
3955 Clear -4 1018 65 10000 2.57 20 21:36 04.02.2022
3956 Clear -4 1018 65 10000 2.57 20 21:18 04.02.2022
3957 Clear -3 1017 63 10000 0 0 19:39 04.02.2022
3958 Clouds -1 1016 62 10000 4.12 310 17:40 04.02.2022
3959 Clouds 1 1015 49 10000 6.17 310 15:39 04.02.2022
3960 Clouds 1 1018 72 10000 5.04 333 14:54 04.02.2022
3961 Clouds 2 1014 54 10000 5.66 350 13:31 04.02.2022
3962 Clouds 2 1014 57 10000 5.14 360 12:43 04.02.2022
3963 Clouds 1 1014 58 9000 5.66 350 11:41 04.02.2022
3964 Clouds 1 1014 58 10000 5.14 360 10:36 04.02.2022
3965 Snow 0 1013 65 10000 2.06 10 08:34 04.02.2022
3966 Snow -1 1012 87 4200 1.54 200 06:18 04.02.2022
3967 Snow 0 1009 92 4000 2.57 10 02:42 04.02.2022
3968 Snow 2 1009 80 4000 6.69 30 01:48 04.02.2022
3969 Clouds 3 1008 90 10000 2.06 240 23:29 03.02.2022
3970 Clouds 3 1008 93 10000 1.54 230 22:33 03.02.2022
3971 Rain 4 1008 87 10000 1.03 190 21:49 03.02.2022
3972 Clouds 4 1008 87 10000 1.03 260 20:38 03.02.2022
3973 Clouds 3 1010 92 10000 1.93 79 20:18 03.02.2022
3974 Clouds 4 1008 87 10000 1.54 230 19:30 03.02.2022
3975 Clouds 5 1007 81 10000 2.06 240 18:34 03.02.2022
3976 Clouds 5 1007 75 10000 1.54 250 17:32 03.02.2022
3977 Clouds 7 1007 63 10000 1.54 250 16:24 03.02.2022
3978 Clouds 8 1007 61 10000 0.51 0 14:37 03.02.2022
3979 Clouds 8 1008 79 10000 3.44 153 12:51 03.02.2022
3980 Clouds 8 1008 55 10000 4.63 150 10:45 03.02.2022
3981 Clouds 7 1008 56 10000 4.12 150 08:35 03.02.2022
3982 Clouds 6 1010 80 10000 7.27 157 03:57 03.02.2022
3983 Clouds 7 1008 59 10000 7.72 170 00:30 03.02.2022
3984 Clouds 7 1012 80 10000 9.56 167 22:55 02.02.2022
3985 Clouds 6 1012 81 10000 9.91 167 21:53 02.02.2022
3986 Clouds 7 1010 63 10000 5.14 180 21:30 02.02.2022
3987 Clouds 6 1010 65 10000 4.12 170 20:38 02.02.2022
3988 Clouds 6 1012 83 10000 9.74 170 19:55 02.02.2022
3989 Clouds 6 1010 67 10000 5.66 180 19:26 02.02.2022
3990 Clouds 6 1010 69 10000 5.14 170 18:34 02.02.2022
3991 Clouds 6 1010 69 10000 5.14 180 17:38 02.02.2022
3992 Clouds 6 1010 69 10000 5.14 180 17:19 02.02.2022
3993 Clouds 6 1010 69 10000 3.09 160 16:30 02.02.2022
3994 Clouds 7 1013 97 10000 8.45 172 12:54 02.02.2022
3995 Clouds 7 1013 97 10000 7.03 168 11:51 02.02.2022
3996 Clouds 6 1012 70 10000 5.66 170 11:31 02.02.2022
3997 Clouds 6 1012 65 10000 2.57 300 09:46 02.02.2022
3998 Clouds 4 1012 67 10000 1.03 0 06:18 02.02.2022
3999 Snow 0 1014 89 7000 1.03 0 22:46 01.02.2022
4000 Clouds 0 1014 89 8000 0.51 0 21:36 01.02.2022
4001 Clouds -2 1018 96 10000 2.25 113 19:57 01.02.2022
4002 Clouds 1 1013 80 10000 1.03 0 17:38 01.02.2022
4003 Clouds 3 1013 75 10000 1.03 0 16:36 01.02.2022
4004 Clouds 3 1013 68 8000 1.03 0 13:32 01.02.2022
4005 Clouds 1 1013 75 7000 2.06 60 12:30 01.02.2022
4006 Clouds 0 1013 72 6000 3.09 70 11:19 01.02.2022
4007 Mist -3 1012 96 2000 1.54 250 02:32 01.02.2022
4008 Fog -3 1012 96 700 0.51 0 23:41 31.01.2022
4009 Fog -3 1012 96 700 2.06 230 22:48 31.01.2022
4010 Fog -3 1012 96 700 1.54 240 21:38 31.01.2022
4011 Fog -5 1012 93 700 1.03 0 20:45 31.01.2022
4012 Fog -5 1012 93 700 1.03 0 20:26 31.01.2022
4013 Mist -4 1012 96 1600 1.03 220 19:20 31.01.2022
4014 Mist -5 1012 96 4800 1.03 0 18:20 31.01.2022
4015 Clouds -2 1012 92 7000 2.06 240 17:25 31.01.2022
4016 Clouds -1 1011 83 10000 2.06 260 16:25 31.01.2022
4017 Clouds 0 1016 86 10000 1.46 259 14:54 31.01.2022
4018 Clouds 0 1011 80 6000 3.09 270 13:51 31.01.2022
4019 Mist 0 1011 86 4200 2.57 280 12:38 31.01.2022
4020 Mist 0 1012 86 3500 2.57 280 11:42 31.01.2022
4021 Mist -1 1012 89 3200 1.03 250 10:49 31.01.2022
4022 Mist -1 1012 89 3200 1.03 320 09:45 31.01.2022
4023 Clouds -2 1017 96 6317 1.46 232 08:58 31.01.2022
4024 Mist -2 1012 93 2500 1.03 240 08:38 31.01.2022
4025 Mist -2 1012 93 2500 1.03 240 08:19 31.01.2022
4026 Mist -2 1012 96 3100 1.54 230 06:18 31.01.2022
4027 Clouds -3 1012 96 3200 0.51 350 00:44 31.01.2022
4028 Snow -3 1012 100 3100 3.09 260 22:34 30.01.2022
4029 Snow -4 1016 97 128 0.97 308 21:56 30.01.2022
4030 Snow -3 1012 96 3200 1.54 240 21:37 30.01.2022
4031 Snow -3 1012 96 3200 1.54 240 21:18 30.01.2022
4032 Snow -3 1012 96 3500 2.06 250 20:43 30.01.2022
4033 Snow -3 1012 96 3500 2.06 250 20:25 30.01.2022
4034 Snow -3 1013 89 2000 1.03 280 19:23 30.01.2022
4035 Snow -2 1013 81 6000 1.03 270 18:35 30.01.2022
4036 Snow -1 1013 69 10000 0.51 0 17:40 30.01.2022
4037 Clouds -1 1013 69 10000 0.51 0 17:19 30.01.2022
4038 Clouds -1 1014 69 10000 2.06 250 16:36 30.01.2022
4039 Clouds -1 1014 69 10000 2.06 250 16:18 30.01.2022
4040 Clouds -1 1014 65 10000 1.54 0 15:45 30.01.2022
4041 Clouds -1 1014 65 10000 1.54 0 15:25 30.01.2022
4042 Clouds 0 1015 57 10000 2.06 240 14:44 30.01.2022
4043 Clouds -1 1016 55 10000 0.51 0 12:46 30.01.2022
4044 Clouds -5 1020 84 10000 1.46 205 11:52 30.01.2022
4045 Clouds -5 1018 64 10000 2.06 80 10:26 30.01.2022
4046 Clouds -5 1018 63 10000 1.54 90 09:41 30.01.2022
4047 Clouds -7 1019 73 10000 2.57 90 08:44 30.01.2022
4048 Clouds -8 1019 82 8000 2.57 100 05:30 30.01.2022
4049 Clouds -13 1028 94 10000 1.45 88 01:55 30.01.2022
4050 Clouds -12 1029 94 10000 1.48 87 23:50 29.01.2022
4051 Clouds -11 1029 93 10000 1.51 89 22:58 29.01.2022
4052 Clear -7 1022 79 10000 1.03 0 21:44 29.01.2022
4053 Clear -7 1022 79 10000 1.03 0 21:20 29.01.2022
4054 Clear -6 1022 73 10000 1.03 0 20:22 29.01.2022
4055 Clear -6 1022 76 10000 1.54 110 19:33 29.01.2022
4056 Clouds -9 1029 93 10000 1.29 92 18:51 29.01.2022
4057 Clouds -8 1029 92 10000 1.19 107 18:18 29.01.2022
4058 Clear -5 1022 71 10000 0.51 0 17:27 29.01.2022
4059 Clouds -2 1022 64 10000 2.57 270 15:44 29.01.2022
4060 Clouds -3 1026 77 10000 0.46 186 13:58 29.01.2022
4061 Clouds -2 1022 64 10000 3.09 240 13:38 29.01.2022
4062 Clouds -2 1022 64 10000 3.09 240 13:20 29.01.2022
4063 Clouds -3 1023 61 10000 1.03 0 11:40 29.01.2022
4064 Clouds -4 1023 63 10000 2.06 100 10:38 29.01.2022
4065 Clouds -6 1023 73 10000 1.54 110 08:36 29.01.2022
4066 Clouds -6 1030 97 10000 0.79 98 03:53 29.01.2022
4067 Clouds -7 1021 79 10000 1.03 0 00:34 29.01.2022
4068 Clouds -7 1022 82 10000 2.06 150 23:43 28.01.2022
4069 Clouds -7 1021 82 10000 0.51 0 22:48 28.01.2022
4070 Clouds -7 1021 82 10000 0.51 0 22:20 28.01.2022
4071 Clouds -7 1021 82 10000 1.54 200 20:42 28.01.2022
4072 Clouds -8 1029 97 8075 0.67 106 19:59 28.01.2022
4073 Clouds -8 1021 86 10000 0.51 0 19:18 28.01.2022
4074 Clouds -7 1020 82 10000 0 0 18:35 28.01.2022
4075 Clouds -5 1020 74 10000 2.06 200 16:37 28.01.2022
4076 Clouds -4 1025 91 10000 0.55 261 14:59 28.01.2022
4077 Clouds -4 1020 71 10000 3.09 220 13:23 28.01.2022
4078 Clouds -4 1026 81 10000 1.35 229 11:52 28.01.2022
4079 Clouds -4 1021 79 7000 0.51 0 10:27 28.01.2022
4080 Clouds -4 1021 83 7000 2.06 60 09:47 28.01.2022
4081 Clouds -5 1021 80 10000 3.6 80 07:42 28.01.2022
4082 Clouds -4 1021 80 10000 2.57 90 06:30 28.01.2022
4083 Clouds -5 1029 98 9371 0.82 85 03:51 28.01.2022
4084 Clouds -4 1021 80 10000 1.03 0 02:28 28.01.2022
4085 Clouds -4 1021 83 10000 1.03 340 01:38 28.01.2022
4086 Clouds -4 1021 77 10000 1.03 0 00:46 28.01.2022
4087 Clouds -4 1021 83 10000 1.03 0 22:20 27.01.2022
4088 Clouds -4 1022 83 10000 1.54 210 21:40 27.01.2022
4089 Clouds -8 1030 98 5678 0.28 56 20:59 27.01.2022
4090 Clouds -4 1021 83 10000 2.06 230 19:45 27.01.2022
4091 Clouds -4 1021 80 10000 1.03 0 18:20 27.01.2022
4092 Clouds -4 1028 97 10000 0.18 192 16:55 27.01.2022
4093 Clouds -2 1026 85 10000 1.82 266 13:58 27.01.2022
4094 Clouds -3 1020 74 10000 5.14 260 12:49 27.01.2022
4095 Clouds -3 1020 74 10000 5.14 260 12:49 27.01.2022
4096 Clouds -3 1020 74 10000 5.14 260 12:49 27.01.2022
4097 Clouds -6 1026 83 10000 1.66 264 11:54 27.01.2022
4098 Clouds -5 1021 70 10000 0 0 09:48 27.01.2022
4099 Clouds -7 1020 79 10000 1.54 210 08:40 27.01.2022
4100 Snow -13 1028 89 10000 1.14 272 07:52 27.01.2022
4101 Clouds -9 1017 73 10000 1.03 0 03:34 27.01.2022
4102 Clouds -5 1017 65 10000 2.57 290 00:24 27.01.2022
4103 Clouds -4 1017 58 10000 3.6 10 22:28 26.01.2022
4104 Clouds -4 1017 61 10000 5.14 360 21:44 26.01.2022
4105 Clouds -3 1017 59 10000 4.12 40 20:49 26.01.2022
4106 Clouds -3 1017 59 10000 4.12 40 20:31 26.01.2022
4107 Clouds -4 1016 67 10000 0.51 0 19:38 26.01.2022
4108 Clouds -4 1015 69 10000 0 0 18:47 26.01.2022
4109 Clouds -4 1015 69 10000 0 0 18:18 26.01.2022
4110 Clouds -3 1015 66 10000 1.54 350 17:33 26.01.2022
4111 Clouds -2 1014 66 10000 2.06 50 16:49 26.01.2022
4112 Snow -2 1014 66 10000 2.06 50 16:22 26.01.2022
4113 Clouds -1 1013 55 10000 2.57 20 14:32 26.01.2022
4114 Clouds -2 1014 60 10000 2.06 130 12:20 26.01.2022
4115 Clouds -3 1015 59 10000 1.03 0 10:50 26.01.2022
4116 Clouds -6 1021 76 10000 2.37 5 09:52 26.01.2022
4117 Clouds -8 1015 86 10000 0.51 0 08:49 26.01.2022
4118 Clouds -10 1015 89 10000 0.51 0 06:36 26.01.2022
4119 Clouds -10 1016 85 10000 1.54 170 00:21 26.01.2022
4120 Clouds -8 1016 83 10000 1.03 0 23:41 25.01.2022
4121 Clouds -7 1016 83 10000 2.06 120 22:48 25.01.2022
4122 Clouds -7 1016 83 10000 2.06 120 22:18 25.01.2022
4123 Clouds -7 1016 80 10000 0.51 0 21:27 25.01.2022
4124 Clouds -5 1017 74 10000 1.54 90 20:45 25.01.2022
4125 Clouds -6 1022 90 10000 1.91 37 19:54 25.01.2022
4126 Clouds -5 1017 74 10000 3.6 50 19:23 25.01.2022
4127 Clouds -5 1017 71 10000 2.57 80 17:56 25.01.2022
4128 Clouds -5 1017 71 10000 2.57 80 17:18 25.01.2022
4129 Clouds -5 1017 71 10000 4.63 80 16:34 25.01.2022
4130 Clouds -5 1017 71 10000 3.09 50 15:39 25.01.2022
4131 Clouds -5 1017 71 10000 3.09 50 15:18 25.01.2022
4132 Clouds -4 1018 68 10000 2.57 60 14:43 25.01.2022
4133 Clouds -6 1023 73 10000 3.31 55 11:52 25.01.2022
4134 Clouds -6 1021 73 10000 4.12 70 09:21 25.01.2022
4135 Clouds -11 1027 88 10000 1.92 65 07:52 25.01.2022
4136 Clouds -11 1029 93 10000 1.64 70 06:55 25.01.2022
4137 Clouds -8 1022 89 10000 1.03 0 05:23 25.01.2022
4138 Clouds -8 1023 92 8000 0 0 00:31 25.01.2022
4139 Clouds -9 1023 92 6000 0 0 23:36 24.01.2022
4140 Clouds -9 1023 92 6000 0 0 23:18 24.01.2022
4141 Clouds -8 1022 96 10000 1.03 0 22:42 24.01.2022
4142 Clouds -6 1023 93 10000 2.06 170 21:58 24.01.2022
4143 Clouds -6 1022 96 10000 1.54 190 21:32 24.01.2022
4144 Clouds -5 1022 96 6000 2.06 250 20:38 24.01.2022
4145 Clouds -5 1022 96 6000 2.06 250 20:20 24.01.2022
4146 Clouds -5 1021 93 7000 2.06 240 19:38 24.01.2022
4147 Clouds -5 1021 93 10000 3.09 240 18:47 24.01.2022
4148 Clouds -4 1020 86 10000 3.6 250 17:25 24.01.2022
4149 Clouds -5 1026 94 10000 0.78 256 16:59 24.01.2022
4150 Clouds -4 1020 83 10000 3.09 260 16:30 24.01.2022
4151 Clouds -3 1023 85 10000 1.89 282 14:56 24.01.2022
4152 Snow -3 1018 77 10000 4.12 260 13:39 24.01.2022
4153 Clouds -3 1018 68 10000 3.6 270 12:33 24.01.2022
4154 Clouds -3 1018 65 10000 4.12 310 11:21 24.01.2022
4155 Clouds -4 1018 68 10000 4.12 280 10:18 24.01.2022
4156 Clouds -4 1017 74 10000 4.63 250 09:44 24.01.2022
4157 Clouds -6 1017 79 10000 2.06 270 07:40 24.01.2022
4158 Clouds -5 1014 75 10000 3.09 250 01:38 24.01.2022
4159 Snow -5 1020 94 6970 1.73 300 00:50 24.01.2022
4160 Snow -5 1013 77 10000 4.12 250 00:29 24.01.2022
4161 Snow -4 1020 95 10000 1.97 284 22:58 23.01.2022
4162 Snow -4 1013 80 10000 3.09 270 21:52 23.01.2022
4163 Snow -4 1012 86 10000 3.6 270 21:27 23.01.2022
4164 Snow -4 1018 93 10000 2.39 308 20:55 23.01.2022
4165 Snow -3 1012 68 10000 4.12 300 20:21 23.01.2022
4166 Snow -4 1017 94 1648 2.22 325 18:53 23.01.2022
4167 Snow -3 1011 70 10000 4.63 320 17:56 23.01.2022
4168 Snow -3 1015 94 303 3.8 349 16:55 23.01.2022
4169 Snow -2 1009 66 10000 4.63 310 15:46 23.01.2022
4170 Snow -3 1008 72 8000 5.66 310 14:48 23.01.2022
4171 Snow -3 1008 72 8000 5.66 310 14:18 23.01.2022
4172 Snow -3 1006 66 10000 6.17 290 12:44 23.01.2022
4173 Snow -3 1006 66 10000 6.17 290 12:19 23.01.2022
4174 Snow -3 1006 68 10000 6.17 300 11:26 23.01.2022
4175 Snow -2 1012 89 476 5.85 323 10:57 23.01.2022
4176 Snow -3 1007 65 10000 5.14 320 10:25 23.01.2022
4177 Snow -3 1007 65 10000 4.12 300 09:31 23.01.2022
4178 Snow -4 1007 68 10000 4.12 300 08:33 23.01.2022
4179 Clouds -4 1006 83 10000 3.09 260 03:34 23.01.2022
4180 Clouds -4 1006 89 10000 2.06 220 01:37 23.01.2022
4181 Clouds -4 1007 86 10000 3.09 280 00:47 23.01.2022
4182 Clouds -3 1011 96 10000 2.4 321 23:59 22.01.2022
4183 Clouds -3 1007 89 10000 4.63 270 22:49 22.01.2022
4184 Clouds -3 1007 89 10000 4.63 270 22:19 22.01.2022
4185 Snow -3 1007 89 10000 5.14 300 20:33 22.01.2022
4186 Snow -2 1010 98 143 3.34 309 19:46 22.01.2022
4187 Snow -1 1009 98 132 2.96 316 18:37 22.01.2022
4188 Snow -1 1008 98 142 2.92 320 17:46 22.01.2022
4189 Snow -1 1007 99 80 1.76 303 17:25 22.01.2022
4190 Snow -1 1007 99 80 1.76 303 16:54 22.01.2022
4191 Snow 0 1005 96 3200 5.66 260 15:45 22.01.2022
4192 Snow 0 1005 93 3800 5.66 260 14:53 22.01.2022
4193 Rain 1 1006 96 10000 2.06 260 13:31 22.01.2022
4194 Rain 2 1007 96 10000 2.06 290 12:40 22.01.2022
4195 Snow 2 1007 100 10000 2.57 270 12:20 22.01.2022
4196 Clouds 3 1009 93 10000 1.03 0 10:54 22.01.2022
4197 Rain 3 1009 93 10000 1.03 0 10:25 22.01.2022
4198 Clouds 3 1010 93 10000 2.06 180 08:59 22.01.2022
4199 Clouds 3 1010 90 10000 3.6 250 08:39 22.01.2022
4200 Clouds 2 1010 93 10000 1.54 320 06:56 22.01.2022
4201 Rain 2 1012 93 10000 2.57 320 02:40 22.01.2022
4202 Rain 4 1016 86 10000 4.26 185 23:52 21.01.2022
4203 Rain 3 1014 69 10000 1.03 0 23:21 21.01.2022
4204 Clouds 3 1015 69 10000 4.63 210 21:45 21.01.2022
4205 Clouds 0 1017 80 10000 1.03 0 19:48 21.01.2022
4206 Clouds -1 1020 71 10000 2.37 151 17:53 21.01.2022
4207 Clouds -1 1017 80 8000 2.57 270 16:37 21.01.2022
4208 Snow 0 1017 69 10000 1.54 240 15:24 21.01.2022
4209 Snow 0 1019 51 10000 2.06 280 12:51 21.01.2022
4210 Clouds -1 1020 57 10000 1.03 0 11:29 21.01.2022
4211 Clouds -2 1023 50 10000 2.05 211 10:51 21.01.2022
4212 Clouds -3 1022 63 10000 1.54 280 09:24 21.01.2022
4213 Clouds -4 1022 66 10000 1.54 190 08:20 21.01.2022
4214 Clouds -8 1022 82 10000 2.57 230 04:36 21.01.2022
4215 Clear -6 1029 72 10000 1.23 152 22:52 20.01.2022
4216 Clear -6 1024 67 10000 1.54 180 21:49 20.01.2022
4217 Clear -6 1024 67 10000 1.54 180 21:27 20.01.2022
4218 Clear -5 1023 62 10000 1.03 0 19:56 20.01.2022
4219 Clear -5 1023 62 10000 1.03 0 19:19 20.01.2022
4220 Clear -4 1028 72 10000 1.56 180 17:38 20.01.2022
4221 Clear -2 1023 54 10000 3.6 240 16:35 20.01.2022
4222 Clear -1 1023 49 10000 3.6 220 15:40 20.01.2022
4223 Clear 0 1023 47 10000 4.63 240 14:40 20.01.2022
4224 Clouds 0 1028 54 10000 3.42 241 13:21 20.01.2022
4225 Clouds -1 1024 50 10000 5.14 250 12:31 20.01.2022
4226 Clouds -1 1025 47 10000 3.09 190 11:20 20.01.2022
4227 Clear -3 1025 61 10000 2.06 240 10:19 20.01.2022
4228 Clear -4 1025 65 10000 2.57 270 09:19 20.01.2022
4229 Clear -7 1025 79 10000 1.54 210 07:24 20.01.2022
4230 Clouds -6 1023 79 10000 3.09 270 00:41 20.01.2022
4231 Clouds -6 1024 77 10000 3.09 230 22:40 19.01.2022
4232 Clouds -5 1023 71 10000 3.09 250 21:41 19.01.2022
4233 Clouds -5 1023 71 10000 3.09 250 21:21 19.01.2022
4234 Clouds -5 1029 84 10000 2.37 273 20:45 19.01.2022
4235 Clouds -4 1023 58 10000 4.63 310 19:26 19.01.2022
4236 Clouds -3 1028 75 10000 3.87 310 17:51 19.01.2022
4237 Clouds -3 1022 52 10000 3.09 310 17:28 19.01.2022
4238 Clouds -2 1021 46 10000 7.2 320 15:36 19.01.2022
4239 Clouds -1 1020 43 10000 8.75 310 13:38 19.01.2022
4240 Clouds -1 1020 45 10000 6.69 320 12:20 19.01.2022
4241 Clouds -2 1020 48 10000 5.14 340 11:38 19.01.2022
4242 Snow -3 1025 59 10000 6.05 329 09:52 19.01.2022
4243 Clouds -4 1020 74 10000 2.06 0 09:33 19.01.2022
4244 Clouds -8 1019 86 10000 1.54 220 06:34 19.01.2022
4245 Clouds -9 1019 76 10000 1.54 270 00:33 19.01.2022
4246 Clouds -6 1019 65 10000 1.03 0 23:18 18.01.2022
4247 Clear -5 1025 71 10000 3.05 324 21:55 18.01.2022
4248 Clouds -4 1018 63 10000 2.06 350 20:44 18.01.2022
4249 Clear -6 1024 66 10000 3.57 333 19:52 18.01.2022
4250 Clouds -3 1018 56 10000 2.06 360 19:33 18.01.2022
4251 Clouds -4 1018 63 10000 2.06 260 18:36 18.01.2022
4252 Clouds -2 1017 61 10000 5.14 310 17:48 18.01.2022
4253 Clouds -1 1016 57 10000 4.12 320 16:33 18.01.2022
4254 Clouds 0 1016 49 10000 4.63 330 15:26 18.01.2022
4255 Clouds 0 1015 62 10000 5.66 340 14:54 18.01.2022
4256 Clouds 1 1016 72 10000 6.84 286 11:52 18.01.2022
4257 Clouds 1 1014 75 10000 7.2 250 10:40 18.01.2022
4258 Clouds -2 1014 86 10000 3.09 230 08:49 18.01.2022
4259 Snow -1 1013 69 8000 4.12 300 07:45 18.01.2022
4260 Clouds -5 1014 83 10000 1.54 110 02:20 18.01.2022
4261 Clear -5 1016 83 10000 0.51 0 23:22 17.01.2022
4262 Clouds -2 1020 63 10000 1.58 194 21:58 17.01.2022
4263 Clear -3 1016 77 10000 1.03 0 21:31 17.01.2022
4264 Clear -2 1017 71 10000 2.06 180 19:42 17.01.2022
4265 Clear 0 1017 61 10000 1.54 230 18:28 17.01.2022
4266 Clear 0 1017 57 10000 3.09 240 17:24 17.01.2022
4267 Clear 1 1018 53 10000 4.63 250 16:24 17.01.2022
4268 Clouds 2 1022 45 10000 3.63 235 14:58 17.01.2022
4269 Clouds 3 1019 42 10000 4.63 250 14:33 17.01.2022
4270 Clouds 2 1020 48 10000 4.63 250 13:19 17.01.2022
4271 Clear 1 1023 40 10000 4.07 234 12:52 17.01.2022
4272 Clouds 0 1021 58 10000 2.57 280 11:47 17.01.2022
4273 Clouds -1 1022 71 10000 2.57 270 10:21 17.01.2022
4274 Clear -4 1023 83 10000 0 0 08:44 17.01.2022
4275 Clear -8 1023 93 10000 0 0 07:22 17.01.2022
4276 Clouds -6 1023 89 10000 0.51 0 02:20 17.01.2022
4277 Clouds -5 1023 86 10000 1.03 0 00:43 17.01.2022
4278 Clouds -2 1023 74 10000 2.57 220 21:22 16.01.2022
4279 Clouds -1 1023 69 10000 1.54 250 20:30 16.01.2022
4280 Clouds 0 1022 62 10000 4.12 320 18:48 16.01.2022
4281 Clouds 0 1026 66 10000 2.57 340 17:51 16.01.2022
4282 Clouds 0 1025 64 10000 3.01 341 16:55 16.01.2022
4283 Clouds 1 1021 55 10000 5.14 290 15:50 16.01.2022
4284 Clouds 1 1020 51 10000 4.63 310 14:29 16.01.2022
4285 Clouds 2 1020 51 10000 5.66 310 13:33 16.01.2022
4286 Clouds 1 1020 50 10000 5.66 320 12:22 16.01.2022
4287 Clouds 1 1020 53 10000 5.14 310 11:29 16.01.2022
4288 Clouds 0 1020 58 10000 4.12 290 10:28 16.01.2022
4289 Clouds 0 1024 50 10000 4.93 326 09:58 16.01.2022
4290 Clouds -2 1020 69 10000 2.06 240 09:37 16.01.2022
4291 Clouds -2 1020 69 10000 2.06 240 09:19 16.01.2022
4292 Clouds -8 1019 89 10000 0.51 0 06:35 16.01.2022
4293 Clouds -7 1016 83 10000 1.54 260 00:35 16.01.2022
4294 Clouds -5 1016 77 10000 1.54 280 22:50 15.01.2022
4295 Clouds -6 1018 73 10000 2.06 240 21:22 15.01.2022
4296 Clouds -4 1016 71 10000 3.09 270 20:44 15.01.2022
4297 Clouds -4 1016 71 10000 3.09 270 20:21 15.01.2022
4298 Clouds -3 1015 61 10000 4.63 320 19:26 15.01.2022
4299 Clouds -1 1015 57 10000 4.12 320 17:58 15.01.2022
4300 Clouds 0 1014 53 10000 6.17 330 16:49 15.01.2022
4301 Clouds 1 1013 72 10000 0.51 330 14:36 15.01.2022
4302 Mist 1 1012 75 3500 4.63 270 12:39 15.01.2022
4303 Snow 1 1013 72 10000 5.14 270 11:21 15.01.2022
4304 Clouds -2 1014 83 8000 2.06 270 09:46 15.01.2022
4305 Clear -7 1013 93 10000 0.51 0 01:27 15.01.2022
4306 Clear -5 1014 80 10000 0 0 22:40 14.01.2022
4307 Clear -3 1019 56 10000 1.49 247 20:57 14.01.2022
4308 Clear -5 1015 81 10000 0 0 20:24 14.01.2022
4309 Clear -3 1016 68 10000 1.03 240 19:49 14.01.2022
4310 Clear -3 1016 71 10000 1.03 240 18:33 14.01.2022
4311 Clear -2 1020 51 10000 1.65 253 16:57 14.01.2022
4312 Clear -2 1017 62 10000 3.09 260 16:38 14.01.2022
4313 Clear 0 1018 47 10000 3.6 260 14:50 14.01.2022
4314 Clear 1 1021 37 10000 1.97 267 14:20 14.01.2022
4315 Clouds -1 1019 47 9000 2.57 270 12:37 14.01.2022
4316 Clear -1 1022 37 10000 1.71 263 11:51 14.01.2022
4317 Clouds -3 1021 54 10000 3.6 290 10:24 14.01.2022
4318 Clear -5 1022 68 10000 2.06 250 08:52 14.01.2022
4319 Clear -9 1022 89 10000 0 0 07:29 14.01.2022
4320 Clear -8 1023 76 10000 0 0 01:43 14.01.2022
4321 Clear -6 1023 71 10000 0.51 0 23:40 13.01.2022
4322 Clear -5 1024 60 10000 3.6 10 21:46 13.01.2022
4323 Clear -5 1024 60 10000 3.6 10 21:27 13.01.2022
4324 Clear -4 1023 63 10000 2.06 360 19:44 13.01.2022
4325 Clear -4 1023 63 10000 2.06 360 19:23 13.01.2022
4326 Clear -3 1023 59 10000 4.12 30 18:33 13.01.2022
4327 Clear -1 1021 55 10000 4.63 360 16:43 13.01.2022
4328 Clear 0 1021 49 10000 5.14 340 15:38 13.01.2022
4329 Clouds 0 1024 49 10000 5.73 18 14:50 13.01.2022
4330 Clear 1 1020 47 10000 4.63 350 13:22 13.01.2022
4331 Clouds -1 1021 57 10000 5.14 360 10:29 13.01.2022
4332 Clouds -1 1022 59 10000 4.12 360 09:22 13.01.2022
4333 Clouds -1 1021 61 10000 5.14 10 08:28 13.01.2022
4334 Clouds 0 1024 58 10000 5.57 6 07:58 13.01.2022
4335 Clouds -1 1021 64 10000 6.17 350 07:18 13.01.2022
4336 Clouds -1 1019 64 10000 4.63 20 05:20 13.01.2022
4337 Clouds 0 1018 61 10000 4.12 10 03:24 13.01.2022
4338 Clouds 1 1022 82 10000 2.64 344 00:56 13.01.2022
4339 Clouds 1 1016 82 10000 0.89 325 23:53 12.01.2022
4340 Clouds 1 1016 82 10000 0.89 325 23:32 12.01.2022
4341 Clouds 1 1016 90 10000 0.89 319 21:58 12.01.2022
4342 Snow 1 1015 91 10000 2.74 315 21:23 12.01.2022
4343 Snow 1 1015 91 10000 2.74 315 20:57 12.01.2022
4344 Snow 1 1015 81 10000 0.45 278 20:19 12.01.2022
4345 Clouds 1 1014 84 10000 1.54 270 18:48 12.01.2022
4346 Snow 2 1014 88 10000 0.45 278 17:53 12.01.2022
4347 Rain 3 1013 84 10000 2.24 282 16:42 12.01.2022
4348 Rain 5 1011 90 10000 2.68 275 14:49 12.01.2022
4349 Rain 6 1010 91 8000 0.45 281 13:37 12.01.2022
4350 Rain 6 1009 91 114 1.1 77 12:56 12.01.2022
4351 Clouds 6 1010 90 10000 4.39 164 08:55 12.01.2022
4352 Rain 5 1009 88 10000 0.45 87 07:55 12.01.2022
4353 Rain 6 1011 88 10000 2.06 0 07:32 12.01.2022
4354 Rain 6 1010 86 10000 0.89 171 02:20 12.01.2022
4355 Clouds 7 1011 88 10000 2.06 110 23:26 11.01.2022
4356 Rain 7 1011 89 10000 2.06 50 22:25 11.01.2022
4357 Rain 7 1012 91 10000 0.51 0 21:28 11.01.2022
4358 Rain 7 1012 89 10000 2.68 191 20:36 11.01.2022
4359 Rain 7 1012 89 10000 1.54 50 19:23 11.01.2022
4360 Rain 7 1012 87 10000 0.89 187 17:46 11.01.2022
4361 Clouds 7 1011 82 10000 1.03 60 16:39 11.01.2022
4362 Clouds 7 1011 83 10000 0.89 87 16:18 11.01.2022
4363 Rain 9 1011 72 10000 1.34 181 14:49 11.01.2022
4364 Clouds 9 1011 69 10000 2.24 201 14:30 11.01.2022
4365 Clouds 9 1010 65 10000 3.13 163 13:46 11.01.2022
4366 Clouds 9 1010 64 10000 0.89 222 13:25 11.01.2022
4367 Clouds 10 1010 62 10000 0.89 201 12:25 11.01.2022
4368 Clouds 9 1010 65 10000 1.34 142 10:31 11.01.2022
4369 Clouds 7 1010 80 10000 0.45 83 07:50 11.01.2022
4370 Clouds 6 1009 83 10000 0.45 131 03:47 11.01.2022
4371 Clouds 5 1008 83 10000 0.45 201 00:25 11.01.2022
4372 Clouds 5 1008 81 10000 0.45 92 23:38 10.01.2022
4373 Clouds 6 1008 82 10000 3.09 110 22:20 10.01.2022
4374 Clouds 7 1007 78 10000 2.69 96 21:57 10.01.2022
4375 Clouds 6 1008 80 10000 2.06 90 21:33 10.01.2022
4376 Clouds 7 1007 77 10000 2.6 96 20:58 10.01.2022
4377 Clouds 6 1008 78 10000 2.06 100 20:36 10.01.2022
4378 Clouds 6 1008 78 10000 2.06 100 20:18 10.01.2022
4379 Clouds 6 1008 78 10000 2.06 110 19:37 10.01.2022
4380 Clouds 6 1008 78 10000 2.06 110 19:18 10.01.2022
4381 Clouds 7 1007 76 10000 2.06 120 18:46 10.01.2022
4382 Clouds 7 1006 70 10000 0 0 16:48 10.01.2022
4383 Clouds 7 1006 70 10000 0.45 104 16:20 10.01.2022
4384 Clouds 9 1005 63 10000 0.45 145 14:42 10.01.2022
4385 Clouds 7 1003 74 10000 1.34 181 12:50 10.01.2022
4386 Clouds 7 1003 75 10000 2.68 191 11:55 10.01.2022
4387 Clouds 7 1003 68 10000 2.24 210 10:46 10.01.2022
4388 Clouds 7 1004 67 10000 0.45 190 09:33 10.01.2022
4389 Clouds 5 1002 81 10000 2.36 115 05:51 10.01.2022
4390 Clouds 6 1003 80 10000 1.34 117 02:30 10.01.2022
4391 Clouds 7 1003 73 10000 0.45 206 01:20 10.01.2022
4392 Clouds 7 1003 74 10000 0.89 95 00:19 10.01.2022
4393 Clouds 6 1004 81 10000 2.24 117 22:44 09.01.2022
4394 Clouds 8 1003 71 10000 1.34 109 21:57 09.01.2022
4395 Clear 6 1004 78 10000 0.45 117 21:37 09.01.2022
4396 Clear 6 1004 78 10000 0.45 117 21:37 09.01.2022
4397 Clear 6 1004 78 10000 2.24 88 21:18 09.01.2022
4398 Clear 7 1005 72 10000 2.24 108 20:45 09.01.2022
4399 Clear 8 1005 70 10000 2.06 100 20:26 09.01.2022
4400 Clear 7 1005 73 10000 0.89 115 19:38 09.01.2022
4401 Clear 7 1005 73 10000 0.45 113 19:20 09.01.2022
4402 Clouds 7 1005 73 10000 1.54 100 18:37 09.01.2022
4403 Clouds 9 1006 64 10000 0.89 181 17:48 09.01.2022
4404 Clouds 10 1006 61 10000 0.89 157 17:29 09.01.2022
4405 Clouds 10 1006 60 10000 2.24 160 16:49 09.01.2022
4406 Clouds 11 1006 55 10000 2.57 170 15:46 09.01.2022
4407 Clouds 11 1006 53 10000 0.45 195 15:25 09.01.2022
4408 Clouds 12 1007 48 10000 0.89 159 14:39 09.01.2022
4409 Clouds 12 1007 51 10000 0.45 205 13:48 09.01.2022
4410 Clouds 12 1007 56 10000 0.89 249 11:58 09.01.2022
4411 Clouds 11 1009 54 10000 2.24 187 11:28 09.01.2022
4412 Clear 10 1009 67 10000 0.45 220 09:55 09.01.2022
4413 Clouds 9 1010 66 10000 0.45 222 09:20 09.01.2022
4414 Clouds 6 1009 81 10000 2.68 175 06:57 09.01.2022
4415 Rain 7 1012 72 10000 1.34 204 01:30 09.01.2022
4416 Clouds 8 1012 66 10000 0.45 130 00:50 09.01.2022
4417 Clouds 7 1013 73 10000 2.06 120 23:36 08.01.2022
4418 Clouds 7 1013 78 10000 0 0 22:48 08.01.2022
4419 Clouds 7 1013 81 10000 0 0 21:28 08.01.2022
4420 Clouds 7 1013 75 10000 0.51 0 20:44 08.01.2022
4421 Clouds 7 1013 75 10000 0.51 0 20:44 08.01.2022
4422 Clouds 7 1013 75 10000 0.51 0 20:22 08.01.2022
4423 Clouds 9 1014 68 10000 2.06 100 19:22 08.01.2022
4424 Clouds 8 1014 68 10000 2.57 130 17:43 08.01.2022
4425 Clouds 9 1016 77 10000 2.99 82 16:57 08.01.2022
4426 Clouds 11 1014 57 10000 0.45 118 15:34 08.01.2022
4427 Clouds 13 1014 57 10000 1.34 172 14:25 08.01.2022
4428 Clouds 12 1015 58 10000 1.34 209 12:35 08.01.2022
4429 Clouds 10 1017 70 10000 2.06 90 10:43 08.01.2022
4430 Clouds 10 1017 70 10000 2.06 90 10:23 08.01.2022
4431 Clouds 10 1017 70 10000 2.06 90 10:23 08.01.2022
4432 Clouds 9 1018 75 10000 3.09 70 09:34 08.01.2022
4433 Clouds 6 1018 86 10000 3.6 100 06:22 08.01.2022
4434 Clouds 4 1018 96 10000 0.51 0 01:49 08.01.2022
4435 Clouds 4 1019 96 10000 1.03 250 00:22 08.01.2022
4436 Clouds 5 1018 92 10000 0 0 22:21 07.01.2022
4437 Clouds 3 1019 96 10000 0.51 0 20:35 07.01.2022
4438 Clouds 3 1019 96 10000 0.51 0 20:35 07.01.2022
4439 Clouds 4 1019 93 10000 0.51 0 19:27 07.01.2022
4440 Clouds 5 1019 86 10000 0 0 18:49 07.01.2022
4441 Clouds 7 1018 84 10000 0 0 18:24 07.01.2022
4442 Clouds 8 1018 81 10000 0 0 17:24 07.01.2022
4443 Clouds 12 1018 80 10000 0.93 113 14:56 07.01.2022
4444 Clouds 12 1015 62 10000 0.97 139 13:52 07.01.2022
4445 Clouds 12 1016 62 10000 0.45 265 13:52 07.01.2022
4446 Clouds 12 1015 62 10000 0.45 269 12:51 07.01.2022
4447 Clouds 12 1016 64 10000 0.89 213 11:58 07.01.2022
4448 Clouds 8 1016 83 10000 1 121 04:56 07.01.2022
4449 Clouds 5 1018 88 10000 0.78 125 02:53 07.01.2022
4450 Clouds 4 1018 96 10000 0 0 01:50 07.01.2022
4451 Clouds 4 1018 96 10000 0 0 01:26 07.01.2022
4452 Clouds 4 1018 93 10000 0.51 0 00:34 07.01.2022
4453 Clouds 5 1018 90 10000 0.51 0 22:42 06.01.2022
4454 Clouds 6 1018 85 10000 1.55 167 20:54 06.01.2022
4455 Clouds 5 1018 90 10000 0 0 20:18 06.01.2022
4456 Clouds 3 1018 93 10000 0.51 0 19:39 06.01.2022
4457 Clouds 9 1017 84 10000 0.83 186 17:52 06.01.2022
4458 Clouds 7 1017 79 10000 0.51 0 17:31 06.01.2022
4459 Clouds 9 1017 69 10000 1.03 0 16:39 06.01.2022
4460 Clouds 12 1017 59 10000 0 0 15:45 06.01.2022
4461 Clouds 12 1017 62 10000 0.45 271 15:23 06.01.2022
4462 Clouds 12 1017 59 10000 0.45 285 14:20 06.01.2022
4463 Clouds 12 1017 62 10000 0.45 282 13:44 06.01.2022
4464 Clouds 12 1017 60 10000 2.24 231 12:32 06.01.2022
4465 Clouds 11 1017 64 7000 0.89 221 11:41 06.01.2022
4466 Clouds 10 1017 64 7000 0.89 193 11:19 06.01.2022
4467 Clear 5 1019 88 10000 0.89 163 08:31 06.01.2022
4468 Clear 2 1018 90 8000 0.45 231 00:39 06.01.2022
4469 Clear 4 1018 88 10000 0.89 198 23:35 05.01.2022
4470 Clear 4 1018 88 10000 0.89 198 23:35 05.01.2022
4471 Clear 8 1017 76 10000 2.24 156 22:50 05.01.2022
4472 Clear 3 1018 88 10000 0.89 159 22:29 05.01.2022
4473 Clear 4 1018 88 10000 0.89 155 21:44 05.01.2022
4474 Clear 4 1017 84 10000 2.24 164 20:45 05.01.2022
4475 Clear 5 1017 83 10000 0.89 182 19:53 05.01.2022
4476 Clear 5 1017 81 10000 0.45 122 18:27 05.01.2022
4477 Clear 9 1017 66 10000 1.33 200 16:59 05.01.2022
4478 Clear 9 1017 61 10000 1.54 240 16:22 05.01.2022
4479 Clear 11 1016 57 10000 3.09 260 15:20 05.01.2022
4480 Clear 11 1016 55 8000 2.68 271 13:38 05.01.2022
4481 Clear 10 1017 56 6000 0.45 290 12:49 05.01.2022
4482 Clear 6 1018 76 10000 0.89 202 08:57 05.01.2022
4483 Mist 0 1018 89 4000 0 0 07:31 05.01.2022
4484 Clouds 5 1018 79 10000 1.21 130 01:59 05.01.2022
4485 Clouds 5 1018 80 10000 1.11 171 23:50 04.01.2022
4486 Clouds 1 1019 92 8000 0.51 0 23:26 04.01.2022
4487 Clouds 2 1019 89 8000 0.51 0 22:21 04.01.2022
4488 Clear 3 1018 86 10000 1.54 110 20:50 04.01.2022
4489 Clear 4 1018 81 10000 1.03 0 18:46 04.01.2022
4490 Clear 5 1018 75 10000 0.89 191 17:38 04.01.2022
4491 Clouds 5 1017 70 10000 4.12 260 16:40 04.01.2022
4492 Clouds 6 1018 72 10000 1.34 206 16:21 04.01.2022
4493 Clouds 9 1017 65 10000 2.68 262 14:51 04.01.2022
4494 Clouds 9 1017 65 10000 1.34 287 14:33 04.01.2022
4495 Clouds 8 1017 66 10000 3.13 288 13:26 04.01.2022
4496 Clouds 5 1017 72 6000 0.51 0 10:29 04.01.2022
4497 Mist 2 1018 81 7000 1.03 0 08:59 04.01.2022
4498 Clear 0 1016 91 10000 0.45 152 06:46 04.01.2022
4499 Clear 1 1016 87 10000 0 0 01:18 04.01.2022
4500 Clear 1 1016 86 10000 0.51 0 00:40 04.01.2022
4501 Clear 1 1017 81 10000 0.89 149 22:41 03.01.2022
4502 Clear 2 1017 81 10000 0.89 227 21:41 03.01.2022
4503 Clouds 4 1017 74 10000 1.34 181 20:51 03.01.2022
4504 Clear 2 1017 81 10000 0.45 181 19:44 03.01.2022
4505 Clear 3 1018 74 10000 1.54 230 18:33 03.01.2022
4506 Clear 3 1018 74 10000 1.54 260 17:40 03.01.2022
4507 Clouds 5 1018 62 10000 1.24 221 16:56 03.01.2022
4508 Clouds 6 1018 60 10000 0.89 280 14:54 03.01.2022
4509 Clouds 6 1018 56 10000 0.89 292 13:25 03.01.2022
4510 Clouds 5 1019 61 10000 0.89 264 12:28 03.01.2022
4511 Clouds 5 1019 61 10000 2.06 0 11:30 03.01.2022
4512 Clear 2 1021 69 7000 0.51 0 09:42 03.01.2022
4513 Clear 0 1022 77 10000 0.45 305 08:18 03.01.2022
4514 Clear -3 1022 87 10000 0 0 06:31 03.01.2022
4515 Clear 0 1022 71 10000 0.51 0 23:45 02.01.2022
4516 Clear 1 1022 65 10000 1.03 332 22:57 02.01.2022
4517 Clear 1 1022 67 10000 2.57 230 22:38 02.01.2022
4518 Clear 1 1022 66 10000 2.06 300 21:26 02.01.2022
4519 Clear 2 1022 59 10000 0.45 247 20:30 02.01.2022
4520 Clear 3 1021 55 10000 0.89 308 19:49 02.01.2022
4521 Clear 3 1021 55 10000 0.89 314 19:25 02.01.2022
4522 Clear 4 1021 57 10000 4.02 299 18:31 02.01.2022
4523 Clouds 4 1021 58 10000 3.13 291 17:43 02.01.2022
4524 Clouds 5 1021 58 10000 2.24 284 17:21 02.01.2022
4525 Clouds 5 1020 58 10000 3.13 289 16:33 02.01.2022
4526 Clouds 6 1020 55 10000 4.02 308 15:49 02.01.2022
4527 Clouds 7 1018 59 10000 3.58 295 13:58 02.01.2022
4528 Clouds 9 1019 54 10000 3.58 299 12:34 02.01.2022
4529 Clouds 8 1018 62 10000 4.47 300 11:56 02.01.2022
4530 Clouds 8 1018 68 10000 3.13 287 10:56 02.01.2022
4531 Clouds 8 1018 61 10000 3.13 301 10:22 02.01.2022
4532 Clouds 5 1018 86 10000 0.89 279 08:22 02.01.2022
4533 Clouds 5 1017 94 10000 0.45 265 02:58 02.01.2022
4534 Clouds 5 1017 92 10000 1.37 247 23:55 01.01.2022
4535 Clouds 5 1017 93 6000 0.89 283 23:36 01.01.2022
4536 Clouds 5 1017 92 10000 2.06 280 22:41 01.01.2022
4537 Clouds 5 1017 92 10000 2.06 280 22:18 01.01.2022
4538 Clouds 5 1017 92 6000 1.03 0 21:42 01.01.2022
4539 Clouds 6 1017 91 10000 1.42 243 20:51 01.01.2022
4540 Clouds 5 1017 93 10000 2.06 300 19:55 01.01.2022
4541 Clouds 6 1017 89 10000 0.45 243 18:53 01.01.2022
4542 Rain 5 1017 85 10000 1.03 0 17:46 01.01.2022
4543 Rain 6 1017 83 10000 1.03 0 16:35 01.01.2022
4544 Clouds 6 1016 85 10000 0.78 256 15:57 01.01.2022
4545 Clouds 6 1016 84 10000 0.45 264 14:56 01.01.2022
4546 Clouds 7 1016 79 10000 0.45 278 13:42 01.01.2022
4547 Clouds 6 1017 79 10000 0.45 294 12:43 01.01.2022
4548 Clouds 6 1017 82 10000 1.03 0 11:47 01.01.2022
4549 Clouds 5 1017 82 10000 1.03 0 11:19 01.01.2022
4550 Rain 4 1018 90 10000 2.06 260 09:49 01.01.2022
4551 Rain 4 1018 88 6000 1.03 230 09:20 01.01.2022
4552 Mist 3 1018 91 4500 0.51 0 08:22 01.01.2022
4553 Mist 1 1018 94 4500 1.03 240 07:41 01.01.2022
4554 Mist 1 1018 92 4300 0 0 06:45 01.01.2022
4555 Clouds 1 1018 94 6000 0.51 0 05:25 01.01.2022
4556 Mist 0 1018 91 3100 1.03 0 04:37 01.01.2022
4557 Clouds 2 1019 89 7000 0 0 00:37 01.01.2022
4558 Clear 3 1019 87 10000 0.45 170 22:40 31.12.2021
4559 Clouds 6 1018 78 10000 0.89 246 21:51 31.12.2021
4560 Clear 2 1019 90 10000 0.51 0 20:28 31.12.2021
4561 Clear 2 1019 87 10000 0.51 0 19:28 31.12.2021
4562 Clear 4 1019 84 10000 1.03 0 18:30 31.12.2021
4563 Clear 5 1019 72 10000 1.54 250 17:37 31.12.2021
4564 Clear 5 1019 72 10000 1.54 250 17:18 31.12.2021
4565 Clear 8 1018 61 10000 1.54 250 16:19 31.12.2021
4566 Clouds 10 1019 70 10000 0.56 260 15:51 31.12.2021
4567 Clear 10 1018 56 10000 2.57 280 15:28 31.12.2021
4568 Clear 10 1018 56 10000 2.57 280 15:28 31.12.2021
4569 Clear 12 1018 50 10000 2.57 290 14:41 31.12.2021
4570 Clouds 13 1019 57 10000 0.63 248 13:56 31.12.2021
4571 Clear 12 1018 50 10000 2.06 270 13:23 31.12.2021
4572 Clear 11 1019 53 8000 0.89 174 12:33 31.12.2021
4573 Clouds 10 1019 55 7000 0 0 11:42 31.12.2021
4574 Clouds 10 1018 61 10000 0.69 225 10:58 31.12.2021
4575 Clouds 8 1020 62 6000 1.54 80 10:29 31.12.2021
4576 Mist 5 1020 74 6000 0.51 0 09:35 31.12.2021
4577 Clouds 7 1020 69 10000 0.6 115 08:54 31.12.2021
4578 Mist 3 1020 86 6000 0 0 08:25 31.12.2021
4579 Mist 1 1019 87 3500 0 0 06:39 31.12.2021
4580 Clear 2 1018 88 10000 1.03 0 23:23 30.12.2021
4581 Clear 2 1017 86 10000 1.03 0 22:32 30.12.2021
4582 Clear 3 1017 83 10000 0 0 21:41 30.12.2021
4583 Clear 3 1017 83 10000 0 0 21:22 30.12.2021
4584 Clear 4 1017 83 10000 1.54 130 20:43 30.12.2021
4585 Clear 4 1016 79 10000 1.54 130 20:23 30.12.2021
4586 Clear 5 1017 76 10000 3.09 120 19:36 30.12.2021
4587 Clear 6 1016 71 10000 0.45 15 18:29 30.12.2021
4588 Clear 7 1015 70 10000 1.54 110 17:38 30.12.2021
4589 Clouds 7 1016 68 10000 2.59 67 15:55 30.12.2021
4590 Clear 11 1014 46 10000 1.03 0 15:36 30.12.2021
4591 Clear 11 1014 45 10000 0.51 0 14:37 30.12.2021
4592 Clouds 11 1013 49 10000 2.24 173 13:32 30.12.2021
4593 Clouds 11 1013 55 10000 3.91 123 11:59 30.12.2021
4594 Clouds 9 1014 58 10000 0.45 45 10:44 30.12.2021
4595 Clouds 8 1014 70 10000 3.43 105 09:54 30.12.2021
4596 Clouds 6 1014 76 7000 0.89 154 07:42 30.12.2021
4597 Mist 4 1013 82 6000 1.54 240 06:38 30.12.2021
4598 Mist 4 1013 87 8000 2.57 120 03:41 30.12.2021
4599 Clouds 5 1013 87 8000 3.09 100 02:38 30.12.2021
4600 Clouds 4 1013 89 8000 3.09 110 23:41 29.12.2021
4601 Clouds 6 1013 83 10000 1.75 89 22:59 29.12.2021
4602 Clouds 4 1013 89 8000 2.06 90 22:18 29.12.2021
4603 Clouds 4 1013 88 8000 3.09 100 21:27 29.12.2021
4604 Clouds 4 1014 88 8000 2.57 100 20:31 29.12.2021
4605 Clouds 4 1014 89 8000 3.6 100 19:44 29.12.2021
4606 Clouds 4 1014 89 8000 3.09 110 18:45 29.12.2021
4607 Clouds 5 1014 88 10000 1.42 93 17:53 29.12.2021
4608 Clouds 5 1014 87 7000 1.54 110 17:27 29.12.2021
4609 Clouds 5 1014 83 7000 2.57 90 16:23 29.12.2021
4610 Clouds 6 1014 78 7000 1.54 90 15:42 29.12.2021
4611 Clouds 6 1014 93 10000 1.95 152 13:53 29.12.2021
4612 Clouds 5 1014 87 6000 3.09 90 12:36 29.12.2021
4613 Clouds 4 1015 87 7000 0.45 84 11:27 29.12.2021
4614 Clouds 3 1016 94 10000 0.45 24 09:56 29.12.2021
4615 Clouds 1 1016 93 10000 0.45 94 07:51 29.12.2021
4616 Mist -4 1016 96 2000 0.51 40 06:38 29.12.2021
4617 Clouds 1 1015 93 10000 0.89 169 05:58 29.12.2021
4618 Mist -1 1015 97 4000 0.45 190 05:36 29.12.2021
4619 Mist 0 1016 94 3200 0.45 190 02:22 29.12.2021
4620 Clouds 1 1016 95 6000 0.45 137 00:19 29.12.2021
4621 Clear 1 1016 93 10000 0 0 23:34 28.12.2021
4622 Clear 2 1016 93 10000 0.89 158 22:42 28.12.2021
4623 Clear 2 1016 92 10000 1.03 90 22:23 28.12.2021
4624 Clear 3 1016 89 10000 1.03 0 21:36 28.12.2021
4625 Clear 1 1016 93 10000 2.06 80 20:36 28.12.2021
4626 Clear 4 1016 85 10000 1.34 181 19:22 28.12.2021
4627 Clouds 2 1016 90 10000 0 0 18:35 28.12.2021
4628 Clouds 4 1018 90 10000 1.27 123 17:57 28.12.2021
4629 Clouds 5 1015 78 10000 0 0 16:34 28.12.2021
4630 Clouds 9 1015 59 10000 1.03 260 15:49 28.12.2021
4631 Clouds 9 1015 59 10000 1.03 260 15:20 28.12.2021
4632 Clouds 10 1015 57 10000 1.54 290 14:47 28.12.2021
4633 Clouds 10 1015 62 10000 0.89 180 14:20 28.12.2021
4634 Clouds 10 1016 61 10000 2.06 240 13:42 28.12.2021
4635 Clouds 10 1016 61 10000 0.45 205 13:24 28.12.2021
4636 Clouds 9 1016 62 10000 0.45 211 12:49 28.12.2021
4637 Clouds 8 1017 64 10000 0.45 167 11:33 28.12.2021
4638 Mist 1 1018 92 6000 0.45 167 07:41 28.12.2021
4639 Mist 1 1018 92 4500 0.89 175 06:41 28.12.2021
4640 Clear 1 1020 93 10000 0.45 142 23:43 27.12.2021
4641 Clouds 3 1019 87 10000 1.21 161 22:59 27.12.2021
4642 Clear 2 1020 91 10000 0 0 21:38 27.12.2021
4643 Clouds 4 1020 84 10000 1.5 147 20:57 27.12.2021
4644 Clouds 2 1024 95 10000 1.59 150 19:58 27.12.2021
4645 Clear 2 1020 83 10000 1.03 0 19:39 27.12.2021
4646 Clear 2 1020 83 10000 1.03 50 18:23 27.12.2021
4647 Clear 5 1020 70 10000 0.51 0 17:46 27.12.2021
4648 Clear 7 1020 67 10000 0.51 0 16:40 27.12.2021
4649 Clouds 8 1023 92 10000 1.54 136 15:52 27.12.2021
4650 Clouds 10 1020 57 10000 1.03 0 14:32 27.12.2021
4651 Clouds 10 1020 55 10000 2.57 270 13:39 27.12.2021
4652 Clear 10 1021 55 6000 1.03 0 12:19 27.12.2021
4653 Haze 7 1022 65 6000 0.51 0 10:31 27.12.2021
4654 Mist 4 1023 78 4800 0.51 0 09:47 27.12.2021
4655 Fog 2 1023 92 900 1.03 0 07:38 27.12.2021
4656 Fog -2 1023 100 900 1.03 0 07:20 27.12.2021
4657 Clouds 1 1022 89 10000 1.03 0 02:18 27.12.2021
4658 Clouds 0 1025 86 10000 0.79 138 23:58 26.12.2021
4659 Clouds 2 1022 87 10000 1.03 0 23:36 26.12.2021
4660 Clouds 2 1022 87 10000 0.51 0 22:23 26.12.2021
4661 Clouds 2 1025 86 10000 1.33 136 20:54 26.12.2021
4662 Clouds 3 1022 81 10000 1.54 240 19:47 26.12.2021
4663 Clouds 3 1021 78 10000 2.06 240 18:24 26.12.2021
4664 Clouds 3 1024 89 10000 1.55 133 16:55 26.12.2021
4665 Clouds 6 1021 66 10000 1.34 208 14:28 26.12.2021
4666 Clouds 6 1021 66 10000 1.54 260 13:40 26.12.2021
4667 Clouds 6 1021 66 10000 1.54 260 13:19 26.12.2021
4668 Clouds 6 1021 64 10000 0.45 175 12:33 26.12.2021
4669 Clouds 4 1022 68 10000 0.45 269 10:34 26.12.2021
4670 Clouds 3 1023 69 10000 0.45 217 09:25 26.12.2021
4671 Clouds 2 1023 75 10000 1.54 290 08:44 26.12.2021
4672 Clouds 4 1023 73 10000 1.08 120 07:58 26.12.2021
4673 Clouds -1 1021 77 10000 1.03 0 01:29 26.12.2021
4674 Clouds -1 1026 76 10000 1.08 112 23:58 25.12.2021
4675 Clouds 0 1021 71 10000 2.06 260 23:27 25.12.2021
4676 Clouds -1 1021 74 10000 2.06 130 22:28 25.12.2021
4677 Clouds -1 1027 80 10000 1.09 104 21:00 25.12.2021
4678 Clear -2 1022 77 10000 1.03 20 19:28 25.12.2021
4679 Clouds 0 1026 82 10000 1.17 112 18:56 25.12.2021
4680 Clear -2 1021 69 10000 0 0 17:38 25.12.2021
4681 Clear 0 1021 57 10000 1.54 250 16:42 25.12.2021
4682 Clear 2 1023 53 10000 0.89 175 15:26 25.12.2021
4683 Clear 4 1023 44 10000 0.45 194 13:41 25.12.2021
4684 Clouds 3 1026 53 10000 0.93 193 11:54 25.12.2021
4685 Clear -1 1025 62 10000 1.54 230 10:18 25.12.2021
4686 Clear -3 1025 66 10000 1.03 0 09:42 25.12.2021
4687 Clear -8 1023 84 10000 0.45 180 04:36 25.12.2021
4688 Clear -7 1023 80 10000 0 0 01:27 25.12.2021
4689 Clouds -7 1025 77 10000 0.45 151 23:55 24.12.2021
4690 Clouds -5 1024 72 10000 0.79 158 20:53 24.12.2021
4691 Clear -6 1022 75 10000 2.24 175 19:25 24.12.2021
4692 Clear -5 1022 73 10000 0.89 168 18:23 24.12.2021
4693 Clear -5 1022 75 10000 2.24 192 16:30 24.12.2021
4694 Clouds -4 1021 71 10000 0.89 221 15:49 24.12.2021
4695 Clouds -3 1021 70 10000 2.24 224 15:20 24.12.2021
4696 Clouds -3 1021 68 10000 1.34 203 14:31 24.12.2021
4697 Clouds -3 1021 69 10000 2.24 182 13:44 24.12.2021
4698 Clouds -3 1021 67 10000 2.24 208 12:49 24.12.2021
4699 Clouds -3 1021 67 10000 1.34 179 12:23 24.12.2021
4700 Clear -4 1022 67 10000 2.24 172 11:40 24.12.2021
4701 Clouds -4 1023 69 10000 0.45 256 11:18 24.12.2021
4702 Clear -4 1023 71 10000 1.34 210 10:33 24.12.2021
4703 Clouds -6 1024 81 8000 1.03 230 08:38 24.12.2021
4704 Clouds -7 1025 83 10000 1.03 0 07:58 24.12.2021
4705 Clouds -8 1024 89 10000 0 0 06:18 24.12.2021
4706 Clear -7 1024 89 10000 1.54 250 00:21 24.12.2021
4707 Clear -7 1024 87 10000 0 0 23:39 23.12.2021
4708 Clear -6 1026 84 10000 0.31 115 22:50 23.12.2021
4709 Clear -7 1024 86 10000 0 0 22:22 23.12.2021
4710 Clear -6 1023 82 10000 0 0 21:39 23.12.2021
4711 Clear -5 1024 83 10000 0.51 0 20:27 23.12.2021
4712 Clear -5 1022 80 10000 0.51 0 19:28 23.12.2021
4713 Clouds -4 1022 71 10000 1.03 0 18:18 23.12.2021
4714 Clouds -4 1022 71 10000 2.06 240 17:29 23.12.2021
4715 Clouds -3 1023 68 10000 0.89 265 16:26 23.12.2021
4716 Clouds -2 1021 62 10000 4.63 240 15:33 23.12.2021
4717 Clouds -2 1025 64 10000 0.89 291 14:59 23.12.2021
4718 Clouds -1 1023 60 10000 0.45 285 14:39 23.12.2021
4719 Clouds -2 1023 61 10000 0.45 286 13:25 23.12.2021
4720 Clouds -2 1024 66 10000 0.89 321 11:27 23.12.2021
4721 Clouds -3 1026 78 10000 0.45 261 09:53 23.12.2021
4722 Clouds -3 1025 76 10000 1.34 299 09:33 23.12.2021
4723 Clouds -4 1024 78 10000 0.45 284 08:28 23.12.2021
4724 Clouds -4 1023 78 10000 0.45 326 05:30 23.12.2021
4725 Clouds -3 1023 83 10000 3.09 250 00:40 23.12.2021
4726 Clouds -3 1024 81 10000 0.45 273 22:51 22.12.2021
4727 Clouds -3 1025 81 10000 0.89 274 21:59 22.12.2021
4728 Clouds -3 1023 81 10000 1.03 0 21:30 22.12.2021
4729 Clouds -3 1025 83 10000 0.54 288 20:59 22.12.2021
4730 Clouds -4 1023 78 10000 1.03 0 20:40 22.12.2021
4731 Clouds -3 1025 79 10000 0.36 256 19:50 22.12.2021
4732 Clouds -4 1028 91 10000 0.5 222 18:55 22.12.2021
4733 Clouds -3 1023 76 10000 2.06 200 17:38 22.12.2021
4734 Clouds -3 1023 71 10000 2.06 230 16:22 22.12.2021
4735 Clouds -2 1023 69 10000 0.45 242 14:28 22.12.2021
4736 Clouds -2 1025 76 10000 1.34 283 12:53 22.12.2021
4737 Clouds -2 1024 72 10000 0.89 286 11:42 22.12.2021
4738 Clouds -3 1026 78 10000 1.56 266 09:52 22.12.2021
4739 Clouds -4 1025 79 10000 1.54 240 08:23 22.12.2021
4740 Clouds -4 1025 85 4493 0.69 249 05:54 22.12.2021
4741 Clouds -5 1024 86 10000 0 0 05:36 22.12.2021
4742 Clouds -5 1024 86 10000 0 0 05:18 22.12.2021
4743 Clouds -5 1024 83 10000 1.03 0 04:37 22.12.2021
4744 Clouds -5 1022 80 10000 1.54 230 03:49 22.12.2021
4745 Clouds -5 1022 80 10000 1.54 230 03:31 22.12.2021
4746 Clear -4 1022 83 10000 0.45 194 23:48 21.12.2021
4747 Clear -4 1022 77 10000 3.6 240 22:41 21.12.2021
4748 Clouds -4 1027 93 10000 1.38 242 21:57 21.12.2021
4749 Clear -3 1021 79 10000 0.45 251 21:33 21.12.2021
4750 Clear -3 1020 80 10000 3.6 260 20:39 21.12.2021
4751 Clear -3 1020 80 10000 3.6 260 20:18 21.12.2021
4752 Clear -2 1019 74 10000 4.12 290 19:34 21.12.2021
4753 Clear -2 1019 78 10000 2.68 268 18:23 21.12.2021
4754 Clouds -2 1020 79 10000 1.34 274 17:58 21.12.2021
4755 Clouds -1 1019 72 10000 1.34 286 17:39 21.12.2021
4756 Clouds -1 1017 69 10000 3.13 260 15:39 21.12.2021
4757 Snow -1 1016 84 8000 2.24 279 14:21 21.12.2021
4758 Clouds 1 1016 67 10000 3.58 289 13:42 21.12.2021
4759 Snow 0 1015 71 10000 2.24 230 12:26 21.12.2021
4760 Snow 0 1016 80 10000 1.34 250 10:39 21.12.2021
4761 Clouds 0 1017 87 10000 3.13 272 09:56 21.12.2021
4762 Clouds 0 1016 80 5957 4.02 253 08:57 21.12.2021
4763 Clouds 0 1015 83 10000 0.45 234 07:44 21.12.2021
4764 Clouds 0 1015 83 10000 2.24 255 07:22 21.12.2021
4765 Clouds 0 1012 81 10000 1.34 213 03:26 21.12.2021
4766 Clouds 0 1013 83 7046 1.34 207 01:25 21.12.2021
4767 Clouds 0 1016 97 10000 2.38 237 23:54 20.12.2021
4768 Clouds 0 1010 80 10000 3.6 240 22:35 20.12.2021
4769 Clouds 0 1015 95 10000 2.08 237 21:52 20.12.2021
4770 Clouds 0 1010 80 10000 3.09 230 21:24 20.12.2021
4771 Clouds 0 1015 95 10000 1.99 225 20:54 20.12.2021
4772 Clouds 0 1010 80 10000 1.34 242 20:19 20.12.2021
4773 Clouds 0 1010 82 10000 0.45 207 19:38 20.12.2021
4774 Clouds 0 1009 83 10000 3.09 260 19:19 20.12.2021
4775 Clouds 0 1009 83 10000 5.14 240 18:32 20.12.2021
4776 Clouds 1 1009 80 10000 4.12 250 17:49 20.12.2021
4777 Clouds 1 1009 80 10000 0.89 237 16:46 20.12.2021
4778 Clouds 1 1009 82 10000 0.89 252 15:57 20.12.2021
4779 Clouds 1 1008 78 10000 0.89 226 15:35 20.12.2021
4780 Clouds 1 1008 79 10000 0.45 223 13:32 20.12.2021
4781 Clouds 1 1008 79 10000 0.45 223 13:32 20.12.2021
4782 Clouds 1 1008 78 10000 0.89 244 12:30 20.12.2021
4783 Clouds 2 1009 78 10000 0.89 260 10:36 20.12.2021
4784 Clouds 1 1009 83 10000 0.45 259 09:39 20.12.2021
4785 Clouds 1 1009 89 10000 4.12 260 08:49 20.12.2021
4786 Clouds 1 1009 89 10000 0.45 227 08:31 20.12.2021
4787 Clouds 1 1009 90 10000 3.6 260 07:32 20.12.2021
4788 Clouds 1 1008 89 10000 0.45 219 06:39 20.12.2021
4789 Clouds 1 1008 94 7000 0.45 268 00:20 20.12.2021
4790 Clouds 2 1009 94 5082 0.45 234 22:56 19.12.2021
4791 Clouds 1 1008 95 6000 0.45 194 22:32 19.12.2021
4792 Clouds 1 1008 95 7000 1.54 210 21:32 19.12.2021
4793 Clouds 1 1008 95 6000 1.54 250 20:42 19.12.2021
4794 Rain 1 1008 95 6000 1.54 250 20:23 19.12.2021
4795 Snow 1 1008 95 7000 2.06 260 19:41 19.12.2021
4796 Snow 1 1008 97 4000 0.45 277 18:37 19.12.2021
4797 Snow 1 1008 96 6000 1.54 280 17:53 19.12.2021
4798 Rain 1 1007 95 4000 1.03 0 17:30 19.12.2021
4799 Snow 1 1007 97 2500 0.51 0 16:27 19.12.2021
4800 Snow 2 1007 93 803 2.34 58 15:52 19.12.2021
4801 Snow 1 1007 95 3400 2.06 90 15:24 19.12.2021
4802 Snow 1 1007 95 2000 0.51 0 14:45 19.12.2021
4803 Snow 2 1008 88 10000 3.09 90 13:27 19.12.2021
4804 Rain 2 1007 88 10000 1.34 317 12:52 19.12.2021
4805 Snow 2 1008 92 8000 3.09 40 12:29 19.12.2021
4806 Snow 2 1009 81 10000 2.24 71 11:33 19.12.2021
4807 Rain 2 1009 84 10000 5.14 70 10:48 19.12.2021
4808 Rain 2 1009 85 10000 2.24 74 10:21 19.12.2021
4809 Clouds 2 1011 82 10000 0.89 91 08:46 19.12.2021
4810 Clouds 2 1011 79 10000 5.36 92 06:30 19.12.2021
4811 Snow 2 1013 84 10000 0.45 332 01:45 19.12.2021
4812 Clouds 2 1014 89 10000 3.11 49 00:54 19.12.2021
4813 Clouds 2 1014 90 10000 0.45 39 22:59 18.12.2021
4814 Clouds 1 1014 86 7000 0.45 67 22:24 18.12.2021
4815 Clouds 1 1014 94 7000 1.03 0 21:41 18.12.2021
4816 Clouds 1 1014 95 7000 1.03 0 21:22 18.12.2021
4817 Clouds 1 1014 94 7000 1.03 230 20:25 18.12.2021
4818 Clouds 1 1014 95 7000 1.03 240 19:34 18.12.2021
4819 Rain 2 1014 93 8000 1.54 80 18:24 18.12.2021
4820 Rain 1 1014 93 7000 2.06 80 17:49 18.12.2021
4821 Rain 2 1013 94 7000 1.03 0 16:27 18.12.2021
4822 Rain 2 1013 94 7000 2.06 70 15:48 18.12.2021
4823 Snow 2 1013 91 147 0.85 54 14:53 18.12.2021
4824 Snow 2 1012 87 7000 0.51 0 13:42 18.12.2021
4825 Snow 2 1013 87 8000 2.57 250 11:48 18.12.2021
4826 Clouds 2 1014 86 10000 0.45 297 09:53 18.12.2021
4827 Clouds 2 1014 85 8000 2.57 260 09:30 18.12.2021
4828 Clouds 2 1013 86 8000 2.06 270 08:35 18.12.2021
4829 Snow 1 1012 89 10000 1.54 270 06:27 18.12.2021
4830 Clouds 1 1013 86 10000 1.03 270 00:34 18.12.2021
4831 Clouds 1 1013 87 10000 0.45 182 23:46 17.12.2021
4832 Clouds 1 1013 89 10000 0.45 270 22:18 17.12.2021
4833 Clouds 1 1014 86 10000 1.34 271 21:23 17.12.2021
4834 Clouds 1 1014 89 10000 0.89 232 20:42 17.12.2021
4835 Clouds 2 1014 85 10000 0.45 252 19:45 17.12.2021
4836 Clouds 2 1014 85 10000 0.45 279 18:39 17.12.2021
4837 Clouds 2 1014 80 10000 0.45 251 17:40 17.12.2021
4838 Clouds 2 1014 80 10000 3.09 280 16:50 17.12.2021
4839 Clouds 2 1014 80 10000 0.45 275 16:25 17.12.2021
4840 Clouds 2 1014 79 10000 1.34 257 15:25 17.12.2021
4841 Clouds 2 1014 80 10000 0.45 253 14:41 17.12.2021
4842 Clouds 2 1014 79 10000 1.34 278 13:22 17.12.2021
4843 Clouds 2 1015 80 10000 0.45 274 12:21 17.12.2021
4844 Clouds 1 1016 83 10000 0.89 284 10:38 17.12.2021
4845 Clouds 1 1017 87 10000 3.6 260 09:34 17.12.2021
4846 Clouds 1 1017 91 10000 0.45 293 08:31 17.12.2021
4847 Clouds 0 1016 89 10000 0.89 269 07:18 17.12.2021
4848 Rain 1 1016 95 10000 0.45 262 04:39 17.12.2021
4849 Rain 2 1017 95 10000 2.57 250 23:47 16.12.2021
4850 Rain 2 1018 95 10000 2.57 240 22:24 16.12.2021
4851 Clouds 2 1017 93 117 0.5 271 21:51 16.12.2021
4852 Rain 2 1017 95 10000 3.09 260 21:30 16.12.2021
4853 Rain 2 1018 93 10000 3.09 260 20:31 16.12.2021
4854 Clouds 3 1018 89 10000 0.45 285 19:49 16.12.2021
4855 Clouds 3 1017 89 10000 0.45 285 18:41 16.12.2021
4856 Clouds 3 1017 89 2161 0.56 234 17:57 16.12.2021
4857 Clouds 3 1017 87 10000 0.45 306 17:31 16.12.2021
4858 Clouds 4 1017 82 10000 2.57 270 16:22 16.12.2021
4859 Clouds 4 1017 85 3412 0.45 285 14:51 16.12.2021
4860 Clouds 4 1016 79 10000 0.45 301 13:43 16.12.2021
4861 Rain 3 1016 85 10000 1.34 282 11:21 16.12.2021
4862 Rain 3 1016 91 68 1.38 276 10:59 16.12.2021
4863 Clouds 3 1017 83 10000 0.89 259 10:22 16.12.2021
4864 Clouds 2 1017 90 10000 0.45 282 08:25 16.12.2021
4865 Rain 2 1016 90 10000 0.89 278 06:22 16.12.2021
4866 Clouds 3 1016 86 10000 2.57 240 01:25 16.12.2021
4867 Clouds 3 1016 90 10000 0.45 258 23:35 15.12.2021
4868 Clouds 3 1015 91 10000 0.45 285 22:44 15.12.2021
4869 Clouds 4 1015 91 10000 0.89 290 21:57 15.12.2021
4870 Clouds 4 1015 91 10000 1.76 304 21:27 15.12.2021
4871 Clouds 4 1016 90 10000 0.45 297 20:19 15.12.2021
4872 Clouds 4 1015 90 10000 1.34 283 19:51 15.12.2021
4873 Clouds 5 1015 86 10000 1.34 285 18:38 15.12.2021
4874 Clouds 5 1014 90 10000 1.34 282 17:55 15.12.2021
4875 Clouds 5 1015 89 10000 1.34 291 17:36 15.12.2021
4876 Clouds 5 1014 86 10000 3.09 260 16:28 15.12.2021
4877 Clouds 5 1014 85 10000 0.45 271 15:47 15.12.2021
4878 Clouds 5 1014 85 10000 0.89 293 15:27 15.12.2021
4879 Clouds 6 1013 86 63 2.46 245 14:29 15.12.2021
4880 Clouds 5 1012 87 10000 1.34 287 12:46 15.12.2021
4881 Clouds 5 1012 87 10000 1.34 287 12:46 15.12.2021
4882 Clouds 5 1012 90 10000 0.89 202 10:42 15.12.2021
4883 Clouds 3 1010 91 50 2.68 195 08:55 15.12.2021
4884 Rain 5 1010 91 7000 4.12 260 07:43 15.12.2021
4885 Rain 6 1008 93 7000 0.89 334 01:35 15.12.2021
4886 Rain 6 1009 94 4500 1.03 100 23:42 14.12.2021
4887 Rain 6 1010 95 4000 0.45 322 22:49 14.12.2021
4888 Rain 6 1010 95 4000 2.57 80 22:24 14.12.2021
4889 Rain 7 1009 93 5657 2.42 335 20:55 14.12.2021
4890 Rain 7 1009 93 10000 2.15 346 19:44 14.12.2021
4891 Rain 7 1009 93 10000 2.19 22 19:20 14.12.2021
4892 Rain 7 1010 93 10000 2.52 58 18:28 14.12.2021
4893 Mist 7 1011 95 4000 0.51 0 17:33 14.12.2021
4894 Rain 7 1011 94 4000 1.03 0 16:42 14.12.2021
4895 Mist 7 1011 94 3200 0.89 323 15:36 14.12.2021
4896 Rain 7 1011 92 4000 1.54 120 13:31 14.12.2021
4897 Rain 7 1012 91 3400 1.03 0 12:21 14.12.2021
4898 Rain 7 1012 86 3300 0.89 292 11:24 14.12.2021
4899 Rain 7 1013 80 3200 0 0 10:24 14.12.2021
4900 Rain 8 1012 77 7849 1.79 100 09:51 14.12.2021
4901 Clouds 6 1014 85 6000 0.89 280 08:28 14.12.2021
4902 Clouds 5 1014 87 10000 0.89 295 07:43 14.12.2021
4903 Clouds 5 1013 86 10000 1.03 0 05:35 14.12.2021
4904 Clouds 8 1013 79 10000 0.61 74 22:56 13.12.2021
4905 Clouds 9 1013 77 10000 0.94 78 21:53 13.12.2021
4906 Clouds 8 1015 81 10000 0.51 0 21:33 13.12.2021
4907 Clouds 8 1015 76 10000 0 0 20:43 13.12.2021
4908 Clouds 10 1014 72 10000 0.89 46 19:53 13.12.2021
4909 Clouds 9 1015 72 10000 1.54 230 19:19 13.12.2021
4910 Clouds 11 1014 59 10000 2.06 250 17:26 13.12.2021
4911 Clouds 14 1014 54 10000 1.85 111 15:56 13.12.2021
4912 Clear 15 1015 41 10000 1.54 140 15:38 13.12.2021
4913 Clear 15 1014 42 10000 2.06 170 13:47 13.12.2021
4914 Clouds 15 1013 45 10000 3.66 184 12:59 13.12.2021
4915 Clear 15 1015 41 10000 3.09 0 12:19 13.12.2021
4916 Clear 13 1016 44 10000 2.06 100 11:35 13.12.2021
4917 Clear 12 1016 49 10000 2.06 100 10:47 13.12.2021
4918 Clear 9 1017 59 10000 3.09 90 09:41 13.12.2021
4919 Clear 10 1016 58 10000 2.27 96 07:57 13.12.2021
4920 Clear 3 1017 83 10000 1.03 0 05:36 13.12.2021
4921 Clear 4 1018 76 10000 1.34 181 03:30 13.12.2021
4922 Clear 6 1018 74 10000 0 0 23:26 12.12.2021
4923 Clear 7 1019 70 10000 1.54 0 21:41 12.12.2021
4924 Clear 8 1018 65 10000 0.45 159 20:18 12.12.2021
4925 Clear 10 1019 53 10000 1.54 60 18:43 12.12.2021
4926 Clear 11 1018 50 10000 0.89 165 17:45 12.12.2021
4927 Clear 12 1018 48 10000 3.6 150 16:28 12.12.2021
4928 Clear 13 1018 43 10000 0.45 125 15:50 12.12.2021
4929 Clear 14 1018 41 10000 2.57 170 15:26 12.12.2021
4930 Clear 16 1019 38 10000 1.54 130 14:36 12.12.2021
4931 Clear 16 1018 35 10000 0.45 121 13:33 12.12.2021
4932 Clear 16 1018 40 10000 0.89 168 12:32 12.12.2021
4933 Clear 15 1019 40 10000 0.45 206 11:44 12.12.2021
4934 Clear 15 1019 41 10000 0.89 40 11:24 12.12.2021
4935 Clear 14 1020 48 10000 0.45 240 10:32 12.12.2021
4936 Clear 11 1020 58 10000 0.89 221 09:39 12.12.2021
4937 Clear 9 1021 69 10000 0.45 81 08:34 12.12.2021
4938 Clear 6 1020 83 10000 3.13 203 06:20 12.12.2021
4939 Clouds 8 1018 72 10000 0.89 175 04:56 12.12.2021
4940 Clouds 8 1018 72 10000 2.76 99 03:57 12.12.2021
4941 Clear 8 1019 77 10000 2.57 100 23:47 11.12.2021
4942 Clear 8 1020 75 10000 3.09 110 22:23 11.12.2021
4943 Clear 8 1019 75 10000 2.06 100 21:52 11.12.2021
4944 Clear 9 1019 68 10000 0.45 142 20:52 11.12.2021
4945 Clouds 10 1019 66 10000 2.06 130 19:30 11.12.2021
4946 Clouds 6 1020 73 10000 2.98 96 18:52 11.12.2021
4947 Clouds 10 1019 64 10000 0.45 174 18:25 11.12.2021
4948 Clouds 10 1019 64 10000 0.45 303 17:24 11.12.2021
4949 Clouds 11 1018 65 10000 0.89 86 15:55 11.12.2021
4950 Clouds 11 1019 61 10000 0.89 105 15:30 11.12.2021
4951 Clouds 14 1018 56 10000 0.45 154 12:59 11.12.2021
4952 Clouds 12 1019 60 10000 0.45 257 11:46 11.12.2021
4953 Clouds 10 1021 67 10000 0 0 09:47 11.12.2021
4954 Clouds 10 1021 67 10000 0 0 09:18 11.12.2021
4955 Clear 5 1019 85 10000 2.68 196 02:40 11.12.2021
4956 Clear 6 1019 79 10000 0.45 227 00:40 11.12.2021
4957 Clear 7 1019 78 10000 0.89 195 23:23 10.12.2021
4958 Clouds 8 1018 77 10000 2.15 102 21:57 10.12.2021
4959 Clear 7 1019 78 10000 0.89 286 21:31 10.12.2021
4960 Clear 7 1019 73 10000 1.03 0 19:22 10.12.2021
4961 Clear 8 1020 70 10000 1.03 0 18:39 10.12.2021
4962 Clouds 9 1020 65 10000 0.45 201 16:57 10.12.2021
4963 Clear 9 1020 61 10000 2.06 150 16:29 10.12.2021
4964 Clear 10 1020 59 10000 1.54 230 15:41 10.12.2021
4965 Clear 11 1020 58 10000 1.54 230 15:21 10.12.2021
4966 Clouds 13 1019 51 10000 4.05 122 13:52 10.12.2021
4967 Clear 12 1020 50 10000 1.34 191 13:26 10.12.2021
4968 Clear 12 1020 51 10000 0.89 130 12:45 10.12.2021
4969 Clear 11 1021 56 10000 1.34 164 11:30 10.12.2021
4970 Clear 9 1022 61 10000 0.89 82 10:38 10.12.2021
4971 Clear 7 1023 72 7000 3.6 90 09:19 10.12.2021
4972 Clear 4 1022 88 10000 2.24 92 06:59 10.12.2021
4973 Clear 4 1021 86 10000 0.45 143 02:50 10.12.2021
4974 Clear 5 1021 85 10000 0.89 165 00:55 10.12.2021
4975 Clear 2 1023 91 10000 0 0 23:37 09.12.2021
4976 Clear 3 1022 89 10000 0 0 22:32 09.12.2021
4977 Clear 6 1021 80 10000 1.32 133 21:59 09.12.2021
4978 Clear 4 1022 86 10000 0.45 214 21:19 09.12.2021
4979 Clear 7 1021 74 10000 1.44 150 20:29 09.12.2021
4980 Clear 5 1021 80 10000 0.89 167 19:22 09.12.2021
4981 Clear 5 1021 80 10000 0.51 0 18:49 09.12.2021
4982 Clear 6 1020 74 10000 1.46 170 17:57 09.12.2021
4983 Clear 6 1020 74 10000 1.46 170 17:57 09.12.2021
4984 Clear 5 1020 74 10000 0 0 17:27 09.12.2021
4985 Clear 7 1020 70 10000 1.35 205 16:56 09.12.2021
4986 Clear 7 1019 67 10000 0.45 226 15:59 09.12.2021
4987 Clear 9 1019 63 10000 0.45 220 14:51 09.12.2021
4988 Clouds 8 1019 60 10000 0.45 245 13:39 09.12.2021
4989 Clouds 9 1019 60 10000 0.89 228 12:47 09.12.2021
4990 Clouds 9 1019 61 10000 1.34 229 11:24 09.12.2021
4991 Clouds 8 1019 67 10000 5.14 250 09:45 09.12.2021
4992 Clouds 6 1016 83 10000 0.45 213 06:51 09.12.2021
4993 Clouds 6 1015 89 10000 0.89 225 03:46 09.12.2021
4994 Clouds 7 1013 89 10000 2.06 240 23:46 08.12.2021
4995 Clouds 7 1013 88 10000 0.45 209 23:26 08.12.2021
4996 Clouds 7 1011 86 10000 1.8 238 22:50 08.12.2021
4997 Clouds 6 1011 93 10000 1.54 260 21:49 08.12.2021
4998 Clouds 6 1011 92 10000 1.54 260 21:30 08.12.2021
4999 Clouds 6 1010 89 10000 1.54 250 20:19 08.12.2021
5000 Clouds 7 1009 88 10000 1.54 140 19:39 08.12.2021
5001 Clouds 7 1009 88 10000 0.51 90 18:53 08.12.2021
5002 Clouds 7 1009 88 10000 0.51 90 18:53 08.12.2021
5003 Clouds 7 1008 89 10000 0.45 208 17:52 08.12.2021
5004 Clouds 7 1006 89 10000 0.56 147 15:59 08.12.2021
5005 Clouds 7 1006 89 10000 2.06 80 15:31 08.12.2021
5006 Clouds 7 1006 89 10000 2.06 80 14:52 08.12.2021
5007 Clouds 9 1005 72 10000 1.34 104 12:39 08.12.2021
5008 Clouds 8 1006 75 10000 3.13 181 10:36 08.12.2021
5009 Clouds 8 1006 75 10000 2.68 192 09:31 08.12.2021
5010 Clouds 6 1005 82 10000 0.45 183 07:34 08.12.2021
5011 Clouds 6 1002 82 10000 5.36 198 04:58 08.12.2021
5012 Rain 8 1000 79 7162 2.68 179 23:56 07.12.2021
5013 Rain 9 1004 76 10000 2.68 190 22:37 07.12.2021
5014 Rain 11 1004 57 10000 1.34 197 21:24 07.12.2021
5015 Rain 12 1003 45 10000 6.71 170 20:24 07.12.2021
5016 Clouds 13 1001 48 10000 4.47 194 18:56 07.12.2021
5017 Clouds 13 1003 43 10000 3.13 150 18:18 07.12.2021
5018 Clouds 14 1003 42 10000 3.58 177 17:20 07.12.2021
5019 Clouds 14 1004 42 10000 0.45 161 16:36 07.12.2021
5020 Clouds 14 1004 43 10000 4.47 164 15:35 07.12.2021
5021 Clouds 14 1006 44 10000 0.45 178 14:37 07.12.2021
5022 Clouds 15 1006 43 10000 4.02 176 13:19 07.12.2021
5023 Clouds 14 1007 47 10000 4.02 102 12:21 07.12.2021
5024 Clouds 14 1009 50 10000 2.68 188 10:44 07.12.2021
5025 Clouds 13 1011 54 10000 2.24 187 08:46 07.12.2021
5026 Clouds 11 1013 60 10000 2.06 120 06:39 07.12.2021
5027 Clouds 11 1013 62 10000 1.54 0 05:45 07.12.2021
5028 Clear 8 1014 81 10000 0.89 119 00:54 07.12.2021
5029 Clear 10 1014 77 10000 3.07 103 23:18 06.12.2021
5030 Clear 10 1015 76 10000 3.07 103 22:39 06.12.2021
5031 Clear 10 1015 74 10000 0.45 157 21:58 06.12.2021
5032 Clear 11 1015 71 10000 0.89 156 21:20 06.12.2021
5033 Clear 9 1017 72 10000 2.69 108 20:30 06.12.2021
5034 Clouds 9 1017 71 10000 2.64 119 19:24 06.12.2021
5035 Clouds 9 1017 71 10000 2.73 120 18:29 06.12.2021
5036 Clouds 11 1017 71 10000 2.73 120 17:52 06.12.2021
5037 Clouds 12 1017 62 10000 2.06 160 17:20 06.12.2021
5038 Clouds 13 1016 60 10000 0.89 189 15:49 06.12.2021
5039 Clouds 14 1016 54 10000 2.24 183 13:47 06.12.2021
5040 Clouds 14 1017 55 10000 0.45 188 12:40 06.12.2021
5041 Clear 14 1016 60 10000 0.89 179 11:54 06.12.2021
5042 Clouds 10 1018 68 10000 0.89 283 09:37 06.12.2021
5043 Clouds 7 1016 80 10000 1.9 126 06:59 06.12.2021
5044 Clear 7 1016 83 10000 2.06 110 00:33 06.12.2021
5045 Clouds 7 1015 85 10000 1.68 136 21:53 05.12.2021
5046 Clouds 7 1016 91 10000 0.45 161 21:25 05.12.2021
5047 Clouds 7 1015 92 10000 1.54 110 20:20 05.12.2021
5048 Clouds 8 1015 90 10000 1.54 130 19:49 05.12.2021
5049 Clouds 8 1015 90 10000 1.54 130 19:21 05.12.2021
5050 Clouds 8 1015 92 10000 0.51 0 18:20 05.12.2021
5051 Clouds 7 1015 92 10000 0 0 17:49 05.12.2021
5052 Clouds 9 1013 85 10000 2.23 128 16:52 05.12.2021
5053 Clear 9 1013 86 10000 1.54 30 16:27 05.12.2021
5054 Clouds 10 1012 84 10000 1.38 119 15:58 05.12.2021
5055 Clouds 10 1012 76 10000 0.89 84 14:45 05.12.2021
5056 Clouds 11 1012 76 10000 2.06 90 14:26 05.12.2021
5057 Clouds 10 1012 81 10000 0.45 230 13:27 05.12.2021
5058 Clouds 10 1013 81 10000 2.57 90 12:40 05.12.2021
5059 Clouds 10 1013 83 10000 2.57 90 12:21 05.12.2021
5060 Clouds 9 1013 75 10000 1.54 70 11:35 05.12.2021
5061 Clouds 9 1011 77 10000 1.34 116 10:19 05.12.2021
5062 Clouds 7 1012 93 10000 0.89 168 08:45 05.12.2021
5063 Clouds 7 1010 88 10000 1.05 107 04:56 05.12.2021
5064 Clouds 7 1011 90 10000 1.03 70 01:23 05.12.2021
5065 Clouds 9 1012 85 10000 2.06 220 22:24 04.12.2021
5066 Clouds 9 1012 80 10000 0.45 117 21:20 04.12.2021
5067 Clouds 9 1012 83 10000 0.89 192 20:27 04.12.2021
5068 Clouds 10 1013 81 10000 1.34 192 19:32 04.12.2021
5069 Clouds 10 1013 80 10000 1.34 198 18:22 04.12.2021
5070 Clouds 10 1013 79 10000 2.24 178 17:42 04.12.2021
5071 Clouds 10 1013 79 10000 1.34 189 17:20 04.12.2021
5072 Clouds 10 1013 78 10000 2.24 174 16:42 04.12.2021
5073 Clouds 10 1013 78 10000 2.24 176 16:24 04.12.2021
5074 Clouds 11 1013 67 10000 3.84 175 11:56 04.12.2021
5075 Clouds 10 1014 61 10000 0.45 179 11:33 04.12.2021
5076 Clouds 10 1014 66 10000 0.89 179 10:56 04.12.2021
5077 Clouds 8 1016 72 10000 0.45 79 08:53 04.12.2021
5078 Clouds 6 1017 72 10000 0.89 213 08:27 04.12.2021
5079 Clouds 3 1018 86 10000 0.51 0 04:42 04.12.2021
5080 Clouds 6 1020 78 10000 1.54 90 00:49 04.12.2021
5081 Clear 6 1020 78 10000 1.03 0 23:29 03.12.2021
5082 Clear 8 1019 69 10000 1.94 110 22:50 03.12.2021
5083 Clear 8 1020 68 10000 1.85 106 21:50 03.12.2021
5084 Clear 8 1019 64 10000 0.89 148 20:56 03.12.2021
5085 Clouds 8 1020 71 10000 2.68 185 20:26 03.12.2021
5086 Clear 7 1019 75 10000 0.45 185 18:49 03.12.2021
5087 Clear 5 1019 80 10000 0.51 0 18:20 03.12.2021
5088 Clouds 8 1019 69 10000 0.89 184 17:29 03.12.2021
5089 Clouds 10 1019 57 10000 2.68 185 13:35 03.12.2021
5090 Clouds 10 1019 57 10000 0.45 179 12:20 03.12.2021
5091 Clear 8 1020 62 10000 2.71 209 10:58 03.12.2021
5092 Clouds 4 1021 77 10000 0.89 243 08:40 03.12.2021
5093 Clouds 3 1020 80 10000 0.45 101 07:43 03.12.2021
5094 Clouds 2 1020 84 10000 0.51 0 06:41 03.12.2021
5095 Clear 0 1019 87 10000 0.45 306 00:49 03.12.2021
5096 Clear 0 1019 89 10000 0.51 270 23:48 02.12.2021
5097 Clear 0 1019 86 10000 0 0 22:48 02.12.2021
5098 Clear 1 1019 86 10000 0.45 106 21:41 02.12.2021
5099 Clear 1 1019 86 10000 0.45 106 21:41 02.12.2021
5100 Clear 1 1019 83 10000 0.89 198 20:45 02.12.2021
5101 Clear 2 1019 81 10000 0.51 0 20:22 02.12.2021
5102 Clear 3 1019 70 10000 1.03 250 18:50 02.12.2021
5103 Clear 5 1018 67 10000 0.45 186 16:43 02.12.2021
5104 Clear 7 1018 54 10000 0.45 207 15:41 02.12.2021
5105 Clear 7 1018 59 10000 0.89 141 14:52 02.12.2021
5106 Clouds 7 1018 52 10000 0.89 204 13:39 02.12.2021
5107 Clouds 7 1018 51 10000 0.89 151 12:36 02.12.2021
5108 Clear 6 1020 56 10000 1.34 204 10:42 02.12.2021
5109 Clear 5 1020 60 10000 1.54 330 09:26 02.12.2021
5110 Clear 3 1020 73 10000 0.45 212 07:19 02.12.2021
5111 Clouds 2 1017 69 10000 0.89 222 01:26 02.12.2021
5112 Clouds 3 1017 64 10000 0.45 225 00:35 02.12.2021
5113 Clouds 3 1016 63 10000 1.34 234 22:31 01.12.2021
5114 Clouds 2 1016 65 10000 1.34 248 21:44 01.12.2021
5115 Clouds 3 1016 64 10000 0.89 207 20:24 01.12.2021
5116 Clouds 3 1016 62 10000 1.34 280 19:43 01.12.2021
5117 Clouds 3 1015 61 10000 2.24 260 18:47 01.12.2021
5118 Clouds 4 1014 59 10000 3.13 273 17:31 01.12.2021
5119 Clouds 4 1013 56 10000 2.68 275 16:33 01.12.2021
5120 Clouds 5 1011 55 10000 1.34 258 14:35 01.12.2021
5121 Clouds 6 1011 60 10000 2.68 276 13:37 01.12.2021
5122 Clouds 5 1012 75 10000 3.13 262 10:45 01.12.2021
5123 Clouds 4 1012 77 10000 2.24 257 10:27 01.12.2021
5124 Clouds 4 1011 75 10000 0.89 267 08:52 01.12.2021
5125 Clouds 3 1011 79 10000 0.45 244 07:59 01.12.2021
5126 Clouds 3 1012 79 10000 0.45 238 07:31 01.12.2021
5127 Clouds 3 1008 88 10000 1.34 235 03:57 01.12.2021
5128 Clouds 3 1009 88 10000 1.34 207 03:27 01.12.2021
5129 Clouds 4 1009 83 10000 1.34 260 00:44 01.12.2021
5130 Clouds 5 1008 83 10000 0.45 207 23:33 30.11.2021
5131 Clouds 5 1008 83 10000 0.89 272 22:34 30.11.2021
5132 Rain 5 1007 79 10000 3.13 259 20:47 30.11.2021
5133 Rain 5 1007 78 10000 3.13 257 20:26 30.11.2021
5134 Rain 5 1006 82 10000 1.34 271 19:39 30.11.2021
5135 Rain 7 1005 76 10000 6.71 266 18:57 30.11.2021
5136 Clouds 7 1004 72 10000 1.34 215 17:47 30.11.2021
5137 Clouds 7 1004 76 10000 1.34 217 16:25 30.11.2021
5138 Rain 9 1002 81 10000 4.47 245 14:35 30.11.2021
5139 Clouds 9 1002 80 10000 5.81 258 13:41 30.11.2021
5140 Rain 11 1002 76 10000 19.03 250 12:54 30.11.2021
5141 Rain 17 999 48 10000 3.13 221 12:21 30.11.2021
5142 Clouds 17 1001 61 10000 3.13 224 11:26 30.11.2021
5143 Clouds 16 1002 67 10000 3.13 199 10:36 30.11.2021
5144 Clear 13 1001 80 10000 2.24 147 08:58 30.11.2021
5145 Clouds 13 1005 74 10000 2.68 201 08:32 30.11.2021
5146 Clouds 12 1002 81 10000 2.68 177 07:59 30.11.2021
5147 Clouds 11 1007 81 10000 1.34 222 06:39 30.11.2021
5148 Rain 10 1007 91 10000 1.34 268 01:52 30.11.2021
5149 Rain 10 1010 92 10000 3.13 283 01:28 30.11.2021
5150 Clouds 15 1004 63 10000 2.68 135 23:51 29.11.2021
5151 Clouds 15 1007 55 10000 4.02 194 23:20 29.11.2021
5152 Clouds 15 1007 55 10000 5.36 167 22:42 29.11.2021
5153 Clouds 15 1008 55 10000 2.68 164 22:23 29.11.2021
5154 Clouds 15 1009 50 10000 4.02 181 21:21 29.11.2021
5155 Clouds 15 1006 57 10000 4.02 169 20:54 29.11.2021
5156 Clouds 15 1009 50 10000 2.68 189 20:21 29.11.2021
5157 Clouds 15 1009 48 10000 2.68 159 19:42 29.11.2021
5158 Clouds 15 1007 56 10000 3.58 181 19:21 29.11.2021
5159 Clouds 15 1009 54 10000 11.17 199 18:42 29.11.2021
5160 Clouds 16 1010 50 10000 9.86 196 17:22 29.11.2021
5161 Clouds 16 1010 50 10000 9.86 196 16:50 29.11.2021
5162 Clouds 16 1010 49 10000 9.28 191 16:24 29.11.2021
5163 Clouds 17 1010 49 10000 9.47 183 14:47 29.11.2021
5164 Clouds 18 1010 48 10000 9.83 176 14:23 29.11.2021
5165 Clouds 19 1010 46 10000 10.56 193 13:23 29.11.2021
5166 Clouds 19 1010 45 10000 11.07 197 12:20 29.11.2021
5167 Clouds 19 1010 45 10000 11.07 197 11:30 29.11.2021
5168 Clouds 19 1012 44 10000 9.44 192 09:59 29.11.2021
5169 Clouds 5 1015 96 8000 0.51 0 07:47 29.11.2021
5170 Clear 3 1016 100 10000 0 0 05:52 29.11.2021
5171 Clear 5 1016 93 10000 0 0 01:30 29.11.2021
5172 Clear 7 1015 83 10000 2.37 177 23:59 28.11.2021
5173 Clear 7 1015 90 10000 1.54 0 23:40 28.11.2021
5174 Clear 6 1015 90 10000 0.51 0 22:20 28.11.2021
5175 Clear 8 1015 86 10000 1.03 0 21:39 28.11.2021
5176 Clear 9 1015 81 10000 0.51 0 20:44 28.11.2021
5177 Clear 12 1014 67 10000 2.45 173 19:53 28.11.2021
5178 Clear 11 1014 71 10000 2.06 230 18:40 28.11.2021
5179 Clear 11 1014 71 10000 2.06 230 18:22 28.11.2021
5180 Clouds 14 1013 58 10000 2.06 220 17:45 28.11.2021
5181 Clouds 14 1012 62 10000 4.63 240 16:48 28.11.2021
5182 Clouds 14 1012 62 10000 4.63 240 16:28 28.11.2021
5183 Clouds 15 1012 61 10000 3.07 232 15:50 28.11.2021
5184 Clouds 16 1011 54 10000 5.66 242 14:56 28.11.2021
5185 Clouds 17 1012 61 10000 5.66 260 14:28 28.11.2021
5186 Clouds 17 1012 61 10000 5.66 260 14:28 28.11.2021
5187 Clouds 16 1011 53 10000 7.96 249 12:54 28.11.2021
5188 Clouds 17 1010 53 10000 8.48 244 11:51 28.11.2021
5189 Clouds 15 1012 72 10000 2.57 160 10:37 28.11.2021
5190 Clouds 13 1012 71 9550 8.5 208 09:56 28.11.2021
5191 Clouds 13 1013 81 10000 3.09 0 09:36 28.11.2021
5192 Clouds 9 1014 90 10000 1.89 152 00:53 28.11.2021
5193 Clouds 10 1014 92 10000 1.78 162 22:58 27.11.2021
5194 Clouds 11 1015 84 10000 2.57 0 20:28 27.11.2021
5195 Clouds 12 1015 86 10000 4.12 200 18:44 27.11.2021
5196 Clouds 12 1016 83 10000 2.57 240 16:19 27.11.2021
5197 Clouds 12 1015 84 10000 1.54 0 15:32 27.11.2021
5198 Clouds 11 1016 87 10000 5.14 190 13:40 27.11.2021
5199 Rain 10 1017 90 6000 6.17 220 12:27 27.11.2021
5200 Clouds 14 1016 64 10000 4.63 190 10:30 27.11.2021
5201 Rain 14 1017 62 10000 2.57 0 09:25 27.11.2021
5202 Clouds 13 1016 66 10000 1.54 130 07:43 27.11.2021
5203 Clouds 12 1015 71 10000 3.09 160 04:53 27.11.2021
5204 Clouds 11 1016 70 10000 2.06 220 00:26 27.11.2021
5205 Clouds 7 1016 79 10000 2.38 128 22:52 26.11.2021
5206 Clouds 10 1016 75 10000 1.54 0 22:24 26.11.2021
5207 Clouds 10 1016 78 10000 2.06 100 21:34 26.11.2021
5208 Clouds 10 1017 70 10000 4.63 80 20:42 26.11.2021
5209 Clouds 10 1017 73 10000 3.09 60 19:56 26.11.2021
5210 Clouds 10 1017 70 10000 2.06 0 19:27 26.11.2021
5211 Clouds 9 1017 77 10000 2.31 114 17:54 26.11.2021
5212 Clouds 9 1018 73 10000 3.09 130 17:21 26.11.2021
5213 Clouds 12 1017 64 10000 2.57 150 15:46 26.11.2021
5214 Clouds 11 1018 66 10000 0.45 144 13:35 26.11.2021
5215 Clear 11 1017 71 10000 2.24 182 11:58 26.11.2021
5216 Clouds 9 1020 70 10000 1.54 190 10:37 26.11.2021
5217 Clouds 8 1020 73 10000 0.51 0 08:57 26.11.2021
5218 Clouds 8 1020 74 10000 0.45 199 08:21 26.11.2021
5219 Clouds 7 1020 81 10000 1.03 0 07:25 26.11.2021
5220 Clouds 6 1020 84 10000 0 0 06:26 26.11.2021
5221 Clear 5 1021 84 10000 1.16 108 03:57 26.11.2021
5222 Clear 6 1021 83 10000 1.43 97 01:55 26.11.2021
5223 Clouds 6 1020 76 10000 0.89 215 22:48 25.11.2021
5224 Clouds 7 1020 76 10000 0.45 200 21:26 25.11.2021
5225 Clouds 7 1020 76 10000 2.06 100 20:27 25.11.2021
5226 Clouds 7 1019 73 10000 3.09 70 18:47 25.11.2021
5227 Clouds 7 1019 73 10000 3.6 70 17:47 25.11.2021
5228 Clouds 7 1019 73 10000 3.6 70 17:25 25.11.2021
5229 Clouds 8 1019 71 10000 2.57 90 16:33 25.11.2021
5230 Clouds 8 1019 77 10000 1.98 102 14:59 25.11.2021
5231 Clouds 8 1019 67 10000 0.45 325 13:37 25.11.2021
5232 Clouds 8 1019 66 10000 2.57 70 12:25 25.11.2021
5233 Clouds 8 1019 67 10000 3.6 70 11:50 25.11.2021
5234 Clouds 6 1020 76 10000 4.12 90 09:28 25.11.2021
5235 Clouds 5 1020 84 10000 3.6 80 06:18 25.11.2021
5236 Clouds 6 1019 84 10000 0.45 297 02:49 25.11.2021
5237 Clouds 6 1017 88 10000 3.1 54 22:57 24.11.2021
5238 Clouds 6 1018 84 10000 1.34 47 22:24 24.11.2021
5239 Rain 6 1018 84 10000 1.34 39 21:37 24.11.2021
5240 Clouds 6 1017 88 10000 0.89 14 20:52 24.11.2021
5241 Rain 7 1017 88 10000 0.45 74 20:19 24.11.2021
5242 Clouds 7 1017 86 10000 4.47 79 18:31 24.11.2021
5243 Clouds 7 1017 87 10000 0.45 58 17:58 24.11.2021
5244 Rain 7 1018 85 10000 2.68 63 15:47 24.11.2021
5245 Rain 8 1016 88 10000 0.89 98 14:53 24.11.2021
5246 Rain 8 1018 84 10000 0.45 71 14:20 24.11.2021
5247 Rain 8 1018 85 10000 1.34 11 12:47 24.11.2021
5248 Rain 9 1018 80 10000 2.24 337 11:21 24.11.2021
5249 Rain 9 1018 82 10000 2.24 332 10:49 24.11.2021
5250 Clouds 9 1018 81 10000 2.24 14 10:23 24.11.2021
5251 Clouds 9 1017 89 10000 0.89 313 07:55 24.11.2021
5252 Clouds 9 1016 92 10000 0.89 351 06:55 24.11.2021
5253 Clouds 9 1017 94 10000 1.34 266 03:51 24.11.2021
5254 Rain 10 1017 92 10000 0.89 253 00:52 24.11.2021
5255 Rain 10 1017 91 10000 0.45 218 22:40 23.11.2021
5256 Rain 10 1017 91 10000 1.54 220 22:20 23.11.2021
5257 Rain 10 1017 88 10000 1.54 250 21:44 23.11.2021
5258 Rain 10 1017 88 10000 1.54 250 21:44 23.11.2021
5259 Rain 12 1017 69 10000 0.45 245 19:43 23.11.2021
5260 Rain 11 1017 66 10000 1.34 226 18:43 23.11.2021
5261 Clouds 12 1017 65 10000 0.45 163 18:21 23.11.2021
5262 Clouds 10 1017 59 10000 1.73 230 16:58 23.11.2021
5263 Clouds 12 1018 61 10000 0 0 16:34 23.11.2021
5264 Clouds 14 1017 55 10000 0.45 171 15:22 23.11.2021
5265 Clouds 14 1017 54 10000 0.45 206 14:26 23.11.2021
5266 Haze 13 1019 56 3500 1.03 0 11:43 23.11.2021
5267 Haze 10 1020 64 3200 0.51 0 10:19 23.11.2021
5268 Mist 8 1021 72 4500 1.03 0 09:18 23.11.2021
5269 Mist 4 1021 84 4000 0.89 170 06:45 23.11.2021
5270 Clouds 4 1021 85 6000 0.51 0 03:54 23.11.2021
5271 Clouds 8 1020 72 10000 1.11 159 02:57 23.11.2021
5272 Clear 5 1021 82 6000 1.03 0 23:21 22.11.2021
5273 Clear 0 1021 67 10000 1.12 182 22:52 22.11.2021
5274 Clear 5 1022 82 6000 0.45 201 22:27 22.11.2021
5275 Clear 6 1021 77 7000 0 0 21:41 22.11.2021
5276 Clear 3 1021 61 10000 1.49 144 20:52 22.11.2021
5277 Clear 10 1020 61 10000 2.24 186 19:57 22.11.2021
5278 Clear 6 1021 74 7000 0.45 153 19:19 22.11.2021
5279 Clear 5 1021 72 10000 0 0 18:39 22.11.2021
5280 Clear 8 1020 67 10000 1.54 90 17:43 22.11.2021
5281 Clear 10 1020 58 10000 2.06 220 16:19 22.11.2021
5282 Clear 14 1020 48 10000 0.89 300 14:18 22.11.2021
5283 Clear 13 1020 51 10000 0.45 128 12:18 22.11.2021
5284 Clear 10 1021 58 10000 1.34 225 10:43 22.11.2021
5285 Clear 7 1022 68 10000 0.45 148 09:43 22.11.2021
5286 Clear 4 1022 81 6000 0.45 181 08:40 22.11.2021
5287 Mist 0 1021 90 4000 0 0 06:22 22.11.2021
5288 Clear 2 1020 84 10000 0 0 23:30 21.11.2021
5289 Clear 5 1019 76 10000 0.45 132 22:50 21.11.2021
5290 Clear 5 1019 74 10000 0.92 148 21:57 21.11.2021
5291 Clear 4 1019 77 10000 0.51 0 20:42 21.11.2021
5292 Clear 7 1019 67 10000 0.45 171 19:58 21.11.2021
5293 Clear 6 1019 68 10000 1.03 0 18:25 21.11.2021
5294 Clear 7 1018 64 10000 1.03 0 17:39 21.11.2021
5295 Clear 10 1017 56 10000 1.39 116 15:53 21.11.2021
5296 Clear 12 1017 44 10000 1.03 0 14:45 21.11.2021
5297 Clear 12 1018 46 10000 1.03 0 13:47 21.11.2021
5298 Clear 11 1018 48 10000 0.45 29 12:37 21.11.2021
5299 Clear 10 1018 53 10000 0.45 91 11:54 21.11.2021
5300 Clear 10 1019 51 10000 1.03 0 11:35 21.11.2021
5301 Clear 9 1019 56 10000 1.34 82 10:19 21.11.2021
5302 Clear 4 1020 77 10000 1.03 0 08:45 21.11.2021
5303 Clear 4 1020 78 10000 1.03 0 08:25 21.11.2021
5304 Mist 3 1020 85 10000 0 0 07:48 21.11.2021
5305 Clear 3 1019 81 10000 1.28 66 05:55 21.11.2021
5306 Clear 0 1019 89 6000 1.03 340 05:25 21.11.2021
5307 Clear 1 1018 86 10000 0.51 0 03:19 21.11.2021
5308 Clear 2 1018 85 10000 1.54 80 02:52 21.11.2021
5309 Clouds 3 1018 80 10000 1.69 31 00:59 21.11.2021
5310 Clouds 3 1018 76 10000 1.22 48 23:56 20.11.2021
5311 Clouds 2 1018 81 10000 0.51 0 21:49 20.11.2021
5312 Clouds 2 1018 81 10000 0.51 0 21:28 20.11.2021
5313 Clouds 5 1017 69 10000 0.45 337 19:22 20.11.2021
5314 Clouds 5 1017 65 10000 0.89 31 18:45 20.11.2021
5315 Clouds 6 1017 65 10000 2.06 360 18:19 20.11.2021
5316 Clouds 7 1016 68 10000 0.45 325 16:59 20.11.2021
5317 Clouds 9 1015 55 10000 0.89 319 14:48 20.11.2021
5318 Clouds 9 1015 54 10000 2.24 318 14:27 20.11.2021
5319 Clouds 9 1015 54 10000 2.06 10 13:32 20.11.2021
5320 Clouds 9 1015 58 10000 0.45 331 11:20 20.11.2021
5321 Clouds 7 1015 67 10000 2.24 352 09:53 20.11.2021
5322 Clouds 6 1016 68 10000 1.34 307 08:25 20.11.2021
5323 Clouds 5 1015 77 10000 3.6 10 05:29 20.11.2021
5324 Clouds 6 1015 78 10000 1.34 323 04:51 20.11.2021
5325 Clouds 5 1015 78 10000 0.89 316 03:24 20.11.2021
5326 Clouds 6 1016 80 10000 0.89 333 00:41 20.11.2021
5327 Clouds 6 1016 82 10000 0.45 335 23:43 19.11.2021
5328 Clouds 6 1016 82 10000 0.89 339 22:52 19.11.2021
5329 Clouds 6 1016 80 10000 2.57 360 21:21 19.11.2021
5330 Clouds 6 1016 86 10000 0.89 325 20:37 19.11.2021
5331 Clouds 6 1016 86 10000 0.89 325 20:37 19.11.2021
5332 Clouds 6 1015 87 10000 2.68 339 19:56 19.11.2021
5333 Clouds 6 1016 86 10000 0.45 337 19:27 19.11.2021
5334 Clouds 6 1016 88 10000 0.45 343 18:43 19.11.2021
5335 Clouds 6 1017 89 10000 2.06 220 17:37 19.11.2021
5336 Clouds 6 1015 91 10000 2.36 310 15:58 19.11.2021
5337 Rain 7 1017 81 7000 4.12 270 13:57 19.11.2021
5338 Clouds 8 1019 71 6000 1.03 0 10:34 19.11.2021
5339 Mist 6 1020 81 6000 2.06 250 09:48 19.11.2021
5340 Mist 5 1020 84 2500 0 0 08:32 19.11.2021
5341 Clouds 5 1017 84 10000 0.89 274 04:54 19.11.2021
5342 Clear 3 1019 88 10000 0.51 0 02:43 19.11.2021
5343 Clouds 8 1017 74 10000 0.71 311 23:52 18.11.2021
5344 Clouds 8 1018 74 10000 0.87 300 22:35 18.11.2021
5345 Clouds 10 1018 68 10000 0.77 287 20:56 18.11.2021
5346 Clear 7 1019 77 10000 0.51 0 20:32 18.11.2021
5347 Clouds 10 1018 68 10000 0.65 279 19:58 18.11.2021
5348 Clear 8 1019 72 10000 0 0 19:35 18.11.2021
5349 Clear 9 1019 67 10000 2.06 140 18:34 18.11.2021
5350 Clear 11 1018 62 10000 0.88 249 17:51 18.11.2021
5351 Clear 12 1019 56 10000 1.03 0 16:45 18.11.2021
5352 Clear 12 1018 58 10000 0.9 279 15:51 18.11.2021
5353 Clear 15 1019 45 10000 0.89 265 14:18 18.11.2021
5354 Clouds 14 1019 46 6000 0.89 284 12:34 18.11.2021
5355 Clouds 13 1020 49 6000 0.45 285 11:43 18.11.2021
5356 Clouds 12 1020 49 6000 1.03 0 11:25 18.11.2021
5357 Clouds 11 1021 50 6000 0.51 0 10:19 18.11.2021
5358 Mist 4 1022 81 4000 0 0 07:42 18.11.2021
5359 Mist 3 1022 86 6000 0 0 06:20 18.11.2021
5360 Mist 3 1021 85 6000 0 0 05:41 18.11.2021
5361 Clear 3 1022 84 10000 0 0 01:25 18.11.2021
5362 Clear 3 1022 81 10000 0.45 136 23:27 17.11.2021
5363 Clear 3 1022 81 10000 0.89 154 22:39 17.11.2021
5364 Clouds 7 1021 69 10000 0.62 157 21:55 17.11.2021
5365 Clear 4 1022 79 10000 0 0 21:35 17.11.2021
5366 Clear 6 1021 70 10000 0.45 153 19:30 17.11.2021
5367 Clear 9 1020 59 10000 0 0 17:35 17.11.2021
5368 Clouds 12 1019 54 10000 0.19 358 15:54 17.11.2021
5369 Clouds 12 1019 51 10000 1.09 222 12:56 17.11.2021
5370 Clear 12 1020 47 10000 1.03 0 12:36 17.11.2021
5371 Clouds 11 1020 56 10000 1.21 194 10:52 17.11.2021
5372 Clouds 7 1022 63 8000 0.45 94 09:37 17.11.2021
5373 Clear 2 1022 83 10000 0.51 0 07:46 17.11.2021
5374 Clouds 5 1021 79 10000 1.14 102 06:53 17.11.2021
5375 Clear 1 1020 84 10000 0 0 02:48 17.11.2021
5376 Clouds 5 1020 75 10000 1.41 87 23:58 16.11.2021
5377 Clear 3 1021 79 10000 0 0 22:25 16.11.2021
5378 Clear 4 1021 75 10000 0.89 18 20:19 16.11.2021
5379 Clear 6 1021 67 10000 0.89 91 19:37 16.11.2021
5380 Clear 7 1021 60 10000 0.89 88 18:43 16.11.2021
5381 Clear 8 1020 56 10000 1.99 86 17:56 16.11.2021
5382 Clear 9 1021 53 10000 4.12 60 16:59 16.11.2021
5383 Clear 9 1021 53 10000 1.34 79 16:19 16.11.2021
5384 Clear 11 1021 49 10000 0.89 72 15:42 16.11.2021
5385 Clear 12 1021 48 10000 2.68 86 13:42 16.11.2021
5386 Clear 11 1024 50 10000 4.12 90 10:22 16.11.2021
5387 Clear 9 1024 57 10000 3.6 90 09:39 16.11.2021
5388 Mist 4 1024 79 10000 2.24 82 07:41 16.11.2021
5389 Mist 2 1024 86 7000 0 0 06:43 16.11.2021
5390 Clear 4 1022 72 10000 0 0 23:26 15.11.2021
5391 Clear 5 1022 69 10000 0 0 22:41 15.11.2021
5392 Clear 8 1021 54 10000 2.43 54 21:57 15.11.2021
5393 Clear 8 1021 52 10000 2.43 54 21:31 15.11.2021
5394 Clear 9 1020 52 10000 2.46 48 20:35 15.11.2021
5395 Clear 8 1021 53 10000 0.45 27 19:18 15.11.2021
5396 Clear 11 1020 43 10000 0.45 283 17:31 15.11.2021
5397 Clear 14 1019 28 10000 0 0 15:50 15.11.2021
5398 Clear 14 1019 28 10000 0 0 15:32 15.11.2021
5399 Clear 16 1019 26 10000 0.51 0 14:18 15.11.2021
5400 Clouds 15 1019 35 8000 0.45 316 12:21 15.11.2021
5401 Clouds 11 1020 51 10000 0.45 300 09:59 15.11.2021
5402 Haze 9 1021 55 7000 0.51 0 09:19 15.11.2021
5403 Mist 4 1022 79 4000 1.03 190 06:54 15.11.2021
5404 Clouds 3 1022 77 8000 0 0 00:37 15.11.2021
5405 Clear 5 1022 76 10000 1.03 80 22:44 14.11.2021
5406 Clear 4 1022 71 10000 0 0 21:18 14.11.2021
5407 Clear 7 1022 64 10000 0 0 19:18 14.11.2021
5408 Clouds 10 1021 50 10000 0.37 106 18:54 14.11.2021
5409 Clear 7 1022 60 10000 0 0 18:36 14.11.2021
5410 Clear 8 1022 60 10000 0 0 18:18 14.11.2021
5411 Clear 8 1022 56 10000 0 0 17:58 14.11.2021
5412 Clear 8 1022 56 10000 0 0 17:39 14.11.2021
5413 Clear 8 1022 57 10000 0 0 17:21 14.11.2021
5414 Clouds 10 1021 48 10000 0.19 15 16:57 14.11.2021
5415 Clear 10 1021 50 10000 0 0 16:39 14.11.2021
5416 Clear 10 1021 50 10000 0 0 16:18 14.11.2021
5417 Clear 13 1021 40 10000 0 0 15:19 14.11.2021
5418 Clear 14 1021 35 10000 0.51 0 14:45 14.11.2021
5419 Clear 14 1021 35 10000 0.51 0 14:20 14.11.2021
5420 Clouds 14 1021 37 10000 0.28 206 13:51 14.11.2021
5421 Clear 13 1022 36 10000 0 0 13:27 14.11.2021
5422 Clear 13 1022 39 10000 1.54 250 12:22 14.11.2021
5423 Clouds 11 1022 49 10000 0.49 192 10:58 14.11.2021
5424 Clear 8 1024 49 10000 0 0 10:36 14.11.2021
5425 Clear 6 1024 61 10000 0 0 09:26 14.11.2021
5426 Clouds 3 1022 25 10000 0.47 139 08:51 14.11.2021
5427 Clear 3 1023 78 10000 0.51 260 04:46 14.11.2021
5428 Clear 3 1024 75 10000 0 0 22:31 13.11.2021
5429 Clouds 6 1023 65 10000 0.84 96 21:59 13.11.2021
5430 Clear 4 1024 73 10000 0.51 0 21:32 13.11.2021
5431 Clear 4 1024 71 10000 0 0 20:43 13.11.2021
5432 Clouds 8 1023 56 10000 0.92 107 18:54 13.11.2021
5433 Clear 6 1023 62 10000 0 0 18:32 13.11.2021
5434 Clear 7 1023 57 10000 0.45 199 17:34 13.11.2021
5435 Clear 11 1022 41 10000 2.06 270 15:45 13.11.2021
5436 Clear 13 1022 37 10000 1.03 0 14:43 13.11.2021
5437 Clear 12 1023 35 10000 0 0 13:47 13.11.2021
5438 Clear 11 1023 39 10000 1.03 0 12:43 13.11.2021
5439 Clear 9 1024 43 10000 1.54 90 11:46 13.11.2021
5440 Clear 9 1024 44 10000 1.54 90 11:21 13.11.2021
5441 Clear 8 1025 47 10000 0.51 0 10:33 13.11.2021
5442 Clouds 5 1025 54 8000 0 0 09:45 13.11.2021
5443 Clouds 5 1025 54 8000 0 0 09:22 13.11.2021
5444 Mist 2 1026 74 6000 0 0 08:48 13.11.2021
5445 Mist -2 1025 87 10000 0 0 07:47 13.11.2021
5446 Clear -1 1024 87 10000 0.45 175 04:42 13.11.2021
5447 Clear 2 1024 72 10000 0.93 104 02:59 13.11.2021
5448 Clear 1 1024 79 10000 0 0 23:35 12.11.2021
5449 Clear 4 1024 66 10000 0.45 139 21:56 12.11.2021
5450 Clear 2 1024 74 10000 0 0 20:46 12.11.2021
5451 Clear 3 1024 72 10000 0 0 19:32 12.11.2021
5452 Clear 6 1024 63 10000 0.98 107 18:57 12.11.2021
5453 Clear 5 1024 62 10000 0.51 0 18:18 12.11.2021
5454 Clear 5 1024 62 10000 0.51 0 18:18 12.11.2021
5455 Clear 9 1023 52 10000 0.44 171 15:55 12.11.2021
5456 Clear 10 1023 42 10000 2.06 250 13:28 12.11.2021
5457 Clear 7 1023 49 10000 0.45 139 11:24 12.11.2021
5458 Clear 6 1024 59 10000 0.85 95 10:20 12.11.2021
5459 Clear 6 1024 59 10000 0.85 95 10:20 12.11.2021
5460 Clear 4 1025 68 10000 0.66 118 08:55 12.11.2021
5461 Clear 1 1025 77 10000 0.89 161 06:37 12.11.2021
5462 Clear 1 1026 73 10000 1.46 76 00:21 12.11.2021
5463 Clear 2 1026 70 10000 1.53 81 23:27 11.11.2021
5464 Clear 2 1026 68 10000 1.55 84 22:21 11.11.2021
5465 Clear 2 1026 67 10000 1.65 88 21:26 11.11.2021
5466 Clear 3 1026 63 10000 1.53 97 19:56 11.11.2021
5467 Clear 4 1026 56 10000 0.89 115 18:27 11.11.2021
5468 Clear 4 1026 56 10000 0.89 115 18:27 11.11.2021
5469 Clear 5 1026 52 10000 1.34 89 17:41 11.11.2021
5470 Clear 7 1025 47 10000 0.89 108 15:41 11.11.2021
5471 Clear 7 1026 49 10000 0.45 89 14:39 11.11.2021
5472 Clear 8 1026 50 10000 1.82 80 14:21 11.11.2021
5473 Clear 7 1026 51 10000 1.34 63 13:35 11.11.2021
5474 Clear 7 1026 49 10000 0.45 196 12:27 11.11.2021
5475 Clear 5 1028 56 10000 2.24 18 09:58 11.11.2021
5476 Clear 5 1029 58 10000 2.24 103 09:23 11.11.2021
5477 Clear 3 1029 67 10000 0.89 18 07:33 11.11.2021
5478 Clear 3 1029 72 10000 0.45 27 00:40 11.11.2021
5479 Clear 3 1029 66 10000 0.45 82 22:46 10.11.2021
5480 Clear 4 1028 64 10000 2.13 43 21:54 10.11.2021
5481 Clear 5 1028 60 10000 0.89 30 20:56 10.11.2021
5482 Clear 5 1028 58 10000 2.72 29 20:25 10.11.2021
5483 Clear 5 1028 56 10000 1.34 1 19:45 10.11.2021
5484 Clear 7 1027 50 10000 0.89 39 17:28 10.11.2021
5485 Clear 8 1026 47 10000 3.13 13 16:21 10.11.2021
5486 Clear 10 1025 49 10000 2.68 26 14:25 10.11.2021
5487 Clear 10 1025 49 10000 0.89 326 13:38 10.11.2021
5488 Clouds 10 1025 48 10000 4.02 352 12:31 10.11.2021
5489 Clouds 8 1029 57 10000 4.02 317 09:29 10.11.2021
5490 Clouds 8 1028 59 10000 3.58 353 08:42 10.11.2021
5491 Clouds 8 1028 59 10000 3.58 353 08:42 10.11.2021
5492 Clouds 7 1025 73 10000 2.68 314 06:50 10.11.2021
5493 Clouds 6 1024 79 10000 0.89 286 05:58 10.11.2021
5494 Clouds 6 1022 77 10000 4.02 288 04:58 10.11.2021
5495 Clouds 12 1019 67 10000 2.24 285 22:41 09.11.2021
5496 Clouds 15 1017 55 10000 0.45 246 20:51 09.11.2021
5497 Clouds 16 1017 50 10000 1.61 247 19:51 09.11.2021
5498 Clouds 15 1017 55 10000 1.85 239 18:58 09.11.2021
5499 Clear 16 1020 49 10000 2.06 250 17:22 09.11.2021
5500 Clear 20 1021 33 10000 4.12 270 15:37 09.11.2021
5501 Clear 21 1020 40 10000 0.45 312 13:55 09.11.2021
5502 Clear 20 1020 43 10000 0.45 282 12:49 09.11.2021
5503 Clear 19 1020 44 7000 2.06 300 11:33 09.11.2021
5504 Clouds 18 1021 49 7000 1.54 270 10:30 09.11.2021
5505 Clear 16 1021 56 10000 0 0 09:22 09.11.2021
5506 Clear 15 1019 60 10000 1.03 243 07:55 09.11.2021
5507 Clear 9 1020 83 10000 0 0 03:45 09.11.2021
5508 Clouds 13 1017 64 10000 0.36 237 01:58 09.11.2021
5509 Clear 10 1019 77 10000 0 0 01:36 09.11.2021
5510 Clear 10 1020 76 10000 0.89 174 23:34 08.11.2021
5511 Clear 10 1020 75 10000 0.45 153 22:47 08.11.2021
5512 Clear 11 1020 74 10000 0 0 21:45 08.11.2021
5513 Clear 12 1020 69 10000 0 0 20:36 08.11.2021
5514 Clear 13 1019 64 10000 0.45 144 19:43 08.11.2021
5515 Clouds 17 1016 52 10000 0.45 195 17:48 08.11.2021
5516 Clear 20 1016 43 10000 1.97 101 15:58 08.11.2021
5517 Clear 23 1018 40 10000 1.74 108 14:57 08.11.2021
5518 Clear 22 1020 34 10000 0 0 14:34 08.11.2021
5519 Clear 22 1019 37 10000 0 0 13:20 08.11.2021
5520 Clear 20 1016 46 10000 0.45 278 11:55 08.11.2021
5521 Clear 18 1020 47 10000 0.45 292 10:50 08.11.2021
5522 Clear 16 1021 56 10000 0.45 81 09:31 08.11.2021
5523 Clear 16 1018 58 10000 1.37 103 08:52 08.11.2021
5524 Clouds 13 1018 64 10000 0.45 146 06:56 08.11.2021
5525 Clouds 13 1018 64 10000 0.45 146 06:56 08.11.2021
5526 Clear 9 1021 81 10000 0 0 03:36 08.11.2021
5527 Clear 9 1021 82 10000 0.45 145 01:35 08.11.2021
5528 Clear 10 1021 77 10000 0 0 23:33 07.11.2021
5529 Clear 8 1023 86 10000 0 0 21:31 07.11.2021
5530 Clear 9 1023 81 10000 0.51 0 20:36 07.11.2021
5531 Clear 14 1021 67 10000 0 0 19:19 07.11.2021
5532 Clear 15 1021 58 10000 0 0 17:44 07.11.2021
5533 Clear 17 1021 51 10000 2.06 260 16:42 07.11.2021
5534 Clear 20 1022 35 10000 0 0 15:41 07.11.2021
5535 Clear 21 1021 33 10000 0.45 95 14:28 07.11.2021
5536 Clouds 21 1019 38 10000 1.34 84 12:55 07.11.2021
5537 Clear 20 1023 39 10000 1.34 325 11:42 07.11.2021
5538 Clear 16 1024 52 10000 1.54 80 09:21 07.11.2021
5539 Mist 8 1024 80 4000 0 0 03:40 07.11.2021
5540 Mist 9 1023 86 4000 0 0 02:25 07.11.2021
5541 Clouds 13 1022 73 10000 1.83 32 22:56 06.11.2021
5542 Clouds 15 1022 65 10000 1.69 34 21:59 06.11.2021
5543 Clear 11 1024 80 10000 0 0 21:27 06.11.2021
5544 Clear 12 1024 77 10000 0.51 0 20:30 06.11.2021
5545 Clouds 16 1022 63 10000 0.91 12 17:50 06.11.2021
5546 Clear 17 1023 54 10000 0.45 245 16:38 06.11.2021
5547 Clear 20 1022 37 10000 1.03 0 14:31 06.11.2021
5548 Clear 20 1022 42 10000 1.03 0 13:37 06.11.2021
5549 Clear 16 1024 57 6000 0.89 277 11:24 06.11.2021
5550 Mist 13 1025 71 6000 0 0 09:21 06.11.2021
5551 Clear 10 1021 81 10000 0.69 337 04:55 06.11.2021
5552 Clear 11 1021 79 10000 0.82 342 00:58 06.11.2021
5553 Clear 12 1021 77 10000 0.61 341 23:33 05.11.2021
5554 Clear 9 1023 87 10000 0 0 22:33 05.11.2021
5555 Clear 11 1023 78 10000 0 0 20:41 05.11.2021
5556 Clear 11 1023 78 10000 0 0 20:18 05.11.2021
5557 Clouds 14 1021 70 10000 0.89 302 18:59 05.11.2021
5558 Clear 12 1023 74 10000 0 0 18:38 05.11.2021
5559 Clouds 16 1020 62 10000 0.95 299 16:50 05.11.2021
5560 Clear 19 1022 46 10000 0.45 307 14:41 05.11.2021
5561 Clear 18 1020 56 10000 0.45 299 12:50 05.11.2021
5562 Haze 15 1024 68 5000 0.45 301 09:59 05.11.2021
5563 Mist 12 1025 73 9000 2.06 90 08:38 05.11.2021
5564 Fog 7 1025 92 650 0 0 06:50 05.11.2021
5565 Fog 7 1025 90 1200 0 0 04:42 05.11.2021
5566 Mist 8 1025 92 3000 0 0 02:22 05.11.2021
5567 Clear 9 1024 92 10000 0.45 152 00:30 05.11.2021
5568 Clear 12 1022 83 10000 0.92 77 22:56 04.11.2021
5569 Clear 10 1025 88 10000 0 0 22:18 04.11.2021
5570 Clear 11 1025 88 10000 0 0 21:29 04.11.2021
5571 Clear 12 1024 85 10000 0.89 172 20:29 04.11.2021
5572 Clear 15 1022 72 10000 0.89 144 19:50 04.11.2021
5573 Clear 13 1024 79 10000 0 0 19:28 04.11.2021
5574 Clear 14 1024 76 10000 0.45 146 18:30 04.11.2021
5575 Clear 15 1024 70 10000 0 0 17:27 04.11.2021
5576 Clouds 17 1023 57 10000 0 0 16:23 04.11.2021
5577 Clouds 17 1023 57 10000 0 0 16:23 04.11.2021
5578 Clouds 20 1024 47 10000 2.57 310 14:19 04.11.2021
5579 Clear 18 1023 72 10000 0.45 63 10:52 04.11.2021
5580 Mist 11 1027 93 7000 2.57 60 08:48 04.11.2021
5581 Mist 11 1027 93 7000 2.57 60 08:26 04.11.2021
5582 Mist 9 1026 100 6000 0 0 07:33 04.11.2021
5583 Clouds 10 1023 93 7000 0 0 23:43 03.11.2021
5584 Clear 11 1023 95 10000 0 0 22:49 03.11.2021
5585 Clear 11 1023 94 10000 0.89 156 21:45 03.11.2021
5586 Clear 13 1022 89 10000 1.03 80 20:45 03.11.2021
5587 Clear 13 1022 88 10000 1.03 80 20:27 03.11.2021
5588 Clear 13 1022 88 10000 0.51 0 19:38 03.11.2021
5589 Clouds 14 1021 83 10000 2.06 100 18:33 03.11.2021
5590 Clouds 15 1019 80 10000 0.66 103 17:56 03.11.2021
5591 Clouds 16 1020 76 10000 1.03 140 16:49 03.11.2021
5592 Clouds 14 1021 73 10000 1.46 283 15:51 03.11.2021
5593 Clouds 17 1020 69 10000 0 0 15:31 03.11.2021
5594 Clouds 18 1019 68 10000 0.45 237 13:43 03.11.2021
5595 Clouds 17 1018 76 10000 2.57 250 11:38 03.11.2021
5596 Clouds 16 1016 81 10000 1.34 291 10:51 03.11.2021
5597 Clouds 14 1019 88 10000 0.89 238 09:48 03.11.2021
5598 Clouds 14 1019 89 10000 0.45 266 09:27 03.11.2021
5599 Clouds 13 1019 94 10000 0 0 08:20 03.11.2021
5600 Clouds 13 1018 96 8000 0 0 07:38 03.11.2021
5601 Clouds 12 1016 94 10000 0.89 198 04:23 03.11.2021
5602 Rain 13 1015 88 10000 1.54 240 01:32 03.11.2021
5603 Clouds 13 1014 80 10000 0.89 169 23:32 02.11.2021
5604 Rain 14 1013 77 10000 2.24 164 22:20 02.11.2021
5605 Clouds 13 1013 81 10000 1.34 177 20:48 02.11.2021
5606 Clouds 13 1013 82 10000 1.34 162 20:23 02.11.2021
5607 Clouds 13 1013 82 10000 2.24 183 19:40 02.11.2021
5608 Clouds 14 1013 80 10000 1.34 180 18:36 02.11.2021
5609 Clouds 15 1011 76 10000 1.34 186 17:56 02.11.2021
5610 Clear 15 1013 78 10000 0.45 179 17:31 02.11.2021
5611 Clouds 16 1012 68 10000 0.45 163 16:26 02.11.2021
5612 Clouds 18 1010 60 10000 2.24 170 14:57 02.11.2021
5613 Clouds 18 1012 60 10000 2.68 186 13:44 02.11.2021
5614 Clouds 18 1012 59 10000 3.13 172 13:25 02.11.2021
5615 Clouds 18 1012 62 10000 0.89 232 12:20 02.11.2021
5616 Clouds 17 1013 67 10000 0.89 205 11:27 02.11.2021
5617 Clouds 16 1011 70 10000 1.34 176 10:50 02.11.2021
5618 Mist 16 1014 74 8000 1.34 158 10:23 02.11.2021
5619 Fog 12 1014 92 300 0.45 97 08:25 02.11.2021
5620 Fog 11 1014 93 300 0 0 06:32 02.11.2021
5621 Mist 11 1014 94 3500 0.51 0 03:32 02.11.2021
5622 Fog 12 1013 89 900 0 0 00:55 02.11.2021
5623 Clouds 12 1014 91 10000 0.51 0 22:25 01.11.2021
5624 Clouds 13 1015 90 10000 1.03 0 20:47 01.11.2021
5625 Clouds 13 1014 90 10000 1.03 120 20:27 01.11.2021
5626 Rain 13 1014 91 10000 0.89 248 19:44 01.11.2021
5627 Clouds 13 1012 82 10000 1.98 231 18:54 01.11.2021
5628 Clouds 13 1013 89 10000 0.89 146 17:59 01.11.2021
5629 Clouds 13 1014 90 10000 0.89 155 17:18 01.11.2021
5630 Rain 13 1013 90 10000 2.68 192 16:33 01.11.2021
5631 Rain 14 1013 88 10000 0.45 221 15:40 01.11.2021
5632 Rain 14 1012 85 10000 2.68 271 15:19 01.11.2021
5633 Clouds 16 1013 69 10000 0.45 314 14:39 01.11.2021
5634 Clouds 16 1013 66 10000 2.57 190 14:19 01.11.2021
5635 Clouds 16 1013 66 10000 2.57 190 14:19 01.11.2021
5636 Clouds 16 1013 66 10000 2.57 190 14:19 01.11.2021
5637 Clouds 18 1012 55 10000 0.89 194 12:53 01.11.2021
5638 Clouds 18 1013 51 10000 3.58 153 11:39 01.11.2021
5639 Clouds 17 1016 55 10000 2.24 171 10:21 01.11.2021
5640 Clouds 13 1017 78 10000 0.45 104 08:23 01.11.2021
5641 Clouds 12 1017 84 10000 1.54 270 07:47 01.11.2021
5642 Rain 9 1017 88 6000 0.51 0 03:55 01.11.2021
5643 Rain 8 1017 89 6000 1.03 0 03:33 01.11.2021
5644 Mist 9 1018 88 3800 0 0 23:52 31.10.2021
5645 Clouds 11 1018 83 10000 2.32 78 20:59 31.10.2021
5646 Clouds 11 1018 83 10000 2.37 78 19:54 31.10.2021
5647 Clouds 10 1020 84 10000 1.03 0 18:43 31.10.2021
5648 Clouds 11 1020 83 10000 1.03 0 18:21 31.10.2021
5649 Clouds 11 1019 79 10000 1.54 220 16:48 31.10.2021
5650 Clouds 11 1020 71 10000 2.06 220 14:53 31.10.2021
5651 Clouds 13 1018 51 10000 2.5 115 12:57 31.10.2021
5652 Clouds 9 1022 87 10000 1.54 310 11:56 31.10.2021
5653 Clouds 8 1022 87 10000 1.54 40 10:48 31.10.2021
5654 Rain 7 1023 79 10000 0.51 0 09:26 31.10.2021
5655 Rain 7 1022 73 10000 1.54 360 08:46 31.10.2021
5656 Clouds 8 1020 68 10000 1.57 68 02:54 31.10.2021
5657 Clear 6 1022 71 10000 1.03 0 23:42 30.10.2021
5658 Clear 8 1022 65 10000 0.45 85 21:36 30.10.2021
5659 Clear 8 1022 65 10000 0 0 21:18 30.10.2021
5660 Clear 10 1021 60 10000 1.34 85 19:23 30.10.2021
5661 Clear 12 1020 51 10000 1.03 60 17:43 30.10.2021
5662 Clear 15 1020 44 10000 2.06 300 15:30 30.10.2021
5663 Clear 15 1019 50 10000 3.33 116 13:56 30.10.2021
5664 Clouds 14 1020 46 10000 0.89 286 13:22 30.10.2021
5665 Clear 13 1020 52 10000 3.12 110 12:57 30.10.2021
5666 Clouds 13 1022 53 10000 1.34 91 11:49 30.10.2021
5667 Clear 11 1022 59 10000 0.45 4 10:34 30.10.2021
5668 Clear 8 1021 74 10000 2.19 78 08:55 30.10.2021
5669 Clear 7 1021 78 10000 0.89 34 07:55 30.10.2021
5670 Clear 3 1022 87 10000 0 0 05:45 30.10.2021
5671 Clear 7 1020 77 10000 0.45 11 01:57 30.10.2021
5672 Clear 8 1021 74 10000 1.98 70 22:54 29.10.2021
5673 Clear 8 1022 68 10000 3.09 100 22:32 29.10.2021
5674 Clear 10 1020 65 10000 2.24 119 20:55 29.10.2021
5675 Clear 10 1021 61 10000 3.13 79 20:31 29.10.2021
5676 Clear 11 1021 55 10000 0.89 87 18:49 29.10.2021
5677 Clear 12 1020 52 10000 1.34 74 17:28 29.10.2021
5678 Clouds 14 1020 47 10000 3.13 91 15:22 29.10.2021
5679 Clouds 14 1020 49 10000 3.13 103 12:29 29.10.2021
5680 Clear 12 1021 55 10000 2.68 88 10:46 29.10.2021
5681 Clear 12 1021 55 10000 2.68 88 10:46 29.10.2021
5682 Clear 10 1021 64 10000 0.89 20 09:27 29.10.2021
5683 Clear 10 1018 68 10000 2.11 50 00:55 29.10.2021
5684 Clear 8 1020 65 10000 0 0 23:47 28.10.2021
5685 Clear 9 1020 59 10000 0.51 0 22:21 28.10.2021
5686 Clouds 12 1019 48 10000 1.81 30 20:57 28.10.2021
5687 Clear 12 1018 48 10000 0.45 332 19:52 28.10.2021
5688 Clear 13 1019 44 10000 0.45 280 18:30 28.10.2021
5689 Clear 15 1019 40 10000 0.45 270 17:20 28.10.2021
5690 Clouds 16 1019 37 10000 0.45 263 16:37 28.10.2021
5691 Clear 17 1020 34 10000 0.89 334 14:40 28.10.2021
5692 Clear 17 1020 34 10000 0.45 252 13:32 28.10.2021
5693 Clear 16 1021 35 10000 1.03 0 12:49 28.10.2021
5694 Clear 14 1021 39 10000 0.45 311 11:26 28.10.2021
5695 Clouds 12 1020 48 10000 1.3 48 09:55 28.10.2021
5696 Clear 9 1023 46 10000 0.51 300 09:35 28.10.2021
5697 Clear 8 1022 57 10000 0 0 08:36 28.10.2021
5698 Clear 5 1022 74 10000 0.51 260 07:40 28.10.2021
5699 Clear 7 1021 63 10000 0.51 0 01:37 28.10.2021
5700 Clear 8 1022 57 10000 0 0 22:47 27.10.2021
5701 Clear 9 1022 53 10000 0 0 21:52 27.10.2021
5702 Clear 9 1022 53 10000 0 0 21:18 27.10.2021
5703 Clear 10 1022 50 10000 0 0 20:40 27.10.2021
5704 Clear 10 1021 47 10000 0 0 19:45 27.10.2021
5705 Clouds 13 1020 43 10000 0.81 297 18:55 27.10.2021
5706 Clouds 14 1020 41 10000 1.11 282 16:55 27.10.2021
5707 Clouds 15 1021 33 10000 1.54 260 16:24 27.10.2021
5708 Clouds 15 1021 33 10000 0 0 15:24 27.10.2021
5709 Clouds 15 1021 31 10000 1.03 0 14:19 27.10.2021
5710 Clouds 13 1022 42 10000 0 0 11:18 27.10.2021
5711 Clear 11 1023 49 10000 0 0 10:36 27.10.2021
5712 Clouds 8 1022 59 10000 0.45 90 08:58 27.10.2021
5713 Clear 3 1023 76 10000 0 0 07:39 27.10.2021
5714 Clear 3 1023 76 10000 0 0 07:39 27.10.2021
5715 Clear 1 1023 80 10000 0 0 05:37 27.10.2021
5716 Clear 3 1023 70 10000 0 0 01:21 27.10.2021
5717 Clear 6 1022 67 10000 1.91 59 00:54 27.10.2021
5718 Clear 6 1022 65 10000 1.89 55 23:52 26.10.2021
5719 Clear 5 1024 64 10000 0.51 0 22:44 26.10.2021
5720 Clear 5 1024 64 10000 0.51 0 22:21 26.10.2021
5721 Clear 6 1023 56 10000 1.03 0 21:32 26.10.2021
5722 Clear 8 1023 48 10000 0.45 84 19:48 26.10.2021
5723 Clear 8 1022 50 10000 0.45 34 18:54 26.10.2021
5724 Clear 10 1022 40 10000 1.34 91 17:45 26.10.2021
5725 Clear 12 1022 36 10000 2.24 11 15:46 26.10.2021
5726 Clear 11 1022 45 10000 2.7 89 12:55 26.10.2021
5727 Clear 8 1024 57 10000 2.24 59 10:54 26.10.2021
5728 Clear 5 1026 65 10000 2.68 39 08:24 26.10.2021
5729 Clear 3 1026 74 10000 0.89 87 07:22 26.10.2021
5730 Clear 5 1026 61 10000 4.47 85 00:19 26.10.2021
5731 Clear 6 1026 59 10000 1.34 95 23:36 25.10.2021
5732 Clear 6 1026 59 10000 2.24 108 22:29 25.10.2021
5733 Clear 7 1026 57 10000 2.68 99 21:42 25.10.2021
5734 Clear 8 1025 54 10000 4.02 103 20:28 25.10.2021
5735 Clear 8 1025 52 10000 2.24 104 19:43 25.10.2021
5736 Clear 8 1025 52 10000 2.68 95 19:22 25.10.2021
5737 Clear 9 1025 47 10000 3.58 96 18:38 25.10.2021
5738 Clear 10 1025 44 10000 3.58 97 17:26 25.10.2021
5739 Clouds 12 1024 44 10000 1.34 73 14:48 25.10.2021
5740 Clouds 12 1025 48 10000 0.89 97 12:33 25.10.2021
5741 Clouds 10 1026 53 10000 3.13 87 10:47 25.10.2021
5742 Clouds 8 1024 65 10000 1.34 337 08:58 25.10.2021
5743 Clouds 6 1025 65 10000 1.54 340 06:28 25.10.2021
5744 Clouds 6 1025 65 10000 1.54 340 06:28 25.10.2021
5745 Clouds 7 1025 65 10000 2.68 348 04:35 25.10.2021
5746 Clouds 9 1021 71 10000 1.34 327 00:52 25.10.2021
5747 Clouds 9 1023 66 10000 0.89 330 00:33 25.10.2021
5748 Clouds 11 1023 62 10000 0.89 325 23:41 24.10.2021
5749 Clouds 11 1022 60 10000 1.34 1 22:38 24.10.2021
5750 Clouds 11 1022 59 10000 0.89 13 22:19 24.10.2021
5751 Clouds 12 1022 58 10000 1.34 343 21:18 24.10.2021
5752 Clouds 12 1022 57 10000 2.24 343 20:34 24.10.2021
5753 Clouds 13 1021 59 10000 1.34 331 19:39 24.10.2021
5754 Clouds 14 1020 61 10000 2.24 291 18:29 24.10.2021
5755 Clouds 15 1018 57 10000 3.13 298 17:44 24.10.2021
5756 Clouds 17 1016 45 10000 1.34 280 15:56 24.10.2021
5757 Clear 19 1018 37 10000 0.89 328 14:41 24.10.2021
5758 Clear 18 1016 44 10000 1.34 248 12:58 24.10.2021
5759 Clear 16 1020 46 10000 0.89 278 11:45 24.10.2021
5760 Clear 16 1020 47 10000 0.89 265 11:25 24.10.2021
5761 Clear 14 1021 48 10000 3.13 276 10:27 24.10.2021
5762 Clouds 11 1017 59 10000 0.45 285 07:51 24.10.2021
5763 Clear 9 1021 57 10000 0 0 01:22 24.10.2021
5764 Clear 9 1021 56 10000 0.51 0 23:48 23.10.2021
5765 Clear 11 1021 54 10000 0 0 22:18 23.10.2021
5766 Clear 9 1022 51 10000 1.03 0 20:37 23.10.2021
5767 Clear 16 1020 36 10000 1.21 278 18:59 23.10.2021
5768 Clear 15 1021 36 10000 2.06 230 18:30 23.10.2021
5769 Clear 18 1019 32 10000 3.09 280 17:43 23.10.2021
5770 Clear 20 1019 27 10000 1.34 292 16:24 23.10.2021
5771 Clear 21 1019 26 10000 0.89 259 14:32 23.10.2021
5772 Clear 7 1021 68 10000 0 0 03:34 23.10.2021
5773 Clear 8 1022 67 10000 0.45 155 00:19 23.10.2021
5774 Clear 9 1022 63 10000 0.45 156 23:18 22.10.2021
5775 Clear 10 1021 36 10000 0.37 215 20:50 22.10.2021
5776 Clear 13 1022 45 10000 0 0 18:45 22.10.2021
5777 Clear 17 1022 35 10000 3.09 260 17:43 22.10.2021
5778 Clear 19 1021 32 10000 0.45 296 15:26 22.10.2021
5779 Clear 21 1020 21 10000 2.13 263 13:54 22.10.2021
5780 Clear 16 1023 35 10000 1.03 0 11:26 22.10.2021
5781 Clear 15 1023 38 10000 0 0 10:41 22.10.2021
5782 Clear 14 1021 43 10000 0.98 208 09:56 22.10.2021
5783 Clear 10 1024 55 10000 0.45 182 08:36 22.10.2021
5784 Clear 6 1023 69 10000 0.45 184 07:23 22.10.2021
5785 Clear 5 1022 69 10000 0 0 03:31 22.10.2021
5786 Clear 10 1021 51 10000 0.89 147 23:57 21.10.2021
5787 Clear 7 1023 58 10000 0 0 23:38 21.10.2021
5788 Clear 8 1023 56 10000 0.45 160 22:21 21.10.2021
5789 Clear 10 1022 49 10000 0 0 20:42 21.10.2021
5790 Clear 10 1022 48 10000 0 0 20:19 21.10.2021
5791 Clear 12 1022 42 10000 0.45 161 19:29 21.10.2021
5792 Clear 13 1022 37 10000 0.45 173 18:52 21.10.2021
5793 Clear 13 1022 37 10000 0 0 18:19 21.10.2021
5794 Clear 16 1022 30 10000 0.89 194 17:39 21.10.2021
5795 Clear 17 1022 30 10000 0 0 16:18 21.10.2021
5796 Clear 18 1022 31 10000 0 0 15:21 21.10.2021
5797 Clear 17 1023 34 10000 1.54 0 14:39 21.10.2021
5798 Clear 16 1024 38 10000 0.45 285 13:20 21.10.2021
5799 Clear 14 1025 43 10000 0.45 315 11:27 21.10.2021
5800 Clear 9 1025 63 10000 1.34 106 08:55 21.10.2021
5801 Clear 4 1026 79 10000 0 0 07:29 21.10.2021
5802 Clear 5 1026 76 10000 0 0 03:49 21.10.2021
5803 Clear 7 1026 66 10000 1.03 0 23:31 20.10.2021
5804 Clear 9 1026 59 10000 2.06 90 22:18 20.10.2021
5805 Clear 9 1026 57 10000 0.89 94 21:38 20.10.2021
5806 Clear 11 1024 58 10000 1.86 94 20:54 20.10.2021
5807 Clear 10 1025 54 10000 0.45 93 20:33 20.10.2021
5808 Clear 11 1024 56 10000 0.89 188 19:57 20.10.2021
5809 Clear 12 1024 56 10000 0.89 96 18:56 20.10.2021
5810 Clear 13 1024 53 10000 0.89 109 17:50 20.10.2021
5811 Clouds 15 1025 41 10000 1.34 288 15:44 20.10.2021
5812 Clouds 13 1026 47 10000 0.45 307 11:42 20.10.2021
5813 Clouds 10 1025 61 10000 1.61 73 08:54 20.10.2021
5814 Clouds 9 1025 62 10000 0.89 310 04:50 20.10.2021
5815 Clouds 9 1026 64 10000 0.45 296 00:48 20.10.2021
5816 Clouds 9 1026 64 10000 1.34 300 00:18 20.10.2021
5817 Clear 10 1025 61 10000 0.89 43 21:44 19.10.2021
5818 Clouds 11 1023 65 10000 0.45 20 20:54 19.10.2021
5819 Clear 11 1024 57 10000 3.09 90 20:25 19.10.2021
5820 Clouds 11 1024 57 10000 1.34 2 19:41 19.10.2021
5821 Clouds 11 1024 56 10000 1.34 327 19:20 19.10.2021
5822 Clouds 13 1021 56 10000 2.24 325 17:59 19.10.2021
5823 Clouds 16 1022 47 10000 3.13 345 15:48 19.10.2021
5824 Clouds 16 1022 46 10000 0.89 350 15:20 19.10.2021
5825 Clouds 16 1022 43 10000 1.34 319 14:27 19.10.2021
5826 Clouds 17 1022 44 10000 2.68 324 13:36 19.10.2021
5827 Clouds 15 1023 53 10000 1.34 318 11:37 19.10.2021
5828 Clouds 15 1023 54 10000 1.34 358 10:36 19.10.2021
5829 Clouds 13 1021 68 10000 1.88 342 08:58 19.10.2021
5830 Clouds 10 1022 78 10000 0 0 07:20 19.10.2021
5831 Clouds 10 1021 74 10000 0.45 318 00:27 19.10.2021
5832 Clouds 12 1019 71 10000 0.45 340 23:56 18.10.2021
5833 Clouds 11 1021 72 10000 0.45 324 23:20 18.10.2021
5834 Clouds 12 1019 70 10000 0.89 308 22:54 18.10.2021
5835 Clouds 12 1019 67 10000 1.94 355 21:54 18.10.2021
5836 Clouds 13 1020 63 10000 1.34 349 20:42 18.10.2021
5837 Clouds 13 1020 63 10000 0.89 340 20:20 18.10.2021
5838 Clouds 13 1020 62 10000 1.34 318 19:30 18.10.2021
5839 Clouds 14 1017 65 10000 2.26 349 18:58 18.10.2021
5840 Clouds 16 1016 58 10000 2.24 284 15:56 18.10.2021
5841 Clouds 17 1018 45 10000 0.45 290 14:30 18.10.2021
5842 Clouds 15 1019 60 10000 0.89 306 11:20 18.10.2021
5843 Clouds 13 1020 75 10000 0.51 0 09:37 18.10.2021
5844 Clouds 9 1018 88 10000 1.03 0 05:32 18.10.2021
5845 Clouds 12 1015 82 10000 0.45 256 23:51 17.10.2021
5846 Clouds 12 1015 82 10000 2.24 276 21:58 17.10.2021
5847 Clouds 12 1017 83 10000 0.45 264 21:40 17.10.2021
5848 Clouds 13 1016 78 10000 1.34 286 20:42 17.10.2021
5849 Clouds 13 1016 75 10000 4.12 270 19:44 17.10.2021
5850 Clouds 13 1016 75 10000 1.34 270 19:25 17.10.2021
5851 Clouds 13 1013 81 10000 0.45 232 18:28 17.10.2021
5852 Clouds 14 1011 73 10000 1.34 264 15:56 17.10.2021
5853 Clouds 15 1014 65 10000 3.13 275 14:35 17.10.2021
5854 Clouds 15 1011 72 10000 2.24 294 13:56 17.10.2021
5855 Clouds 15 1014 67 10000 2.24 257 13:30 17.10.2021
5856 Clouds 13 1011 76 10000 0.45 245 10:59 17.10.2021
5857 Clouds 14 1014 80 10000 1.34 266 09:56 17.10.2021
5858 Clouds 12 1013 91 10000 1.54 210 07:42 17.10.2021
5859 Clouds 13 1011 68 10000 1.34 255 02:35 17.10.2021
5860 Clouds 13 1012 65 10000 3.09 260 00:29 17.10.2021
5861 Clouds 12 1012 68 10000 0.45 291 22:40 16.10.2021
5862 Clouds 14 1013 58 10000 0.51 0 20:36 16.10.2021
5863 Clouds 17 1009 51 10000 2.02 14 19:58 16.10.2021
5864 Clouds 15 1012 54 10000 0.51 0 19:39 16.10.2021
5865 Clouds 16 1012 53 10000 0.51 0 19:18 16.10.2021
5866 Clouds 17 1012 48 10000 0 0 18:43 16.10.2021
5867 Clouds 17 1012 47 10000 0 0 18:22 16.10.2021
5868 Clouds 19 1012 41 10000 2.57 250 17:30 16.10.2021
5869 Clouds 21 1012 34 10000 2.24 226 15:40 16.10.2021
5870 Clouds 20 1013 44 10000 2.24 222 12:45 16.10.2021
5871 Clouds 14 1013 32 10000 5.8 200 10:57 16.10.2021
5872 Rain 12 1019 61 10000 4.63 270 08:57 16.10.2021
5873 Clear 13 1015 62 10000 0.45 185 01:37 16.10.2021
5874 Clear 14 1016 59 10000 0.89 209 00:29 16.10.2021
5875 Clear 15 1016 55 10000 0.45 225 23:25 15.10.2021
5876 Clear 15 1016 53 10000 2.57 110 22:20 15.10.2021
5877 Clear 15 1017 51 10000 0.45 173 21:40 15.10.2021
5878 Clear 17 1017 46 10000 2.57 120 20:52 15.10.2021
5879 Clear 17 1017 46 10000 2.57 120 20:22 15.10.2021
5880 Clear 18 1017 43 10000 2.06 150 19:19 15.10.2021
5881 Clear 20 1017 39 10000 1.03 230 18:21 15.10.2021
5882 Clear 22 1016 35 10000 2.57 270 15:46 15.10.2021
5883 Clear 22 1017 35 10000 0.45 209 13:49 15.10.2021
5884 Clouds 19 1019 36 10000 0.89 219 11:54 15.10.2021
5885 Clouds 18 1019 40 10000 2.55 134 10:58 15.10.2021
5886 Clear 18 1018 47 10000 2.06 110 10:22 15.10.2021
5887 Clear 10 1018 74 10000 0.45 82 07:33 15.10.2021
5888 Clear 9 1018 73 10000 0 0 04:26 15.10.2021
5889 Clear 12 1018 64 10000 0 0 00:22 15.10.2021
5890 Clear 16 1016 49 10000 1.22 105 22:54 14.10.2021
5891 Clear 13 1018 56 10000 1.54 80 22:19 14.10.2021
5892 Clear 14 1018 54 10000 2.06 100 21:37 14.10.2021
5893 Clear 15 1018 51 10000 0 0 20:20 14.10.2021
5894 Clear 16 1017 45 10000 2.06 290 19:46 14.10.2021
5895 Clear 18 1017 41 10000 2.06 150 18:26 14.10.2021
5896 Clouds 20 1014 40 10000 2.97 115 16:58 14.10.2021
5897 Clouds 21 1016 35 10000 2.06 170 16:31 14.10.2021
5898 Clouds 21 1017 35 10000 0.89 88 14:50 14.10.2021
5899 Clouds 21 1017 36 10000 0.45 262 14:26 14.10.2021
5900 Clouds 20 1018 39 10000 0.45 336 12:35 14.10.2021
5901 Clouds 18 1018 46 10000 0.89 309 11:34 14.10.2021
5902 Clouds 12 1017 69 10000 1.85 63 08:26 14.10.2021
5903 Clouds 10 1016 75 10000 2.14 52 05:52 14.10.2021
5904 Clouds 12 1015 70 10000 1.35 53 00:36 14.10.2021
5905 Clear 11 1017 71 10000 1.03 0 22:39 13.10.2021
5906 Clear 11 1016 68 10000 0.51 0 21:36 13.10.2021
5907 Clear 12 1016 65 10000 0 0 20:43 13.10.2021
5908 Clear 13 1015 61 10000 1.03 0 19:20 13.10.2021
5909 Clear 15 1014 54 10000 2.06 270 18:37 13.10.2021
5910 Clouds 17 1013 42 10000 2.24 271 16:35 13.10.2021
5911 Clouds 17 1012 45 10000 3.13 263 14:46 13.10.2021
5912 Clouds 17 1012 42 10000 3.13 224 14:23 13.10.2021
5913 Clouds 16 1012 49 10000 2.68 224 12:24 13.10.2021
5914 Clouds 15 1012 54 10000 4.02 273 11:36 13.10.2021
5915 Clouds 14 1011 64 10000 0.89 250 09:37 13.10.2021
5916 Clouds 12 1010 80 10000 1.34 225 07:50 13.10.2021
5917 Clear 13 1004 83 10000 1.9 189 02:58 13.10.2021
5918 Clouds 12 1008 83 10000 0.45 222 02:19 13.10.2021
5919 Clouds 15 1008 71 10000 0.45 256 23:33 12.10.2021
5920 Clouds 16 1009 59 10000 1.34 208 22:50 12.10.2021
5921 Clouds 16 1009 59 10000 1.34 240 22:50 12.10.2021
5922 Clouds 16 1008 58 10000 0.89 213 22:26 12.10.2021
5923 Clouds 17 1005 60 10000 2.24 181 20:54 12.10.2021
5924 Clouds 19 1007 44 10000 2.24 244 20:30 12.10.2021
5925 Clouds 20 1005 34 10000 0.89 174 19:31 12.10.2021
5926 Clouds 21 1005 33 10000 0.89 166 18:24 12.10.2021
5927 Clouds 23 1005 28 10000 2.06 140 17:19 12.10.2021
5928 Clouds 24 1006 27 10000 0.89 173 16:20 12.10.2021
5929 Clouds 24 1006 27 10000 0.45 144 15:30 12.10.2021
5930 Clouds 24 1008 35 10000 2.24 229 13:46 12.10.2021
5931 Clouds 21 1010 37 10000 3.13 283 12:58 12.10.2021
5932 Clouds 21 1012 36 10000 0.89 137 11:22 12.10.2021
5933 Clouds 18 1012 51 10000 2.06 100 09:22 12.10.2021
5934 Clouds 16 1012 61 10000 0 0 08:19 12.10.2021
5935 Clear 11 1012 76 10000 0.51 0 06:43 12.10.2021
5936 Clear 12 1013 73 10000 0 0 04:35 12.10.2021
5937 Clear 13 1013 71 10000 0 0 02:46 12.10.2021
5938 Clear 15 1014 63 10000 0.45 175 23:46 11.10.2021
5939 Clear 15 1014 63 10000 1.54 120 23:28 11.10.2021
5940 Clear 15 1014 63 10000 0.51 0 22:31 11.10.2021
5941 Clear 14 1016 62 10000 1.03 0 21:20 11.10.2021
5942 Clear 18 1014 51 10000 1.03 0 19:46 11.10.2021
5943 Clear 19 1014 50 10000 1.03 0 19:23 11.10.2021
5944 Clear 20 1014 47 10000 1.54 240 18:20 11.10.2021
5945 Clear 23 1014 36 10000 3.6 260 16:40 11.10.2021
5946 Clear 23 1014 36 10000 1.34 267 16:19 11.10.2021
5947 Clear 23 1014 36 10000 0.89 292 15:40 11.10.2021
5948 Clear 23 1011 39 10000 2.24 295 14:53 11.10.2021
5949 Clear 23 1012 42 10000 2.24 286 13:51 11.10.2021
5950 Clear 22 1016 41 10000 2.24 271 12:20 11.10.2021
5951 Clear 20 1017 41 10000 0.89 285 10:49 11.10.2021
5952 Clear 17 1017 47 10000 1.03 0 09:45 11.10.2021
5953 Clear 17 1013 49 10000 0.53 202 07:56 11.10.2021
5954 Clear 13 1017 55 10000 0.51 0 01:42 11.10.2021
5955 Clear 17 1014 42 10000 0.83 48 00:53 11.10.2021
5956 Clear 14 1017 50 10000 0.51 0 00:31 11.10.2021
5957 Clear 16 1017 46 10000 0 0 22:22 10.10.2021
5958 Clear 13 1020 47 10000 0.51 0 21:35 10.10.2021
5959 Clear 16 1019 40 10000 1.03 0 20:48 10.10.2021
5960 Clear 18 1017 37 10000 1.03 0 20:22 10.10.2021
5961 Clear 18 1017 37 10000 0.54 92 19:59 10.10.2021
5962 Clear 18 1019 36 10000 1.03 0 19:38 10.10.2021
5963 Clear 20 1019 31 10000 1.54 260 18:37 10.10.2021
5964 Clear 24 1016 22 10000 2.06 210 17:19 10.10.2021
5965 Clear 26 1016 21 10000 1.54 270 15:47 10.10.2021
5966 Clear 26 1017 23 10000 2.06 310 14:42 10.10.2021
5967 Clear 26 1017 23 10000 2.06 250 13:34 10.10.2021
5968 Clear 24 1017 26 10000 1.34 317 12:40 10.10.2021
5969 Clear 19 1019 32 10000 0.89 303 10:55 10.10.2021
5970 Clear 18 1019 41 10000 0.51 140 09:31 10.10.2021
5971 Clear 18 1019 41 10000 0.51 140 09:31 10.10.2021
5972 Clear 15 1019 50 10000 1.03 0 08:54 10.10.2021
5973 Clear 16 1016 46 10000 1.17 59 07:53 10.10.2021
5974 Clear 12 1018 55 10000 1.54 80 03:20 10.10.2021
5975 Clear 13 1018 53 10000 0.51 0 01:28 10.10.2021
5976 Clear 13 1019 52 10000 0.51 0 00:33 10.10.2021
5977 Clear 14 1018 49 10000 0.51 320 23:20 09.10.2021
5978 Clear 16 1018 44 10000 1.03 0 21:47 09.10.2021
5979 Clear 17 1018 44 10000 1.03 0 21:29 09.10.2021
5980 Clear 18 1018 35 10000 0 0 19:45 09.10.2021
5981 Clear 18 1018 35 10000 0 0 19:20 09.10.2021
5982 Clear 20 1017 30 10000 0.51 80 18:33 09.10.2021
5983 Clear 23 1017 26 10000 3.09 310 17:20 09.10.2021
5984 Clear 24 1017 24 10000 0.45 287 16:19 09.10.2021
5985 Clear 24 1017 23 10000 0.89 225 13:45 09.10.2021
5986 Clear 22 1018 27 10000 1.34 242 12:40 09.10.2021
5987 Clear 22 1018 29 10000 0.45 178 11:48 09.10.2021
5988 Clear 18 1019 34 10000 0.89 58 10:42 09.10.2021
5989 Clear 16 1018 36 10000 0.89 123 09:52 09.10.2021
5990 Clear 13 1018 50 10000 1.03 0 08:30 09.10.2021
5991 Clear 10 1018 61 10000 0.45 195 07:49 09.10.2021
5992 Clear 8 1017 65 10000 0 0 05:29 09.10.2021
5993 Clear 9 1017 61 10000 0.51 0 03:44 09.10.2021
5994 Clear 9 1017 59 10000 0 0 02:41 09.10.2021
5995 Clouds 15 1015 44 10000 1.45 81 23:52 08.10.2021
5996 Clouds 15 1015 44 10000 0.45 168 22:59 08.10.2021
5997 Clear 12 1017 50 10000 0.51 0 22:24 08.10.2021
5998 Clear 14 1017 48 10000 0 0 21:18 08.10.2021
5999 Clear 17 1015 37 10000 2.41 102 18:59 08.10.2021
6000 Clear 20 1017 31 10000 0.45 85 17:36 08.10.2021
6001 Clear 21 1017 29 10000 0.45 63 16:51 08.10.2021
6002 Clear 21 1017 28 10000 1.34 82 16:23 08.10.2021
6003 Clouds 21 1015 34 10000 0.45 336 13:57 08.10.2021
6004 Clear 20 1016 37 10000 0.89 337 12:56 08.10.2021
6005 Clear 18 1019 36 10000 2.24 344 11:33 08.10.2021
6006 Clear 17 1020 41 10000 1.54 100 10:41 08.10.2021
6007 Clear 15 1020 48 10000 0 0 09:25 08.10.2021
6008 Clear 12 1017 58 10000 1.38 78 23:59 07.10.2021
6009 Clear 10 1020 62 10000 0.51 0 23:19 07.10.2021
6010 Clear 12 1020 55 10000 1.03 0 21:46 07.10.2021
6011 Clear 12 1019 54 10000 1.03 0 21:26 07.10.2021
6012 Clear 13 1019 50 10000 1.54 210 20:22 07.10.2021
6013 Clear 15 1019 45 10000 2.06 100 19:29 07.10.2021
6014 Clear 16 1019 40 10000 1.34 129 18:24 07.10.2021
6015 Clear 18 1018 34 10000 0.45 86 17:24 07.10.2021
6016 Clear 18 1016 38 10000 2.24 83 15:50 07.10.2021
6017 Clear 19 1017 30 10000 1.16 133 13:52 07.10.2021
6018 Clouds 19 1020 33 10000 2.57 0 13:34 07.10.2021
6019 Clouds 18 1020 35 10000 2.06 80 12:40 07.10.2021
6020 Clear 17 1019 38 10000 2.64 121 10:52 07.10.2021
6021 Clouds 15 1021 46 10000 1.03 0 10:19 07.10.2021
6022 Clear 13 1022 52 10000 1.54 0 09:33 07.10.2021
6023 Clear 12 1020 59 10000 0.45 27 08:41 07.10.2021
6024 Clear 9 1020 69 10000 0.45 104 07:43 07.10.2021
6025 Clear 8 1020 70 10000 0 0 07:19 07.10.2021
6026 Clear 10 1017 65 10000 1.03 91 02:50 07.10.2021
6027 Clear 9 1020 65 10000 0 0 00:29 07.10.2021
6028 Clear 10 1020 60 10000 0 0 22:51 06.10.2021
6029 Clear 11 1020 59 10000 0 0 22:21 06.10.2021
6030 Clear 13 1019 50 10000 1.54 0 20:40 06.10.2021
6031 Clouds 14 1018 53 10000 1.67 93 19:55 06.10.2021
6032 Clouds 15 1019 44 10000 0.89 113 18:41 06.10.2021
6033 Clear 17 1017 41 10000 0.45 24 16:58 06.10.2021
6034 Clouds 18 1019 34 10000 0.89 17 15:30 06.10.2021
6035 Clouds 18 1019 35 10000 0.45 1 14:22 06.10.2021
6036 Clouds 17 1019 38 10000 1.34 19 13:20 06.10.2021
6037 Clouds 16 1020 41 10000 1.34 61 12:43 06.10.2021
6038 Clouds 16 1020 42 10000 2.68 34 12:21 06.10.2021
6039 Clouds 13 1021 53 10000 0.45 5 10:21 06.10.2021
6040 Clouds 12 1022 60 10000 0.45 298 09:39 06.10.2021
6041 Clear 9 1022 70 10000 1.03 0 08:43 06.10.2021
6042 Clear 7 1021 78 10000 0.51 0 07:48 06.10.2021
6043 Clear 5 1021 83 10000 0 0 05:26 06.10.2021
6044 Clear 8 1021 74 10000 1.54 290 00:29 06.10.2021
6045 Clear 9 1019 70 10000 2.05 5 23:58 05.10.2021
6046 Clear 9 1021 69 10000 1.54 0 23:39 05.10.2021
6047 Clear 9 1021 69 10000 1.54 0 23:20 05.10.2021
6048 Clear 9 1021 64 10000 2.06 360 22:28 05.10.2021
6049 Clear 10 1021 63 10000 2.06 0 21:49 05.10.2021
6050 Clear 11 1020 60 10000 0.45 333 20:42 05.10.2021
6051 Clear 11 1020 60 10000 0.89 329 20:24 05.10.2021
6052 Clouds 11 1020 58 10000 2.06 70 19:47 05.10.2021
6053 Clouds 12 1018 60 10000 0.89 347 18:57 05.10.2021
6054 Clouds 15 1019 48 10000 1.34 323 16:49 05.10.2021
6055 Clouds 16 1018 42 10000 3.58 324 14:38 05.10.2021
6056 Clouds 16 1018 40 10000 2.24 330 13:42 05.10.2021
6057 Clouds 15 1019 40 10000 3.13 318 12:48 05.10.2021
6058 Clouds 15 1019 43 10000 2.68 310 12:18 05.10.2021
6059 Clouds 15 1019 46 10000 2.68 322 11:19 05.10.2021
6060 Clouds 13 1019 50 10000 3.09 250 09:27 05.10.2021
6061 Clear 9 1019 74 10000 1.03 0 05:25 05.10.2021
6062 Clear 12 1017 63 10000 0.45 306 23:54 04.10.2021
6063 Clear 13 1020 54 10000 2.57 90 22:38 04.10.2021
6064 Clear 14 1019 46 10000 2.24 19 20:29 04.10.2021
6065 Clouds 16 1018 38 10000 1.54 230 18:34 04.10.2021
6066 Clouds 19 1018 33 10000 2.06 210 16:34 04.10.2021
6067 Clouds 19 1019 33 10000 1.54 260 15:31 04.10.2021
6068 Clouds 19 1019 33 10000 1.54 260 15:31 04.10.2021
6069 Clouds 18 1019 34 10000 1.34 268 14:43 04.10.2021
6070 Clear 18 1017 40 10000 0.89 318 13:57 04.10.2021
6071 Clouds 18 1019 36 10000 2.68 273 13:25 04.10.2021
6072 Clouds 18 1020 37 10000 2.24 266 12:27 04.10.2021
6073 Clouds 17 1021 40 10000 2.24 256 11:31 04.10.2021
6074 Clouds 16 1021 43 10000 2.06 110 10:23 04.10.2021
6075 Clouds 12 1021 62 10000 1.54 270 08:42 04.10.2021
6076 Clouds 8 1021 76 10000 0 0 07:37 04.10.2021
6077 Clear 10 1021 66 10000 0 0 00:40 04.10.2021
6078 Clear 11 1021 60 10000 0.89 4 22:37 03.10.2021
6079 Clear 12 1020 55 10000 0.45 336 21:41 03.10.2021
6080 Clear 12 1020 54 10000 0 0 21:22 03.10.2021
6081 Clear 13 1018 57 10000 2.39 3 19:59 03.10.2021
6082 Clear 14 1020 48 10000 0.89 14 19:30 03.10.2021
6083 Clouds 16 1019 41 10000 2.24 5 18:27 03.10.2021
6084 Clouds 18 1018 37 10000 1.34 351 17:24 03.10.2021
6085 Clouds 18 1018 39 10000 3.13 288 14:47 03.10.2021
6086 Clouds 18 1018 39 10000 0.89 293 14:18 03.10.2021
6087 Clouds 17 1018 41 10000 1.34 299 13:34 03.10.2021
6088 Clouds 17 1019 44 10000 0.89 307 12:29 03.10.2021
6089 Clouds 16 1019 52 10000 2.24 309 10:37 03.10.2021
6090 Clear 12 1020 67 10000 0.89 353 08:43 03.10.2021
6091 Clear 10 1018 72 10000 0.51 0 01:44 03.10.2021
6092 Clear 13 1018 57 10000 0.89 354 22:40 02.10.2021
6093 Clear 15 1016 53 10000 1.69 8 20:57 02.10.2021
6094 Clear 15 1017 46 10000 0.89 285 19:50 02.10.2021
6095 Clear 17 1015 42 10000 1.01 36 18:52 02.10.2021
6096 Clear 17 1014 39 10000 0.56 19 17:54 02.10.2021
6097 Clouds 18 1016 35 10000 2.06 250 17:21 02.10.2021
6098 Clouds 18 1016 35 10000 2.06 250 17:21 02.10.2021
6099 Clouds 19 1016 37 10000 1.54 0 15:29 02.10.2021
6100 Clouds 18 1016 36 10000 2.68 334 16:35 30.09.2021
6101 Clear 18 1014 38 10000 0.89 315 14:57 30.09.2021
6102 Clouds 18 1017 34 10000 2.24 314 13:20 30.09.2021
6103 Clouds 16 1018 39 10000 0.89 321 11:36 30.09.2021
6104 Clouds 16 1018 42 10000 2.68 321 10:42 30.09.2021
6105 Clouds 14 1019 51 10000 1.34 317 09:31 30.09.2021
6106 Clouds 13 1019 58 10000 1.34 314 08:28 30.09.2021
6107 Clouds 12 1015 69 10000 3.44 27 07:00 30.09.2021
6108 Clouds 12 1018 61 10000 0.45 26 04:42 30.09.2021
6109 Clouds 14 1018 61 10000 2.24 358 00:46 30.09.2021
6110 Clouds 14 1018 62 10000 0.89 27 23:49 29.09.2021
6111 Clouds 15 1015 63 10000 2.68 341 21:58 29.09.2021
6112 Clouds 16 1014 59 10000 0.45 7 20:57 29.09.2021
6113 Clouds 16 1017 55 10000 2.24 23 20:24 29.09.2021
6114 Clouds 17 1017 54 10000 1.34 14 19:43 29.09.2021
6115 Clouds 17 1016 54 10000 1.34 63 18:28 29.09.2021
6116 Clouds 18 1015 52 10000 2.68 338 17:33 29.09.2021
6117 Clouds 19 1015 49 10000 0.89 320 16:46 29.09.2021
6118 Clouds 19 1015 46 10000 1.03 0 15:48 29.09.2021
6119 Clouds 20 1015 46 10000 1.03 0 14:38 29.09.2021
6120 Clouds 20 1015 46 10000 2.06 320 13:41 29.09.2021
6121 Clouds 19 1016 47 10000 0.45 10 12:47 29.09.2021
6122 Clouds 18 1016 51 10000 0.89 307 11:39 29.09.2021
6123 Clouds 18 1016 53 10000 1.34 294 10:39 29.09.2021
6124 Clear 16 1016 59 10000 2.68 325 09:48 29.09.2021
6125 Clear 14 1017 67 10000 0.89 316 08:45 29.09.2021
6126 Clouds 12 1013 77 10000 1.94 49 06:55 29.09.2021
6127 Clear 11 1016 73 10000 0.45 290 02:40 29.09.2021
6128 Clear 14 1016 60 10000 1.03 0 23:21 28.09.2021
6129 Clear 16 1016 56 10000 2.57 110 22:22 28.09.2021
6130 Clear 17 1015 52 10000 2.06 130 21:33 28.09.2021
6131 Clear 18 1015 50 10000 0.89 18 20:27 28.09.2021
6132 Clear 19 1015 46 10000 0.45 63 19:42 28.09.2021
6133 Clear 20 1014 43 10000 1.54 240 18:44 28.09.2021
6134 Clear 21 1011 42 10000 0.45 48 17:53 28.09.2021
6135 Clouds 23 1014 38 10000 1.54 0 15:22 28.09.2021
6136 Clouds 22 1014 41 10000 1.54 0 13:30 28.09.2021
6137 Clouds 21 1015 44 10000 2.06 70 12:30 28.09.2021
6138 Clear 20 1012 49 10000 1.34 334 11:59 28.09.2021
6139 Clouds 20 1015 47 10000 1.03 0 11:40 28.09.2021
6140 Clear 19 1015 50 10000 1.34 90 10:49 28.09.2021
6141 Clear 17 1015 55 10000 0.89 347 09:45 28.09.2021
6142 Clear 15 1015 66 10000 0.89 276 08:49 28.09.2021
6143 Clear 14 1015 67 10000 0.45 338 08:28 28.09.2021
6144 Clear 11 1015 81 10000 0 0 06:47 28.09.2021
6145 Clear 10 1014 82 10000 1.03 260 05:22 28.09.2021
6146 Clear 13 1014 71 10000 1.03 140 01:22 28.09.2021
6147 Clear 14 1014 63 10000 2.68 315 00:24 28.09.2021
6148 Clear 15 1014 59 10000 0.45 300 23:31 27.09.2021
6149 Clear 16 1014 55 10000 1.54 230 22:46 27.09.2021
6150 Clear 18 1014 47 10000 0.89 307 21:44 27.09.2021
6151 Clear 19 1013 43 10000 0.45 331 20:39 27.09.2021
6152 Clear 20 1013 38 10000 1.34 337 19:50 27.09.2021
6153 Clear 21 1013 38 10000 0.45 295 19:23 27.09.2021
6154 Clear 22 1013 34 10000 0.45 255 18:31 27.09.2021
6155 Clear 24 1012 29 10000 0.45 268 17:28 27.09.2021
6156 Clear 25 1012 26 10000 0.45 223 16:41 27.09.2021
6157 Clear 25 1012 26 10000 0.89 270 15:43 27.09.2021
6158 Clouds 25 1010 28 10000 0.45 122 14:56 27.09.2021
6159 Clear 24 1014 28 10000 2.06 260 13:31 27.09.2021
6160 Clear 21 1015 32 10000 1.54 0 11:23 27.09.2021
6161 Clear 20 1013 40 10000 1.09 353 09:54 27.09.2021
6162 Clear 16 1017 54 10000 0 0 08:40 27.09.2021
6163 Clear 13 1014 58 10000 1.33 36 05:21 27.09.2021
6164 Clear 14 1015 56 10000 1.36 38 02:59 27.09.2021
6165 Clear 15 1019 51 10000 0.51 0 22:32 26.09.2021
6166 Clear 15 1019 50 10000 1.03 0 21:50 26.09.2021
6167 Clear 18 1017 41 10000 1.12 59 20:58 26.09.2021
6168 Clear 17 1019 45 10000 0 0 20:21 26.09.2021
6169 Clear 17 1019 40 10000 0 0 19:42 26.09.2021
6170 Clear 20 1019 35 10000 1.03 240 18:45 26.09.2021
6171 Clear 21 1016 36 10000 0.39 281 17:56 26.09.2021
6172 Clear 22 1019 28 10000 1.54 250 17:22 26.09.2021
6173 Clear 22 1020 28 10000 2.06 270 16:40 26.09.2021
6174 Clear 22 1017 36 10000 0.89 292 15:59 26.09.2021
6175 Clear 22 1018 40 10000 0.64 312 14:54 26.09.2021
6176 Clear 21 1019 41 10000 1.34 308 13:55 26.09.2021
6177 Clear 21 1019 46 10000 0.56 301 12:59 26.09.2021
6178 Clear 20 1022 43 10000 2.68 283 12:24 26.09.2021
6179 Clear 19 1023 45 10000 0.89 343 11:42 26.09.2021
6180 Clear 17 1023 50 10000 0.45 307 10:25 26.09.2021
6181 Clear 16 1021 59 10000 0.7 100 08:58 26.09.2021
6182 Clear 9 1024 85 10000 0 0 06:36 26.09.2021
6183 Clear 11 1023 73 10000 0 0 00:22 26.09.2021
6184 Clear 12 1023 70 10000 1.54 240 23:26 25.09.2021
6185 Clear 12 1023 69 10000 0 0 22:38 25.09.2021
6186 Clear 14 1021 63 10000 1.92 42 21:55 25.09.2021
6187 Clear 13 1023 64 10000 0 0 21:31 25.09.2021
6188 Clear 14 1022 57 10000 1.03 0 20:45 25.09.2021
6189 Clouds 16 1020 56 10000 2.33 21 18:59 25.09.2021
6190 Clear 17 1021 48 10000 2.06 350 18:24 25.09.2021
6191 Clouds 19 1021 42 10000 1.54 0 15:48 25.09.2021
6192 Clouds 18 1018 49 10000 0.45 279 13:57 25.09.2021
6193 Clouds 18 1021 44 10000 1.34 300 13:31 25.09.2021
6194 Clouds 17 1021 44 10000 0.45 276 12:27 25.09.2021
6195 Clouds 15 1021 47 10000 2.24 274 10:34 25.09.2021
6196 Clear 14 1020 50 10000 0.45 298 09:32 25.09.2021
6197 Clear 13 1020 57 10000 0.51 0 08:20 25.09.2021
6198 Clouds 10 1016 66 10000 1.56 234 05:51 25.09.2021
6199 Clouds 10 1017 53 10000 2.3 224 23:51 24.09.2021
6200 Clear 12 1017 50 10000 2.06 260 21:42 24.09.2021
6201 Clear 12 1016 51 10000 0.89 181 20:39 24.09.2021
6202 Clear 13 1016 46 10000 1.34 217 19:48 24.09.2021
6203 Clear 14 1016 45 10000 0.89 250 18:34 24.09.2021
6204 Clouds 15 1014 48 10000 1.34 225 17:54 24.09.2021
6205 Clear 16 1015 40 10000 0.89 233 17:36 24.09.2021
6206 Clear 16 1015 38 10000 3.09 230 17:18 24.09.2021
6207 Clear 16 1015 41 10000 2.24 274 13:57 24.09.2021
6208 Clouds 15 1017 41 10000 1.34 297 13:18 24.09.2021
6209 Clouds 15 1017 41 10000 2.57 230 12:39 24.09.2021
6210 Clouds 15 1017 42 10000 0.89 201 12:20 24.09.2021
6211 Clouds 13 1019 48 10000 2.06 270 10:27 24.09.2021
6212 Clear 14 1018 53 10000 1.85 341 08:54 24.09.2021
6213 Clear 8 1018 74 10000 1.54 230 07:34 24.09.2021
6214 Clear 5 1018 81 10000 1.54 230 06:45 24.09.2021
6215 Clouds 4 1018 77 10000 1.47 284 04:54 24.09.2021
6216 Clouds 8 1017 72 10000 2.03 353 23:57 23.09.2021
6217 Clouds 9 1016 60 10000 3.09 10 22:22 23.09.2021
6218 Clouds 10 1016 61 10000 3.6 30 21:47 23.09.2021
6219 Clouds 11 1015 57 10000 4.63 340 20:33 23.09.2021
6220 Clouds 11 1014 63 10000 6.71 357 19:28 23.09.2021
6221 Clouds 14 1013 53 10000 5.66 330 17:46 23.09.2021
6222 Clouds 15 1011 49 10000 6.69 330 15:28 23.09.2021
6223 Clouds 16 1011 42 10000 5.66 330 14:59 23.09.2021
6224 Clouds 17 1011 42 10000 5.66 290 13:45 23.09.2021
6225 Clouds 17 1011 42 10000 5.66 290 13:45 23.09.2021
6226 Clouds 16 1011 45 10000 5.66 290 13:19 23.09.2021
6227 Clouds 16 1011 43 10000 5.66 290 12:48 23.09.2021
6228 Clouds 16 1011 43 10000 5.66 290 12:22 23.09.2021
6229 Clouds 15 1011 49 10000 5.14 270 11:23 23.09.2021
6230 Clouds 15 1011 49 10000 5.14 270 10:20 23.09.2021
6231 Clouds 15 1011 76 10000 2.51 258 09:51 23.09.2021
6232 Clouds 12 1011 62 10000 3.6 270 07:44 23.09.2021
6233 Clouds 12 1011 64 10000 3.09 240 01:43 23.09.2021
6234 Clouds 14 1011 62 10000 0.88 348 22:58 22.09.2021
6235 Clouds 13 1013 60 10000 2.57 210 22:24 22.09.2021
6236 Clouds 12 1011 67 10000 1.46 325 21:51 22.09.2021
6237 Clouds 13 1013 59 10000 1.54 250 21:32 22.09.2021
6238 Clouds 14 1013 58 10000 2.57 20 20:39 22.09.2021
6239 Clouds 15 1013 55 10000 3.09 350 19:28 22.09.2021
6240 Clouds 18 1012 46 10000 3.09 300 18:36 22.09.2021
6241 Clouds 19 1011 50 10000 5.19 299 17:39 22.09.2021
6242 Clouds 20 1011 45 10000 6.85 282 16:36 22.09.2021
6243 Clouds 22 1011 40 10000 5.29 275 14:55 22.09.2021
6244 Clouds 19 1015 42 10000 3.09 280 13:25 22.09.2021
6245 Clouds 19 1015 42 10000 3.09 280 13:25 22.09.2021
6246 Clouds 18 1016 48 10000 3.6 270 11:41 22.09.2021
6247 Clouds 18 1016 50 10000 2.57 330 10:37 22.09.2021
6248 Clear 16 1015 61 10000 4.03 326 08:57 22.09.2021
6249 Clouds 15 1015 56 10000 3.19 335 07:50 22.09.2021
6250 Clouds 14 1015 66 10000 2.89 335 06:57 22.09.2021
6251 Clouds 14 1017 77 10000 3.6 270 05:51 22.09.2021
6252 Clouds 14 1017 77 10000 3.6 270 05:23 22.09.2021
6253 Clouds 14 1017 76 10000 5.14 290 03:43 22.09.2021
6254 Clouds 15 1018 88 10000 2.06 280 00:20 22.09.2021
6255 Rain 17 1019 70 10000 3.6 360 22:43 21.09.2021
6256 Clouds 17 1018 66 10000 2.06 140 21:31 21.09.2021
6257 Clouds 19 1016 63 10000 2.31 342 19:42 21.09.2021
6258 Rain 19 1014 62 10000 3.01 343 19:20 21.09.2021
6259 Clouds 25 1014 49 10000 5.87 327 16:59 21.09.2021
6260 Clouds 25 1016 42 10000 4.63 320 16:29 21.09.2021
6261 Clouds 25 1016 41 10000 5.14 330 15:31 21.09.2021
6262 Clouds 26 1013 38 10000 6.68 280 14:56 21.09.2021
6263 Clouds 26 1013 38 10000 6.68 280 14:56 21.09.2021
6264 Clouds 26 1017 38 10000 5.66 290 13:40 21.09.2021
6265 Clouds 26 1017 39 10000 5.66 290 13:19 21.09.2021
6266 Clouds 26 1014 34 10000 3.67 274 11:21 21.09.2021
6267 Clear 23 1015 38 10000 2.29 271 09:54 21.09.2021
6268 Clouds 16 1015 40 10000 0.71 283 07:59 21.09.2021
6269 Clear 13 1017 85 10000 0 0 06:38 21.09.2021
6270 Clouds 17 1014 42 10000 0.41 170 23:58 20.09.2021
6271 Clouds 19 1014 40 10000 0.11 322 22:18 20.09.2021
6272 Clouds 20 1014 40 10000 0.11 322 21:36 20.09.2021
6273 Clear 21 1016 47 10000 1.03 0 20:29 20.09.2021
6274 Clear 23 1016 43 10000 1.03 0 19:28 20.09.2021
6275 Clouds 27 1015 33 10000 5.14 250 17:39 20.09.2021
6276 Clouds 28 1016 30 10000 6.17 270 16:33 20.09.2021
6277 Clouds 28 1016 33 10000 4.12 230 15:49 20.09.2021
6278 Clouds 28 1016 34 10000 4.12 230 15:22 20.09.2021
6279 Clouds 27 1017 36 10000 5.14 270 13:43 20.09.2021
6280 Clouds 26 1018 38 10000 3.6 250 12:35 20.09.2021
6281 Clouds 25 1018 42 10000 3.09 250 11:23 20.09.2021
6282 Clear 26 1016 46 10000 4.14 271 09:57 20.09.2021
6283 Clouds 22 1019 50 10000 1.03 0 09:36 20.09.2021
6284 Clear 23 1016 53 10000 2.96 266 08:58 20.09.2021
6285 Clouds 15 1018 75 10000 1.03 0 06:51 20.09.2021
6286 Clear 17 1018 60 10000 0.51 0 23:45 19.09.2021
6287 Rain 18 1017 55 10000 0.51 0 22:21 19.09.2021
6288 Clear 19 1017 50 10000 1.03 220 21:39 19.09.2021
6289 Clear 20 1017 48 10000 2.57 250 20:34 19.09.2021
6290 Clear 22 1016 41 10000 3.09 230 19:22 19.09.2021
6291 Clouds 23 1016 36 10000 3.6 260 18:26 19.09.2021
6292 Clouds 25 1016 32 10000 5.66 270 17:22 19.09.2021
6293 Clear 28 1013 38 10000 6.75 281 15:55 19.09.2021
6294 Clear 28 1013 38 10000 6.75 281 15:55 19.09.2021
6295 Clear 29 1013 37 10000 7.39 278 14:51 19.09.2021
6296 Clouds 26 1016 29 10000 7.2 270 14:30 19.09.2021
6297 Clouds 26 1017 35 10000 7.2 260 13:21 19.09.2021
6298 Clear 27 1014 39 10000 7.15 277 12:50 19.09.2021
6299 Clouds 23 1017 46 10000 5.14 260 11:27 19.09.2021
6300 Clouds 22 1018 53 10000 5.14 270 10:35 19.09.2021
6301 Clouds 21 1018 59 10000 2.06 280 09:39 19.09.2021
6302 Clouds 15 1017 91 10000 0.51 0 07:31 19.09.2021
6303 Clear 15 1014 59 10000 1.94 242 05:55 19.09.2021
6304 Clear 17 1015 66 10000 0.51 0 23:36 18.09.2021
6305 Clouds 19 1014 59 10000 1.12 194 21:59 18.09.2021
6306 Clear 20 1014 57 10000 1.85 170 20:51 18.09.2021
6307 Clear 19 1015 58 10000 0 0 20:31 18.09.2021
6308 Clear 21 1015 50 10000 0 0 19:39 18.09.2021
6309 Clear 21 1015 50 10000 0 0 19:20 18.09.2021
6310 Clouds 23 1015 44 10000 2.06 210 18:32 18.09.2021
6311 Clouds 25 1015 38 10000 3.6 250 17:29 18.09.2021
6312 Clear 27 1012 38 10000 5.1 261 15:50 18.09.2021
6313 Clear 24 1016 33 10000 4.12 230 13:46 18.09.2021
6314 Clear 25 1016 34 10000 4.12 230 13:27 18.09.2021
6315 Clear 24 1016 36 10000 2.06 310 12:49 18.09.2021
6316 Clear 21 1017 44 10000 2.06 300 11:38 18.09.2021
6317 Clear 19 1017 48 10000 1.54 270 10:31 18.09.2021
6318 Clear 17 1018 57 10000 1.03 0 09:27 18.09.2021
6319 Clear 15 1018 65 10000 1.54 230 08:48 18.09.2021
6320 Clear 15 1016 37 10000 0.92 189 00:59 18.09.2021
6321 Clear 15 1016 37 10000 0.92 189 00:41 18.09.2021
6322 Clear 15 1016 36 10000 1.36 217 23:44 17.09.2021
6323 Clear 14 1016 66 10000 1.25 225 22:33 17.09.2021
6324 Clear 14 1016 64 10000 1.25 215 21:55 17.09.2021
6325 Clear 15 1018 54 10000 0 0 20:25 17.09.2021
6326 Clear 16 1015 53 10000 1.98 252 18:51 17.09.2021
6327 Clear 22 1014 23 10000 1.3 255 16:50 17.09.2021
6328 Clear 22 1016 28 10000 1.54 0 16:18 17.09.2021
6329 Clouds 19 1018 38 10000 2.06 0 12:36 17.09.2021
6330 Clouds 17 1019 48 10000 1.54 0 10:41 17.09.2021
6331 Clear 13 1019 69 10000 1.03 0 08:25 17.09.2021
6332 Clear 7 1019 96 10000 0.51 0 06:49 17.09.2021
6333 Clear 14 1019 65 10000 1.03 0 00:49 17.09.2021
6334 Clouds 14 1019 62 10000 2.06 350 22:50 16.09.2021
6335 Clouds 14 1019 62 10000 2.06 350 22:24 16.09.2021
6336 Rain 16 1019 60 10000 1.54 360 21:40 16.09.2021
6337 Clouds 17 1018 61 10000 3.09 350 20:50 16.09.2021
6338 Clouds 18 1018 55 10000 3.6 20 19:41 16.09.2021
6339 Clouds 18 1017 57 10000 4.12 10 18:19 16.09.2021
6340 Clouds 19 1017 59 10000 0 0 17:29 16.09.2021
6341 Clouds 19 1017 55 10000 2.06 50 14:53 16.09.2021
6342 Clouds 19 1017 55 10000 3.09 90 13:48 16.09.2021
6343 Clouds 18 1017 61 10000 1.54 100 12:47 16.09.2021
6344 Clouds 18 1017 61 10000 1.54 100 12:27 16.09.2021
6345 Clouds 18 1018 63 10000 3.6 50 11:25 16.09.2021
6346 Clouds 16 1015 69 10000 3.48 2 10:31 16.09.2021
6347 Rain 16 1015 69 10000 3.48 2 10:30 16.09.2021
6348 Rain 16 1015 69 10000 3.48 2 10:30 16.09.2021
6349 Rain 16 1015 69 10000 3.48 2 09:53 16.09.2021
6350 Clouds 16 1015 69 10000 3.42 1 08:41 16.09.2021
6351 Rain 15 1014 74 10000 2.69 359 07:22 16.09.2021
6352 Rain 16 1014 74 10000 2.69 359 06:39 16.09.2021
6353 Clouds 15 1014 76 10000 1.88 339 04:31 16.09.2021
6354 Clouds 15 1014 76 10000 2.18 347 00:59 16.09.2021
6355 Clouds 14 1014 77 10000 2.14 348 23:32 15.09.2021
6356 Clouds 14 1014 77 10000 2.09 343 22:46 15.09.2021
6357 Clouds 14 1014 76 10000 1.73 344 21:41 15.09.2021
6358 Clouds 14 1014 76 10000 1.35 8 21:23 15.09.2021
6359 Clouds 15 1013 76 10000 2 354 19:51 15.09.2021
6360 Clouds 15 1013 77 10000 2.98 347 19:19 15.09.2021
6361 Clouds 16 1012 75 10000 3.12 356 17:48 15.09.2021
6362 Clouds 19 1012 68 10000 3.83 10 16:48 15.09.2021
6363 Clouds 18 1012 77 10000 3.76 12 15:30 15.09.2021
6364 Clouds 17 1014 80 10000 4.12 70 14:44 15.09.2021
6365 Clouds 17 1015 81 10000 2.57 60 13:51 15.09.2021
6366 Clouds 17 1015 81 10000 2.57 60 13:29 15.09.2021
6367 Clouds 17 1015 78 10000 0.51 240 12:34 15.09.2021
6368 Clouds 17 1015 85 10000 1.03 0 11:51 15.09.2021
6369 Clouds 16 1015 83 10000 2.57 80 11:18 15.09.2021
6370 Clouds 16 1015 92 10000 1.54 270 10:35 15.09.2021
6371 Clouds 16 1015 93 10000 2.57 270 09:23 15.09.2021
6372 Rain 15 1015 95 10000 1.54 240 07:30 15.09.2021
6373 Rain 15 1015 95 10000 1.54 240 07:30 15.09.2021
6374 Rain 15 1014 88 4793 1.19 129 02:50 15.09.2021
6375 Rain 16 1015 80 10000 5.66 250 22:36 14.09.2021
6376 Rain 16 1014 79 10000 2.57 290 21:38 14.09.2021
6377 Clouds 16 1014 76 10000 1.03 0 20:25 14.09.2021
6378 Clouds 18 1013 71 10000 3.09 110 19:41 14.09.2021
6379 Clouds 20 1014 59 10000 2.06 80 17:34 14.09.2021
6380 Clouds 21 1014 56 10000 4.12 350 16:49 14.09.2021
6381 Clouds 20 1014 63 10000 4.63 50 15:25 14.09.2021
6382 Clouds 20 1014 61 10000 5.66 190 14:19 14.09.2021
6383 Clouds 25 1013 37 10000 2.57 50 11:48 14.09.2021
6384 Clouds 23 1014 42 10000 3.6 60 10:47 14.09.2021
6385 Clear 22 1014 47 10000 3.6 90 09:49 14.09.2021
6386 Clouds 18 1012 51 10000 1.38 33 07:58 14.09.2021
6387 Clear 12 1013 74 10000 1.03 260 05:38 14.09.2021
6388 Clouds 18 1013 55 10000 0 0 23:34 13.09.2021
6389 Clouds 19 1013 52 10000 2.06 260 22:28 13.09.2021
6390 Clouds 19 1012 60 10000 3.1 308 21:59 13.09.2021
6391 Clouds 20 1013 49 10000 1.54 210 21:33 13.09.2021
6392 Clouds 23 1012 38 10000 3.6 20 19:41 13.09.2021
6393 Clouds 23 1011 35 10000 1.03 280 18:45 13.09.2021
6394 Clouds 26 1011 28 10000 1.03 0 17:39 13.09.2021
6395 Clouds 26 1011 27 10000 2.57 290 16:49 13.09.2021
6396 Clouds 23 1012 37 10000 3.6 200 14:45 13.09.2021
6397 Clouds 25 1012 31 10000 1.54 0 11:45 13.09.2021
6398 Clouds 25 1009 31 10000 0.45 200 10:50 13.09.2021
6399 Clear 20 1012 49 10000 1.03 0 08:41 13.09.2021
6400 Clear 14 1012 58 10000 1.03 100 00:38 13.09.2021
6401 Clear 18 1010 47 10000 0.85 6 22:51 12.09.2021
6402 Clear 17 1012 51 10000 2.06 250 22:22 12.09.2021
6403 Clear 20 1010 42 10000 0.87 14 20:57 12.09.2021
6404 Clear 19 1012 42 10000 0.51 0 20:19 12.09.2021
6405 Clear 21 1011 35 10000 0.51 0 19:36 12.09.2021
6406 Clear 21 1011 35 10000 0.51 0 19:18 12.09.2021
6407 Clear 26 1009 33 10000 2.84 282 17:50 12.09.2021
6408 Clear 26 1009 27 10000 2.88 280 15:56 12.09.2021
6409 Clouds 25 1012 30 10000 2.06 0 14:47 12.09.2021
6410 Clouds 23 1014 36 10000 2.06 0 12:42 12.09.2021
6411 Clear 20 1015 49 10000 1.54 0 10:30 12.09.2021
6412 Clear 17 1015 59 10000 0.51 0 08:39 12.09.2021
6413 Clear 14 1015 72 10000 1.03 250 07:26 12.09.2021
6414 Clear 16 1015 63 10000 2.57 230 00:47 12.09.2021
6415 Clear 16 1015 61 10000 1.54 250 22:39 11.09.2021
6416 Clear 17 1015 61 10000 1.03 0 21:39 11.09.2021
6417 Clouds 19 1015 55 10000 4.12 300 19:39 11.09.2021
6418 Clouds 22 1012 45 10000 4.68 357 17:56 11.09.2021
6419 Clouds 22 1013 40 10000 7.2 290 17:21 11.09.2021
6420 Clouds 24 1013 31 10000 2.57 300 15:35 11.09.2021
6421 Clouds 23 1014 39 10000 1.54 0 13:22 11.09.2021
6422 Clouds 21 1015 46 10000 4.12 260 11:41 11.09.2021
6423 Clear 19 1014 50 10000 2 315 09:50 11.09.2021
6424 Clouds 16 1016 67 10000 2.57 250 08:31 11.09.2021
6425 Clouds 16 1016 69 10000 1.54 210 07:34 11.09.2021
6426 Clear 15 1015 65 10000 3.6 250 02:29 11.09.2021
6427 Clear 17 1015 61 10000 4.12 270 22:28 10.09.2021
6428 Clouds 17 1012 64 10000 1.89 307 21:56 10.09.2021
6429 Clear 18 1015 57 10000 3.6 260 21:35 10.09.2021
6430 Clouds 22 1013 44 10000 5.14 350 18:47 10.09.2021
6431 Clouds 24 1012 38 10000 6.17 330 17:42 10.09.2021
6432 Clouds 28 1012 26 10000 5.14 270 15:38 10.09.2021
6433 Clouds 27 1013 27 10000 3.09 0 13:18 10.09.2021
6434 Clouds 23 1014 41 10000 4.12 260 10:32 10.09.2021
6435 Clouds 19 1012 36 10000 1.61 8 07:51 10.09.2021
6436 Clear 15 1014 44 10000 1.03 0 04:33 10.09.2021
6437 Clear 18 1015 30 10000 2.06 70 23:24 09.09.2021
6438 Clear 21 1014 26 10000 2.57 100 21:47 09.09.2021
6439 Clear 23 1014 26 10000 3.09 80 20:47 09.09.2021
6440 Clear 23 1014 26 10000 3.09 80 20:23 09.09.2021
6441 Clear 23 1014 26 10000 3.09 80 20:23 09.09.2021
6442 Clear 27 1013 22 10000 1.54 60 18:37 09.09.2021
6443 Clear 29 1014 16 10000 1.03 0 16:45 09.09.2021
6444 Clear 29 1014 16 10000 1.03 0 16:26 09.09.2021
6445 Clear 27 1016 17 10000 2.57 110 13:33 09.09.2021
6446 Clear 29 1013 26 10000 2.22 109 11:50 09.09.2021
6447 Clear 23 1018 31 10000 4.12 60 10:48 09.09.2021
6448 Clear 21 1018 37 10000 5.14 70 09:27 09.09.2021
6449 Clear 14 1016 35 10000 2.02 72 06:55 09.09.2021
6450 Clear 14 1016 36 10000 2.65 63 04:18 09.09.2021
6451 Clear 16 1017 31 10000 2.14 60 22:57 08.09.2021
6452 Clear 19 1018 18 10000 2.57 120 21:39 08.09.2021
6453 Clear 21 1018 17 10000 2.57 90 20:21 08.09.2021
6454 Clear 22 1018 17 10000 3.6 60 19:37 08.09.2021
6455 Clear 25 1017 16 10000 3.09 60 18:33 08.09.2021
6456 Clear 25 1015 19 10000 2.83 85 17:58 08.09.2021
6457 Clear 29 1014 18 10000 2.45 89 16:55 08.09.2021
6458 Clear 26 1019 16 10000 1.54 100 14:30 08.09.2021
6459 Clear 24 1020 17 10000 2.57 0 13:21 08.09.2021
6460 Clear 22 1020 21 10000 2.57 0 12:41 08.09.2021
6461 Clear 22 1020 21 10000 2.57 0 12:19 08.09.2021
6462 Clear 20 1022 29 10000 3.6 80 10:50 08.09.2021
6463 Clear 19 1022 29 10000 3.6 80 10:25 08.09.2021
6464 Clear 18 1022 35 10000 4.63 70 09:25 08.09.2021
6465 Clear 15 1022 46 10000 5.66 70 07:41 08.09.2021
6466 Clear 13 1022 48 10000 5.14 60 05:44 08.09.2021
6467 Clear 14 1019 58 10000 2.44 51 22:51 07.09.2021
6468 Clear 17 1021 43 10000 5.14 60 22:18 07.09.2021
6469 Clear 18 1021 39 10000 3.6 80 20:27 07.09.2021
6470 Clear 20 1020 30 10000 6.17 60 18:46 07.09.2021
6471 Clear 20 1020 30 10000 6.17 60 18:21 07.09.2021
6472 Clouds 24 1017 34 10000 5.03 67 16:56 07.09.2021
6473 Clear 22 1020 28 10000 3.09 50 15:43 07.09.2021
6474 Clear 23 1021 29 10000 3.6 0 14:44 07.09.2021
6475 Clear 20 1022 37 10000 3.6 70 12:45 07.09.2021
6476 Clear 20 1022 37 10000 3.6 70 12:45 07.09.2021
6477 Clear 20 1022 37 10000 3.6 70 12:45 07.09.2021
6478 Clear 19 1022 40 10000 4.63 90 11:51 07.09.2021
6479 Clear 18 1023 44 10000 5.14 90 10:43 07.09.2021
6480 Clear 15 1023 53 10000 5.14 60 08:39 07.09.2021
6481 Clear 13 1023 60 10000 5.14 60 07:44 07.09.2021
6482 Clear 12 1022 62 10000 4.12 70 05:46 07.09.2021
6483 Clear 14 1022 58 10000 5.14 70 02:38 07.09.2021
6484 Clouds 13 1019 64 10000 2.69 50 00:53 07.09.2021
6485 Clear 15 1021 56 10000 6.17 60 23:36 06.09.2021
6486 Clouds 15 1019 61 10000 2.96 54 22:57 06.09.2021
6487 Clear 16 1021 55 10000 6.69 60 22:39 06.09.2021
6488 Clear 17 1021 51 10000 5.66 50 21:31 06.09.2021
6489 Clear 20 1019 40 10000 5.14 80 19:32 06.09.2021
6490 Clouds 20 1016 47 10000 5.3 67 18:58 06.09.2021
6491 Clouds 21 1018 38 10000 6.17 60 18:24 06.09.2021
6492 Clouds 22 1019 39 10000 5.66 50 17:36 06.09.2021
6493 Clouds 25 1015 37 10000 6.07 64 15:58 06.09.2021
6494 Clouds 24 1018 30 10000 4.12 30 14:26 06.09.2021
6495 Clouds 23 1018 31 10000 4.12 80 12:48 06.09.2021
6496 Clouds 24 1016 39 10000 5.19 68 10:59 06.09.2021
6497 Clouds 24 1016 40 10000 5.15 66 09:59 06.09.2021
6498 Clear 16 1018 53 10000 5.14 70 07:34 06.09.2021
6499 Clear 17 1016 51 10000 4.63 60 00:22 06.09.2021
6500 Clear 18 1016 47 10000 5.14 60 23:19 05.09.2021
6501 Clear 19 1015 42 10000 4.63 70 22:30 05.09.2021
6502 Clear 19 1015 42 10000 4.63 70 22:30 05.09.2021
6503 Clear 20 1015 40 10000 5.66 50 21:50 05.09.2021
6504 Clear 20 1013 47 10000 5.85 59 20:55 05.09.2021
6505 Clouds 22 1011 39 10000 4.53 71 18:59 05.09.2021
6506 Clouds 26 1013 25 10000 3.09 90 17:36 05.09.2021
6507 Clouds 26 1014 25 10000 3.09 20 15:40 05.09.2021
6508 Clouds 26 1014 25 10000 2.57 0 14:37 05.09.2021
6509 Clouds 25 1015 30 10000 2.06 0 12:34 05.09.2021
6510 Clouds 22 1012 32 10000 1.84 106 10:59 05.09.2021
6511 Clouds 22 1016 40 10000 3.09 90 10:33 05.09.2021
6512 Clear 20 1016 44 10000 3.6 80 09:22 05.09.2021
6513 Clear 18 1016 50 10000 3.6 90 08:22 05.09.2021
6514 Clear 13 1015 61 10000 0 0 03:19 05.09.2021
6515 Clear 15 1015 54 10000 1.03 0 00:30 05.09.2021
6516 Clear 15 1015 52 10000 0 0 23:43 04.09.2021
6517 Clear 16 1015 51 10000 0.51 290 22:36 04.09.2021
6518 Clouds 16 1013 59 10000 1.27 65 21:58 04.09.2021
6519 Clear 17 1012 45 10000 0.93 358 19:53 04.09.2021
6520 Clear 21 1014 34 10000 1.03 0 19:27 04.09.2021
6521 Clouds 26 1015 24 10000 3.6 280 16:27 04.09.2021
6522 Clouds 24 1015 30 10000 1.54 60 13:36 04.09.2021
6523 Clouds 21 1016 40 10000 2.57 0 11:20 04.09.2021
6524 Clear 18 1017 50 10000 3.09 60 09:26 04.09.2021
6525 Clouds 12 1016 61 10000 1.32 72 06:55 04.09.2021
6526 Clear 13 1018 56 10000 1.03 0 00:28 04.09.2021
6527 Clear 14 1018 51 10000 0 0 23:32 03.09.2021
6528 Clear 16 1019 48 10000 1.03 0 22:40 03.09.2021
6529 Clear 16 1019 45 10000 4.12 40 21:36 03.09.2021
6530 Clear 18 1019 44 10000 3.6 350 20:49 03.09.2021
6531 Clear 17 1017 49 10000 4.51 43 19:56 03.09.2021
6532 Clear 19 1018 39 10000 5.66 10 19:23 03.09.2021
6533 Clear 22 1015 39 10000 4.04 62 17:56 03.09.2021
6534 Clear 22 1015 39 10000 4.04 62 17:56 03.09.2021
6535 Clouds 23 1017 28 10000 4.12 60 16:38 03.09.2021
6536 Clouds 22 1019 29 10000 4.12 20 14:59 03.09.2021
6537 Clouds 21 1020 36 10000 2.57 0 12:26 03.09.2021
6538 Clouds 20 1020 45 10000 3.09 0 10:32 03.09.2021
6539 Clouds 18 1020 47 10000 5.14 60 09:18 03.09.2021
6540 Clouds 18 1020 47 10000 5.14 60 09:18 03.09.2021
6541 Clear 15 1020 63 10000 2.06 230 07:47 03.09.2021
6542 Clear 11 1019 74 10000 2.06 240 05:30 03.09.2021
6543 Clear 16 1019 53 10000 4.12 30 23:25 02.09.2021
6544 Clear 17 1018 51 10000 5.14 70 21:41 02.09.2021
6545 Rain 17 1018 49 10000 5.14 360 20:18 02.09.2021
6546 Clouds 23 1016 39 10000 6.17 330 17:33 02.09.2021
6547 Clouds 24 1015 37 10000 6.17 320 16:19 02.09.2021
6548 Clear 23 1012 30 10000 6.65 325 13:59 02.09.2021
6549 Clear 25 1012 41 10000 6.22 317 12:56 02.09.2021
6550 Clouds 23 1016 38 10000 5.14 330 11:36 02.09.2021
6551 Clear 21 1016 44 10000 4.63 320 09:47 02.09.2021
6552 Clear 20 1015 48 10000 5.14 270 08:40 02.09.2021
6553 Clouds 18 1015 55 10000 2.57 260 07:20 02.09.2021
6554 Clouds 18 1012 64 10000 1.79 310 02:58 02.09.2021
6555 Clouds 19 1014 61 10000 3.09 20 02:33 02.09.2021
6556 Clouds 20 1014 60 10000 4.63 20 01:32 02.09.2021
6557 Clouds 20 1014 63 10000 1.54 40 23:40 01.09.2021
6558 Clouds 21 1013 60 10000 4.12 80 22:42 01.09.2021
6559 Clouds 21 1011 64 10000 2.47 345 21:40 01.09.2021
6560 Clear 22 1013 62 10000 4.63 60 20:45 01.09.2021
6561 Clouds 22 1009 60 10000 4.8 41 18:53 01.09.2021
6562 Clouds 24 1012 51 10000 6.17 30 17:41 01.09.2021
6563 Clouds 27 1011 47 10000 5.66 30 16:47 01.09.2021
6564 Clouds 28 1011 46 10000 9.77 340 15:47 01.09.2021
6565 Clouds 28 1012 41 10000 2.57 0 12:23 01.09.2021
6566 Clouds 27 1013 45 10000 2.57 70 11:44 01.09.2021
6567 Clouds 20 1011 55 10000 2.4 25 08:56 01.09.2021
6568 Clouds 22 1015 73 10000 3.09 130 07:52 01.09.2021
6569 Clouds 20 1014 74 10000 3.6 80 05:23 01.09.2021
6570 Clear 24 1013 59 10000 1.54 110 22:43 31.08.2021
6571 Clouds 24 1014 57 10000 1.54 130 21:33 31.08.2021
6572 Clouds 27 1013 45 10000 4.63 10 19:46 31.08.2021
6573 Clouds 28 1012 40 10000 6.17 270 18:30 31.08.2021
6574 Rain 31 1012 32 10000 3.09 300 17:38 31.08.2021
6575 Rain 31 1012 32 10000 3.09 300 17:38 31.08.2021
6576 Clouds 31 1012 31 10000 3.09 300 17:20 31.08.2021
6577 Clouds 33 1012 28 10000 3.09 260 16:24 31.08.2021
6578 Clouds 31 1014 29 10000 2.57 0 13:20 31.08.2021
6579 Clouds 29 1015 35 10000 2.57 0 11:28 31.08.2021
6580 Clear 28 1011 36 10000 0.95 141 10:54 31.08.2021
6581 Clouds 26 1015 43 10000 3.6 60 09:45 31.08.2021
6582 Clouds 25 1015 48 10000 3.6 60 08:39 31.08.2021
6583 Clouds 22 1015 60 10000 1.54 250 07:35 31.08.2021
6584 Clear 21 1014 62 10000 0.51 0 03:40 31.08.2021
6585 Clear 25 1013 50 10000 5.14 20 23:35 30.08.2021
6586 Clear 26 1012 47 10000 4.12 30 21:45 30.08.2021
6587 Rain 26 1012 47 10000 4.12 30 21:27 30.08.2021
6588 Rain 27 1011 43 10000 2.57 10 20:20 30.08.2021
6589 Clear 29 1010 37 10000 4.63 360 19:29 30.08.2021
6590 Clouds 33 1009 21 10000 4.63 270 18:34 30.08.2021
6591 Clouds 34 1009 18 10000 4.63 270 17:45 30.08.2021
6592 Clouds 35 1009 17 10000 3.09 250 16:22 30.08.2021
6593 Clouds 35 1009 16 10000 3.09 300 15:38 30.08.2021
6594 Clouds 34 1009 19 10000 3.09 0 13:43 30.08.2021
6595 Rain 32 1010 22 10000 3.09 270 12:24 30.08.2021
6596 Clear 26 1011 30 10000 3.09 280 09:30 30.08.2021
6597 Clear 25 1008 53 10000 2.06 220 22:28 29.08.2021
6598 Clear 26 1008 52 10000 3.09 250 21:32 29.08.2021
6599 Clear 27 1004 43 10000 2.21 245 19:59 29.08.2021
6600 Clear 30 1006 23 10000 2.57 280 19:19 29.08.2021
6601 Clear 36 1006 11 10000 2.57 320 17:47 29.08.2021
6602 Clear 36 1006 10 10000 1.54 140 15:47 29.08.2021
6603 Clear 36 1006 11 10000 2.06 140 14:18 29.08.2021
6604 Clear 35 1006 13 10000 3.6 270 13:33 29.08.2021
6605 Clear 34 1007 16 10000 2.57 190 12:31 29.08.2021
6606 Clear 32 1008 17 10000 2.57 310 11:45 29.08.2021
6607 Clear 34 1003 15 10000 3.48 163 10:52 29.08.2021
6608 Clear 31 1008 19 10000 1.54 270 10:32 29.08.2021
6609 Clear 29 1009 20 10000 1.03 0 09:50 29.08.2021
6610 Clear 18 1008 43 10000 0.51 0 06:41 29.08.2021
6611 Clear 24 1008 32 10000 0.51 0 00:20 29.08.2021
6612 Clear 27 1006 33 10000 3.38 79 20:55 28.08.2021
6613 Clear 31 1008 22 10000 2.06 100 19:53 28.08.2021
6614 Clear 34 1009 16 10000 2.57 70 18:27 28.08.2021
6615 Clear 37 1009 12 10000 2.06 0 17:48 28.08.2021
6616 Clear 36 1005 11 10000 3.99 100 16:58 28.08.2021
6617 Clear 37 1010 12 10000 5.66 60 15:28 28.08.2021
6618 Clear 36 1010 13 10000 4.12 90 14:19 28.08.2021
6619 Clear 36 1011 16 10000 2.06 0 13:43 28.08.2021
6620 Clear 35 1012 15 10000 2.57 320 12:41 28.08.2021
6621 Clear 35 1008 14 10000 4.64 115 11:51 28.08.2021
6622 Clear 31 1013 25 10000 1.54 0 10:29 28.08.2021
6623 Clear 26 1014 35 10000 1.03 0 08:36 28.08.2021
6624 Clear 17 1014 58 10000 0 0 05:22 28.08.2021
6625 Clear 22 1011 41 10000 1.12 48 21:59 27.08.2021
6626 Clear 24 1011 37 10000 0.21 23 20:55 27.08.2021
6627 Clear 26 1011 33 10000 1.25 287 19:59 27.08.2021
6628 Clear 31 1010 26 10000 2.72 288 18:39 27.08.2021
6629 Clear 32 1009 24 10000 5.18 280 18:20 27.08.2021
6630 Clear 35 1013 18 10000 5.14 300 16:47 27.08.2021
6631 Clouds 35 1013 16 10000 4.12 280 15:21 27.08.2021
6632 Clouds 34 1013 17 10000 5.14 280 14:36 27.08.2021
6633 Clear 33 1014 18 10000 2.06 0 12:28 27.08.2021
6634 Clear 32 1015 18 10000 1.03 0 11:23 27.08.2021
6635 Clear 29 1015 25 10000 1.54 210 10:41 27.08.2021
6636 Clear 27 1016 30 10000 1.54 0 09:19 27.08.2021
6637 Clear 25 1016 37 10000 0.51 0 08:38 27.08.2021
6638 Clear 16 1012 40 10000 1.78 56 05:51 27.08.2021
6639 Clear 20 1014 38 10000 1.03 0 00:49 27.08.2021
6640 Clear 20 1014 38 10000 1.03 0 00:28 27.08.2021
6641 Clear 22 1014 31 10000 0.51 0 22:28 26.08.2021
6642 Clear 24 1013 32 10000 1.03 0 21:49 26.08.2021
6643 Clear 26 1010 32 10000 2.2 11 19:53 26.08.2021
6644 Clear 31 1012 22 10000 4.63 270 18:36 26.08.2021
6645 Clouds 33 1012 20 10000 6.17 270 17:26 26.08.2021
6646 Clouds 33 1012 19 10000 3.6 250 16:30 26.08.2021
6647 Clouds 33 1013 20 10000 6.17 280 14:53 26.08.2021
6648 Clouds 32 1014 19 10000 6.17 280 13:27 26.08.2021
6649 Clouds 32 1014 23 10000 4.12 290 12:34 26.08.2021
6650 Clouds 30 1014 28 10000 3.09 280 11:45 26.08.2021
6651 Clear 26 1015 34 10000 1.03 330 09:25 26.08.2021
6652 Clear 24 1015 35 10000 2.57 100 08:19 26.08.2021
6653 Clear 21 1013 39 10000 1.03 0 23:45 25.08.2021
6654 Clear 23 1013 34 10000 1.54 140 22:44 25.08.2021
6655 Clear 23 1013 34 10000 1.54 140 22:25 25.08.2021
6656 Clear 24 1010 37 10000 0.5 295 20:57 25.08.2021
6657 Clear 24 1012 29 10000 0.51 0 20:30 25.08.2021
6658 Clear 24 1012 29 10000 0.51 0 20:30 25.08.2021
6659 Clear